<?xml version='1.0' encoding='UTF-8'?><gpx version="1.1" creator="JPX - https://github.com/jenetics/jpx" xmlns="http://www.topografix.com/GPX/1/1"><trk><trkseg><trkpt lat="36.88413610423634" lon="15.080250563272694"><ele>98.0</ele><time>2026-03-22T06:49:59.498Z</time></trkpt><trkpt lat="36.88496384903509" lon="15.078935177226315"><ele>98.0</ele><time>2026-03-22T06:50:05.495Z</time></trkpt><trkpt lat="36.88494969402723" lon="15.078759221159501"><ele>98.0</ele><time>2026-03-22T06:53:48.102Z</time></trkpt><trkpt lat="36.884890333166666" lon="15.078686940780004"><ele>98.0</ele><time>2026-03-22T06:53:49.102Z</time></trkpt><trkpt lat="36.8847558308295" lon="15.078744790836318"><ele>98.0</ele><time>2026-03-22T06:53:52.105Z</time></trkpt><trkpt lat="36.88490907526406" lon="15.078912517998361"><ele>98.0</ele><time>2026-03-22T06:53:57.105Z</time></trkpt><trkpt lat="36.88484014850738" lon="15.078899517138384"><ele>98.0</ele><time>2026-03-22T06:56:27Z</time></trkpt><trkpt lat="36.88478674743777" lon="15.078850138976126"><ele>98.0</ele><time>2026-03-22T06:56:33Z</time></trkpt><trkpt lat="36.88475143437767" lon="15.07877981954518"><ele>98.0</ele><time>2026-03-22T06:56:38Z</time></trkpt><trkpt lat="36.884707473965264" lon="15.078718902556089"><ele>98.0</ele><time>2026-03-22T06:56:43Z</time></trkpt><trkpt lat="36.8846289118722" lon="15.078698381785745"><ele>98.0</ele><time>2026-03-22T06:56:49Z</time></trkpt><trkpt lat="36.88462388415218" lon="15.078590109296126"><ele>98.0</ele><time>2026-03-22T06:56:53Z</time></trkpt><trkpt lat="36.884554892828966" lon="15.078588218144935"><ele>98.0</ele><time>2026-03-22T06:56:56Z</time></trkpt><trkpt lat="36.884489341334096" lon="15.078563018608934"><ele>98.0</ele><time>2026-03-22T06:56:59Z</time></trkpt><trkpt lat="36.8844452348512" lon="15.078494532033696"><ele>98.0</ele><time>2026-03-22T06:57:03Z</time></trkpt><trkpt lat="36.884383314337796" lon="15.078455230205206"><ele>98.0</ele><time>2026-03-22T06:57:08Z</time></trkpt><trkpt lat="36.884326854972684" lon="15.078392640464209"><ele>98.0</ele><time>2026-03-22T06:57:13Z</time></trkpt><trkpt lat="36.884285198721244" lon="15.078329401125023"><ele>98.0</ele><time>2026-03-22T06:57:16Z</time></trkpt><trkpt lat="36.88422392137928" lon="15.078269521292267"><ele>98.0</ele><time>2026-03-22T06:57:19Z</time></trkpt><trkpt lat="36.88416650304175" lon="15.078224535026914"><ele>97.66666666666666</ele><time>2026-03-22T06:57:22Z</time></trkpt><trkpt lat="36.88416846677331" lon="15.078126748463358"><ele>97.33333333333333</ele><time>2026-03-22T06:57:24Z</time></trkpt><trkpt lat="36.884227365612816" lon="15.078025609332691"><ele>97.0</ele><time>2026-03-22T06:57:26Z</time></trkpt><trkpt lat="36.88422407773106" lon="15.07794265147464"><ele>96.66666666666666</ele><time>2026-03-22T06:57:29Z</time></trkpt><trkpt lat="36.88423720295016" lon="15.077854012710569"><ele>96.33333333333333</ele><time>2026-03-22T06:57:31Z</time></trkpt><trkpt lat="36.88425662582371" lon="15.077746540479357"><ele>96.0</ele><time>2026-03-22T06:57:33Z</time></trkpt><trkpt lat="36.88428103592082" lon="15.077640566116221"><ele>96.0</ele><time>2026-03-22T06:57:35Z</time></trkpt><trkpt lat="36.88429314198201" lon="15.07751783666352"><ele>96.0</ele><time>2026-03-22T06:57:37Z</time></trkpt><trkpt lat="36.88431691229806" lon="15.077426439389257"><ele>96.0</ele><time>2026-03-22T06:57:38Z</time></trkpt><trkpt lat="36.88431118230332" lon="15.077321847943017"><ele>96.0</ele><time>2026-03-22T06:57:40Z</time></trkpt><trkpt lat="36.884403237226344" lon="15.077255862995637"><ele>96.0</ele><time>2026-03-22T06:57:42Z</time></trkpt><trkpt lat="36.88450863942647" lon="15.077212738414113"><ele>95.5</ele><time>2026-03-22T06:57:44Z</time></trkpt><trkpt lat="36.88457253163906" lon="15.077189259698262"><ele>95.0</ele><time>2026-03-22T06:57:45Z</time></trkpt><trkpt lat="36.8846866446213" lon="15.077134004957308"><ele>94.5</ele><time>2026-03-22T06:57:47Z</time></trkpt><trkpt lat="36.884741519312485" lon="15.077091333480448"><ele>94.0</ele><time>2026-03-22T06:57:48Z</time></trkpt><trkpt lat="36.88480937022" lon="15.077056142497508"><ele>93.5</ele><time>2026-03-22T06:57:49Z</time></trkpt><trkpt lat="36.8848744083844" lon="15.07702954234493"><ele>93.0</ele><time>2026-03-22T06:57:50Z</time></trkpt><trkpt lat="36.88493916904051" lon="15.07700780554099"><ele>93.0</ele><time>2026-03-22T06:57:51Z</time></trkpt><trkpt lat="36.885008848374596" lon="15.076974037519786"><ele>93.0</ele><time>2026-03-22T06:57:52Z</time></trkpt><trkpt lat="36.88508177801558" lon="15.076938969773009"><ele>93.0</ele><time>2026-03-22T06:57:53Z</time></trkpt><trkpt lat="36.88515156729598" lon="15.076899620070371"><ele>93.0</ele><time>2026-03-22T06:57:54Z</time></trkpt><trkpt lat="36.88522551306023" lon="15.076870688799435"><ele>93.0</ele><time>2026-03-22T06:57:55Z</time></trkpt><trkpt lat="36.88530087111345" lon="15.076842494028927"><ele>93.0</ele><time>2026-03-22T06:57:56Z</time></trkpt><trkpt lat="36.88537479911889" lon="15.076799285824492"><ele>93.60000000000001</ele><time>2026-03-22T06:57:57Z</time></trkpt><trkpt lat="36.88542677252826" lon="15.076751588769955"><ele>94.2</ele><time>2026-03-22T06:57:58Z</time></trkpt><trkpt lat="36.88551216110245" lon="15.076709359665701"><ele>94.8</ele><time>2026-03-22T06:57:59Z</time></trkpt><trkpt lat="36.88562959413567" lon="15.076678493737306"><ele>95.4</ele><time>2026-03-22T06:58:00Z</time></trkpt><trkpt lat="36.885717635598745" lon="15.076663075157164"><ele>96.0</ele><time>2026-03-22T06:58:01Z</time></trkpt><trkpt lat="36.8858133972356" lon="15.076629939731054"><ele>96.0</ele><time>2026-03-22T06:58:02Z</time></trkpt><trkpt lat="36.88589192049331" lon="15.07658926460552"><ele>96.0</ele><time>2026-03-22T06:58:03Z</time></trkpt><trkpt lat="36.88597199108073" lon="15.076544585384877"><ele>96.0</ele><time>2026-03-22T06:58:04Z</time></trkpt><trkpt lat="36.88606318410033" lon="15.076502334584882"><ele>96.0</ele><time>2026-03-22T06:58:05Z</time></trkpt><trkpt lat="36.88615502116962" lon="15.076463975390604"><ele>96.0</ele><time>2026-03-22T06:58:06Z</time></trkpt><trkpt lat="36.886256437128495" lon="15.076442877214083"><ele>97.4</ele><time>2026-03-22T06:58:07Z</time></trkpt><trkpt lat="36.88636309446308" lon="15.076410482767649"><ele>98.8</ele><time>2026-03-22T06:58:08Z</time></trkpt><trkpt lat="36.88645938395221" lon="15.07637780323618"><ele>100.2</ele><time>2026-03-22T06:58:09Z</time></trkpt><trkpt lat="36.88655519293619" lon="15.076343657346431"><ele>101.60000000000001</ele><time>2026-03-22T06:58:10Z</time></trkpt><trkpt lat="36.886647054062664" lon="15.076304183486842"><ele>103.0</ele><time>2026-03-22T06:58:11Z</time></trkpt><trkpt lat="36.88674483308746" lon="15.076266179911784"><ele>103.2</ele><time>2026-03-22T06:58:12Z</time></trkpt><trkpt lat="36.886844322204325" lon="15.076233421896257"><ele>103.4</ele><time>2026-03-22T06:58:13Z</time></trkpt><trkpt lat="36.886954740481976" lon="15.076209104721544"><ele>103.60000000000001</ele><time>2026-03-22T06:58:14Z</time></trkpt><trkpt lat="36.88705091220295" lon="15.076194563697017"><ele>103.80000000000001</ele><time>2026-03-22T06:58:15Z</time></trkpt><trkpt lat="36.887155856344776" lon="15.076174611445314"><ele>104.0</ele><time>2026-03-22T06:58:16Z</time></trkpt><trkpt lat="36.887268107267715" lon="15.076155292707224"><ele>104.0</ele><time>2026-03-22T06:58:17Z</time></trkpt><trkpt lat="36.88737352854013" lon="15.076124833458682"><ele>104.0</ele><time>2026-03-22T06:58:18Z</time></trkpt><trkpt lat="36.88748143427069" lon="15.076107697752176"><ele>104.0</ele><time>2026-03-22T06:58:19Z</time></trkpt><trkpt lat="36.887589738409154" lon="15.076072427773624"><ele>104.0</ele><time>2026-03-22T06:58:20Z</time></trkpt><trkpt lat="36.887695088779225" lon="15.076050785316442"><ele>104.0</ele><time>2026-03-22T06:58:21Z</time></trkpt><trkpt lat="36.88780257323703" lon="15.076035524283895"><ele>104.4</ele><time>2026-03-22T06:58:22Z</time></trkpt><trkpt lat="36.88792240022112" lon="15.076011662538846"><ele>104.80000000000001</ele><time>2026-03-22T06:58:23Z</time></trkpt><trkpt lat="36.8880235982841" lon="15.076003962839097"><ele>105.19999999999999</ele><time>2026-03-22T06:58:24Z</time></trkpt><trkpt lat="36.8881251033303" lon="15.076001807049302"><ele>105.6</ele><time>2026-03-22T06:58:25Z</time></trkpt><trkpt lat="36.88823472788173" lon="15.076039565347516"><ele>106.0</ele><time>2026-03-22T06:58:26Z</time></trkpt><trkpt lat="36.88833559841066" lon="15.07608986037136"><ele>106.0</ele><time>2026-03-22T06:58:27Z</time></trkpt><trkpt lat="36.888425060407435" lon="15.076132161400862"><ele>106.0</ele><time>2026-03-22T06:58:28Z</time></trkpt><trkpt lat="36.88852109556523" lon="15.076170504732533"><ele>106.0</ele><time>2026-03-22T06:58:29Z</time></trkpt><trkpt lat="36.888621857762395" lon="15.076217005605002"><ele>106.0</ele><time>2026-03-22T06:58:30Z</time></trkpt><trkpt lat="36.88874001422186" lon="15.076233561410756"><ele>106.0</ele><time>2026-03-22T06:58:31Z</time></trkpt><trkpt lat="36.88883162096385" lon="15.07631556091162"><ele>106.0</ele><time>2026-03-22T06:58:32Z</time></trkpt><trkpt lat="36.88893637350416" lon="15.076351740794793"><ele>106.0</ele><time>2026-03-22T06:58:33Z</time></trkpt><trkpt lat="36.88904114978493" lon="15.076382571357218"><ele>106.0</ele><time>2026-03-22T06:58:34Z</time></trkpt><trkpt lat="36.88915702301027" lon="15.07640322055054"><ele>106.0</ele><time>2026-03-22T06:58:35Z</time></trkpt><trkpt lat="36.8892636400235" lon="15.076404622279641"><ele>106.0</ele><time>2026-03-22T06:58:36Z</time></trkpt><trkpt lat="36.889370699958256" lon="15.076409335049247"><ele>107.0</ele><time>2026-03-22T06:58:37Z</time></trkpt><trkpt lat="36.88948273310538" lon="15.076386170027623"><ele>108.0</ele><time>2026-03-22T06:58:38Z</time></trkpt><trkpt lat="36.88959275823806" lon="15.07635212995318"><ele>109.0</ele><time>2026-03-22T06:58:39Z</time></trkpt><trkpt lat="36.8896989616905" lon="15.076302794221945"><ele>110.0</ele><time>2026-03-22T06:58:40Z</time></trkpt><trkpt lat="36.88981109901752" lon="15.07625269848924"><ele>110.0</ele><time>2026-03-22T06:58:41Z</time></trkpt><trkpt lat="36.889914623118464" lon="15.07621964108312"><ele>110.0</ele><time>2026-03-22T06:58:42Z</time></trkpt><trkpt lat="36.8900239179789" lon="15.076203916563513"><ele>110.0</ele><time>2026-03-22T06:58:43Z</time></trkpt><trkpt lat="36.89013314894089" lon="15.076175526333675"><ele>110.0</ele><time>2026-03-22T06:58:44Z</time></trkpt><trkpt lat="36.89023963769302" lon="15.076148593477788"><ele>110.0</ele><time>2026-03-22T06:58:45Z</time></trkpt><trkpt lat="36.890354276797225" lon="15.076120697032469"><ele>110.8</ele><time>2026-03-22T06:58:46Z</time></trkpt><trkpt lat="36.8904668511627" lon="15.07609488941443"><ele>111.6</ele><time>2026-03-22T06:58:47Z</time></trkpt><trkpt lat="36.89056963697991" lon="15.076072436692357"><ele>112.4</ele><time>2026-03-22T06:58:48Z</time></trkpt><trkpt lat="36.89068210590883" lon="15.076042038016745"><ele>113.2</ele><time>2026-03-22T06:58:49Z</time></trkpt><trkpt lat="36.89075737082549" lon="15.076020176386416"><ele>114.0</ele><time>2026-03-22T06:58:50Z</time></trkpt><trkpt lat="36.89088070472355" lon="15.075987289783452"><ele>114.5</ele><time>2026-03-22T06:58:51Z</time></trkpt><trkpt lat="36.89098763497432" lon="15.075952286301789"><ele>115.0</ele><time>2026-03-22T06:58:52Z</time></trkpt><trkpt lat="36.89107622184561" lon="15.075917115251176"><ele>115.5</ele><time>2026-03-22T06:58:53Z</time></trkpt><trkpt lat="36.89114101136805" lon="15.075877341143645"><ele>116.0</ele><time>2026-03-22T06:58:54Z</time></trkpt><trkpt lat="36.89119567261163" lon="15.075808791379965"><ele>116.5</ele><time>2026-03-22T06:58:55Z</time></trkpt><trkpt lat="36.89127602215188" lon="15.075821953027711"><ele>117.0</ele><time>2026-03-22T06:58:58Z</time></trkpt><trkpt lat="36.89137950399922" lon="15.07585505503867"><ele>117.0</ele><time>2026-03-22T06:59:00Z</time></trkpt><trkpt lat="36.89144724329884" lon="15.075894333658228"><ele>117.0</ele><time>2026-03-22T06:59:01Z</time></trkpt><trkpt lat="36.89155014686306" lon="15.075853527015346"><ele>117.0</ele><time>2026-03-22T06:59:03Z</time></trkpt><trkpt lat="36.89161001030176" lon="15.07582462412103"><ele>117.0</ele><time>2026-03-22T06:59:04Z</time></trkpt><trkpt lat="36.89167986113465" lon="15.075824014483429"><ele>117.0</ele><time>2026-03-22T06:59:05Z</time></trkpt><trkpt lat="36.89175482071795" lon="15.07584818259784"><ele>117.0</ele><time>2026-03-22T06:59:06Z</time></trkpt><trkpt lat="36.891831906219124" lon="15.075892376046939"><ele>117.8</ele><time>2026-03-22T06:59:07Z</time></trkpt><trkpt lat="36.891906972867524" lon="15.075958318748828"><ele>118.6</ele><time>2026-03-22T06:59:08Z</time></trkpt><trkpt lat="36.891986690421064" lon="15.076048620889853"><ele>119.39999999999999</ele><time>2026-03-22T06:59:09Z</time></trkpt><trkpt lat="36.89205830316903" lon="15.076156313762443"><ele>120.19999999999999</ele><time>2026-03-22T06:59:10Z</time></trkpt><trkpt lat="36.892134379579126" lon="15.07627672103471"><ele>121.0</ele><time>2026-03-22T06:59:11Z</time></trkpt><trkpt lat="36.89220570881198" lon="15.076379392208661"><ele>121.0</ele><time>2026-03-22T06:59:12Z</time></trkpt><trkpt lat="36.89228989545178" lon="15.07644888435519"><ele>121.0</ele><time>2026-03-22T06:59:13Z</time></trkpt><trkpt lat="36.8923907739439" lon="15.076478946629974"><ele>121.0</ele><time>2026-03-22T06:59:14Z</time></trkpt><trkpt lat="36.89249292193206" lon="15.076486400296425"><ele>121.0</ele><time>2026-03-22T06:59:15Z</time></trkpt><trkpt lat="36.89259546667743" lon="15.076495555405382"><ele>121.0</ele><time>2026-03-22T06:59:16Z</time></trkpt><trkpt lat="36.89269627300713" lon="15.07650440313006"><ele>121.8</ele><time>2026-03-22T06:59:17Z</time></trkpt><trkpt lat="36.89279643222123" lon="15.076525632015349"><ele>122.6</ele><time>2026-03-22T06:59:18Z</time></trkpt><trkpt lat="36.89289751209988" lon="15.076545194703026"><ele>123.4</ele><time>2026-03-22T06:59:19Z</time></trkpt><trkpt lat="36.892990202596806" lon="15.076560171797968"><ele>124.2</ele><time>2026-03-22T06:59:20Z</time></trkpt><trkpt lat="36.893077316879186" lon="15.076606507792363"><ele>125.0</ele><time>2026-03-22T06:59:21Z</time></trkpt><trkpt lat="36.89316502234741" lon="15.076621572493467"><ele>121.83333333333333</ele><time>2026-03-22T06:59:22Z</time></trkpt><trkpt lat="36.89324010309636" lon="15.076664495527202"><ele>118.66666666666666</ele><time>2026-03-22T06:59:23Z</time></trkpt><trkpt lat="36.89330542578978" lon="15.076704335226706"><ele>115.5</ele><time>2026-03-22T06:59:24Z</time></trkpt><trkpt lat="36.89336875287718" lon="15.07673822270726"><ele>112.33333333333334</ele><time>2026-03-22T06:59:25Z</time></trkpt><trkpt lat="36.89344573403878" lon="15.076810299909184"><ele>109.16666666666667</ele><time>2026-03-22T06:59:27Z</time></trkpt><trkpt lat="36.89347956953789" lon="15.076885122720464"><ele>106.0</ele><time>2026-03-22T06:59:29Z</time></trkpt><trkpt lat="36.8936023396134" lon="15.076915619242047"><ele>106.0</ele><time>2026-03-22T07:15:22Z</time></trkpt><trkpt lat="36.893668302395085" lon="15.077008532954027"><ele>106.0</ele><time>2026-03-22T07:15:24Z</time></trkpt><trkpt lat="36.893750608679106" lon="15.077101621029172"><ele>106.0</ele><time>2026-03-22T07:15:26Z</time></trkpt><trkpt lat="36.89385041939454" lon="15.07721297336637"><ele>106.0</ele><time>2026-03-22T07:15:28Z</time></trkpt><trkpt lat="36.89390876031537" lon="15.077261827355809"><ele>106.0</ele><time>2026-03-22T07:15:29Z</time></trkpt><trkpt lat="36.893978636327674" lon="15.077296387687255"><ele>106.0</ele><time>2026-03-22T07:15:30Z</time></trkpt><trkpt lat="36.894054964334266" lon="15.077316117323535"><ele>106.0</ele><time>2026-03-22T07:15:31Z</time></trkpt><trkpt lat="36.89414275777618" lon="15.077335832632258"><ele>106.0</ele><time>2026-03-22T07:15:32Z</time></trkpt><trkpt lat="36.894228651418075" lon="15.077344640027551"><ele>106.0</ele><time>2026-03-22T07:15:33Z</time></trkpt><trkpt lat="36.89434721563574" lon="15.077331773042387"><ele>106.0</ele><time>2026-03-22T07:15:34Z</time></trkpt><trkpt lat="36.89446470373163" lon="15.077337134088657"><ele>108.5</ele><time>2026-03-22T07:15:35Z</time></trkpt><trkpt lat="36.8945721519454" lon="15.077362850448235"><ele>111.0</ele><time>2026-03-22T07:15:36Z</time></trkpt><trkpt lat="36.894671518629536" lon="15.077376650904608"><ele>113.5</ele><time>2026-03-22T07:15:37Z</time></trkpt><trkpt lat="36.8947259160305" lon="15.077524915885531"><ele>116.0</ele><time>2026-03-22T07:15:38Z</time></trkpt><trkpt lat="36.89479831655209" lon="15.07763197376795"><ele>112.5</ele><time>2026-03-22T07:15:39Z</time></trkpt><trkpt lat="36.894885021195606" lon="15.077743292345499"><ele>109.0</ele><time>2026-03-22T07:15:40Z</time></trkpt><trkpt lat="36.89498283675939" lon="15.077869580583219"><ele>105.5</ele><time>2026-03-22T07:15:41Z</time></trkpt><trkpt lat="36.89509756661321" lon="15.077999363545818"><ele>102.0</ele><time>2026-03-22T07:15:42Z</time></trkpt><trkpt lat="36.895218733060425" lon="15.078127059660764"><ele>102.0</ele><time>2026-03-22T07:15:43Z</time></trkpt><trkpt lat="36.8953353099434" lon="15.078257190000087"><ele>102.0</ele><time>2026-03-22T07:15:44Z</time></trkpt><trkpt lat="36.895449685995686" lon="15.078390611416214"><ele>102.0</ele><time>2026-03-22T07:15:45Z</time></trkpt><trkpt lat="36.89556031978495" lon="15.078531074815668"><ele>98.33333333333333</ele><time>2026-03-22T07:15:46Z</time></trkpt><trkpt lat="36.89568308643692" lon="15.078675616639332"><ele>94.66666666666666</ele><time>2026-03-22T07:15:47Z</time></trkpt><trkpt lat="36.89581238967198" lon="15.078817302738038"><ele>91.0</ele><time>2026-03-22T07:15:48Z</time></trkpt><trkpt lat="36.895955678541334" lon="15.078928854541681"><ele>91.0</ele><time>2026-03-22T07:15:49Z</time></trkpt><trkpt lat="36.89610951650581" lon="15.079022686429768"><ele>91.0</ele><time>2026-03-22T07:15:50Z</time></trkpt><trkpt lat="36.89626311356644" lon="15.079081172180475"><ele>91.0</ele><time>2026-03-22T07:15:51Z</time></trkpt><trkpt lat="36.89641577954238" lon="15.079157840656375"><ele>91.33333333333333</ele><time>2026-03-22T07:15:52Z</time></trkpt><trkpt lat="36.89656355886223" lon="15.079232204012149"><ele>91.66666666666667</ele><time>2026-03-22T07:15:53Z</time></trkpt><trkpt lat="36.89670189546383" lon="15.079336063993855"><ele>92.0</ele><time>2026-03-22T07:15:54Z</time></trkpt><trkpt lat="36.896835999929834" lon="15.079437806218074"><ele>92.0</ele><time>2026-03-22T07:15:55Z</time></trkpt><trkpt lat="36.89693539722176" lon="15.079556194962558"><ele>92.0</ele><time>2026-03-22T07:15:56Z</time></trkpt><trkpt lat="36.896984630952204" lon="15.079708692387847"><ele>92.0</ele><time>2026-03-22T07:15:57Z</time></trkpt><trkpt lat="36.89701732545832" lon="15.079854444825774"><ele>92.0</ele><time>2026-03-22T07:15:58Z</time></trkpt><trkpt lat="36.89703897594419" lon="15.079994976921503"><ele>93.19999999999999</ele><time>2026-03-22T07:15:59Z</time></trkpt><trkpt lat="36.89704676144842" lon="15.08012181157077"><ele>94.4</ele><time>2026-03-22T07:16:00Z</time></trkpt><trkpt lat="36.89702978704368" lon="15.080241938931925"><ele>95.6</ele><time>2026-03-22T07:16:01Z</time></trkpt><trkpt lat="36.89699565495127" lon="15.080368916199921"><ele>96.80000000000001</ele><time>2026-03-22T07:16:02Z</time></trkpt><trkpt lat="36.89696204156174" lon="15.08048523333986"><ele>98.0</ele><time>2026-03-22T07:16:03Z</time></trkpt><trkpt lat="36.89692492261338" lon="15.080596466629453"><ele>98.0</ele><time>2026-03-22T07:16:04Z</time></trkpt><trkpt lat="36.896869129332686" lon="15.080683958336497"><ele>98.0</ele><time>2026-03-22T07:16:05Z</time></trkpt><trkpt lat="36.896824000125804" lon="15.080750949809033"><ele>98.0</ele><time>2026-03-22T07:16:06Z</time></trkpt><trkpt lat="36.89680075498088" lon="15.08087930022021"><ele>98.0</ele><time>2026-03-22T07:16:08Z</time></trkpt><trkpt lat="36.89689157666975" lon="15.080936245207273"><ele>98.0</ele><time>2026-03-22T07:16:09Z</time></trkpt><trkpt lat="36.89697520233636" lon="15.080961520345998"><ele>99.75</ele><time>2026-03-22T07:16:10Z</time></trkpt><trkpt lat="36.89706156378621" lon="15.080991871756614"><ele>101.5</ele><time>2026-03-22T07:16:11Z</time></trkpt><trkpt lat="36.89714858162113" lon="15.08109466574552"><ele>103.25</ele><time>2026-03-22T07:16:12Z</time></trkpt><trkpt lat="36.897233130096694" lon="15.081187798074685"><ele>105.0</ele><time>2026-03-22T07:16:13Z</time></trkpt><trkpt lat="36.89734663009846" lon="15.081292595385888"><ele>105.0</ele><time>2026-03-22T07:16:14Z</time></trkpt><trkpt lat="36.897463098987465" lon="15.081424500412899"><ele>105.0</ele><time>2026-03-22T07:16:15Z</time></trkpt><trkpt lat="36.897606541994264" lon="15.08153440010952"><ele>105.0</ele><time>2026-03-22T07:16:16Z</time></trkpt><trkpt lat="36.897753999363076" lon="15.081613105496178"><ele>108.0</ele><time>2026-03-22T07:16:17Z</time></trkpt><trkpt lat="36.89791452996993" lon="15.081678286386271"><ele>111.0</ele><time>2026-03-22T07:16:18Z</time></trkpt><trkpt lat="36.89806987994205" lon="15.081727977614634"><ele>114.0</ele><time>2026-03-22T07:16:19Z</time></trkpt><trkpt lat="36.8982144501342" lon="15.081807497095385"><ele>114.0</ele><time>2026-03-22T07:16:20Z</time></trkpt><trkpt lat="36.89835671437421" lon="15.081893067683566"><ele>114.0</ele><time>2026-03-22T07:16:21Z</time></trkpt><trkpt lat="36.898472358491844" lon="15.082013699131982"><ele>114.0</ele><time>2026-03-22T07:16:22Z</time></trkpt><trkpt lat="36.898550672585124" lon="15.082171929087073"><ele>113.33333333333334</ele><time>2026-03-22T07:16:23Z</time></trkpt><trkpt lat="36.89863696943497" lon="15.082333127861498"><ele>112.66666666666667</ele><time>2026-03-22T07:16:24Z</time></trkpt><trkpt lat="36.89872891641181" lon="15.082506471232985"><ele>112.0</ele><time>2026-03-22T07:16:25Z</time></trkpt><trkpt lat="36.89882769367111" lon="15.082671977482974"><ele>114.0</ele><time>2026-03-22T07:16:26Z</time></trkpt><trkpt lat="36.89889860708707" lon="15.082876187683459"><ele>116.0</ele><time>2026-03-22T07:16:27Z</time></trkpt><trkpt lat="36.89899587911204" lon="15.083063126049948"><ele>118.0</ele><time>2026-03-22T07:16:28Z</time></trkpt><trkpt lat="36.899077025405425" lon="15.083264719240782"><ele>122.0</ele><time>2026-03-22T07:16:29Z</time></trkpt><trkpt lat="36.89913139792404" lon="15.083468665712392"><ele>126.0</ele><time>2026-03-22T07:16:30Z</time></trkpt><trkpt lat="36.89915609597128" lon="15.083675731870697"><ele>130.0</ele><time>2026-03-22T07:16:31Z</time></trkpt><trkpt lat="36.89920219183198" lon="15.083874169722893"><ele>131.66666666666669</ele><time>2026-03-22T07:16:32Z</time></trkpt><trkpt lat="36.89928692288394" lon="15.084047428995827"><ele>133.33333333333334</ele><time>2026-03-22T07:16:33Z</time></trkpt><trkpt lat="36.89941673123167" lon="15.084203715346499"><ele>135.0</ele><time>2026-03-22T07:16:34Z</time></trkpt><trkpt lat="36.899547042506406" lon="15.084342797233333"><ele>136.0</ele><time>2026-03-22T07:16:35Z</time></trkpt><trkpt lat="36.899686431439875" lon="15.084447918980489"><ele>137.0</ele><time>2026-03-22T07:16:36Z</time></trkpt><trkpt lat="36.89983089796297" lon="15.084540410080638"><ele>138.0</ele><time>2026-03-22T07:16:37Z</time></trkpt><trkpt lat="36.89996101557967" lon="15.084659152269294"><ele>138.0</ele><time>2026-03-22T07:16:38Z</time></trkpt><trkpt lat="36.90004971451633" lon="15.084832636805801"><ele>138.0</ele><time>2026-03-22T07:16:39Z</time></trkpt><trkpt lat="36.900165457609916" lon="15.084966150349736"><ele>138.0</ele><time>2026-03-22T07:16:40Z</time></trkpt><trkpt lat="36.90025995495547" lon="15.085103968969612"><ele>139.0</ele><time>2026-03-22T07:16:41Z</time></trkpt><trkpt lat="36.90034753185132" lon="15.085238389433457"><ele>140.0</ele><time>2026-03-22T07:16:42Z</time></trkpt><trkpt lat="36.90043661534311" lon="15.085355520356822"><ele>141.0</ele><time>2026-03-22T07:16:43Z</time></trkpt><trkpt lat="36.90053285007183" lon="15.085457533831075"><ele>142.0</ele><time>2026-03-22T07:16:44Z</time></trkpt><trkpt lat="36.90063018801284" lon="15.085560582007803"><ele>142.0</ele><time>2026-03-22T07:16:45Z</time></trkpt><trkpt lat="36.900718803882036" lon="15.085640285152266"><ele>142.0</ele><time>2026-03-22T07:16:46Z</time></trkpt><trkpt lat="36.90079985128589" lon="15.085743126334968"><ele>142.0</ele><time>2026-03-22T07:16:47Z</time></trkpt><trkpt lat="36.90092049103471" lon="15.08585941033462"><ele>142.0</ele><time>2026-03-22T07:16:48Z</time></trkpt><trkpt lat="36.90103478500265" lon="15.085958098897935"><ele>139.5</ele><time>2026-03-22T07:16:49Z</time></trkpt><trkpt lat="36.90115548187769" lon="15.08601901886863"><ele>137.0</ele><time>2026-03-22T07:16:50Z</time></trkpt><trkpt lat="36.90128224032805" lon="15.086063115294008"><ele>134.5</ele><time>2026-03-22T07:16:51Z</time></trkpt><trkpt lat="36.90140608708212" lon="15.086100167426626"><ele>132.0</ele><time>2026-03-22T07:16:52Z</time></trkpt><trkpt lat="36.90155981086712" lon="15.086151125634034"><ele>132.0</ele><time>2026-03-22T07:16:53Z</time></trkpt><trkpt lat="36.90172516615335" lon="15.086206018275567"><ele>132.0</ele><time>2026-03-22T07:16:54Z</time></trkpt><trkpt lat="36.901892696928705" lon="15.086298258431292"><ele>132.0</ele><time>2026-03-22T07:16:55Z</time></trkpt><trkpt lat="36.90207346258484" lon="15.086408122262895"><ele>132.0</ele><time>2026-03-22T07:16:56Z</time></trkpt><trkpt lat="36.902243103865594" lon="15.086520225290615"><ele>132.0</ele><time>2026-03-22T07:16:57Z</time></trkpt><trkpt lat="36.90243374236866" lon="15.086614418276795"><ele>132.0</ele><time>2026-03-22T07:16:58Z</time></trkpt><trkpt lat="36.90262748938572" lon="15.08670566817685"><ele>129.66666666666666</ele><time>2026-03-22T07:16:59Z</time></trkpt><trkpt lat="36.90283936045427" lon="15.086796938654526"><ele>127.33333333333333</ele><time>2026-03-22T07:17:00Z</time></trkpt><trkpt lat="36.90305115829992" lon="15.086873600931666"><ele>125.0</ele><time>2026-03-22T07:17:01Z</time></trkpt><trkpt lat="36.90326387145795" lon="15.086932202608251"><ele>126.66666666666666</ele><time>2026-03-22T07:17:02Z</time></trkpt><trkpt lat="36.90346959897446" lon="15.086973537325457"><ele>128.33333333333334</ele><time>2026-03-22T07:17:03Z</time></trkpt><trkpt lat="36.90365875612945" lon="15.087011206255214"><ele>130.0</ele><time>2026-03-22T07:17:04Z</time></trkpt><trkpt lat="36.90382499138228" lon="15.087099318601819"><ele>130.0</ele><time>2026-03-22T07:17:05Z</time></trkpt><trkpt lat="36.90398887286919" lon="15.087211362694836"><ele>130.0</ele><time>2026-03-22T07:17:06Z</time></trkpt><trkpt lat="36.90414536664528" lon="15.087327083749752"><ele>130.0</ele><time>2026-03-22T07:17:07Z</time></trkpt><trkpt lat="36.90428773596981" lon="15.087433842396642"><ele>130.33333333333334</ele><time>2026-03-22T07:17:08Z</time></trkpt><trkpt lat="36.90442389947692" lon="15.087543354651352"><ele>130.66666666666666</ele><time>2026-03-22T07:17:09Z</time></trkpt><trkpt lat="36.904575407620726" lon="15.087659079254902"><ele>131.0</ele><time>2026-03-22T07:17:10Z</time></trkpt><trkpt lat="36.90471224995551" lon="15.087773570419838"><ele>131.0</ele><time>2026-03-22T07:17:11Z</time></trkpt><trkpt lat="36.90485271833836" lon="15.087880995700598"><ele>131.0</ele><time>2026-03-22T07:17:12Z</time></trkpt><trkpt lat="36.904999991143335" lon="15.087994374954727"><ele>131.0</ele><time>2026-03-22T07:17:13Z</time></trkpt><trkpt lat="36.905122800820656" lon="15.088088880613348"><ele>131.5</ele><time>2026-03-22T07:17:14Z</time></trkpt><trkpt lat="36.90521429606729" lon="15.088191506388476"><ele>132.0</ele><time>2026-03-22T07:17:15Z</time></trkpt><trkpt lat="36.90531004153319" lon="15.088291717987094"><ele>132.5</ele><time>2026-03-22T07:17:16Z</time></trkpt><trkpt lat="36.905434702899775" lon="15.088383334302195"><ele>133.0</ele><time>2026-03-22T07:17:17Z</time></trkpt><trkpt lat="36.90553939156416" lon="15.088472308921663"><ele>131.5</ele><time>2026-03-22T07:17:18Z</time></trkpt><trkpt lat="36.90563353869431" lon="15.08855851699356"><ele>130.0</ele><time>2026-03-22T07:17:19Z</time></trkpt><trkpt lat="36.905734570465306" lon="15.088637510826482"><ele>128.5</ele><time>2026-03-22T07:17:20Z</time></trkpt><trkpt lat="36.90584480910795" lon="15.088710607040015"><ele>127.0</ele><time>2026-03-22T07:17:21Z</time></trkpt><trkpt lat="36.90595345323142" lon="15.088780583922563"><ele>126.8</ele><time>2026-03-22T07:17:22Z</time></trkpt><trkpt lat="36.906061245502045" lon="15.088836171680216"><ele>126.6</ele><time>2026-03-22T07:17:23Z</time></trkpt><trkpt lat="36.90615282731312" lon="15.088877839794634"><ele>126.39999999999999</ele><time>2026-03-22T07:17:24Z</time></trkpt><trkpt lat="36.90624398352625" lon="15.088915683262336"><ele>126.19999999999999</ele><time>2026-03-22T07:17:25Z</time></trkpt><trkpt lat="36.90632584225922" lon="15.088948190544928"><ele>126.0</ele><time>2026-03-22T07:17:26Z</time></trkpt><trkpt lat="36.90645146816003" lon="15.088958849185527"><ele>126.0</ele><time>2026-03-22T07:17:27Z</time></trkpt><trkpt lat="36.906576793967744" lon="15.088957724860508"><ele>126.0</ele><time>2026-03-22T07:17:28Z</time></trkpt><trkpt lat="36.90668870915792" lon="15.089005475826708"><ele>126.0</ele><time>2026-03-22T07:17:29Z</time></trkpt><trkpt lat="36.906788787058694" lon="15.089091022707407"><ele>126.0</ele><time>2026-03-22T07:17:30Z</time></trkpt><trkpt lat="36.906900450958176" lon="15.08917988708357"><ele>127.0</ele><time>2026-03-22T07:17:31Z</time></trkpt><trkpt lat="36.907023693455244" lon="15.089255094821072"><ele>128.0</ele><time>2026-03-22T07:17:32Z</time></trkpt><trkpt lat="36.90715426732757" lon="15.089321151358638"><ele>129.0</ele><time>2026-03-22T07:17:33Z</time></trkpt><trkpt lat="36.907296955692594" lon="15.089380772516684"><ele>130.0</ele><time>2026-03-22T07:17:34Z</time></trkpt><trkpt lat="36.90744847666614" lon="15.089443038635917"><ele>131.0</ele><time>2026-03-22T07:17:35Z</time></trkpt><trkpt lat="36.907613144687296" lon="15.089517232961656"><ele>132.0</ele><time>2026-03-22T07:17:36Z</time></trkpt><trkpt lat="36.90774178833816" lon="15.089576596578176"><ele>133.0</ele><time>2026-03-22T07:17:37Z</time></trkpt><trkpt lat="36.90788353077765" lon="15.08962387945676"><ele>133.0</ele><time>2026-03-22T07:17:38Z</time></trkpt><trkpt lat="36.90802758007811" lon="15.089664250311623"><ele>133.0</ele><time>2026-03-22T07:17:39Z</time></trkpt><trkpt lat="36.90817435816449" lon="15.089704316524337"><ele>133.0</ele><time>2026-03-22T07:17:40Z</time></trkpt><trkpt lat="36.908328712443" lon="15.089743765612276"><ele>134.75</ele><time>2026-03-22T07:17:41Z</time></trkpt><trkpt lat="36.90846925059364" lon="15.089765646102222"><ele>136.5</ele><time>2026-03-22T07:17:42Z</time></trkpt><trkpt lat="36.9086196381702" lon="15.089775594903772"><ele>138.25</ele><time>2026-03-22T07:17:43Z</time></trkpt><trkpt lat="36.90876827152114" lon="15.08978131421568"><ele>140.0</ele><time>2026-03-22T07:17:44Z</time></trkpt><trkpt lat="36.908915832484254" lon="15.089790537549003"><ele>140.0</ele><time>2026-03-22T07:17:45Z</time></trkpt><trkpt lat="36.90906269736822" lon="15.089805681063138"><ele>140.0</ele><time>2026-03-22T07:17:46Z</time></trkpt><trkpt lat="36.90919409285397" lon="15.08986454074525"><ele>140.0</ele><time>2026-03-22T07:17:47Z</time></trkpt><trkpt lat="36.90935560739506" lon="15.089893805181154"><ele>141.25</ele><time>2026-03-22T07:17:48Z</time></trkpt><trkpt lat="36.90947005093982" lon="15.089940554141485"><ele>142.5</ele><time>2026-03-22T07:17:49Z</time></trkpt><trkpt lat="36.9095968973632" lon="15.089985063484626"><ele>143.75</ele><time>2026-03-22T07:17:50Z</time></trkpt><trkpt lat="36.909713093071915" lon="15.090043768921433"><ele>145.0</ele><time>2026-03-22T07:17:51Z</time></trkpt><trkpt lat="36.90981790849158" lon="15.090088198337046"><ele>145.0</ele><time>2026-03-22T07:17:52Z</time></trkpt><trkpt lat="36.90989488671346" lon="15.090159567348344"><ele>145.0</ele><time>2026-03-22T07:17:53Z</time></trkpt><trkpt lat="36.90995938305161" lon="15.090210246547077"><ele>145.0</ele><time>2026-03-22T07:17:54Z</time></trkpt><trkpt lat="36.91002506206614" lon="15.090252466827556"><ele>145.0</ele><time>2026-03-22T07:17:55Z</time></trkpt><trkpt lat="36.91008786978232" lon="15.09031439896918"><ele>145.0</ele><time>2026-03-22T07:17:57Z</time></trkpt><trkpt lat="36.91012422039545" lon="15.090135311569146"><ele>146.8</ele><time>2026-03-22T07:18:00Z</time></trkpt><trkpt lat="36.91009646551769" lon="15.090008331597"><ele>148.6</ele><time>2026-03-22T07:18:03Z</time></trkpt><trkpt lat="36.91008057520575" lon="15.08986636813786"><ele>150.4</ele><time>2026-03-22T07:18:06Z</time></trkpt><trkpt lat="36.91010673641818" lon="15.089779682466666"><ele>152.2</ele><time>2026-03-22T07:18:08Z</time></trkpt><trkpt lat="36.91013203474591" lon="15.08964688634981"><ele>154.0</ele><time>2026-03-22T07:18:10Z</time></trkpt><trkpt lat="36.91016374113578" lon="15.089568419416253"><ele>154.6</ele><time>2026-03-22T07:18:11Z</time></trkpt><trkpt lat="36.910161673334024" lon="15.089391883949983"><ele>155.2</ele><time>2026-03-22T07:18:13Z</time></trkpt><trkpt lat="36.910193748248304" lon="15.089279932027921"><ele>155.79999999999998</ele><time>2026-03-22T07:18:14Z</time></trkpt><trkpt lat="36.91020786452584" lon="15.089176421431665"><ele>156.4</ele><time>2026-03-22T07:18:15Z</time></trkpt><trkpt lat="36.91020717215477" lon="15.089052156769942"><ele>157.0</ele><time>2026-03-22T07:18:16Z</time></trkpt><trkpt lat="36.91023955495686" lon="15.08892790658065"><ele>157.2</ele><time>2026-03-22T07:18:17Z</time></trkpt><trkpt lat="36.91025396670345" lon="15.088814319319646"><ele>157.39999999999998</ele><time>2026-03-22T07:18:18Z</time></trkpt><trkpt lat="36.91027380192284" lon="15.088689161456408"><ele>157.60000000000002</ele><time>2026-03-22T07:18:19Z</time></trkpt><trkpt lat="36.910299327087344" lon="15.088550416178029"><ele>157.8</ele><time>2026-03-22T07:18:20Z</time></trkpt><trkpt lat="36.91033242792798" lon="15.08841163637118"><ele>158.0</ele><time>2026-03-22T07:18:21Z</time></trkpt><trkpt lat="36.91036067969295" lon="15.088275122012927"><ele>159.8</ele><time>2026-03-22T07:18:22Z</time></trkpt><trkpt lat="36.910402522817485" lon="15.088139617967135"><ele>161.60000000000002</ele><time>2026-03-22T07:18:23Z</time></trkpt><trkpt lat="36.91043842958608" lon="15.088017776912293"><ele>163.39999999999998</ele><time>2026-03-22T07:18:24Z</time></trkpt><trkpt lat="36.910477110429376" lon="15.087881858022657"><ele>165.2</ele><time>2026-03-22T07:18:25Z</time></trkpt><trkpt lat="36.91051157122427" lon="15.087751759201996"><ele>167.0</ele><time>2026-03-22T07:18:26Z</time></trkpt><trkpt lat="36.91058469703064" lon="15.08762589711272"><ele>167.0</ele><time>2026-03-22T07:18:27Z</time></trkpt><trkpt lat="36.91064070689148" lon="15.087514678618005"><ele>167.0</ele><time>2026-03-22T07:18:28Z</time></trkpt><trkpt lat="36.910703792104115" lon="15.087395909536255"><ele>167.0</ele><time>2026-03-22T07:18:29Z</time></trkpt><trkpt lat="36.91075180776156" lon="15.087273998576787"><ele>167.0</ele><time>2026-03-22T07:18:30Z</time></trkpt><trkpt lat="36.91078980068879" lon="15.087161751408997"><ele>167.0</ele><time>2026-03-22T07:18:31Z</time></trkpt><trkpt lat="36.910806999961615" lon="15.087041318485912"><ele>169.0</ele><time>2026-03-22T07:18:32Z</time></trkpt><trkpt lat="36.91080718426385" lon="15.086927789707348"><ele>171.0</ele><time>2026-03-22T07:18:33Z</time></trkpt><trkpt lat="36.91080792940608" lon="15.08681200151845"><ele>173.0</ele><time>2026-03-22T07:18:34Z</time></trkpt><trkpt lat="36.910791979447644" lon="15.086699724752132"><ele>175.0</ele><time>2026-03-22T07:18:35Z</time></trkpt><trkpt lat="36.91076810794362" lon="15.086582453303981"><ele>177.0</ele><time>2026-03-22T07:18:36Z</time></trkpt><trkpt lat="36.91074067138127" lon="15.08645562103373"><ele>178.39999999999998</ele><time>2026-03-22T07:18:37Z</time></trkpt><trkpt lat="36.91071285760093" lon="15.086369121047541"><ele>179.79999999999998</ele><time>2026-03-22T07:18:38Z</time></trkpt><trkpt lat="36.910673273344855" lon="15.086265449361017"><ele>181.2</ele><time>2026-03-22T07:18:39Z</time></trkpt><trkpt lat="36.91063982305487" lon="15.086151281670448"><ele>182.6</ele><time>2026-03-22T07:18:40Z</time></trkpt><trkpt lat="36.910607275701175" lon="15.08598944245375"><ele>184.0</ele><time>2026-03-22T07:18:41Z</time></trkpt><trkpt lat="36.91056725742651" lon="15.08585608653207"><ele>182.79999999999998</ele><time>2026-03-22T07:18:42Z</time></trkpt><trkpt lat="36.91055481878305" lon="15.085732383400227"><ele>181.6</ele><time>2026-03-22T07:18:43Z</time></trkpt><trkpt lat="36.910554214618074" lon="15.085619146396331"><ele>180.4</ele><time>2026-03-22T07:18:44Z</time></trkpt><trkpt lat="36.91054104696368" lon="15.085515793618656"><ele>179.2</ele><time>2026-03-22T07:18:45Z</time></trkpt><trkpt lat="36.91053740353879" lon="15.085416790326756"><ele>178.0</ele><time>2026-03-22T07:18:46Z</time></trkpt><trkpt lat="36.91054415842202" lon="15.085270754263917"><ele>178.0</ele><time>2026-03-22T07:18:48Z</time></trkpt><trkpt lat="36.910581130531575" lon="15.085148732169731"><ele>178.0</ele><time>2026-03-22T07:18:50Z</time></trkpt><trkpt lat="36.91064382265691" lon="15.085074372598307"><ele>178.0</ele><time>2026-03-22T07:18:51Z</time></trkpt><trkpt lat="36.91070547335086" lon="15.084991473537434"><ele>178.0</ele><time>2026-03-22T07:18:52Z</time></trkpt><trkpt lat="36.91076057109409" lon="15.084936895029886"><ele>178.0</ele><time>2026-03-22T07:18:53Z</time></trkpt><trkpt lat="36.91082729749252" lon="15.08487726665963"><ele>178.0</ele><time>2026-03-22T07:18:54Z</time></trkpt><trkpt lat="36.91090540597987" lon="15.084811533719538"><ele>178.33333333333334</ele><time>2026-03-22T07:18:55Z</time></trkpt><trkpt lat="36.91097405885069" lon="15.084744184346684"><ele>178.66666666666669</ele><time>2026-03-22T07:18:56Z</time></trkpt><trkpt lat="36.91106106085752" lon="15.084676806733993"><ele>179.0</ele><time>2026-03-22T07:18:57Z</time></trkpt><trkpt lat="36.91112939027694" lon="15.084613017079771"><ele>179.33333333333334</ele><time>2026-03-22T07:18:58Z</time></trkpt><trkpt lat="36.91117397048172" lon="15.084548875548942"><ele>179.66666666666666</ele><time>2026-03-22T07:18:59Z</time></trkpt><trkpt lat="36.911213831336404" lon="15.084469003187294"><ele>180.0</ele><time>2026-03-22T07:19:00Z</time></trkpt><trkpt lat="36.9112541434721" lon="15.084375876347012"><ele>180.0</ele><time>2026-03-22T07:19:01Z</time></trkpt><trkpt lat="36.91133888766809" lon="15.084299155239071"><ele>180.0</ele><time>2026-03-22T07:19:03Z</time></trkpt><trkpt lat="36.9114062099026" lon="15.084298338442506"><ele>180.0</ele><time>2026-03-22T07:19:05Z</time></trkpt><trkpt lat="36.91143262330766" lon="15.084419691453606"><ele>180.0</ele><time>2026-03-22T07:19:08Z</time></trkpt><trkpt lat="36.91137456335605" lon="15.084538807466465"><ele>180.0</ele><time>2026-03-22T07:19:10Z</time></trkpt><trkpt lat="36.91136574677559" lon="15.084700229561726"><ele>180.0</ele><time>2026-03-22T07:19:12Z</time></trkpt><trkpt lat="36.911340213536874" lon="15.08483848669405"><ele>180.0</ele><time>2026-03-22T07:19:14Z</time></trkpt><trkpt lat="36.91132556168571" lon="15.084918610908488"><ele>180.0</ele><time>2026-03-22T07:19:15Z</time></trkpt><trkpt lat="36.9113233897154" lon="15.085057826711106"><ele>180.0</ele><time>2026-03-22T07:19:17Z</time></trkpt><trkpt lat="36.91141692481031" lon="15.085143374757125"><ele>180.0</ele><time>2026-03-22T07:19:19Z</time></trkpt><trkpt lat="36.911488832249105" lon="15.085118582036346"><ele>184.2</ele><time>2026-03-22T07:19:20Z</time></trkpt><trkpt lat="36.91156560645601" lon="15.085144364873708"><ele>188.4</ele><time>2026-03-22T07:19:22Z</time></trkpt><trkpt lat="36.911639285535564" lon="15.085208556557983"><ele>192.60000000000002</ele><time>2026-03-22T07:19:25Z</time></trkpt><trkpt lat="36.91167883791004" lon="15.08530492134766"><ele>196.8</ele><time>2026-03-22T07:19:28Z</time></trkpt><trkpt lat="36.91165305057729" lon="15.085442557624292"><ele>201.0</ele><time>2026-03-22T07:19:30Z</time></trkpt><trkpt lat="36.91159172958439" lon="15.085551318346367"><ele>201.0</ele><time>2026-03-22T07:19:32Z</time></trkpt><trkpt lat="36.91152857210595" lon="15.085580420422492"><ele>201.0</ele><time>2026-03-22T07:19:33Z</time></trkpt><trkpt lat="36.9114649003679" lon="15.085693928365774"><ele>201.0</ele><time>2026-03-22T07:19:35Z</time></trkpt><trkpt lat="36.91141674608804" lon="15.085767759711091"><ele>201.0</ele><time>2026-03-22T07:19:38Z</time></trkpt><trkpt lat="36.91142664929292" lon="15.085848351889021"><ele>201.0</ele><time>2026-03-22T07:19:40Z</time></trkpt><trkpt lat="36.911491271448334" lon="15.085879178950806"><ele>201.0</ele><time>2026-03-22T07:19:41Z</time></trkpt><trkpt lat="36.91156639288208" lon="15.08582840321673"><ele>201.0</ele><time>2026-03-22T07:19:42Z</time></trkpt><trkpt lat="36.91160216620508" lon="15.085749307987804"><ele>201.0</ele><time>2026-03-22T07:19:43Z</time></trkpt><trkpt lat="36.91168175649868" lon="15.085772889051148"><ele>201.0</ele><time>2026-03-22T07:19:44Z</time></trkpt><trkpt lat="36.91173596255728" lon="15.085729952846796"><ele>201.0</ele><time>2026-03-22T07:19:45Z</time></trkpt><trkpt lat="36.91188043168839" lon="15.08569874595202"><ele>201.0</ele><time>2026-03-22T07:19:47Z</time></trkpt><trkpt lat="36.91197185716593" lon="15.085683112782453"><ele>202.57142857142856</ele><time>2026-03-22T07:19:48Z</time></trkpt><trkpt lat="36.912039033503284" lon="15.085665877040423"><ele>204.14285714285717</ele><time>2026-03-22T07:19:49Z</time></trkpt><trkpt lat="36.912102983060244" lon="15.085649384214785"><ele>205.71428571428572</ele><time>2026-03-22T07:19:50Z</time></trkpt><trkpt lat="36.91216550753635" lon="15.085623477986008"><ele>207.28571428571428</ele><time>2026-03-22T07:19:51Z</time></trkpt><trkpt lat="36.91223530392879" lon="15.085607805447099"><ele>208.85714285714283</ele><time>2026-03-22T07:19:52Z</time></trkpt><trkpt lat="36.91230049786608" lon="15.085601236285918"><ele>210.42857142857144</ele><time>2026-03-22T07:19:53Z</time></trkpt><trkpt lat="36.91237232013242" lon="15.085601427545178"><ele>212.0</ele><time>2026-03-22T07:19:54Z</time></trkpt><trkpt lat="36.91244490738593" lon="15.085594051467137"><ele>212.0</ele><time>2026-03-22T07:19:55Z</time></trkpt><trkpt lat="36.912524799118515" lon="15.085603553605344"><ele>212.0</ele><time>2026-03-22T07:19:56Z</time></trkpt><trkpt lat="36.91259289867353" lon="15.085575916724288"><ele>212.0</ele><time>2026-03-22T07:19:57Z</time></trkpt><trkpt lat="36.912661243905866" lon="15.085582071608078"><ele>212.0</ele><time>2026-03-22T07:19:58Z</time></trkpt><trkpt lat="36.91272980930466" lon="15.085585541729415"><ele>212.0</ele><time>2026-03-22T07:19:59Z</time></trkpt><trkpt lat="36.912803284374874" lon="15.085581710596767"><ele>212.0</ele><time>2026-03-22T07:20:00Z</time></trkpt><trkpt lat="36.91286825700322" lon="15.08557832279241"><ele>212.0</ele><time>2026-03-22T07:20:01Z</time></trkpt><trkpt lat="36.91302714626434" lon="15.085556754094856"><ele>215.0</ele><time>2026-03-22T07:20:03Z</time></trkpt><trkpt lat="36.91314800275823" lon="15.08556071940396"><ele>218.0</ele><time>2026-03-22T07:20:05Z</time></trkpt><trkpt lat="36.91322174819148" lon="15.08556246435749"><ele>221.0</ele><time>2026-03-22T07:20:06Z</time></trkpt><trkpt lat="36.913302952525015" lon="15.085567777618174"><ele>224.0</ele><time>2026-03-22T07:20:07Z</time></trkpt><trkpt lat="36.91338763735835" lon="15.08557299582223"><ele>227.0</ele><time>2026-03-22T07:20:08Z</time></trkpt><trkpt lat="36.913521668573416" lon="15.085564352586736"><ele>230.2</ele><time>2026-03-22T07:20:10Z</time></trkpt><trkpt lat="36.91362682339841" lon="15.08554270015937"><ele>233.39999999999998</ele><time>2026-03-22T07:20:12Z</time></trkpt><trkpt lat="36.91372664916232" lon="15.085515029681513"><ele>236.60000000000002</ele><time>2026-03-22T07:20:14Z</time></trkpt><trkpt lat="36.91379143082829" lon="15.085496118067702"><ele>239.8</ele><time>2026-03-22T07:20:15Z</time></trkpt><trkpt lat="36.91390222182269" lon="15.085465651508997"><ele>243.0</ele><time>2026-03-22T07:20:17Z</time></trkpt><trkpt lat="36.913981805711494" lon="15.085436077408614"><ele>243.0</ele><time>2026-03-22T07:20:20Z</time></trkpt><trkpt lat="36.914088374607395" lon="15.08536681795654"><ele>243.0</ele><time>2026-03-22T07:20:23Z</time></trkpt><trkpt lat="36.91414267711147" lon="15.085317327210028"><ele>243.0</ele><time>2026-03-22T07:20:26Z</time></trkpt><trkpt lat="36.914219676484876" lon="15.085249874736155"><ele>243.0</ele><time>2026-03-22T07:20:28Z</time></trkpt><trkpt lat="36.91429284841036" lon="15.085196225328126"><ele>243.0</ele><time>2026-03-22T07:20:29Z</time></trkpt><trkpt lat="36.914366443227195" lon="15.085141860425828"><ele>243.16666666666666</ele><time>2026-03-22T07:20:30Z</time></trkpt><trkpt lat="36.91446328559259" lon="15.085064722447928"><ele>243.33333333333331</ele><time>2026-03-22T07:20:32Z</time></trkpt><trkpt lat="36.91452605608421" lon="15.08501504845451"><ele>243.5</ele><time>2026-03-22T07:20:33Z</time></trkpt><trkpt lat="36.9145830813594" lon="15.084966913738908"><ele>243.66666666666666</ele><time>2026-03-22T07:20:34Z</time></trkpt><trkpt lat="36.914643870417805" lon="15.08491249666076"><ele>243.83333333333331</ele><time>2026-03-22T07:20:35Z</time></trkpt><trkpt lat="36.914727568946276" lon="15.084826131836907"><ele>244.0</ele><time>2026-03-22T07:20:37Z</time></trkpt><trkpt lat="36.91478867377425" lon="15.084752899049017"><ele>246.79999999999998</ele><time>2026-03-22T07:20:39Z</time></trkpt><trkpt lat="36.914868652413794" lon="15.084664340732962"><ele>249.59999999999997</ele><time>2026-03-22T07:20:41Z</time></trkpt><trkpt lat="36.91495184124101" lon="15.084580096464343"><ele>252.4</ele><time>2026-03-22T07:20:43Z</time></trkpt><trkpt lat="36.9150319323467" lon="15.084503467582191"><ele>255.2</ele><time>2026-03-22T07:20:45Z</time></trkpt><trkpt lat="36.91509314731927" lon="15.084445260292176"><ele>258.0</ele><time>2026-03-22T07:20:47Z</time></trkpt><trkpt lat="36.91515021957347" lon="15.084392377724779"><ele>260.0</ele><time>2026-03-22T07:20:50Z</time></trkpt><trkpt lat="36.91522107390864" lon="15.084328441030529"><ele>262.0</ele><time>2026-03-22T07:20:54Z</time></trkpt><trkpt lat="36.91527318866581" lon="15.084281413739872"><ele>264.0</ele><time>2026-03-22T07:20:56Z</time></trkpt><trkpt lat="36.91532812457713" lon="15.084214042451269"><ele>266.0</ele><time>2026-03-22T07:20:58Z</time></trkpt><trkpt lat="36.91537432056847" lon="15.084156366612877"><ele>268.0</ele><time>2026-03-22T07:21:00Z</time></trkpt><trkpt lat="36.915344240224194" lon="15.08403285536048"><ele>270.0</ele><time>2026-03-22T07:21:01Z</time></trkpt><trkpt lat="36.91539529994363" lon="15.083974597807257"><ele>272.1428571428571</ele><time>2026-03-22T07:21:04Z</time></trkpt><trkpt lat="36.9154387107785" lon="15.08391394501142"><ele>274.2857142857143</ele><time>2026-03-22T07:21:59Z</time></trkpt><trkpt lat="36.915507773699076" lon="15.083936907146994"><ele>276.42857142857144</ele><time>2026-03-22T07:25:17Z</time></trkpt><trkpt lat="36.915586807310966" lon="15.083912702810693"><ele>278.57142857142856</ele><time>2026-03-22T07:25:21Z</time></trkpt><trkpt lat="36.91563202979902" lon="15.08382308902615"><ele>280.7142857142857</ele><time>2026-03-22T07:25:24Z</time></trkpt><trkpt lat="36.91564301977504" lon="15.083743660176891"><ele>282.85714285714283</ele><time>2026-03-22T07:25:26Z</time></trkpt><trkpt lat="36.91567750626186" lon="15.08367450958987"><ele>285.0</ele><time>2026-03-22T07:25:29Z</time></trkpt><trkpt lat="36.915716923948125" lon="15.083600046207344"><ele>285.0</ele><time>2026-03-22T07:25:31Z</time></trkpt><trkpt lat="36.915785912039134" lon="15.083526809888847"><ele>285.0</ele><time>2026-03-22T07:25:34Z</time></trkpt><trkpt lat="36.915824697379556" lon="15.083463099694198"><ele>285.0</ele><time>2026-03-22T07:25:36Z</time></trkpt><trkpt lat="36.915853698995406" lon="15.08338900187359"><ele>285.0</ele><time>2026-03-22T07:25:38Z</time></trkpt><trkpt lat="36.91592659307862" lon="15.083334484276472"><ele>285.0</ele><time>2026-03-22T07:25:41Z</time></trkpt><trkpt lat="36.91596910047712" lon="15.08326958685597"><ele>285.0</ele><time>2026-03-22T07:25:43Z</time></trkpt><trkpt lat="36.91602709938514" lon="15.08317380966785"><ele>286.8333333333333</ele><time>2026-03-22T07:25:47Z</time></trkpt><trkpt lat="36.91605780435499" lon="15.083102285617148"><ele>288.6666666666667</ele><time>2026-03-22T07:25:49Z</time></trkpt><trkpt lat="36.91612258844946" lon="15.08302167616306"><ele>290.5</ele><time>2026-03-22T07:25:52Z</time></trkpt><trkpt lat="36.916185853832026" lon="15.08294818709037"><ele>292.33333333333337</ele><time>2026-03-22T07:25:54Z</time></trkpt><trkpt lat="36.91625182746068" lon="15.082884588895725"><ele>294.1666666666667</ele><time>2026-03-22T07:26:08Z</time></trkpt><trkpt lat="36.91631728777127" lon="15.08285557996944"><ele>296.0</ele><time>2026-03-22T07:26:10Z</time></trkpt><trkpt lat="36.916339605133885" lon="15.082770263649207"><ele>296.0</ele><time>2026-03-22T07:29:33Z</time></trkpt><trkpt lat="36.916427224867654" lon="15.08265687662646"><ele>296.0</ele><time>2026-03-22T07:29:35Z</time></trkpt><trkpt lat="36.91649332049166" lon="15.082595927198646"><ele>296.0</ele><time>2026-03-22T07:29:36Z</time></trkpt><trkpt lat="36.916609248686534" lon="15.082572970335033"><ele>296.0</ele><time>2026-03-22T07:29:38Z</time></trkpt><trkpt lat="36.9167089874888" lon="15.082489322296514"><ele>296.0</ele><time>2026-03-22T07:29:40Z</time></trkpt><trkpt lat="36.916816660819606" lon="15.082435739769233"><ele>296.8</ele><time>2026-03-22T07:29:42Z</time></trkpt><trkpt lat="36.91694130286251" lon="15.08234175238603"><ele>297.6</ele><time>2026-03-22T07:29:44Z</time></trkpt><trkpt lat="36.91699670246914" lon="15.082269944401665"><ele>298.4</ele><time>2026-03-22T07:29:45Z</time></trkpt><trkpt lat="36.917073670808946" lon="15.082221766348841"><ele>299.2</ele><time>2026-03-22T07:29:46Z</time></trkpt><trkpt lat="36.9171354587574" lon="15.082165265143637"><ele>300.0</ele><time>2026-03-22T07:29:47Z</time></trkpt><trkpt lat="36.91719132329367" lon="15.082106074196513"><ele>300.0</ele><time>2026-03-22T07:29:48Z</time></trkpt><trkpt lat="36.91724550188447" lon="15.082038095818877"><ele>300.0</ele><time>2026-03-22T07:29:49Z</time></trkpt><trkpt lat="36.91732132979428" lon="15.081962392125066"><ele>300.0</ele><time>2026-03-22T07:29:50Z</time></trkpt><trkpt lat="36.917385276519695" lon="15.081897615005557"><ele>300.0</ele><time>2026-03-22T07:29:51Z</time></trkpt><trkpt lat="36.917455102786114" lon="15.081834597164429"><ele>300.0</ele><time>2026-03-22T07:29:52Z</time></trkpt><trkpt lat="36.91752232108061" lon="15.081797977899326"><ele>300.0</ele><time>2026-03-22T07:29:53Z</time></trkpt><trkpt lat="36.917596930768326" lon="15.081762006200105"><ele>299.3333333333333</ele><time>2026-03-22T07:29:54Z</time></trkpt><trkpt lat="36.91766503719215" lon="15.081725463157156"><ele>298.6666666666667</ele><time>2026-03-22T07:29:55Z</time></trkpt><trkpt lat="36.917723644331836" lon="15.08167184828168"><ele>298.0</ele><time>2026-03-22T07:29:56Z</time></trkpt><trkpt lat="36.917796624895345" lon="15.081660622535482"><ele>297.33333333333337</ele><time>2026-03-22T07:29:57Z</time></trkpt><trkpt lat="36.91789164218351" lon="15.081636528511064"><ele>296.6666666666667</ele><time>2026-03-22T07:29:59Z</time></trkpt><trkpt lat="36.917989834257355" lon="15.081629759612245"><ele>296.0</ele><time>2026-03-22T07:30:00Z</time></trkpt><trkpt lat="36.91808138478991" lon="15.081626155811236"><ele>296.0</ele><time>2026-03-22T07:30:01Z</time></trkpt><trkpt lat="36.91817270982556" lon="15.0816133550761"><ele>296.0</ele><time>2026-03-22T07:30:02Z</time></trkpt><trkpt lat="36.91826008589541" lon="15.081597865739264"><ele>296.0</ele><time>2026-03-22T07:30:03Z</time></trkpt><trkpt lat="36.91834326109407" lon="15.081577358581933"><ele>296.0</ele><time>2026-03-22T07:30:04Z</time></trkpt><trkpt lat="36.91841096657398" lon="15.081541757327095"><ele>296.0</ele><time>2026-03-22T07:30:05Z</time></trkpt><trkpt lat="36.91845951026213" lon="15.081475349241469"><ele>296.0</ele><time>2026-03-22T07:30:06Z</time></trkpt><trkpt lat="36.91851081762544" lon="15.081412699734612"><ele>296.2</ele><time>2026-03-22T07:30:07Z</time></trkpt><trkpt lat="36.91861428624281" lon="15.081285304490814"><ele>296.40000000000003</ele><time>2026-03-22T07:30:09Z</time></trkpt><trkpt lat="36.9186835981373" lon="15.081195250523507"><ele>296.6</ele><time>2026-03-22T07:30:10Z</time></trkpt><trkpt lat="36.91875249519773" lon="15.081104169020437"><ele>296.8</ele><time>2026-03-22T07:30:11Z</time></trkpt><trkpt lat="36.91880623711751" lon="15.081033122495255"><ele>297.0</ele><time>2026-03-22T07:30:12Z</time></trkpt><trkpt lat="36.91885341243802" lon="15.080974560445942"><ele>297.0</ele><time>2026-03-22T07:30:13Z</time></trkpt><trkpt lat="36.91890032098266" lon="15.080918662774703"><ele>297.0</ele><time>2026-03-22T07:30:14Z</time></trkpt><trkpt lat="36.91897812322569" lon="15.080824418864516"><ele>297.0</ele><time>2026-03-22T07:30:16Z</time></trkpt><trkpt lat="36.91904108631173" lon="15.080738352308456"><ele>297.0</ele><time>2026-03-22T07:30:18Z</time></trkpt><trkpt lat="36.919105746740705" lon="15.080641995173803"><ele>297.0</ele><time>2026-03-22T07:30:20Z</time></trkpt><trkpt lat="36.91918011129382" lon="15.080528792067751"><ele>299.1666666666667</ele><time>2026-03-22T07:30:22Z</time></trkpt><trkpt lat="36.91922684813972" lon="15.080433935317393"><ele>301.3333333333333</ele><time>2026-03-22T07:30:24Z</time></trkpt><trkpt lat="36.91928201815828" lon="15.080357836361076"><ele>303.5</ele><time>2026-03-22T07:30:26Z</time></trkpt><trkpt lat="36.91934465889489" lon="15.080284335960474"><ele>305.66666666666663</ele><time>2026-03-22T07:30:29Z</time></trkpt><trkpt lat="36.91939680771815" lon="15.08022722348082"><ele>307.8333333333333</ele><time>2026-03-22T07:30:31Z</time></trkpt><trkpt lat="36.91947252891523" lon="15.080158300406614"><ele>310.0</ele><time>2026-03-22T07:30:33Z</time></trkpt><trkpt lat="36.91954484753801" lon="15.080092980334218"><ele>312.4</ele><time>2026-03-22T07:30:35Z</time></trkpt><trkpt lat="36.91961530023448" lon="15.079989797384293"><ele>314.8</ele><time>2026-03-22T07:30:37Z</time></trkpt><trkpt lat="36.919705320070506" lon="15.079911713140289"><ele>317.20000000000005</ele><time>2026-03-22T07:30:39Z</time></trkpt><trkpt lat="36.919783672010496" lon="15.079834561999814"><ele>319.6</ele><time>2026-03-22T07:30:41Z</time></trkpt><trkpt lat="36.919880678178686" lon="15.079742734044439"><ele>322.0</ele><time>2026-03-22T07:30:43Z</time></trkpt><trkpt lat="36.91997218947314" lon="15.079666129011907"><ele>324.16666666666663</ele><time>2026-03-22T07:30:45Z</time></trkpt><trkpt lat="36.920011924958885" lon="15.079599927947275"><ele>326.3333333333333</ele><time>2026-03-22T07:30:48Z</time></trkpt><trkpt lat="36.92009630007461" lon="15.079533126564781"><ele>328.5</ele><time>2026-03-22T07:30:50Z</time></trkpt><trkpt lat="36.920160717336344" lon="15.079480150371538"><ele>330.6666666666667</ele><time>2026-03-22T07:30:55Z</time></trkpt><trkpt lat="36.920211264208376" lon="15.079406491342334"><ele>332.83333333333337</ele><time>2026-03-22T07:30:58Z</time></trkpt><trkpt lat="36.920286105810995" lon="15.07932862872081"><ele>335.0</ele><time>2026-03-22T07:31:00Z</time></trkpt><trkpt lat="36.920349371379174" lon="15.079267427594287"><ele>336.5</ele><time>2026-03-22T07:31:02Z</time></trkpt><trkpt lat="36.920395429706666" lon="15.079205371966356"><ele>338.0</ele><time>2026-03-22T07:31:04Z</time></trkpt><trkpt lat="36.92045576840612" lon="15.07913920779517"><ele>339.5</ele><time>2026-03-22T07:31:06Z</time></trkpt><trkpt lat="36.9205186386145" lon="15.07906449509326"><ele>341.0</ele><time>2026-03-22T07:31:08Z</time></trkpt><trkpt lat="36.92056227037911" lon="15.078998345477462"><ele>342.5</ele><time>2026-03-22T07:31:10Z</time></trkpt><trkpt lat="36.920570116507925" lon="15.078895878757642"><ele>344.0</ele><time>2026-03-22T07:31:12Z</time></trkpt><trkpt lat="36.920594223960606" lon="15.078805383023774"><ele>344.0</ele><time>2026-03-22T07:31:14Z</time></trkpt><trkpt lat="36.920607347665346" lon="15.078707400634206"><ele>344.0</ele><time>2026-03-22T07:31:16Z</time></trkpt><trkpt lat="36.92064575671655" lon="15.078639391335127"><ele>344.0</ele><time>2026-03-22T07:31:54Z</time></trkpt><trkpt lat="36.9206920899673" lon="15.078562259313532"><ele>344.0</ele><time>2026-03-22T07:32:02Z</time></trkpt><trkpt lat="36.92070915155281" lon="15.0784226188416"><ele>344.0</ele><time>2026-03-22T07:32:04Z</time></trkpt><trkpt lat="36.92074783474035" lon="15.078299237399202"><ele>344.0</ele><time>2026-03-22T07:32:06Z</time></trkpt><trkpt lat="36.92076035506324" lon="15.078207422602784"><ele>340.4</ele><time>2026-03-22T07:32:07Z</time></trkpt><trkpt lat="36.92079067244118" lon="15.078129778599331"><ele>336.79999999999995</ele><time>2026-03-22T07:32:09Z</time></trkpt><trkpt lat="36.920889775267064" lon="15.078100736134115"><ele>333.20000000000005</ele><time>2026-03-22T07:32:12Z</time></trkpt><trkpt lat="36.92100447448269" lon="15.07814184543749"><ele>329.6</ele><time>2026-03-22T07:32:14Z</time></trkpt><trkpt lat="36.921081588732925" lon="15.07814022863919"><ele>326.0</ele><time>2026-03-22T07:32:15Z</time></trkpt><trkpt lat="36.92116165619893" lon="15.078173721053284"><ele>326.0</ele><time>2026-03-22T07:32:16Z</time></trkpt><trkpt lat="36.92122764322305" lon="15.078169230796657"><ele>326.0</ele><time>2026-03-22T07:32:17Z</time></trkpt><trkpt lat="36.9213129526084" lon="15.078182648424384"><ele>326.0</ele><time>2026-03-22T07:32:18Z</time></trkpt><trkpt lat="36.921404324881" lon="15.0781924759793"><ele>326.0</ele><time>2026-03-22T07:32:19Z</time></trkpt><trkpt lat="36.92149373296462" lon="15.078192916464731"><ele>326.0</ele><time>2026-03-22T07:32:21Z</time></trkpt><trkpt lat="36.921596593549445" lon="15.078200823913805"><ele>326.0</ele><time>2026-03-22T07:32:23Z</time></trkpt><trkpt lat="36.921681302694225" lon="15.078156488958129"><ele>328.25</ele><time>2026-03-22T07:32:25Z</time></trkpt><trkpt lat="36.921745851105044" lon="15.078125439412263"><ele>330.5</ele><time>2026-03-22T07:32:28Z</time></trkpt><trkpt lat="36.921885895623795" lon="15.077983168190359"><ele>332.75</ele><time>2026-03-22T07:32:31Z</time></trkpt><trkpt lat="36.92199343059354" lon="15.077960573734874"><ele>335.0</ele><time>2026-03-22T07:32:33Z</time></trkpt><trkpt lat="36.922078636470914" lon="15.078043627205057"><ele>335.0</ele><time>2026-03-22T07:32:34Z</time></trkpt><trkpt lat="36.922040481233815" lon="15.078212689954121"><ele>335.0</ele><time>2026-03-22T07:32:35Z</time></trkpt><trkpt lat="36.92200701233339" lon="15.078343881793915"><ele>335.0</ele><time>2026-03-22T07:32:37Z</time></trkpt><trkpt lat="36.921992914563724" lon="15.078424401761849"><ele>335.0</ele><time>2026-03-22T07:32:38Z</time></trkpt><trkpt lat="36.9220685478566" lon="15.078416138760947"><ele>335.0</ele><time>2026-03-22T07:32:47Z</time></trkpt><trkpt lat="36.92201790512164" lon="15.078347867134308"><ele>339.83333333333337</ele><time>2026-03-22T07:32:50Z</time></trkpt><trkpt lat="36.9219996641324" lon="15.078426981610365"><ele>344.6666666666667</ele><time>2026-03-22T07:32:55Z</time></trkpt><trkpt lat="36.921988038878496" lon="15.07851114196769"><ele>349.5</ele><time>2026-03-22T07:33:01Z</time></trkpt><trkpt lat="36.92196381015196" lon="15.078585813160911"><ele>354.3333333333333</ele><time>2026-03-22T07:33:05Z</time></trkpt><trkpt lat="36.92213256772452" lon="15.07863492724555"><ele>359.16666666666663</ele><time>2026-03-22T07:33:09Z</time></trkpt><trkpt lat="36.92214365593067" lon="15.078718012897083"><ele>364.0</ele><time>2026-03-22T07:34:56Z</time></trkpt><trkpt lat="36.92217122700156" lon="15.078806058167242"><ele>364.0</ele><time>2026-03-22T07:35:00Z</time></trkpt><trkpt lat="36.922252337672724" lon="15.078840270031614"><ele>364.0</ele><time>2026-03-22T07:35:03Z</time></trkpt><trkpt lat="36.92228008669066" lon="15.078752759624479"><ele>364.0</ele><time>2026-03-22T07:35:06Z</time></trkpt><trkpt lat="36.92228616156218" lon="15.078664527266179"><ele>364.0</ele><time>2026-03-22T07:35:09Z</time></trkpt><trkpt lat="36.9223504099543" lon="15.078600741615032"><ele>364.0</ele><time>2026-03-22T07:36:26Z</time></trkpt><trkpt lat="36.922419149949135" lon="15.078629472355303"><ele>364.0</ele><time>2026-03-22T07:36:29Z</time></trkpt><trkpt lat="36.92245775842267" lon="15.078713442420892"><ele>364.0</ele><time>2026-03-22T07:36:31Z</time></trkpt><trkpt lat="36.922496082889786" lon="15.078791835962143"><ele>364.0</ele><time>2026-03-22T07:36:33Z</time></trkpt><trkpt lat="36.92254033159233" lon="15.078851734475677"><ele>364.0</ele><time>2026-03-22T07:36:35Z</time></trkpt><trkpt lat="36.922589065253916" lon="15.078917902320399"><ele>364.0</ele><time>2026-03-22T07:36:38Z</time></trkpt><trkpt lat="36.92266727815839" lon="15.078954172843357"><ele>364.0</ele><time>2026-03-22T07:36:40Z</time></trkpt><trkpt lat="36.922787348541206" lon="15.07899000115606"><ele>364.0</ele><time>2026-03-22T07:36:42Z</time></trkpt><trkpt lat="36.92286030613471" lon="15.079027419100925"><ele>364.3333333333333</ele><time>2026-03-22T07:36:43Z</time></trkpt><trkpt lat="36.9229571933213" lon="15.079053632725067"><ele>364.66666666666663</ele><time>2026-03-22T07:36:46Z</time></trkpt><trkpt lat="36.923036054804385" lon="15.079067233857309"><ele>365.0</ele><time>2026-03-22T07:36:48Z</time></trkpt><trkpt lat="36.92311720992973" lon="15.07903979253293"><ele>365.3333333333333</ele><time>2026-03-22T07:36:50Z</time></trkpt><trkpt lat="36.923220201978545" lon="15.07905418933619"><ele>365.6666666666667</ele><time>2026-03-22T07:36:52Z</time></trkpt><trkpt lat="36.923291569440465" lon="15.079029728815387"><ele>366.0</ele><time>2026-03-22T07:36:55Z</time></trkpt><trkpt lat="36.92336977716207" lon="15.079015035422298"><ele>365.0</ele><time>2026-03-22T07:36:57Z</time></trkpt><trkpt lat="36.923466319746275" lon="15.07899593714625"><ele>364.0</ele><time>2026-03-22T07:36:59Z</time></trkpt><trkpt lat="36.923537348781466" lon="15.078970590022536"><ele>363.0</ele><time>2026-03-22T07:37:00Z</time></trkpt><trkpt lat="36.92363132705978" lon="15.078920768655733"><ele>362.0</ele><time>2026-03-22T07:37:02Z</time></trkpt><trkpt lat="36.923743851905115" lon="15.078876388766147"><ele>361.0</ele><time>2026-03-22T07:37:04Z</time></trkpt><trkpt lat="36.9238245053732" lon="15.078843459354323"><ele>361.0</ele><time>2026-03-22T07:37:14Z</time></trkpt><trkpt lat="36.92391419540736" lon="15.078851382389"><ele>361.0</ele><time>2026-03-22T07:37:18Z</time></trkpt><trkpt lat="36.92403797090089" lon="15.078860625754261"><ele>361.0</ele><time>2026-03-22T07:37:20Z</time></trkpt><trkpt lat="36.924102725745506" lon="15.078919067729549"><ele>361.0</ele><time>2026-03-22T07:37:22Z</time></trkpt><trkpt lat="36.92420282490116" lon="15.078947431711875"><ele>361.0</ele><time>2026-03-22T07:37:23Z</time></trkpt><trkpt lat="36.92427541017817" lon="15.078969313882313"><ele>360.7142857142857</ele><time>2026-03-22T07:37:24Z</time></trkpt><trkpt lat="36.92434577958592" lon="15.07899209499328"><ele>360.4285714285714</ele><time>2026-03-22T07:37:25Z</time></trkpt><trkpt lat="36.924416315457734" lon="15.078985516951745"><ele>360.1428571428571</ele><time>2026-03-22T07:37:26Z</time></trkpt><trkpt lat="36.92448114011979" lon="15.079007928641383"><ele>359.8571428571429</ele><time>2026-03-22T07:37:27Z</time></trkpt><trkpt lat="36.92455250438976" lon="15.079023534540976"><ele>359.57142857142856</ele><time>2026-03-22T07:37:28Z</time></trkpt><trkpt lat="36.92463249475924" lon="15.07903004626254"><ele>359.2857142857143</ele><time>2026-03-22T07:37:29Z</time></trkpt><trkpt lat="36.924716237788324" lon="15.079027034169512"><ele>359.0</ele><time>2026-03-22T07:37:30Z</time></trkpt><trkpt lat="36.92479023732974" lon="15.079052072557442"><ele>359.0</ele><time>2026-03-22T07:37:31Z</time></trkpt><trkpt lat="36.92491599636884" lon="15.079067119663163"><ele>359.0</ele><time>2026-03-22T07:37:33Z</time></trkpt><trkpt lat="36.92497697741853" lon="15.079093160372452"><ele>359.0</ele><time>2026-03-22T07:37:34Z</time></trkpt><trkpt lat="36.92505725979548" lon="15.079100040401029"><ele>359.0</ele><time>2026-03-22T07:37:35Z</time></trkpt><trkpt lat="36.925125969912465" lon="15.079149537026765"><ele>359.0</ele><time>2026-03-22T07:37:36Z</time></trkpt><trkpt lat="36.925239074078846" lon="15.079149929179579"><ele>367.0</ele><time>2026-03-22T07:37:38Z</time></trkpt><trkpt lat="36.925303262377824" lon="15.079143893835434"><ele>375.0</ele><time>2026-03-22T07:37:39Z</time></trkpt><trkpt lat="36.92543429480488" lon="15.079152622727625"><ele>383.0</ele><time>2026-03-22T07:37:41Z</time></trkpt><trkpt lat="36.92553904041741" lon="15.079120767491414"><ele>391.0</ele><time>2026-03-22T07:37:43Z</time></trkpt><trkpt lat="36.925584078124324" lon="15.079313131807055"><ele>390.99999999999994</ele><time>2026-03-22T07:37:49Z</time></trkpt><trkpt lat="36.925560191428104" lon="15.079392965340618"><ele>391.0</ele><time>2026-03-22T07:37:50Z</time></trkpt><trkpt lat="36.92552217916262" lon="15.079474213328472"><ele>391.0</ele><time>2026-03-22T07:37:51Z</time></trkpt><trkpt lat="36.92554553483896" lon="15.079574300322275"><ele>391.0</ele><time>2026-03-22T07:37:52Z</time></trkpt><trkpt lat="36.92555385833183" lon="15.07966697984779"><ele>391.0</ele><time>2026-03-22T07:37:53Z</time></trkpt><trkpt lat="36.92555574506826" lon="15.079753830566487"><ele>390.99999999999994</ele><time>2026-03-22T07:37:54Z</time></trkpt><trkpt lat="36.925556988718284" lon="15.079848474448653"><ele>391.0</ele><time>2026-03-22T07:37:55Z</time></trkpt><trkpt lat="36.9255631812843" lon="15.079942486950895"><ele>392.33333333333337</ele><time>2026-03-22T07:37:56Z</time></trkpt><trkpt lat="36.92556279603006" lon="15.080038684843478"><ele>393.6666666666667</ele><time>2026-03-22T07:37:57Z</time></trkpt><trkpt lat="36.925558211244336" lon="15.080140867351155"><ele>395.0</ele><time>2026-03-22T07:37:58Z</time></trkpt><trkpt lat="36.925565937241146" lon="15.080236151587906"><ele>396.33333333333337</ele><time>2026-03-22T07:37:59Z</time></trkpt><trkpt lat="36.92558036886486" lon="15.080341651600769"><ele>397.6666666666667</ele><time>2026-03-22T07:38:00Z</time></trkpt><trkpt lat="36.92557952198246" lon="15.080449549278006"><ele>399.0</ele><time>2026-03-22T07:38:01Z</time></trkpt><trkpt lat="36.92558242890221" lon="15.080556455570001"><ele>399.0</ele><time>2026-03-22T07:38:02Z</time></trkpt><trkpt lat="36.925584543558585" lon="15.080663023698133"><ele>399.0</ele><time>2026-03-22T07:38:03Z</time></trkpt><trkpt lat="36.92559314066766" lon="15.08076786257071"><ele>399.0</ele><time>2026-03-22T07:38:04Z</time></trkpt><trkpt lat="36.925614488599514" lon="15.080877577608737"><ele>399.0</ele><time>2026-03-22T07:38:05Z</time></trkpt><trkpt lat="36.92562739887538" lon="15.080975651205007"><ele>399.0</ele><time>2026-03-22T07:38:06Z</time></trkpt><trkpt lat="36.925637623496144" lon="15.081065381692953"><ele>399.0</ele><time>2026-03-22T07:38:07Z</time></trkpt><trkpt lat="36.92564263631312" lon="15.081145897591908"><ele>399.1666666666667</ele><time>2026-03-22T07:38:08Z</time></trkpt><trkpt lat="36.92566258747978" lon="15.081276598222958"><ele>399.33333333333337</ele><time>2026-03-22T07:38:10Z</time></trkpt><trkpt lat="36.92565986898548" lon="15.081358845977135"><ele>399.5</ele><time>2026-03-22T07:38:15Z</time></trkpt><trkpt lat="36.925682473416536" lon="15.081438519609593"><ele>399.6666666666667</ele><time>2026-03-22T07:38:18Z</time></trkpt><trkpt lat="36.925740462639425" lon="15.081379618492175"><ele>399.83333333333337</ele><time>2026-03-22T07:38:23Z</time></trkpt><trkpt lat="36.92566178757685" lon="15.081320809082518"><ele>400.0</ele><time>2026-03-22T07:38:25Z</time></trkpt><trkpt lat="36.92564538065272" lon="15.081206352702813"><ele>400.00000000000006</ele><time>2026-03-22T07:38:27Z</time></trkpt><trkpt lat="36.92563698116039" lon="15.081080758030247"><ele>400.0</ele><time>2026-03-22T07:38:29Z</time></trkpt><trkpt lat="36.92564081913927" lon="15.080987043262462"><ele>400.0</ele><time>2026-03-22T07:38:31Z</time></trkpt><trkpt lat="36.92561200913627" lon="15.080896821814303"><ele>400.0</ele><time>2026-03-22T07:38:34Z</time></trkpt><trkpt lat="36.92558516420633" lon="15.08082010001985"><ele>400.00000000000006</ele><time>2026-03-22T07:38:37Z</time></trkpt><trkpt lat="36.92549545118164" lon="15.080794837742891"><ele>400.0</ele><time>2026-03-22T07:38:40Z</time></trkpt><trkpt lat="36.92541280554175" lon="15.080787667675953"><ele>400.00000000000006</ele><time>2026-03-22T07:38:43Z</time></trkpt><trkpt lat="36.92535005116039" lon="15.080798555921946"><ele>400.0</ele><time>2026-03-22T07:38:48Z</time></trkpt><trkpt lat="36.92529681884237" lon="15.080869814733601"><ele>400.0</ele><time>2026-03-22T07:38:51Z</time></trkpt><trkpt lat="36.92523743142603" lon="15.080905835166782"><ele>400.0</ele><time>2026-03-22T07:39:46Z</time></trkpt><trkpt lat="36.925178043206266" lon="15.080864201655478"><ele>400.0</ele><time>2026-03-22T07:39:50Z</time></trkpt><trkpt lat="36.925184573549856" lon="15.080783649263184"><ele>400.00000000000006</ele><time>2026-03-22T07:39:53Z</time></trkpt><trkpt lat="36.92518921800625" lon="15.080693931085623"><ele>400.0</ele><time>2026-03-22T07:39:56Z</time></trkpt><trkpt lat="36.9251318458233" lon="15.080659493712654"><ele>398.4</ele><time>2026-03-22T07:39:58Z</time></trkpt><trkpt lat="36.92502996578276" lon="15.080665511492398"><ele>396.8</ele><time>2026-03-22T07:40:01Z</time></trkpt><trkpt lat="36.9249162417569" lon="15.080716880888314"><ele>395.20000000000005</ele><time>2026-03-22T07:40:03Z</time></trkpt><trkpt lat="36.92483126336086" lon="15.080741708567105"><ele>393.6</ele><time>2026-03-22T07:40:04Z</time></trkpt><trkpt lat="36.92471995274956" lon="15.080754374519367"><ele>392.0</ele><time>2026-03-22T07:40:06Z</time></trkpt><trkpt lat="36.924650894733134" lon="15.080850247318523"><ele>391.20000000000005</ele><time>2026-03-22T07:40:08Z</time></trkpt><trkpt lat="36.924551381762534" lon="15.080889066894452"><ele>390.4</ele><time>2026-03-22T07:40:10Z</time></trkpt><trkpt lat="36.92445675062386" lon="15.08093990460618"><ele>389.6</ele><time>2026-03-22T07:40:12Z</time></trkpt><trkpt lat="36.92438633012845" lon="15.080997823405836"><ele>388.79999999999995</ele><time>2026-03-22T07:40:14Z</time></trkpt><trkpt lat="36.92431105195371" lon="15.080982655604407"><ele>388.0</ele><time>2026-03-22T07:40:16Z</time></trkpt><trkpt lat="36.924226693006766" lon="15.081059464804177"><ele>387.79999999999995</ele><time>2026-03-22T07:40:21Z</time></trkpt><trkpt lat="36.924215260016005" lon="15.081219033214328"><ele>387.6</ele><time>2026-03-22T07:40:23Z</time></trkpt><trkpt lat="36.924208094355414" lon="15.081323992362508"><ele>387.4</ele><time>2026-03-22T07:40:24Z</time></trkpt><trkpt lat="36.92412883682237" lon="15.081422565087296"><ele>387.20000000000005</ele><time>2026-03-22T07:40:26Z</time></trkpt><trkpt lat="36.924097919757116" lon="15.081562348451556"><ele>387.0</ele><time>2026-03-22T07:40:28Z</time></trkpt><trkpt lat="36.92406987956625" lon="15.08164480714917"><ele>386.1666666666667</ele><time>2026-03-22T07:40:29Z</time></trkpt><trkpt lat="36.92402304487019" lon="15.081704945429168"><ele>385.3333333333333</ele><time>2026-03-22T07:40:30Z</time></trkpt><trkpt lat="36.923997276010475" lon="15.081810328261309"><ele>384.5</ele><time>2026-03-22T07:40:33Z</time></trkpt><trkpt lat="36.923986016004456" lon="15.081896470980984"><ele>383.66666666666663</ele><time>2026-03-22T07:40:36Z</time></trkpt><trkpt lat="36.92397122376109" lon="15.08200585271495"><ele>382.8333333333333</ele><time>2026-03-22T07:40:39Z</time></trkpt><trkpt lat="36.92394526527067" lon="15.0820988500299"><ele>382.0</ele><time>2026-03-22T07:40:43Z</time></trkpt><trkpt lat="36.92388915571705" lon="15.08215861666444"><ele>382.0</ele><time>2026-03-22T07:40:47Z</time></trkpt><trkpt lat="36.923821884304026" lon="15.082239102778335"><ele>382.0</ele><time>2026-03-22T07:40:57Z</time></trkpt><trkpt lat="36.92373848972801" lon="15.082282294464088"><ele>382.0</ele><time>2026-03-22T07:41:00Z</time></trkpt><trkpt lat="36.9236522433953" lon="15.082290834046571"><ele>382.0</ele><time>2026-03-22T07:41:02Z</time></trkpt><trkpt lat="36.92357057350852" lon="15.082295428963764"><ele>382.0</ele><time>2026-03-22T07:41:04Z</time></trkpt><trkpt lat="36.92350051677066" lon="15.082305527364028"><ele>382.0</ele><time>2026-03-22T07:41:06Z</time></trkpt><trkpt lat="36.92343268257972" lon="15.082302968111394"><ele>381.16666666666663</ele><time>2026-03-22T07:41:08Z</time></trkpt><trkpt lat="36.92336928654504" lon="15.082307626911303"><ele>380.3333333333333</ele><time>2026-03-22T07:41:12Z</time></trkpt><trkpt lat="36.923296748033266" lon="15.082289780296433"><ele>379.5</ele><time>2026-03-22T07:41:15Z</time></trkpt><trkpt lat="36.92321658227437" lon="15.08226934677565"><ele>378.6666666666667</ele><time>2026-03-22T07:41:19Z</time></trkpt><trkpt lat="36.92311939893451" lon="15.082267135036124"><ele>377.83333333333337</ele><time>2026-03-22T07:41:23Z</time></trkpt><trkpt lat="36.92305416140581" lon="15.082232759118376"><ele>377.0</ele><time>2026-03-22T07:41:25Z</time></trkpt><trkpt lat="36.92298342561518" lon="15.082240509103462"><ele>377.0</ele><time>2026-03-22T07:41:28Z</time></trkpt><trkpt lat="36.92299702883709" lon="15.082348137872899"><ele>377.0</ele><time>2026-03-22T07:41:32Z</time></trkpt><trkpt lat="36.92303353684898" lon="15.082441147843188"><ele>377.0</ele><time>2026-03-22T07:41:35Z</time></trkpt><trkpt lat="36.922996712111235" lon="15.082517937453318"><ele>377.0</ele><time>2026-03-22T07:41:38Z</time></trkpt><trkpt lat="36.92293011863322" lon="15.08254780489049"><ele>377.0</ele><time>2026-03-22T07:41:42Z</time></trkpt><trkpt lat="36.92289775204612" lon="15.082626242731724"><ele>377.0</ele><time>2026-03-22T07:41:45Z</time></trkpt><trkpt lat="36.92288652595539" lon="15.082722544154112"><ele>375.99999999999994</ele><time>2026-03-22T07:41:47Z</time></trkpt><trkpt lat="36.922865071449046" lon="15.082816584992873"><ele>375.0</ele><time>2026-03-22T07:41:50Z</time></trkpt><trkpt lat="36.92285223536775" lon="15.08290811116283"><ele>374.0</ele><time>2026-03-22T07:41:52Z</time></trkpt><trkpt lat="36.922837435859286" lon="15.083024710811987"><ele>373.0</ele><time>2026-03-22T07:41:54Z</time></trkpt><trkpt lat="36.922839320979485" lon="15.083107193438448"><ele>372.0</ele><time>2026-03-22T07:41:57Z</time></trkpt><trkpt lat="36.92280224103942" lon="15.083171895479055"><ele>370.99999999999994</ele><time>2026-03-22T07:41:59Z</time></trkpt><trkpt lat="36.922788885922365" lon="15.083252096125472"><ele>370.0</ele><time>2026-03-22T07:42:01Z</time></trkpt><trkpt lat="36.92274352535658" lon="15.083341477157346"><ele>368.5</ele><time>2026-03-22T07:42:04Z</time></trkpt><trkpt lat="36.92272832539665" lon="15.083426575654919"><ele>367.0</ele><time>2026-03-22T07:42:07Z</time></trkpt><trkpt lat="36.92273178372487" lon="15.083507026626016"><ele>365.5</ele><time>2026-03-22T07:42:09Z</time></trkpt><trkpt lat="36.922674659451616" lon="15.083588814829811"><ele>364.0</ele><time>2026-03-22T07:42:12Z</time></trkpt><trkpt lat="36.922633765514064" lon="15.083670989744205"><ele>362.5</ele><time>2026-03-22T07:42:14Z</time></trkpt><trkpt lat="36.922568289008474" lon="15.083726991872256"><ele>361.0</ele><time>2026-03-22T07:42:16Z</time></trkpt><trkpt lat="36.92251639015077" lon="15.083798573178651"><ele>359.8</ele><time>2026-03-22T07:42:18Z</time></trkpt><trkpt lat="36.92244021724731" lon="15.083891041454727"><ele>358.6</ele><time>2026-03-22T07:42:20Z</time></trkpt><trkpt lat="36.92237375804912" lon="15.083987043737078"><ele>357.4</ele><time>2026-03-22T07:42:22Z</time></trkpt><trkpt lat="36.922289211975006" lon="15.084133859157856"><ele>356.2</ele><time>2026-03-22T07:42:25Z</time></trkpt><trkpt lat="36.92220745885349" lon="15.084147518132044"><ele>355.0</ele><time>2026-03-22T07:42:27Z</time></trkpt><trkpt lat="36.92212224057512" lon="15.084246935305387"><ele>352.66666666666663</ele><time>2026-03-22T07:42:30Z</time></trkpt><trkpt lat="36.92206300277512" lon="15.084287986745382"><ele>350.3333333333333</ele><time>2026-03-22T07:42:32Z</time></trkpt><trkpt lat="36.92197971538392" lon="15.084363058000111"><ele>348.0</ele><time>2026-03-22T07:42:34Z</time></trkpt><trkpt lat="36.92190193730863" lon="15.084428129857002"><ele>345.6666666666667</ele><time>2026-03-22T07:42:36Z</time></trkpt><trkpt lat="36.92179635030759" lon="15.084477373943166"><ele>343.33333333333337</ele><time>2026-03-22T07:42:39Z</time></trkpt><trkpt lat="36.92173035774808" lon="15.084499405451357"><ele>341.0</ele><time>2026-03-22T07:42:41Z</time></trkpt><trkpt lat="36.92167557892818" lon="15.08455992904236"><ele>340.1666666666667</ele><time>2026-03-22T07:42:43Z</time></trkpt><trkpt lat="36.921605335644536" lon="15.084620058866935"><ele>339.33333333333337</ele><time>2026-03-22T07:42:45Z</time></trkpt><trkpt lat="36.921553686669974" lon="15.084676796577646"><ele>338.5</ele><time>2026-03-22T07:42:47Z</time></trkpt><trkpt lat="36.92149388797163" lon="15.084737078984174"><ele>337.6666666666667</ele><time>2026-03-22T07:42:49Z</time></trkpt><trkpt lat="36.92141004488134" lon="15.084793491409565"><ele>336.8333333333333</ele><time>2026-03-22T07:42:51Z</time></trkpt><trkpt lat="36.921323350359714" lon="15.084828696167566"><ele>336.0</ele><time>2026-03-22T07:42:53Z</time></trkpt><trkpt lat="36.921243767175405" lon="15.084909226434187"><ele>333.3333333333333</ele><time>2026-03-22T07:42:55Z</time></trkpt><trkpt lat="36.92117048467123" lon="15.08497201645699"><ele>330.6666666666667</ele><time>2026-03-22T07:42:57Z</time></trkpt><trkpt lat="36.92110237956046" lon="15.085009997831788"><ele>328.0</ele><time>2026-03-22T07:42:59Z</time></trkpt><trkpt lat="36.921029241812" lon="15.0850707972876"><ele>325.33333333333337</ele><time>2026-03-22T07:43:01Z</time></trkpt><trkpt lat="36.92096336777347" lon="15.085105606664676"><ele>322.6666666666667</ele><time>2026-03-22T07:43:03Z</time></trkpt><trkpt lat="36.920901296569724" lon="15.085158487860086"><ele>320.0</ele><time>2026-03-22T07:43:05Z</time></trkpt><trkpt lat="36.920835906803305" lon="15.085217089562857"><ele>319.33333333333337</ele><time>2026-03-22T07:43:07Z</time></trkpt><trkpt lat="36.92077538293962" lon="15.08529096517532"><ele>318.6666666666667</ele><time>2026-03-22T07:43:10Z</time></trkpt><trkpt lat="36.92071136103506" lon="15.085335442205642"><ele>318.0</ele><time>2026-03-22T07:43:12Z</time></trkpt><trkpt lat="36.920638152888316" lon="15.085399715921543"><ele>317.3333333333333</ele><time>2026-03-22T07:43:15Z</time></trkpt><trkpt lat="36.92057517299893" lon="15.085467255982097"><ele>316.66666666666663</ele><time>2026-03-22T07:43:18Z</time></trkpt><trkpt lat="36.92051213367946" lon="15.085526930710001"><ele>316.0</ele><time>2026-03-22T07:43:20Z</time></trkpt><trkpt lat="36.92045803958696" lon="15.085584280415642"><ele>316.0</ele><time>2026-03-22T07:43:22Z</time></trkpt><trkpt lat="36.92039273444833" lon="15.085656370825099"><ele>316.0</ele><time>2026-03-22T07:43:25Z</time></trkpt><trkpt lat="36.92034409974151" lon="15.085722273877822"><ele>316.0</ele><time>2026-03-22T07:43:27Z</time></trkpt><trkpt lat="36.920291711686204" lon="15.085782504533947"><ele>316.0</ele><time>2026-03-22T07:43:30Z</time></trkpt><trkpt lat="36.92022907013706" lon="15.085852643415208"><ele>316.0</ele><time>2026-03-22T07:43:33Z</time></trkpt><trkpt lat="36.920161783383406" lon="15.085921883021534"><ele>316.0</ele><time>2026-03-22T07:43:35Z</time></trkpt><trkpt lat="36.920102881445025" lon="15.085965670545974"><ele>314.8333333333333</ele><time>2026-03-22T07:43:37Z</time></trkpt><trkpt lat="36.92005975092472" lon="15.086032427432947"><ele>313.66666666666663</ele><time>2026-03-22T07:43:39Z</time></trkpt><trkpt lat="36.920008050102346" lon="15.086079801239281"><ele>312.5</ele><time>2026-03-22T07:43:42Z</time></trkpt><trkpt lat="36.919932741613955" lon="15.08614865487453"><ele>311.3333333333333</ele><time>2026-03-22T07:43:44Z</time></trkpt><trkpt lat="36.919873673779634" lon="15.086204449343654"><ele>310.1666666666667</ele><time>2026-03-22T07:43:46Z</time></trkpt><trkpt lat="36.91979452686019" lon="15.086281882961483"><ele>309.0</ele><time>2026-03-22T07:43:48Z</time></trkpt><trkpt lat="36.91969728982545" lon="15.086372822296436"><ele>309.0</ele><time>2026-03-22T07:43:50Z</time></trkpt><trkpt lat="36.91961497933452" lon="15.086451638695314"><ele>309.0</ele><time>2026-03-22T07:43:52Z</time></trkpt><trkpt lat="36.91957170521449" lon="15.08651302184742"><ele>309.0</ele><time>2026-03-22T07:43:54Z</time></trkpt><trkpt lat="36.91952112210832" lon="15.086565058944977"><ele>309.0</ele><time>2026-03-22T07:43:56Z</time></trkpt><trkpt lat="36.91945817118577" lon="15.086633802706782"><ele>309.0</ele><time>2026-03-22T07:44:01Z</time></trkpt><trkpt lat="36.91938939373859" lon="15.0866926870538"><ele>309.0</ele><time>2026-03-22T07:44:03Z</time></trkpt><trkpt lat="36.91934981148709" lon="15.086754717900485"><ele>308.3333333333333</ele><time>2026-03-22T07:44:05Z</time></trkpt><trkpt lat="36.91930512831759" lon="15.086829611481203"><ele>307.6666666666667</ele><time>2026-03-22T07:44:07Z</time></trkpt><trkpt lat="36.91925191645028" lon="15.086909626591705"><ele>307.0</ele><time>2026-03-22T07:44:10Z</time></trkpt><trkpt lat="36.91919138357304" lon="15.086980860425896"><ele>306.33333333333337</ele><time>2026-03-22T07:44:13Z</time></trkpt><trkpt lat="36.9191599709214" lon="15.087049625779652"><ele>305.6666666666667</ele><time>2026-03-22T07:44:16Z</time></trkpt><trkpt lat="36.919139188381735" lon="15.087169863391344"><ele>305.0</ele><time>2026-03-22T07:47:03Z</time></trkpt><trkpt lat="36.919077162817395" lon="15.08723196993552"><ele>305.0</ele><time>2026-03-22T07:47:06Z</time></trkpt><trkpt lat="36.91905061384165" lon="15.087307735961085"><ele>305.0</ele><time>2026-03-22T07:47:21Z</time></trkpt><trkpt lat="36.91899027780961" lon="15.087335103284305"><ele>305.0</ele><time>2026-03-22T07:47:41Z</time></trkpt><trkpt lat="36.91893432098793" lon="15.087393376054447"><ele>305.0</ele><time>2026-03-22T07:49:03Z</time></trkpt><trkpt lat="36.918928312820505" lon="15.087488139732267"><ele>305.0</ele><time>2026-03-22T07:49:35Z</time></trkpt><trkpt lat="36.9188765337912" lon="15.087581260193224"><ele>305.0</ele><time>2026-03-22T07:49:38Z</time></trkpt><trkpt lat="36.91883701027182" lon="15.087653017601841"><ele>305.0</ele><time>2026-03-22T07:50:18Z</time></trkpt><trkpt lat="36.91879543127845" lon="15.08772169284364"><ele>303.2857142857143</ele><time>2026-03-22T07:51:45Z</time></trkpt><trkpt lat="36.9187742343991" lon="15.087798221951486"><ele>301.57142857142856</ele><time>2026-03-22T07:52:01Z</time></trkpt><trkpt lat="36.918745474634285" lon="15.087873301087274"><ele>299.85714285714283</ele><time>2026-03-22T07:52:15Z</time></trkpt><trkpt lat="36.918720395522094" lon="15.087946709820026"><ele>298.1428571428571</ele><time>2026-03-22T07:52:28Z</time></trkpt><trkpt lat="36.918682721983544" lon="15.088010181807032"><ele>296.42857142857144</ele><time>2026-03-22T07:52:38Z</time></trkpt><trkpt lat="36.91866848060651" lon="15.08809557604032"><ele>294.71428571428567</ele><time>2026-03-22T07:52:48Z</time></trkpt><trkpt lat="36.91863084659505" lon="15.08816523147553"><ele>293.0</ele><time>2026-03-22T07:52:53Z</time></trkpt><trkpt lat="36.91860267247245" lon="15.08823890420888"><ele>288.5</ele><time>2026-03-22T07:52:58Z</time></trkpt><trkpt lat="36.91855990359175" lon="15.088313675411854"><ele>284.0</ele><time>2026-03-22T07:53:04Z</time></trkpt><trkpt lat="36.918536563897085" lon="15.088394041679555"><ele>279.5</ele><time>2026-03-22T07:53:11Z</time></trkpt><trkpt lat="36.9184814239824" lon="15.088451199250375"><ele>275.0</ele><time>2026-03-22T07:53:31Z</time></trkpt><trkpt lat="36.9183902314422" lon="15.088415270818174"><ele>270.5</ele><time>2026-03-22T07:53:35Z</time></trkpt><trkpt lat="36.91831397271422" lon="15.08841990956692"><ele>266.0</ele><time>2026-03-22T07:53:38Z</time></trkpt><trkpt lat="36.91826617890221" lon="15.088488391832481"><ele>266.0</ele><time>2026-03-22T07:53:43Z</time></trkpt><trkpt lat="36.9182548908703" lon="15.088583356678296"><ele>266.0</ele><time>2026-03-22T07:53:45Z</time></trkpt><trkpt lat="36.91816245024217" lon="15.08858701977948"><ele>266.0</ele><time>2026-03-22T07:53:48Z</time></trkpt><trkpt lat="36.918078449928664" lon="15.088644342421711"><ele>266.0</ele><time>2026-03-22T07:53:51Z</time></trkpt><trkpt lat="36.91800746784224" lon="15.088716273364161"><ele>266.0</ele><time>2026-03-22T07:53:54Z</time></trkpt><trkpt lat="36.91792292472786" lon="15.088760744849504"><ele>266.0</ele><time>2026-03-22T07:53:57Z</time></trkpt><trkpt lat="36.917864725880456" lon="15.08879551389989"><ele>266.0</ele><time>2026-03-22T07:53:59Z</time></trkpt><trkpt lat="36.91779594174129" lon="15.088828496918056"><ele>266.0</ele><time>2026-03-22T07:54:01Z</time></trkpt><trkpt lat="36.91772937824351" lon="15.088898396999952"><ele>266.0</ele><time>2026-03-22T07:54:03Z</time></trkpt><trkpt lat="36.91764540816033" lon="15.08894029157489"><ele>266.0</ele><time>2026-03-22T07:54:05Z</time></trkpt><trkpt lat="36.9175861298975" lon="15.088997738565588"><ele>266.0</ele><time>2026-03-22T07:54:08Z</time></trkpt><trkpt lat="36.91755560163751" lon="15.08908922081984"><ele>266.0</ele><time>2026-03-22T07:54:11Z</time></trkpt><trkpt lat="36.917496743380376" lon="15.089165824100114"><ele>262.1666666666667</ele><time>2026-03-22T07:54:14Z</time></trkpt><trkpt lat="36.9174370569907" lon="15.089208539820287"><ele>258.33333333333337</ele><time>2026-03-22T07:54:15Z</time></trkpt><trkpt lat="36.91737003662362" lon="15.08926281369572"><ele>254.5</ele><time>2026-03-22T07:54:17Z</time></trkpt><trkpt lat="36.917304679363596" lon="15.089313723829203"><ele>250.66666666666669</ele><time>2026-03-22T07:54:20Z</time></trkpt><trkpt lat="36.91724288940355" lon="15.08934025505488"><ele>246.83333333333334</ele><time>2026-03-22T07:54:22Z</time></trkpt><trkpt lat="36.91715374972412" lon="15.089314984926615"><ele>243.0</ele><time>2026-03-22T07:54:24Z</time></trkpt><trkpt lat="36.91711338600737" lon="15.08938286926028"><ele>243.0</ele><time>2026-03-22T07:54:26Z</time></trkpt><trkpt lat="36.91711781143178" lon="15.089511377797553"><ele>243.0</ele><time>2026-03-22T07:55:48Z</time></trkpt><trkpt lat="36.91715671605202" lon="15.089618881490306"><ele>243.0</ele><time>2026-03-22T07:55:50Z</time></trkpt><trkpt lat="36.917200987307005" lon="15.089710011690267"><ele>243.0</ele><time>2026-03-22T07:55:51Z</time></trkpt><trkpt lat="36.91725979314962" lon="15.089841346193245"><ele>243.0</ele><time>2026-03-22T07:55:53Z</time></trkpt><trkpt lat="36.91730759442571" lon="15.089929725852594"><ele>239.8</ele><time>2026-03-22T07:55:55Z</time></trkpt><trkpt lat="36.91734431850592" lon="15.090017087185712"><ele>236.60000000000002</ele><time>2026-03-22T07:55:57Z</time></trkpt><trkpt lat="36.91741451517186" lon="15.090120474566115"><ele>233.39999999999998</ele><time>2026-03-22T07:55:59Z</time></trkpt><trkpt lat="36.91750380949908" lon="15.090215265932438"><ele>230.2</ele><time>2026-03-22T07:56:01Z</time></trkpt><trkpt lat="36.917560063143284" lon="15.090262042081914"><ele>227.0</ele><time>2026-03-22T07:56:02Z</time></trkpt><trkpt lat="36.91765977604371" lon="15.09030469976737"><ele>225.16666666666669</ele><time>2026-03-22T07:56:04Z</time></trkpt><trkpt lat="36.917727010528985" lon="15.090333480570349"><ele>223.33333333333334</ele><time>2026-03-22T07:56:06Z</time></trkpt><trkpt lat="36.91780780083195" lon="15.090340755178062"><ele>221.5</ele><time>2026-03-22T07:56:08Z</time></trkpt><trkpt lat="36.917880019150054" lon="15.090314942887394"><ele>219.66666666666669</ele><time>2026-03-22T07:56:10Z</time></trkpt><trkpt lat="36.91798153456766" lon="15.09025034760284"><ele>217.83333333333334</ele><time>2026-03-22T07:56:12Z</time></trkpt><trkpt lat="36.91804331236271" lon="15.090219966298596"><ele>216.0</ele><time>2026-03-22T07:56:13Z</time></trkpt><trkpt lat="36.91812612818862" lon="15.090179652506636"><ele>216.0</ele><time>2026-03-22T07:56:14Z</time></trkpt><trkpt lat="36.918244457582894" lon="15.090149143604716"><ele>216.00000000000003</ele><time>2026-03-22T07:56:16Z</time></trkpt><trkpt lat="36.918345458829094" lon="15.090111320152593"><ele>216.00000000000003</ele><time>2026-03-22T07:56:18Z</time></trkpt><trkpt lat="36.918452594000684" lon="15.090077337099668"><ele>216.0</ele><time>2026-03-22T07:56:20Z</time></trkpt><trkpt lat="36.91853093376233" lon="15.090015721001365"><ele>216.0</ele><time>2026-03-22T07:56:22Z</time></trkpt><trkpt lat="36.91858723599735" lon="15.090062950345198"><ele>216.0</ele><time>2026-03-22T07:56:26Z</time></trkpt><trkpt lat="36.91854394027294" lon="15.090150395217972"><ele>216.00000000000003</ele><time>2026-03-22T07:56:28Z</time></trkpt><trkpt lat="36.91849124879219" lon="15.090235163162792"><ele>216.00000000000003</ele><time>2026-03-22T07:56:30Z</time></trkpt><trkpt lat="36.918447385325365" lon="15.090352368911239"><ele>216.0</ele><time>2026-03-22T07:56:32Z</time></trkpt><trkpt lat="36.91838857046037" lon="15.090479106803787"><ele>216.0</ele><time>2026-03-22T07:56:34Z</time></trkpt><trkpt lat="36.91831758108413" lon="15.090565272578607"><ele>216.0</ele><time>2026-03-22T07:56:36Z</time></trkpt><trkpt lat="36.91823586121513" lon="15.090665188641184"><ele>216.0</ele><time>2026-03-22T07:56:38Z</time></trkpt><trkpt lat="36.91817893725668" lon="15.090708295701512"><ele>216.0</ele><time>2026-03-22T07:56:39Z</time></trkpt><trkpt lat="36.91811787317978" lon="15.090766013264611"><ele>216.0</ele><time>2026-03-22T07:56:40Z</time></trkpt><trkpt lat="36.91806106712057" lon="15.090826745046483"><ele>216.0</ele><time>2026-03-22T07:56:41Z</time></trkpt><trkpt lat="36.91798331681191" lon="15.090901253469806"><ele>216.0</ele><time>2026-03-22T07:56:42Z</time></trkpt><trkpt lat="36.917906321466525" lon="15.090959062655578"><ele>213.66666666666666</ele><time>2026-03-22T07:56:43Z</time></trkpt><trkpt lat="36.91783609321451" lon="15.09099461715517"><ele>211.33333333333331</ele><time>2026-03-22T07:56:44Z</time></trkpt><trkpt lat="36.91775730489418" lon="15.0910188167364"><ele>209.0</ele><time>2026-03-22T07:56:45Z</time></trkpt><trkpt lat="36.917679681504616" lon="15.091028009929786"><ele>206.66666666666666</ele><time>2026-03-22T07:56:46Z</time></trkpt><trkpt lat="36.91760086472484" lon="15.091046777884209"><ele>204.33333333333331</ele><time>2026-03-22T07:56:47Z</time></trkpt><trkpt lat="36.917532444520425" lon="15.091067693881998"><ele>202.0</ele><time>2026-03-22T07:56:48Z</time></trkpt><trkpt lat="36.91742001163333" lon="15.091137809379294"><ele>201.99999999999997</ele><time>2026-03-22T07:56:50Z</time></trkpt><trkpt lat="36.91736018269727" lon="15.091185187636102"><ele>202.0</ele><time>2026-03-22T07:56:51Z</time></trkpt><trkpt lat="36.91725266938667" lon="15.091243860144305"><ele>202.0</ele><time>2026-03-22T07:56:53Z</time></trkpt><trkpt lat="36.91716491352439" lon="15.091276838244461"><ele>202.0</ele><time>2026-03-22T07:56:55Z</time></trkpt><trkpt lat="36.91709529757446" lon="15.091319070076485"><ele>201.99999999999997</ele><time>2026-03-22T07:56:57Z</time></trkpt><trkpt lat="36.91706402251261" lon="15.091410153251026"><ele>202.0</ele><time>2026-03-22T07:56:59Z</time></trkpt><trkpt lat="36.917092206095575" lon="15.091523062872394"><ele>197.83333333333331</ele><time>2026-03-22T07:57:01Z</time></trkpt><trkpt lat="36.9171153390813" lon="15.091612747433665"><ele>193.66666666666666</ele><time>2026-03-22T07:57:03Z</time></trkpt><trkpt lat="36.917138763356675" lon="15.09171865432208"><ele>189.5</ele><time>2026-03-22T07:57:05Z</time></trkpt><trkpt lat="36.9171573249914" lon="15.091813874545625"><ele>185.33333333333331</ele><time>2026-03-22T07:57:07Z</time></trkpt><trkpt lat="36.917217181214745" lon="15.091875464381552"><ele>181.16666666666666</ele><time>2026-03-22T07:57:10Z</time></trkpt><trkpt lat="36.917298912010146" lon="15.091853411846685"><ele>177.0</ele><time>2026-03-22T07:57:12Z</time></trkpt><trkpt lat="36.91737679419113" lon="15.091858238605342"><ele>177.0</ele><time>2026-03-22T07:57:14Z</time></trkpt><trkpt lat="36.917445092156626" lon="15.09184446813763"><ele>177.0</ele><time>2026-03-22T07:57:16Z</time></trkpt><trkpt lat="36.91750816747159" lon="15.091839461955317"><ele>177.0</ele><time>2026-03-22T07:57:23Z</time></trkpt><trkpt lat="36.91758056245491" lon="15.091852649344302"><ele>177.0</ele><time>2026-03-22T07:57:25Z</time></trkpt><trkpt lat="36.91767338264987" lon="15.09184347209221"><ele>177.0</ele><time>2026-03-22T07:57:28Z</time></trkpt><trkpt lat="36.917763600258056" lon="15.091838178250885"><ele>177.0</ele><time>2026-03-22T07:57:31Z</time></trkpt><trkpt lat="36.917824698805425" lon="15.091795007616549"><ele>179.5</ele><time>2026-03-22T07:57:33Z</time></trkpt><trkpt lat="36.91787076338558" lon="15.091738957351664"><ele>182.0</ele><time>2026-03-22T07:58:27Z</time></trkpt><trkpt lat="36.91794389499483" lon="15.091833381073267"><ele>184.5</ele><time>2026-03-22T07:58:40Z</time></trkpt><trkpt lat="36.91795875517301" lon="15.091948592205645"><ele>187.0</ele><time>2026-03-22T07:58:42Z</time></trkpt><trkpt lat="36.917918040611454" lon="15.092025395018169"><ele>189.5</ele><time>2026-03-22T07:58:46Z</time></trkpt><trkpt lat="36.917988915455645" lon="15.092054823107448"><ele>192.0</ele><time>2026-03-22T07:59:54Z</time></trkpt><trkpt lat="36.918068657435605" lon="15.092074454399357"><ele>192.0</ele><time>2026-03-22T07:59:57Z</time></trkpt><trkpt lat="36.918132200975975" lon="15.091980822637177"><ele>192.0</ele><time>2026-03-22T08:01:37Z</time></trkpt><trkpt lat="36.918232972302285" lon="15.091949557345586"><ele>192.0</ele><time>2026-03-22T08:01:52Z</time></trkpt><trkpt lat="36.918301579933804" lon="15.091885616328408"><ele>192.0</ele><time>2026-03-22T08:01:56Z</time></trkpt><trkpt lat="36.91835620268796" lon="15.091817353941277"><ele>192.0</ele><time>2026-03-22T08:03:04Z</time></trkpt><trkpt lat="36.91835369147456" lon="15.091925089855978"><ele>192.0</ele><time>2026-03-22T08:04:01Z</time></trkpt><trkpt lat="36.91832163899444" lon="15.09200254327157"><ele>192.0</ele><time>2026-03-22T08:04:03Z</time></trkpt><trkpt lat="36.9182547093976" lon="15.092094987982533"><ele>192.0</ele><time>2026-03-22T08:04:06Z</time></trkpt><trkpt lat="36.91832350172575" lon="15.092109763924837"><ele>192.0</ele><time>2026-03-22T08:04:16Z</time></trkpt><trkpt lat="36.918383242726215" lon="15.09207191508854"><ele>192.0</ele><time>2026-03-22T08:04:48Z</time></trkpt><trkpt lat="36.918467818117314" lon="15.092035359612064"><ele>192.0</ele><time>2026-03-22T08:04:50Z</time></trkpt><trkpt lat="36.91854978771172" lon="15.092013647602823"><ele>197.83333333333334</ele><time>2026-03-22T08:04:52Z</time></trkpt><trkpt lat="36.91850191323247" lon="15.092099913737517"><ele>203.66666666666669</ele><time>2026-03-22T08:05:02Z</time></trkpt><trkpt lat="36.91855358316411" lon="15.092152292565014"><ele>209.5</ele><time>2026-03-22T08:06:01Z</time></trkpt><trkpt lat="36.91863109880474" lon="15.092168131440914"><ele>215.33333333333334</ele><time>2026-03-22T08:06:16Z</time></trkpt><trkpt lat="36.91868063598544" lon="15.092117025160835"><ele>221.16666666666669</ele><time>2026-03-22T08:06:19Z</time></trkpt><trkpt lat="36.91858766689284" lon="15.092127942551947"><ele>227.0</ele><time>2026-03-22T08:06:42Z</time></trkpt><trkpt lat="36.918669496856346" lon="15.092105039389814"><ele>227.0</ele><time>2026-03-22T08:06:48Z</time></trkpt><trkpt lat="36.91872008888589" lon="15.092053518813216"><ele>227.0</ele><time>2026-03-22T08:06:51Z</time></trkpt><trkpt lat="36.9187884590673" lon="15.091966092159854"><ele>227.0</ele><time>2026-03-22T08:06:53Z</time></trkpt><trkpt lat="36.91887251054904" lon="15.091892793285268"><ele>227.0</ele><time>2026-03-22T08:06:55Z</time></trkpt><trkpt lat="36.91893926756385" lon="15.091824697468548"><ele>227.0</ele><time>2026-03-22T08:06:57Z</time></trkpt><trkpt lat="36.91899332820171" lon="15.091722086615128"><ele>227.00000000000003</ele><time>2026-03-22T08:06:59Z</time></trkpt><trkpt lat="36.919040999109484" lon="15.09165450117718"><ele>227.0</ele><time>2026-03-22T08:07:01Z</time></trkpt><trkpt lat="36.91910454280095" lon="15.0915829671555"><ele>227.0</ele><time>2026-03-22T08:07:08Z</time></trkpt><trkpt lat="36.919109377695015" lon="15.091661867639166"><ele>227.0</ele><time>2026-03-22T08:07:37Z</time></trkpt><trkpt lat="36.91920932648805" lon="15.091628737553036"><ele>227.00000000000003</ele><time>2026-03-22T08:07:42Z</time></trkpt><trkpt lat="36.919152725782595" lon="15.091664850767394"><ele>227.0</ele><time>2026-03-22T08:07:43Z</time></trkpt><trkpt lat="36.919154375833685" lon="15.091773397412728"><ele>227.0</ele><time>2026-03-22T08:08:07Z</time></trkpt><trkpt lat="36.91914696962375" lon="15.091858787030437"><ele>227.00000000000003</ele><time>2026-03-22T08:08:09Z</time></trkpt><trkpt lat="36.919178637673326" lon="15.091779773918342"><ele>227.0</ele><time>2026-03-22T08:08:17Z</time></trkpt><trkpt lat="36.91923171880499" lon="15.091710491569986"><ele>227.0</ele><time>2026-03-22T08:08:36Z</time></trkpt><trkpt lat="36.91927075724601" lon="15.091636360600596"><ele>227.00000000000003</ele><time>2026-03-22T08:08:38Z</time></trkpt><trkpt lat="36.91930771157746" lon="15.091570926860765"><ele>227.0</ele><time>2026-03-22T08:08:40Z</time></trkpt><trkpt lat="36.9193431886952" lon="15.091500647618936"><ele>227.0</ele><time>2026-03-22T08:09:17Z</time></trkpt><trkpt lat="36.91940397107634" lon="15.091398191421238"><ele>229.66666666666669</ele><time>2026-03-22T08:09:19Z</time></trkpt><trkpt lat="36.919447305693154" lon="15.091319107627571"><ele>232.33333333333334</ele><time>2026-03-22T08:09:21Z</time></trkpt><trkpt lat="36.91949356102662" lon="15.091235571212927"><ele>235.0</ele><time>2026-03-22T08:09:23Z</time></trkpt><trkpt lat="36.91954193751646" lon="15.091164465454728"><ele>237.66666666666669</ele><time>2026-03-22T08:09:25Z</time></trkpt><trkpt lat="36.91964901884801" lon="15.09112008420155"><ele>240.33333333333334</ele><time>2026-03-22T08:09:27Z</time></trkpt><trkpt lat="36.91972336800538" lon="15.091097245517343"><ele>243.0</ele><time>2026-03-22T08:09:29Z</time></trkpt><trkpt lat="36.919795382115126" lon="15.091113113581489"><ele>243.0</ele><time>2026-03-22T08:09:31Z</time></trkpt><trkpt lat="36.919758606206535" lon="15.0912566154041"><ele>243.0</ele><time>2026-03-22T08:09:34Z</time></trkpt><trkpt lat="36.91975708400894" lon="15.091343176261688"><ele>243.0</ele><time>2026-03-22T08:09:36Z</time></trkpt><trkpt lat="36.91973484185763" lon="15.091457835263773"><ele>243.0</ele><time>2026-03-22T08:09:39Z</time></trkpt><trkpt lat="36.91969729816238" lon="15.091554890470418"><ele>243.0</ele><time>2026-03-22T08:09:42Z</time></trkpt><trkpt lat="36.91964510046773" lon="15.091648253255826"><ele>243.16666666666666</ele><time>2026-03-22T08:09:45Z</time></trkpt><trkpt lat="36.919580733806356" lon="15.091717777584426"><ele>243.33333333333331</ele><time>2026-03-22T08:09:47Z</time></trkpt><trkpt lat="36.919549938822584" lon="15.091796366532579"><ele>243.5</ele><time>2026-03-22T08:09:51Z</time></trkpt><trkpt lat="36.919601104288226" lon="15.091859935189024"><ele>243.66666666666666</ele><time>2026-03-22T08:13:36Z</time></trkpt><trkpt lat="36.91953999766258" lon="15.09192121000448"><ele>243.83333333333331</ele><time>2026-03-22T08:13:40Z</time></trkpt><trkpt lat="36.91946308271862" lon="15.09196598139271"><ele>244.0</ele><time>2026-03-22T08:13:42Z</time></trkpt><trkpt lat="36.91937325701731" lon="15.092050014241416"><ele>244.0</ele><time>2026-03-22T08:13:44Z</time></trkpt><trkpt lat="36.9192755275189" lon="15.09216435794132"><ele>243.99999999999997</ele><time>2026-03-22T08:13:46Z</time></trkpt><trkpt lat="36.91919875502991" lon="15.092259764559463"><ele>243.99999999999997</ele><time>2026-03-22T08:13:47Z</time></trkpt><trkpt lat="36.91912796044329" lon="15.092351925800509"><ele>244.0</ele><time>2026-03-22T08:13:48Z</time></trkpt><trkpt lat="36.91906596354854" lon="15.092443230934434"><ele>244.0</ele><time>2026-03-22T08:13:49Z</time></trkpt><trkpt lat="36.91900026666308" lon="15.092534304715901"><ele>241.6</ele><time>2026-03-22T08:13:50Z</time></trkpt><trkpt lat="36.918947785726964" lon="15.092606874918046"><ele>239.2</ele><time>2026-03-22T08:13:51Z</time></trkpt><trkpt lat="36.91888471789121" lon="15.092695784615923"><ele>236.79999999999998</ele><time>2026-03-22T08:13:52Z</time></trkpt><trkpt lat="36.91881323927195" lon="15.092811785612417"><ele>234.39999999999998</ele><time>2026-03-22T08:13:53Z</time></trkpt><trkpt lat="36.9187351888181" lon="15.092934206707996"><ele>232.0</ele><time>2026-03-22T08:13:54Z</time></trkpt><trkpt lat="36.91868542463532" lon="15.092999095106867"><ele>231.99999999999997</ele><time>2026-03-22T08:13:55Z</time></trkpt><trkpt lat="36.918643788266216" lon="15.093059841273499"><ele>232.0</ele><time>2026-03-22T08:13:56Z</time></trkpt><trkpt lat="36.91857046398327" lon="15.09316140152317"><ele>232.0</ele><time>2026-03-22T08:13:58Z</time></trkpt><trkpt lat="36.91851853606059" lon="15.093271182111238"><ele>232.0</ele><time>2026-03-22T08:14:00Z</time></trkpt><trkpt lat="36.918570047364575" lon="15.093321774446954"><ele>231.99999999999997</ele><time>2026-03-22T08:14:02Z</time></trkpt><trkpt lat="36.9186550971272" lon="15.093286330058111"><ele>232.0</ele><time>2026-03-22T08:14:03Z</time></trkpt><trkpt lat="36.91870437825036" lon="15.093230323248418"><ele>229.16666666666666</ele><time>2026-03-22T08:14:05Z</time></trkpt><trkpt lat="36.91871812457752" lon="15.093333972096426"><ele>226.33333333333331</ele><time>2026-03-22T08:14:08Z</time></trkpt><trkpt lat="36.91868347402862" lon="15.093450924434213"><ele>223.5</ele><time>2026-03-22T08:14:09Z</time></trkpt><trkpt lat="36.91861922637588" lon="15.093489547246444"><ele>220.66666666666669</ele><time>2026-03-22T08:14:10Z</time></trkpt><trkpt lat="36.9186717659222" lon="15.093545549548566"><ele>217.83333333333334</ele><time>2026-03-22T08:14:13Z</time></trkpt><trkpt lat="36.91876075473037" lon="15.093455274149994"><ele>215.0</ele><time>2026-03-22T08:14:16Z</time></trkpt><trkpt lat="36.91882363103003" lon="15.0934052021604"><ele>215.00000000000003</ele><time>2026-03-22T08:14:18Z</time></trkpt><trkpt lat="36.91886690916267" lon="15.093485332551795"><ele>215.0</ele><time>2026-03-22T08:14:20Z</time></trkpt><trkpt lat="36.918820922848475" lon="15.09354445853192"><ele>215.0</ele><time>2026-03-22T08:14:22Z</time></trkpt><trkpt lat="36.9187808276812" lon="15.093630472943405"><ele>215.0</ele><time>2026-03-22T08:14:26Z</time></trkpt><trkpt lat="36.91871639147395" lon="15.093707432201175"><ele>215.00000000000003</ele><time>2026-03-22T08:14:30Z</time></trkpt><trkpt lat="36.918791027657235" lon="15.09371359832475"><ele>215.0</ele><time>2026-03-22T08:14:32Z</time></trkpt><trkpt lat="36.91888888459401" lon="15.093607977271343"><ele>215.00000000000003</ele><time>2026-03-22T08:14:35Z</time></trkpt><trkpt lat="36.91897425543853" lon="15.093565516641169"><ele>215.0</ele><time>2026-03-22T08:14:36Z</time></trkpt><trkpt lat="36.91903363256511" lon="15.093530138407493"><ele>215.0</ele><time>2026-03-22T08:14:37Z</time></trkpt><trkpt lat="36.91907636887424" lon="15.093457184522054"><ele>215.0</ele><time>2026-03-22T08:14:39Z</time></trkpt><trkpt lat="36.91914620650904" lon="15.093530837949253"><ele>215.00000000000003</ele><time>2026-03-22T08:14:41Z</time></trkpt><trkpt lat="36.91910874458786" lon="15.093619949686701"><ele>215.0</ele><time>2026-03-22T08:14:43Z</time></trkpt><trkpt lat="36.91905633375409" lon="15.093686745685174"><ele>215.00000000000003</ele><time>2026-03-22T08:14:45Z</time></trkpt><trkpt lat="36.91901184185993" lon="15.093781561309456"><ele>215.0</ele><time>2026-03-22T08:14:47Z</time></trkpt><trkpt lat="36.918965231178724" lon="15.093900922566666"><ele>215.0</ele><time>2026-03-22T08:14:49Z</time></trkpt><trkpt lat="36.918968537876495" lon="15.094007244975423"><ele>215.0</ele><time>2026-03-22T08:14:52Z</time></trkpt><trkpt lat="36.91893326164105" lon="15.094100254146031"><ele>215.00000000000003</ele><time>2026-03-22T08:14:55Z</time></trkpt><trkpt lat="36.91893800761801" lon="15.094191607036363"><ele>215.0</ele><time>2026-03-22T08:14:59Z</time></trkpt><trkpt lat="36.91900433403623" lon="15.094158328121301"><ele>215.00000000000003</ele><time>2026-03-22T08:15:02Z</time></trkpt><trkpt lat="36.91906147644924" lon="15.09407637162619"><ele>215.0</ele><time>2026-03-22T08:15:04Z</time></trkpt><trkpt lat="36.91911363187746" lon="15.094004861855987"><ele>215.0</ele><time>2026-03-22T08:15:07Z</time></trkpt><trkpt lat="36.91915574500841" lon="15.094087222388355"><ele>215.0</ele><time>2026-03-22T08:15:11Z</time></trkpt><trkpt lat="36.919159855139576" lon="15.094199524474288"><ele>215.00000000000003</ele><time>2026-03-22T08:15:15Z</time></trkpt><trkpt lat="36.91916525264595" lon="15.094306606658975"><ele>215.0</ele><time>2026-03-22T08:15:17Z</time></trkpt><trkpt lat="36.919139796200234" lon="15.094415720839306"><ele>211.16666666666669</ele><time>2026-03-22T08:15:19Z</time></trkpt><trkpt lat="36.919105067956494" lon="15.094520804214255"><ele>207.33333333333334</ele><time>2026-03-22T08:15:22Z</time></trkpt><trkpt lat="36.91916091833834" lon="15.094592809033438"><ele>203.5</ele><time>2026-03-22T08:15:24Z</time></trkpt><trkpt lat="36.91920147775684" lon="15.09465360713111"><ele>199.66666666666669</ele><time>2026-03-22T08:15:27Z</time></trkpt><trkpt lat="36.91918655591855" lon="15.094738560000845"><ele>195.83333333333334</ele><time>2026-03-22T08:16:50Z</time></trkpt><trkpt lat="36.919110769781035" lon="15.094801333715134"><ele>192.0</ele><time>2026-03-22T08:16:53Z</time></trkpt><trkpt lat="36.91903625123102" lon="15.094895489474618"><ele>187.5</ele><time>2026-03-22T08:16:55Z</time></trkpt><trkpt lat="36.91891633457898" lon="15.094996662831624"><ele>183.0</ele><time>2026-03-22T08:16:57Z</time></trkpt><trkpt lat="36.918793494048344" lon="15.095129486264177"><ele>178.5</ele><time>2026-03-22T08:16:59Z</time></trkpt><trkpt lat="36.918727812716774" lon="15.095180709524707"><ele>174.0</ele><time>2026-03-22T08:17:00Z</time></trkpt><trkpt lat="36.918668701748466" lon="15.09522767280603"><ele>174.0</ele><time>2026-03-22T08:17:01Z</time></trkpt><trkpt lat="36.918618703698144" lon="15.095292535190946"><ele>174.0</ele><time>2026-03-22T08:17:02Z</time></trkpt><trkpt lat="36.918563903524294" lon="15.095346561473177"><ele>174.0</ele><time>2026-03-22T08:17:03Z</time></trkpt><trkpt lat="36.9184827100141" lon="15.0953680848963"><ele>174.0</ele><time>2026-03-22T08:17:05Z</time></trkpt><trkpt lat="36.91840923113282" lon="15.095374048154211"><ele>174.0</ele><time>2026-03-22T08:17:06Z</time></trkpt><trkpt lat="36.91832777418213" lon="15.095355349062178"><ele>174.0</ele><time>2026-03-22T08:17:07Z</time></trkpt><trkpt lat="36.91826156678922" lon="15.095339215905138"><ele>174.0</ele><time>2026-03-22T08:17:08Z</time></trkpt><trkpt lat="36.91819319091139" lon="15.095332344784927"><ele>174.5</ele><time>2026-03-22T08:17:09Z</time></trkpt><trkpt lat="36.91811605429304" lon="15.095345191872354"><ele>175.0</ele><time>2026-03-22T08:17:10Z</time></trkpt><trkpt lat="36.91804456365855" lon="15.095368625762976"><ele>175.5</ele><time>2026-03-22T08:17:11Z</time></trkpt><trkpt lat="36.91797380036638" lon="15.095391739581581"><ele>176.0</ele><time>2026-03-22T08:17:12Z</time></trkpt><trkpt lat="36.917905530924315" lon="15.095414686037865"><ele>176.5</ele><time>2026-03-22T08:17:13Z</time></trkpt><trkpt lat="36.917778114656485" lon="15.095459997342047"><ele>177.0</ele><time>2026-03-22T08:17:15Z</time></trkpt><trkpt lat="36.91770592104378" lon="15.095489787500558"><ele>177.0</ele><time>2026-03-22T08:17:16Z</time></trkpt><trkpt lat="36.91764083237074" lon="15.095518001376693"><ele>177.0</ele><time>2026-03-22T08:17:17Z</time></trkpt><trkpt lat="36.9175743901067" lon="15.09555557841101"><ele>177.0</ele><time>2026-03-22T08:17:18Z</time></trkpt><trkpt lat="36.91751565302866" lon="15.09560279178698"><ele>177.0</ele><time>2026-03-22T08:17:19Z</time></trkpt><trkpt lat="36.917452706457574" lon="15.095656441715693"><ele>177.0</ele><time>2026-03-22T08:17:20Z</time></trkpt><trkpt lat="36.91738012414462" lon="15.095686558062313"><ele>177.0</ele><time>2026-03-22T08:17:21Z</time></trkpt><trkpt lat="36.917313513879485" lon="15.095735863301686"><ele>177.0</ele><time>2026-03-22T08:17:22Z</time></trkpt><trkpt lat="36.9172372794802" lon="15.095759339333075"><ele>173.83333333333334</ele><time>2026-03-22T08:17:23Z</time></trkpt><trkpt lat="36.91715331214378" lon="15.095790822352164"><ele>170.66666666666666</ele><time>2026-03-22T08:17:24Z</time></trkpt><trkpt lat="36.91707027657685" lon="15.095795113937992"><ele>167.5</ele><time>2026-03-22T08:17:25Z</time></trkpt><trkpt lat="36.916995757573154" lon="15.095816353026725"><ele>164.33333333333331</ele><time>2026-03-22T08:17:26Z</time></trkpt><trkpt lat="36.91691932215318" lon="15.095838138347183"><ele>161.16666666666666</ele><time>2026-03-22T08:17:27Z</time></trkpt><trkpt lat="36.91684248112931" lon="15.095860039263162"><ele>158.0</ele><time>2026-03-22T08:17:28Z</time></trkpt><trkpt lat="36.916760147760264" lon="15.09588350559044"><ele>157.33333333333331</ele><time>2026-03-22T08:17:29Z</time></trkpt><trkpt lat="36.916685723076085" lon="15.095904980500098"><ele>156.66666666666666</ele><time>2026-03-22T08:17:30Z</time></trkpt><trkpt lat="36.916605641258236" lon="15.09592863351239"><ele>156.0</ele><time>2026-03-22T08:17:31Z</time></trkpt><trkpt lat="36.91651384128784" lon="15.095955747602599"><ele>155.33333333333334</ele><time>2026-03-22T08:17:32Z</time></trkpt><trkpt lat="36.91644376447709" lon="15.095974245728186"><ele>154.66666666666669</ele><time>2026-03-22T08:17:33Z</time></trkpt><trkpt lat="36.91635716669968" lon="15.095994362566376"><ele>154.0</ele><time>2026-03-22T08:17:34Z</time></trkpt><trkpt lat="36.91627992741029" lon="15.096010080807847"><ele>154.0</ele><time>2026-03-22T08:17:35Z</time></trkpt><trkpt lat="36.91619499494332" lon="15.096026754092492"><ele>154.0</ele><time>2026-03-22T08:17:36Z</time></trkpt><trkpt lat="36.91611366405323" lon="15.096042674687578"><ele>154.0</ele><time>2026-03-22T08:17:37Z</time></trkpt><trkpt lat="36.91603115791027" lon="15.096069396236068"><ele>154.0</ele><time>2026-03-22T08:17:38Z</time></trkpt><trkpt lat="36.91594390756084" lon="15.09608154822121"><ele>154.0</ele><time>2026-03-22T08:17:39Z</time></trkpt><trkpt lat="36.91586389035222" lon="15.09610854178191"><ele>154.0</ele><time>2026-03-22T08:17:40Z</time></trkpt><trkpt lat="36.91577927117776" lon="15.096121728539243"><ele>152.6</ele><time>2026-03-22T08:17:41Z</time></trkpt><trkpt lat="36.91568494485396" lon="15.096147929227815"><ele>151.2</ele><time>2026-03-22T08:17:42Z</time></trkpt><trkpt lat="36.91559668164997" lon="15.096189452792574"><ele>149.79999999999998</ele><time>2026-03-22T08:17:43Z</time></trkpt><trkpt lat="36.915524559250265" lon="15.096267124868323"><ele>148.4</ele><time>2026-03-22T08:17:44Z</time></trkpt><trkpt lat="36.915465901156466" lon="15.096361600191662"><ele>147.0</ele><time>2026-03-22T08:17:45Z</time></trkpt><trkpt lat="36.91541148184586" lon="15.0964512206976"><ele>147.0</ele><time>2026-03-22T08:17:46Z</time></trkpt><trkpt lat="36.915372515916914" lon="15.09653627938222"><ele>147.0</ele><time>2026-03-22T08:17:47Z</time></trkpt><trkpt lat="36.915320005741286" lon="15.096627803663115"><ele>147.0</ele><time>2026-03-22T08:17:48Z</time></trkpt><trkpt lat="36.91526599594872" lon="15.096699014773364"><ele>147.0</ele><time>2026-03-22T08:17:49Z</time></trkpt><trkpt lat="36.915237919293496" lon="15.096804775975778"><ele>147.0</ele><time>2026-03-22T08:17:51Z</time></trkpt><trkpt lat="36.91522627037256" lon="15.096889857999459"><ele>147.0</ele><time>2026-03-22T08:17:54Z</time></trkpt><trkpt lat="36.91514033660221" lon="15.096887515891856"><ele>146.16666666666666</ele><time>2026-03-22T08:17:57Z</time></trkpt><trkpt lat="36.91508364816605" lon="15.096847586859553"><ele>145.33333333333334</ele><time>2026-03-22T08:17:59Z</time></trkpt><trkpt lat="36.91501996119035" lon="15.096858362955729"><ele>144.5</ele><time>2026-03-22T08:18:02Z</time></trkpt><trkpt lat="36.91508308528521" lon="15.096969736925594"><ele>143.66666666666669</ele><time>2026-03-22T08:18:05Z</time></trkpt><trkpt lat="36.915136727118785" lon="15.097022582944563"><ele>142.83333333333334</ele><time>2026-03-22T08:18:06Z</time></trkpt><trkpt lat="36.91518246740304" lon="15.09709664890784"><ele>142.0</ele><time>2026-03-22T08:18:07Z</time></trkpt><trkpt lat="36.91521810131066" lon="15.097206978418045"><ele>142.0</ele><time>2026-03-22T08:18:08Z</time></trkpt><trkpt lat="36.91527182231252" lon="15.097304187019374"><ele>142.0</ele><time>2026-03-22T08:18:09Z</time></trkpt><trkpt lat="36.91531666134687" lon="15.097439953919526"><ele>142.0</ele><time>2026-03-22T08:18:10Z</time></trkpt><trkpt lat="36.915352123529026" lon="15.097560748107911"><ele>142.0</ele><time>2026-03-22T08:18:11Z</time></trkpt><trkpt lat="36.915416183764066" lon="15.097677022075702"><ele>142.0</ele><time>2026-03-22T08:18:12Z</time></trkpt><trkpt lat="36.91546876580785" lon="15.097796697450349"><ele>142.25</ele><time>2026-03-22T08:18:13Z</time></trkpt><trkpt lat="36.915528109235375" lon="15.09792697987219"><ele>142.5</ele><time>2026-03-22T08:18:14Z</time></trkpt><trkpt lat="36.91559297278494" lon="15.098065290240477"><ele>142.75</ele><time>2026-03-22T08:18:15Z</time></trkpt><trkpt lat="36.91565374716375" lon="15.098213807952916"><ele>143.0</ele><time>2026-03-22T08:18:16Z</time></trkpt><trkpt lat="36.91571674114999" lon="15.098362975642672"><ele>143.0</ele><time>2026-03-22T08:18:17Z</time></trkpt><trkpt lat="36.91578513511211" lon="15.098522249524569"><ele>143.0</ele><time>2026-03-22T08:18:18Z</time></trkpt><trkpt lat="36.915852440298835" lon="15.098676370289535"><ele>143.0</ele><time>2026-03-22T08:18:19Z</time></trkpt><trkpt lat="36.91591831659635" lon="15.098838969665433"><ele>143.0</ele><time>2026-03-22T08:18:20Z</time></trkpt><trkpt lat="36.91599480100942" lon="15.098985444260078"><ele>143.5</ele><time>2026-03-22T08:18:21Z</time></trkpt><trkpt lat="36.916090081297185" lon="15.09911339626791"><ele>144.0</ele><time>2026-03-22T08:18:22Z</time></trkpt><trkpt lat="36.91619342942025" lon="15.099239480246267"><ele>144.5</ele><time>2026-03-22T08:18:23Z</time></trkpt><trkpt lat="36.91630737598034" lon="15.099368772173122"><ele>145.0</ele><time>2026-03-22T08:18:24Z</time></trkpt><trkpt lat="36.91643381928807" lon="15.099479868145886"><ele>145.0</ele><time>2026-03-22T08:18:25Z</time></trkpt><trkpt lat="36.91657421272854" lon="15.099580209617429"><ele>145.0</ele><time>2026-03-22T08:18:26Z</time></trkpt><trkpt lat="36.91671390240303" lon="15.099685131993109"><ele>145.0</ele><time>2026-03-22T08:18:27Z</time></trkpt><trkpt lat="36.916847312595024" lon="15.099794072467004"><ele>144.66666666666669</ele><time>2026-03-22T08:18:28Z</time></trkpt><trkpt lat="36.91697278295375" lon="15.099901238793265"><ele>144.33333333333334</ele><time>2026-03-22T08:18:29Z</time></trkpt><trkpt lat="36.917094167632996" lon="15.100017211813011"><ele>144.0</ele><time>2026-03-22T08:18:30Z</time></trkpt><trkpt lat="36.917210705932" lon="15.100138036335332"><ele>144.0</ele><time>2026-03-22T08:18:31Z</time></trkpt><trkpt lat="36.91732918662037" lon="15.100263320467036"><ele>144.0</ele><time>2026-03-22T08:18:32Z</time></trkpt><trkpt lat="36.91745659586816" lon="15.100363132883357"><ele>144.0</ele><time>2026-03-22T08:18:33Z</time></trkpt><trkpt lat="36.9175660284761" lon="15.100463813420852"><ele>144.0</ele><time>2026-03-22T08:18:34Z</time></trkpt><trkpt lat="36.91765906909763" lon="15.100596167885444"><ele>144.25</ele><time>2026-03-22T08:18:35Z</time></trkpt><trkpt lat="36.91774703665457" lon="15.100710915107626"><ele>144.5</ele><time>2026-03-22T08:18:36Z</time></trkpt><trkpt lat="36.91782973727573" lon="15.100841962616204"><ele>144.75</ele><time>2026-03-22T08:18:37Z</time></trkpt><trkpt lat="36.91790192965355" lon="15.100982021271363"><ele>145.0</ele><time>2026-03-22T08:18:38Z</time></trkpt><trkpt lat="36.91796488153283" lon="15.101123896978322"><ele>144.0</ele><time>2026-03-22T08:18:39Z</time></trkpt><trkpt lat="36.91800305203895" lon="15.101281156661898"><ele>143.0</ele><time>2026-03-22T08:18:40Z</time></trkpt><trkpt lat="36.918012416954994" lon="15.101446768947987"><ele>142.0</ele><time>2026-03-22T08:18:41Z</time></trkpt><trkpt lat="36.9179993816659" lon="15.101611230379186"><ele>141.0</ele><time>2026-03-22T08:18:42Z</time></trkpt><trkpt lat="36.91796828695506" lon="15.101762230834424"><ele>140.0</ele><time>2026-03-22T08:18:43Z</time></trkpt><trkpt lat="36.9179134761492" lon="15.101905807498744"><ele>139.0</ele><time>2026-03-22T08:18:44Z</time></trkpt><trkpt lat="36.91784621535065" lon="15.10204574098946"><ele>138.0</ele><time>2026-03-22T08:18:45Z</time></trkpt><trkpt lat="36.91777769130852" lon="15.102188942582455"><ele>137.0</ele><time>2026-03-22T08:18:46Z</time></trkpt><trkpt lat="36.917699009527645" lon="15.102339896218542"><ele>137.0</ele><time>2026-03-22T08:18:47Z</time></trkpt><trkpt lat="36.91762617557485" lon="15.102495099723487"><ele>137.0</ele><time>2026-03-22T08:18:48Z</time></trkpt><trkpt lat="36.917561610214875" lon="15.102655436276592"><ele>137.0</ele><time>2026-03-22T08:18:49Z</time></trkpt><trkpt lat="36.91751540080396" lon="15.102817932927817"><ele>137.0</ele><time>2026-03-22T08:18:50Z</time></trkpt><trkpt lat="36.917509737048476" lon="15.102994486339224"><ele>137.0</ele><time>2026-03-22T08:18:51Z</time></trkpt><trkpt lat="36.91753592206802" lon="15.103182597890747"><ele>137.0</ele><time>2026-03-22T08:18:52Z</time></trkpt><trkpt lat="36.917547667756295" lon="15.10337315158016"><ele>137.0</ele><time>2026-03-22T08:18:53Z</time></trkpt><trkpt lat="36.917491343802816" lon="15.10354242327766"><ele>134.66666666666666</ele><time>2026-03-22T08:18:54Z</time></trkpt><trkpt lat="36.91742330353938" lon="15.10373930921075"><ele>132.33333333333334</ele><time>2026-03-22T08:18:55Z</time></trkpt><trkpt lat="36.91735521676144" lon="15.10393099267375"><ele>130.0</ele><time>2026-03-22T08:18:56Z</time></trkpt><trkpt lat="36.91727652531236" lon="15.104145993779388"><ele>128.66666666666669</ele><time>2026-03-22T08:18:57Z</time></trkpt><trkpt lat="36.91717773316942" lon="15.104307537629063"><ele>127.33333333333334</ele><time>2026-03-22T08:18:58Z</time></trkpt><trkpt lat="36.91708476024986" lon="15.104494466859412"><ele>126.0</ele><time>2026-03-22T08:18:59Z</time></trkpt><trkpt lat="36.91699259860531" lon="15.104699174657881"><ele>124.0</ele><time>2026-03-22T08:19:00Z</time></trkpt><trkpt lat="36.91692361384115" lon="15.104919297888932"><ele>122.0</ele><time>2026-03-22T08:19:01Z</time></trkpt><trkpt lat="36.916871691676505" lon="15.105125178256165"><ele>120.0</ele><time>2026-03-22T08:19:02Z</time></trkpt><trkpt lat="36.91675929172589" lon="15.105260712346508"><ele>122.75</ele><time>2026-03-22T08:19:03Z</time></trkpt><trkpt lat="36.9166417190023" lon="15.105355259255262"><ele>125.5</ele><time>2026-03-22T08:19:04Z</time></trkpt><trkpt lat="36.91655127792098" lon="15.105463313957603"><ele>128.25</ele><time>2026-03-22T08:19:05Z</time></trkpt><trkpt lat="36.91647106880976" lon="15.105557319779757"><ele>131.0</ele><time>2026-03-22T08:19:06Z</time></trkpt><trkpt lat="36.916395135687345" lon="15.105714269180327"><ele>128.75</ele><time>2026-03-22T08:19:07Z</time></trkpt><trkpt lat="36.91635829211547" lon="15.105915683798049"><ele>126.5</ele><time>2026-03-22T08:19:08Z</time></trkpt><trkpt lat="36.91631818701873" lon="15.106070695348818"><ele>124.25</ele><time>2026-03-22T08:19:09Z</time></trkpt><trkpt lat="36.916277994993855" lon="15.106220886678381"><ele>122.0</ele><time>2026-03-22T08:19:10Z</time></trkpt><trkpt lat="36.91623071086414" lon="15.10637235535414"><ele>122.0</ele><time>2026-03-22T08:19:11Z</time></trkpt><trkpt lat="36.91617915345318" lon="15.106523887700048"><ele>122.0</ele><time>2026-03-22T08:19:12Z</time></trkpt><trkpt lat="36.9161346116019" lon="15.10665972664234"><ele>122.0</ele><time>2026-03-22T08:19:13Z</time></trkpt><trkpt lat="36.91609424105148" lon="15.106788217781773"><ele>122.0</ele><time>2026-03-22T08:19:14Z</time></trkpt><trkpt lat="36.91605249145253" lon="15.106914911199356"><ele>122.5</ele><time>2026-03-22T08:19:15Z</time></trkpt><trkpt lat="36.9159833463717" lon="15.107020506065503"><ele>123.0</ele><time>2026-03-22T08:19:16Z</time></trkpt><trkpt lat="36.915917307714835" lon="15.10713242959687"><ele>123.5</ele><time>2026-03-22T08:19:17Z</time></trkpt><trkpt lat="36.9158452969112" lon="15.107251427062975"><ele>124.0</ele><time>2026-03-22T08:19:18Z</time></trkpt><trkpt lat="36.915784243183786" lon="15.107380311885887"><ele>122.0</ele><time>2026-03-22T08:19:19Z</time></trkpt><trkpt lat="36.915716724816896" lon="15.107491338270753"><ele>120.0</ele><time>2026-03-22T08:19:20Z</time></trkpt><trkpt lat="36.91564828165358" lon="15.107608247846084"><ele>118.0</ele><time>2026-03-22T08:19:21Z</time></trkpt><trkpt lat="36.915576488203584" lon="15.10772547116625"><ele>116.0</ele><time>2026-03-22T08:19:22Z</time></trkpt><trkpt lat="36.91551004527019" lon="15.10785794843787"><ele>116.0</ele><time>2026-03-22T08:19:23Z</time></trkpt><trkpt lat="36.915449685513636" lon="15.107994391401968"><ele>116.0</ele><time>2026-03-22T08:19:24Z</time></trkpt><trkpt lat="36.915393317427714" lon="15.1081298293196"><ele>116.0</ele><time>2026-03-22T08:19:25Z</time></trkpt><trkpt lat="36.91535101888111" lon="15.108263245274555"><ele>116.0</ele><time>2026-03-22T08:19:26Z</time></trkpt><trkpt lat="36.9153205840775" lon="15.108408719668352"><ele>114.8</ele><time>2026-03-22T08:19:27Z</time></trkpt><trkpt lat="36.915303558670075" lon="15.10854929720785"><ele>113.6</ele><time>2026-03-22T08:19:28Z</time></trkpt><trkpt lat="36.915291575526595" lon="15.10869592400367"><ele>112.4</ele><time>2026-03-22T08:19:29Z</time></trkpt><trkpt lat="36.9152800916738" lon="15.108827168934784"><ele>111.2</ele><time>2026-03-22T08:19:30Z</time></trkpt><trkpt lat="36.91526940304721" lon="15.10895695978351"><ele>110.0</ele><time>2026-03-22T08:19:31Z</time></trkpt><trkpt lat="36.915257058719874" lon="15.109081098518786"><ele>109.8</ele><time>2026-03-22T08:19:32Z</time></trkpt><trkpt lat="36.91524891644892" lon="15.109199828039207"><ele>109.6</ele><time>2026-03-22T08:19:33Z</time></trkpt><trkpt lat="36.915236785769025" lon="15.109316035615894"><ele>109.4</ele><time>2026-03-22T08:19:34Z</time></trkpt><trkpt lat="36.91521683827956" lon="15.109418719881702"><ele>109.2</ele><time>2026-03-22T08:19:35Z</time></trkpt><trkpt lat="36.91522621630026" lon="15.109539902971298"><ele>109.0</ele><time>2026-03-22T08:19:36Z</time></trkpt><trkpt lat="36.91521572231225" lon="15.10965213293177"><ele>109.00000000000001</ele><time>2026-03-22T08:19:37Z</time></trkpt><trkpt lat="36.91520758412475" lon="15.109753751152224"><ele>109.0</ele><time>2026-03-22T08:19:38Z</time></trkpt><trkpt lat="36.915196605994105" lon="15.109842247726274"><ele>109.0</ele><time>2026-03-22T08:19:39Z</time></trkpt><trkpt lat="36.9151799506382" lon="15.109924479378767"><ele>109.0</ele><time>2026-03-22T08:19:40Z</time></trkpt><trkpt lat="36.91517488391015" lon="15.110011944543913"><ele>109.00000000000001</ele><time>2026-03-22T08:19:41Z</time></trkpt><trkpt lat="36.915159596871206" lon="15.110170778626264"><ele>109.0</ele><time>2026-03-22T08:19:43Z</time></trkpt><trkpt lat="36.915168576660186" lon="15.110252798965071"><ele>108.57142857142857</ele><time>2026-03-22T08:19:44Z</time></trkpt><trkpt lat="36.91518521988408" lon="15.110336561038931"><ele>108.14285714285714</ele><time>2026-03-22T08:19:45Z</time></trkpt><trkpt lat="36.91521387372427" lon="15.110422145068636"><ele>107.71428571428572</ele><time>2026-03-22T08:19:46Z</time></trkpt><trkpt lat="36.915252431358766" lon="15.11050151642537"><ele>107.28571428571428</ele><time>2026-03-22T08:19:47Z</time></trkpt><trkpt lat="36.915306708695205" lon="15.110575003190798"><ele>106.85714285714285</ele><time>2026-03-22T08:19:48Z</time></trkpt><trkpt lat="36.915363490716544" lon="15.110642760991427"><ele>106.42857142857143</ele><time>2026-03-22T08:19:49Z</time></trkpt><trkpt lat="36.91541494041821" lon="15.110702072489243"><ele>106.0</ele><time>2026-03-22T08:19:50Z</time></trkpt><trkpt lat="36.915470806954524" lon="15.110782089177142"><ele>104.83333333333334</ele><time>2026-03-22T08:19:51Z</time></trkpt><trkpt lat="36.91551369872561" lon="15.11085523239138"><ele>103.66666666666667</ele><time>2026-03-22T08:19:52Z</time></trkpt><trkpt lat="36.91557668918652" lon="15.111011823060986"><ele>102.5</ele><time>2026-03-22T08:19:54Z</time></trkpt><trkpt lat="36.91560132971042" lon="15.11109828225999"><ele>101.33333333333334</ele><time>2026-03-22T08:19:55Z</time></trkpt><trkpt lat="36.9156192496275" lon="15.111188410887019"><ele>100.16666666666667</ele><time>2026-03-22T08:19:56Z</time></trkpt><trkpt lat="36.915633062190494" lon="15.1112896626942"><ele>99.0</ele><time>2026-03-22T08:19:57Z</time></trkpt><trkpt lat="36.915639722978725" lon="15.11136928772362"><ele>99.0</ele><time>2026-03-22T08:19:58Z</time></trkpt><trkpt lat="36.9156543717907" lon="15.111454586350648"><ele>99.0</ele><time>2026-03-22T08:19:59Z</time></trkpt><trkpt lat="36.9156708601372" lon="15.111550596396572"><ele>99.0</ele><time>2026-03-22T08:20:00Z</time></trkpt><trkpt lat="36.91568785252521" lon="15.111649541398972"><ele>99.0</ele><time>2026-03-22T08:20:01Z</time></trkpt><trkpt lat="36.91571893418484" lon="15.111738460896415"><ele>99.0</ele><time>2026-03-22T08:20:02Z</time></trkpt><trkpt lat="36.91573356424989" lon="15.111823415906985"><ele>99.0</ele><time>2026-03-22T08:20:03Z</time></trkpt><trkpt lat="36.91580144810258" lon="15.111781618552254"><ele>99.0</ele><time>2026-03-22T08:20:07Z</time></trkpt><trkpt lat="36.91576439672202" lon="15.11163450176941"><ele>99.0</ele><time>2026-03-22T08:20:09Z</time></trkpt><trkpt lat="36.91574347510018" lon="15.111541256174847"><ele>99.0</ele><time>2026-03-22T08:20:10Z</time></trkpt><trkpt lat="36.915734823401245" lon="15.11143434097881"><ele>99.0</ele><time>2026-03-22T08:20:11Z</time></trkpt><trkpt lat="36.91570542479518" lon="15.111313778142021"><ele>99.0</ele><time>2026-03-22T08:20:12Z</time></trkpt><trkpt lat="36.91568177418642" lon="15.111212254837033"><ele>99.0</ele><time>2026-03-22T08:20:13Z</time></trkpt><trkpt lat="36.91567537344991" lon="15.111091290852855"><ele>99.0</ele><time>2026-03-22T08:20:15Z</time></trkpt><trkpt lat="36.915750572903356" lon="15.111041773713858"><ele>99.0</ele><time>2026-03-22T08:20:17Z</time></trkpt><trkpt lat="36.915839501569046" lon="15.111055487235028"><ele>99.0</ele><time>2026-03-22T08:20:19Z</time></trkpt><trkpt lat="36.915922105661345" lon="15.111115214264519"><ele>99.0</ele><time>2026-03-22T08:20:21Z</time></trkpt><trkpt lat="36.9159918050889" lon="15.111166743968386"><ele>99.0</ele><time>2026-03-22T08:20:24Z</time></trkpt><trkpt lat="36.91611292413476" lon="15.1112047489086"><ele>100.0</ele><time>2026-03-22T08:20:26Z</time></trkpt><trkpt lat="36.91618622567201" lon="15.111228129626651"><ele>101.0</ele><time>2026-03-22T08:20:27Z</time></trkpt><trkpt lat="36.916266944873904" lon="15.111199115448885"><ele>102.0</ele><time>2026-03-22T08:20:28Z</time></trkpt><trkpt lat="36.91633544228471" lon="15.111229814814807"><ele>103.0</ele><time>2026-03-22T08:20:29Z</time></trkpt><trkpt lat="36.91641032780579" lon="15.111264987474325"><ele>104.0</ele><time>2026-03-22T08:20:30Z</time></trkpt><trkpt lat="36.9164763926328" lon="15.1112904432172"><ele>105.0</ele><time>2026-03-22T08:20:31Z</time></trkpt><trkpt lat="36.916535989633324" lon="15.111329689633244"><ele>106.0</ele><time>2026-03-22T08:20:32Z</time></trkpt><trkpt lat="36.91664185243206" lon="15.11138717312597"><ele>106.0</ele><time>2026-03-22T08:20:34Z</time></trkpt><trkpt lat="36.916751166035965" lon="15.111384461560606"><ele>106.0</ele><time>2026-03-22T08:20:36Z</time></trkpt><trkpt lat="36.916868513616244" lon="15.111384461555497"><ele>106.0</ele><time>2026-03-22T08:20:38Z</time></trkpt><trkpt lat="36.91699522874363" lon="15.111384461555653"><ele>106.0</ele><time>2026-03-22T08:20:40Z</time></trkpt><trkpt lat="36.91706012072006" lon="15.111384461554895"><ele>106.0</ele><time>2026-03-22T08:20:41Z</time></trkpt><trkpt lat="36.91712462513597" lon="15.111575023355613"><ele>106.00000000000001</ele><time>2026-03-22T08:20:42Z</time></trkpt><trkpt lat="36.917190859624384" lon="15.111596400573603"><ele>106.0</ele><time>2026-03-22T08:20:43Z</time></trkpt><trkpt lat="36.91726343628034" lon="15.111602557676429"><ele>106.0</ele><time>2026-03-22T08:20:44Z</time></trkpt><trkpt lat="36.91733707892564" lon="15.111601814364171"><ele>106.0</ele><time>2026-03-22T08:20:46Z</time></trkpt><trkpt lat="36.917386769153886" lon="15.111507714177291"><ele>106.00000000000001</ele><time>2026-03-22T08:20:47Z</time></trkpt><trkpt lat="36.917468718573616" lon="15.111392721063005"><ele>106.0</ele><time>2026-03-22T08:20:49Z</time></trkpt><trkpt lat="36.91751609155273" lon="15.111318362365385"><ele>106.8</ele><time>2026-03-22T08:20:51Z</time></trkpt><trkpt lat="36.917603589752325" lon="15.111200952712574"><ele>107.6</ele><time>2026-03-22T08:20:53Z</time></trkpt><trkpt lat="36.91765280694001" lon="15.111140821051047"><ele>108.4</ele><time>2026-03-22T08:20:54Z</time></trkpt><trkpt lat="36.91771884275237" lon="15.111127403651674"><ele>109.2</ele><time>2026-03-22T08:20:55Z</time></trkpt><trkpt lat="36.91781605791309" lon="15.111110380477067"><ele>110.0</ele><time>2026-03-22T08:20:56Z</time></trkpt><trkpt lat="36.91790375274003" lon="15.111082752978785"><ele>109.99999999999999</ele><time>2026-03-22T08:20:57Z</time></trkpt><trkpt lat="36.9179169628224" lon="15.110987986740788"><ele>110.0</ele><time>2026-03-22T08:20:58Z</time></trkpt><trkpt lat="36.9179748272253" lon="15.110907454851281"><ele>110.0</ele><time>2026-03-22T08:21:00Z</time></trkpt><trkpt lat="36.91805268763135" lon="15.11092536326806"><ele>110.0</ele><time>2026-03-22T08:21:01Z</time></trkpt><trkpt lat="36.91815271511188" lon="15.110903743847873"><ele>109.99999999999999</ele><time>2026-03-22T08:21:03Z</time></trkpt><trkpt lat="36.91821861034476" lon="15.110905140781272"><ele>110.0</ele><time>2026-03-22T08:21:04Z</time></trkpt><trkpt lat="36.918281185042595" lon="15.110888793461807"><ele>110.0</ele><time>2026-03-22T08:21:05Z</time></trkpt><trkpt lat="36.91836104267038" lon="15.110891124299165"><ele>110.0</ele><time>2026-03-22T08:21:06Z</time></trkpt><trkpt lat="36.91846664201646" lon="15.110886196092181"><ele>110.0</ele><time>2026-03-22T08:21:08Z</time></trkpt><trkpt lat="36.91856243695621" lon="15.11086254578804"><ele>110.0</ele><time>2026-03-22T08:21:10Z</time></trkpt><trkpt lat="36.91863288558752" lon="15.110883912816943"><ele>110.0</ele><time>2026-03-22T08:21:11Z</time></trkpt><trkpt lat="36.918710445919665" lon="15.110974814513558"><ele>110.8</ele><time>2026-03-22T08:21:13Z</time></trkpt><trkpt lat="36.91871854534312" lon="15.111091665518526"><ele>111.6</ele><time>2026-03-22T08:21:15Z</time></trkpt><trkpt lat="36.918709585105596" lon="15.111203257790159"><ele>112.4</ele><time>2026-03-22T08:21:17Z</time></trkpt><trkpt lat="36.918701841095945" lon="15.111322750526925"><ele>113.2</ele><time>2026-03-22T08:21:20Z</time></trkpt><trkpt lat="36.918708901301436" lon="15.111453914376067"><ele>114.0</ele><time>2026-03-22T08:21:22Z</time></trkpt><trkpt lat="36.91868976545599" lon="15.111570893336669"><ele>113.0</ele><time>2026-03-22T08:21:24Z</time></trkpt><trkpt lat="36.918725243355475" lon="15.111636292281867"><ele>112.0</ele><time>2026-03-22T08:21:26Z</time></trkpt><trkpt lat="36.918808217624225" lon="15.111693076032257"><ele>111.0</ele><time>2026-03-22T08:21:29Z</time></trkpt><trkpt lat="36.918873015452824" lon="15.111725904836586"><ele>110.0</ele><time>2026-03-22T08:21:35Z</time></trkpt><trkpt lat="36.91898048784499" lon="15.11177821356432"><ele>109.0</ele><time>2026-03-22T08:21:37Z</time></trkpt><trkpt lat="36.919085258152855" lon="15.111832194700122"><ele>109.00000000000001</ele><time>2026-03-22T08:21:39Z</time></trkpt><trkpt lat="36.91921214153327" lon="15.1118737356296"><ele>109.0</ele><time>2026-03-22T08:21:41Z</time></trkpt><trkpt lat="36.91928382881608" lon="15.111905053557582"><ele>109.0</ele><time>2026-03-22T08:21:42Z</time></trkpt><trkpt lat="36.91934524709234" lon="15.11192380328959"><ele>109.0</ele><time>2026-03-22T08:21:43Z</time></trkpt><trkpt lat="36.919431540129104" lon="15.111949410826133"><ele>109.00000000000001</ele><time>2026-03-22T08:21:44Z</time></trkpt><trkpt lat="36.91950111099861" lon="15.111954602850084"><ele>109.0</ele><time>2026-03-22T08:21:45Z</time></trkpt><trkpt lat="36.919611190465496" lon="15.1119521683521"><ele>109.83333333333334</ele><time>2026-03-22T08:21:47Z</time></trkpt><trkpt lat="36.91971526379322" lon="15.111921213142237"><ele>110.66666666666667</ele><time>2026-03-22T08:21:49Z</time></trkpt><trkpt lat="36.91976844928427" lon="15.111971241278166"><ele>111.5</ele><time>2026-03-22T08:21:52Z</time></trkpt><trkpt lat="36.91974352489385" lon="15.112075553310392"><ele>112.33333333333334</ele><time>2026-03-22T08:22:28Z</time></trkpt><trkpt lat="36.919736210302965" lon="15.112157021141083"><ele>113.16666666666667</ele><time>2026-03-22T08:22:29Z</time></trkpt><trkpt lat="36.919755909660324" lon="15.112307678805712"><ele>114.0</ele><time>2026-03-22T08:22:31Z</time></trkpt><trkpt lat="36.91977467667113" lon="15.112394578571037"><ele>113.83333333333333</ele><time>2026-03-22T08:22:32Z</time></trkpt><trkpt lat="36.91979108385072" lon="15.112481954193175"><ele>113.66666666666666</ele><time>2026-03-22T08:22:33Z</time></trkpt><trkpt lat="36.91979749805436" lon="15.112569033547295"><ele>113.5</ele><time>2026-03-22T08:22:34Z</time></trkpt><trkpt lat="36.91982166177504" lon="15.112654967468826"><ele>113.33333333333333</ele><time>2026-03-22T08:22:35Z</time></trkpt><trkpt lat="36.9198440708657" lon="15.112785531751246"><ele>113.16666666666666</ele><time>2026-03-22T08:22:37Z</time></trkpt><trkpt lat="36.919877079393395" lon="15.112857839001911"><ele>113.0</ele><time>2026-03-22T08:22:39Z</time></trkpt><trkpt lat="36.91994345649165" lon="15.112904837537473"><ele>115.25</ele><time>2026-03-22T08:22:43Z</time></trkpt><trkpt lat="36.92007875029096" lon="15.112862175710342"><ele>117.5</ele><time>2026-03-22T08:22:45Z</time></trkpt><trkpt lat="36.92017061331171" lon="15.112851709948517"><ele>119.75</ele><time>2026-03-22T08:22:46Z</time></trkpt><trkpt lat="36.92028132315016" lon="15.112847936364714"><ele>122.0</ele><time>2026-03-22T08:22:47Z</time></trkpt><trkpt lat="36.92039064954904" lon="15.112804919884402"><ele>122.0</ele><time>2026-03-22T08:22:48Z</time></trkpt><trkpt lat="36.92050474431779" lon="15.112778533300709"><ele>122.0</ele><time>2026-03-22T08:22:49Z</time></trkpt><trkpt lat="36.92063202238566" lon="15.11276497803399"><ele>122.0</ele><time>2026-03-22T08:22:50Z</time></trkpt><trkpt lat="36.92076033980749" lon="15.112724178269037"><ele>122.0</ele><time>2026-03-22T08:22:51Z</time></trkpt><trkpt lat="36.92089166899825" lon="15.112688880616405"><ele>123.25</ele><time>2026-03-22T08:22:52Z</time></trkpt><trkpt lat="36.9210323939178" lon="15.112664707210524"><ele>124.5</ele><time>2026-03-22T08:22:53Z</time></trkpt><trkpt lat="36.921159784089795" lon="15.11265866145779"><ele>125.75</ele><time>2026-03-22T08:22:54Z</time></trkpt><trkpt lat="36.92130157869645" lon="15.112665459988724"><ele>127.0</ele><time>2026-03-22T08:22:55Z</time></trkpt><trkpt lat="36.92143290538108" lon="15.112694198664771"><ele>127.0</ele><time>2026-03-22T08:22:56Z</time></trkpt><trkpt lat="36.921546372189326" lon="15.112741106001582"><ele>126.99999999999999</ele><time>2026-03-22T08:22:57Z</time></trkpt><trkpt lat="36.9216114465543" lon="15.11279364912052"><ele>126.99999999999999</ele><time>2026-03-22T08:22:58Z</time></trkpt><trkpt lat="36.921657343160945" lon="15.112872421040203"><ele>127.0</ele><time>2026-03-22T08:22:59Z</time></trkpt><trkpt lat="36.92167757772944" lon="15.112992905911437"><ele>127.0</ele><time>2026-03-22T08:23:00Z</time></trkpt><trkpt lat="36.921700342212816" lon="15.113118191090928"><ele>127.39999999999999</ele><time>2026-03-22T08:23:01Z</time></trkpt><trkpt lat="36.92168734568198" lon="15.113254764942702"><ele>127.79999999999998</ele><time>2026-03-22T08:23:02Z</time></trkpt><trkpt lat="36.921718004988016" lon="15.113348656467016"><ele>128.2</ele><time>2026-03-22T08:23:03Z</time></trkpt><trkpt lat="36.92176712517824" lon="15.1134050028623"><ele>128.6</ele><time>2026-03-22T08:23:04Z</time></trkpt><trkpt lat="36.921883911923096" lon="15.113466816315784"><ele>129.0</ele><time>2026-03-22T08:23:06Z</time></trkpt><trkpt lat="36.92197903075435" lon="15.1134753508287"><ele>129.8</ele><time>2026-03-22T08:23:07Z</time></trkpt><trkpt lat="36.922065222489" lon="15.113512481146827"><ele>130.60000000000002</ele><time>2026-03-22T08:23:08Z</time></trkpt><trkpt lat="36.92216765198606" lon="15.113536412306386"><ele>131.4</ele><time>2026-03-22T08:23:09Z</time></trkpt><trkpt lat="36.92228189042877" lon="15.113583068949294"><ele>132.20000000000002</ele><time>2026-03-22T08:23:10Z</time></trkpt><trkpt lat="36.92239881398455" lon="15.11361136305947"><ele>133.0</ele><time>2026-03-22T08:23:11Z</time></trkpt><trkpt lat="36.92253336268373" lon="15.113613935478076"><ele>133.25</ele><time>2026-03-22T08:23:12Z</time></trkpt><trkpt lat="36.92265632970637" lon="15.11361417911732"><ele>133.5</ele><time>2026-03-22T08:23:13Z</time></trkpt><trkpt lat="36.92276288710362" lon="15.11362881602882"><ele>133.75</ele><time>2026-03-22T08:23:14Z</time></trkpt><trkpt lat="36.92286321181134" lon="15.113679228054714"><ele>134.0</ele><time>2026-03-22T08:23:15Z</time></trkpt><trkpt lat="36.92298050479456" lon="15.113716955458862"><ele>134.0</ele><time>2026-03-22T08:23:16Z</time></trkpt><trkpt lat="36.923101593432904" lon="15.113733281272935"><ele>134.0</ele><time>2026-03-22T08:23:17Z</time></trkpt><trkpt lat="36.92321352868972" lon="15.113797577559588"><ele>134.0</ele><time>2026-03-22T08:23:18Z</time></trkpt><trkpt lat="36.92332894491916" lon="15.113850825745098"><ele>134.0</ele><time>2026-03-22T08:23:19Z</time></trkpt><trkpt lat="36.923452648510704" lon="15.113916236764624"><ele>134.25</ele><time>2026-03-22T08:23:20Z</time></trkpt><trkpt lat="36.92358916403326" lon="15.113977940706661"><ele>134.5</ele><time>2026-03-22T08:23:21Z</time></trkpt><trkpt lat="36.923717797912076" lon="15.11405416439354"><ele>134.75</ele><time>2026-03-22T08:23:22Z</time></trkpt><trkpt lat="36.923850551993915" lon="15.114106700726948"><ele>135.0</ele><time>2026-03-22T08:23:23Z</time></trkpt><trkpt lat="36.92396723532769" lon="15.114180692600238"><ele>134.4</ele><time>2026-03-22T08:23:24Z</time></trkpt><trkpt lat="36.92407753685626" lon="15.11423036060673"><ele>133.8</ele><time>2026-03-22T08:23:25Z</time></trkpt><trkpt lat="36.92415987886595" lon="15.114329145321962"><ele>133.2</ele><time>2026-03-22T08:23:26Z</time></trkpt><trkpt lat="36.92424304021649" lon="15.114417542298018"><ele>132.6</ele><time>2026-03-22T08:23:27Z</time></trkpt><trkpt lat="36.92432244531049" lon="15.114504488306443"><ele>132.0</ele><time>2026-03-22T08:23:28Z</time></trkpt><trkpt lat="36.92437841869428" lon="15.114557935893474"><ele>132.0</ele><time>2026-03-22T08:23:29Z</time></trkpt><trkpt lat="36.92443003618075" lon="15.11462077189769"><ele>132.0</ele><time>2026-03-22T08:23:32Z</time></trkpt><trkpt lat="36.92451021468254" lon="15.114729907585685"><ele>132.0</ele><time>2026-03-22T08:23:37Z</time></trkpt><trkpt lat="36.92457394562673" lon="15.114772672578107"><ele>132.0</ele><time>2026-03-22T08:23:38Z</time></trkpt><trkpt lat="36.92463821476383" lon="15.114816032682901"><ele>132.0</ele><time>2026-03-22T08:23:39Z</time></trkpt><trkpt lat="36.92472895277468" lon="15.11485514869494"><ele>132.0</ele><time>2026-03-22T08:23:40Z</time></trkpt><trkpt lat="36.924840393778105" lon="15.114864414521604"><ele>132.0</ele><time>2026-03-22T08:23:41Z</time></trkpt><trkpt lat="36.924957269070134" lon="15.114902563199763"><ele>132.0</ele><time>2026-03-22T08:23:42Z</time></trkpt><trkpt lat="36.9250744305244" lon="15.1149495057418"><ele>132.0</ele><time>2026-03-22T08:23:43Z</time></trkpt><trkpt lat="36.925188701832596" lon="15.11501292689666"><ele>132.0</ele><time>2026-03-22T08:23:44Z</time></trkpt><trkpt lat="36.92531376134418" lon="15.115079404963698"><ele>133.25</ele><time>2026-03-22T08:23:45Z</time></trkpt><trkpt lat="36.92543355360211" lon="15.11516610609235"><ele>134.5</ele><time>2026-03-22T08:23:46Z</time></trkpt><trkpt lat="36.92554879332246" lon="15.115268504739285"><ele>135.75</ele><time>2026-03-22T08:23:47Z</time></trkpt><trkpt lat="36.925668968577966" lon="15.115373521115806"><ele>137.0</ele><time>2026-03-22T08:23:48Z</time></trkpt><trkpt lat="36.925797946997925" lon="15.115460008231006"><ele>137.0</ele><time>2026-03-22T08:23:49Z</time></trkpt><trkpt lat="36.92592242904847" lon="15.115554829686234"><ele>137.0</ele><time>2026-03-22T08:23:50Z</time></trkpt><trkpt lat="36.92602794931212" lon="15.115614391866536"><ele>137.0</ele><time>2026-03-22T08:23:51Z</time></trkpt><trkpt lat="36.92609340502146" lon="15.115692603162485"><ele>137.0</ele><time>2026-03-22T08:23:52Z</time></trkpt><trkpt lat="36.926200652827056" lon="15.115717904558913"><ele>137.0</ele><time>2026-03-22T08:23:54Z</time></trkpt><trkpt lat="36.92626932963829" lon="15.115653065878776"><ele>137.0</ele><time>2026-03-22T08:23:55Z</time></trkpt><trkpt lat="36.92633560743943" lon="15.1155717364816"><ele>137.0</ele><time>2026-03-22T08:23:56Z</time></trkpt><trkpt lat="36.9263976405596" lon="15.115538327111803"><ele>137.0</ele><time>2026-03-22T08:23:57Z</time></trkpt><trkpt lat="36.92650754328262" lon="15.115661891963851"><ele>137.0</ele><time>2026-03-22T08:23:59Z</time></trkpt><trkpt lat="36.92651833472165" lon="15.115796133745581"><ele>136.0</ele><time>2026-03-22T08:24:00Z</time></trkpt><trkpt lat="36.92653834520302" lon="15.115881301531802"><ele>135.0</ele><time>2026-03-22T08:24:01Z</time></trkpt><trkpt lat="36.9265031811083" lon="15.115955214550375"><ele>134.0</ele><time>2026-03-22T08:24:02Z</time></trkpt><trkpt lat="36.92644000251818" lon="15.116016629272425"><ele>133.0</ele><time>2026-03-22T08:24:03Z</time></trkpt><trkpt lat="36.92639202355018" lon="15.116088880281342"><ele>132.0</ele><time>2026-03-22T08:24:04Z</time></trkpt><trkpt lat="36.92633634131798" lon="15.116169508145827"><ele>131.0</ele><time>2026-03-22T08:24:05Z</time></trkpt><trkpt lat="36.92626015153197" lon="15.116238740586258"><ele>131.0</ele><time>2026-03-22T08:24:06Z</time></trkpt><trkpt lat="36.926197070023264" lon="15.116276767767427"><ele>131.0</ele><time>2026-03-22T08:24:07Z</time></trkpt><trkpt lat="36.92610118344413" lon="15.116338156922406"><ele>131.0</ele><time>2026-03-22T08:24:09Z</time></trkpt><trkpt lat="36.926011471945486" lon="15.11640947875328"><ele>131.0</ele><time>2026-03-22T08:24:11Z</time></trkpt><trkpt lat="36.92596412092375" lon="15.11648076533149"><ele>131.0</ele><time>2026-03-22T08:24:12Z</time></trkpt><trkpt lat="36.92591972411393" lon="15.11655412279937"><ele>131.0</ele><time>2026-03-22T08:24:13Z</time></trkpt><trkpt lat="36.92588153443236" lon="15.11664224150517"><ele>130.2</ele><time>2026-03-22T08:24:14Z</time></trkpt><trkpt lat="36.92582531365049" lon="15.116713584916015"><ele>129.39999999999998</ele><time>2026-03-22T08:24:15Z</time></trkpt><trkpt lat="36.92577786415315" lon="15.1168043236209"><ele>128.6</ele><time>2026-03-22T08:24:16Z</time></trkpt><trkpt lat="36.92573935438918" lon="15.116915278407468"><ele>127.8</ele><time>2026-03-22T08:24:17Z</time></trkpt><trkpt lat="36.9256885050338" lon="15.117017984304894"><ele>127.0</ele><time>2026-03-22T08:24:18Z</time></trkpt><trkpt lat="36.92563975155789" lon="15.117124887434624"><ele>127.0</ele><time>2026-03-22T08:24:19Z</time></trkpt><trkpt lat="36.925603855114844" lon="15.1172240097958"><ele>126.99999999999999</ele><time>2026-03-22T08:24:20Z</time></trkpt><trkpt lat="36.925575276024105" lon="15.11732622449946"><ele>126.99999999999999</ele><time>2026-03-22T08:24:21Z</time></trkpt><trkpt lat="36.92553662291672" lon="15.117432648993658"><ele>127.0</ele><time>2026-03-22T08:24:22Z</time></trkpt><trkpt lat="36.925515262165035" lon="15.117543121398866"><ele>127.0</ele><time>2026-03-22T08:24:23Z</time></trkpt><trkpt lat="36.925494770487475" lon="15.117667708681582"><ele>127.6</ele><time>2026-03-22T08:24:24Z</time></trkpt><trkpt lat="36.92547750166508" lon="15.117791099845796"><ele>128.2</ele><time>2026-03-22T08:24:25Z</time></trkpt><trkpt lat="36.92546187995658" lon="15.117904687425543"><ele>128.8</ele><time>2026-03-22T08:24:26Z</time></trkpt><trkpt lat="36.92544710612665" lon="15.118016696712012"><ele>129.4</ele><time>2026-03-22T08:24:27Z</time></trkpt><trkpt lat="36.92543296866185" lon="15.118125413808256"><ele>130.0</ele><time>2026-03-22T08:24:28Z</time></trkpt><trkpt lat="36.925419195815856" lon="15.118240767538321"><ele>130.0</ele><time>2026-03-22T08:24:29Z</time></trkpt><trkpt lat="36.92541389154039" lon="15.118359019688057"><ele>130.0</ele><time>2026-03-22T08:24:30Z</time></trkpt><trkpt lat="36.925423713078" lon="15.118474165782708"><ele>130.0</ele><time>2026-03-22T08:24:31Z</time></trkpt><trkpt lat="36.92542406272555" lon="15.1185888156789"><ele>130.0</ele><time>2026-03-22T08:24:32Z</time></trkpt><trkpt lat="36.925425231664214" lon="15.118690319591579"><ele>130.0</ele><time>2026-03-22T08:24:33Z</time></trkpt><trkpt lat="36.92541326949971" lon="15.11879713567676"><ele>130.0</ele><time>2026-03-22T08:24:34Z</time></trkpt><trkpt lat="36.92538798858443" lon="15.118881986716135"><ele>130.0</ele><time>2026-03-22T08:24:35Z</time></trkpt><trkpt lat="36.92534340499021" lon="15.11897230954542"><ele>130.0</ele><time>2026-03-22T08:24:36Z</time></trkpt><trkpt lat="36.92528059327134" lon="15.119124890615673"><ele>130.0</ele><time>2026-03-22T08:24:38Z</time></trkpt><trkpt lat="36.92524617273931" lon="15.119195647440284"><ele>130.0</ele><time>2026-03-22T08:24:39Z</time></trkpt><trkpt lat="36.92523272535793" lon="15.119335495445924"><ele>130.0</ele><time>2026-03-22T08:24:41Z</time></trkpt><trkpt lat="36.925232948507734" lon="15.119461633444413"><ele>128.6</ele><time>2026-03-22T08:24:43Z</time></trkpt><trkpt lat="36.925251300930704" lon="15.11954135174744"><ele>127.2</ele><time>2026-03-22T08:24:44Z</time></trkpt><trkpt lat="36.925254847952935" lon="15.119705495815046"><ele>125.80000000000001</ele><time>2026-03-22T08:24:46Z</time></trkpt><trkpt lat="36.92527559835654" lon="15.119825746391315"><ele>124.4</ele><time>2026-03-22T08:24:47Z</time></trkpt><trkpt lat="36.9252967390881" lon="15.119937049487259"><ele>123.0</ele><time>2026-03-22T08:24:48Z</time></trkpt><trkpt lat="36.92531297674592" lon="15.120043173879518"><ele>122.33333333333333</ele><time>2026-03-22T08:24:49Z</time></trkpt><trkpt lat="36.92532135216848" lon="15.120145011862656"><ele>121.66666666666666</ele><time>2026-03-22T08:24:50Z</time></trkpt><trkpt lat="36.92533292156226" lon="15.120245338332644"><ele>121.0</ele><time>2026-03-22T08:24:51Z</time></trkpt><trkpt lat="36.92534100446327" lon="15.1203501292404"><ele>120.33333333333333</ele><time>2026-03-22T08:24:52Z</time></trkpt><trkpt lat="36.925362505795896" lon="15.120443341447297"><ele>119.66666666666666</ele><time>2026-03-22T08:24:53Z</time></trkpt><trkpt lat="36.92536251790595" lon="15.120544405091037"><ele>119.0</ele><time>2026-03-22T08:24:54Z</time></trkpt><trkpt lat="36.92536252268627" lon="15.120643195278305"><ele>118.80000000000001</ele><time>2026-03-22T08:24:55Z</time></trkpt><trkpt lat="36.92535703006009" lon="15.120804361003144"><ele>118.60000000000001</ele><time>2026-03-22T08:24:57Z</time></trkpt><trkpt lat="36.92542071095534" lon="15.12093713942678"><ele>118.4</ele><time>2026-03-22T08:24:59Z</time></trkpt><trkpt lat="36.9254741067389" lon="15.120991820947133"><ele>118.2</ele><time>2026-03-22T08:25:00Z</time></trkpt><trkpt lat="36.92550637669202" lon="15.121069885076867"><ele>118.0</ele><time>2026-03-22T08:25:01Z</time></trkpt><trkpt lat="36.92555753333227" lon="15.121158536136555"><ele>118.0</ele><time>2026-03-22T08:25:02Z</time></trkpt><trkpt lat="36.92561201702601" lon="15.121262007280695"><ele>118.0</ele><time>2026-03-22T08:25:03Z</time></trkpt><trkpt lat="36.925667057891765" lon="15.121375437334507"><ele>118.0</ele><time>2026-03-22T08:25:04Z</time></trkpt><trkpt lat="36.92572973285183" lon="15.121506358515944"><ele>118.0</ele><time>2026-03-22T08:25:05Z</time></trkpt><trkpt lat="36.92580100213698" lon="15.12164762266748"><ele>118.0</ele><time>2026-03-22T08:25:06Z</time></trkpt><trkpt lat="36.92586773995267" lon="15.121807704664338"><ele>118.0</ele><time>2026-03-22T08:25:07Z</time></trkpt><trkpt lat="36.925922467607116" lon="15.121978170012484"><ele>118.0</ele><time>2026-03-22T08:25:08Z</time></trkpt><trkpt lat="36.92597599698251" lon="15.122154923779501"><ele>118.0</ele><time>2026-03-22T08:25:09Z</time></trkpt><trkpt lat="36.92603778622131" lon="15.122360542166547"><ele>119.5</ele><time>2026-03-22T08:25:10Z</time></trkpt><trkpt lat="36.926111803917706" lon="15.122515975233219"><ele>121.0</ele><time>2026-03-22T08:25:11Z</time></trkpt><trkpt lat="36.92617702932956" lon="15.122659572123949"><ele>122.5</ele><time>2026-03-22T08:25:12Z</time></trkpt><trkpt lat="36.92625024726195" lon="15.122781440583285"><ele>124.0</ele><time>2026-03-22T08:25:13Z</time></trkpt><trkpt lat="36.9263347993089" lon="15.122876776479748"><ele>124.0</ele><time>2026-03-22T08:25:14Z</time></trkpt><trkpt lat="36.92642870846756" lon="15.122941005721994"><ele>124.0</ele><time>2026-03-22T08:25:15Z</time></trkpt><trkpt lat="36.92653476783741" lon="15.122990487536656"><ele>124.0</ele><time>2026-03-22T08:25:16Z</time></trkpt><trkpt lat="36.92663160815138" lon="15.12307143542633"><ele>124.0</ele><time>2026-03-22T08:25:17Z</time></trkpt><trkpt lat="36.926713366358" lon="15.12313910497079"><ele>124.0</ele><time>2026-03-22T08:25:18Z</time></trkpt><trkpt lat="36.92678469736616" lon="15.12321973380406"><ele>124.50000000000001</ele><time>2026-03-22T08:25:19Z</time></trkpt><trkpt lat="36.926855511249" lon="15.12331732011892"><ele>125.0</ele><time>2026-03-22T08:25:20Z</time></trkpt><trkpt lat="36.92691589941708" lon="15.123400873772258"><ele>125.5</ele><time>2026-03-22T08:25:21Z</time></trkpt><trkpt lat="36.926962390168434" lon="15.12348148156525"><ele>126.0</ele><time>2026-03-22T08:25:22Z</time></trkpt><trkpt lat="36.9270018861804" lon="15.123551912865205"><ele>126.50000000000001</ele><time>2026-03-22T08:25:23Z</time></trkpt><trkpt lat="36.9270147683192" lon="15.12363348866168"><ele>127.0</ele><time>2026-03-22T08:25:24Z</time></trkpt><trkpt lat="36.927191662970245" lon="15.123618162755397"><ele>127.0</ele><time>2026-03-22T08:25:26Z</time></trkpt><trkpt lat="36.927284258729316" lon="15.123632250080979"><ele>126.99999999999999</ele><time>2026-03-22T08:25:27Z</time></trkpt><trkpt lat="36.92736307348376" lon="15.123627798889226"><ele>126.99999999999999</ele><time>2026-03-22T08:25:28Z</time></trkpt><trkpt lat="36.92744091908849" lon="15.123624810626666"><ele>127.0</ele><time>2026-03-22T08:25:29Z</time></trkpt><trkpt lat="36.92754418988928" lon="15.123628075174128"><ele>127.0</ele><time>2026-03-22T08:25:30Z</time></trkpt><trkpt lat="36.92765756779511" lon="15.123620276301683"><ele>128.6</ele><time>2026-03-22T08:25:31Z</time></trkpt><trkpt lat="36.92777888247929" lon="15.123596947125508"><ele>130.2</ele><time>2026-03-22T08:25:32Z</time></trkpt><trkpt lat="36.92788188318844" lon="15.1235551331953"><ele>131.8</ele><time>2026-03-22T08:25:33Z</time></trkpt><trkpt lat="36.92799773816861" lon="15.123527928251951"><ele>133.4</ele><time>2026-03-22T08:25:34Z</time></trkpt><trkpt lat="36.92807005217956" lon="15.123519333642765"><ele>135.0</ele><time>2026-03-22T08:25:35Z</time></trkpt><trkpt lat="36.92814181340932" lon="15.123498951217922"><ele>135.0</ele><time>2026-03-22T08:25:36Z</time></trkpt><trkpt lat="36.92824663104843" lon="15.123490863042043"><ele>135.0</ele><time>2026-03-22T08:25:37Z</time></trkpt><trkpt lat="36.928349512560175" lon="15.123547302789506"><ele>135.0</ele><time>2026-03-22T08:25:39Z</time></trkpt><trkpt lat="36.928426078770954" lon="15.123491063874063"><ele>135.0</ele><time>2026-03-22T08:25:41Z</time></trkpt><trkpt lat="36.92850018453592" lon="15.123461458531887"><ele>135.0</ele><time>2026-03-22T08:25:42Z</time></trkpt><trkpt lat="36.928516434351216" lon="15.123323512583935"><ele>138.75</ele><time>2026-03-22T08:25:43Z</time></trkpt><trkpt lat="36.9286633772514" lon="15.123543820502393"><ele>142.5</ele><time>2026-03-22T08:25:45Z</time></trkpt><trkpt lat="36.928773802565246" lon="15.123439399620452"><ele>146.25</ele><time>2026-03-22T08:25:46Z</time></trkpt><trkpt lat="36.92884258816221" lon="15.123426038409436"><ele>150.0</ele><time>2026-03-22T08:25:47Z</time></trkpt><trkpt lat="36.92890819812117" lon="15.123576973309365"><ele>150.0</ele><time>2026-03-22T08:25:49Z</time></trkpt><trkpt lat="36.928987505497226" lon="15.123385382525901"><ele>150.0</ele><time>2026-03-22T08:25:50Z</time></trkpt><trkpt lat="36.92864551574323" lon="15.122992764516987"><ele>157.5</ele><time>2026-03-22T08:25:51Z</time></trkpt><trkpt lat="36.928526536566046" lon="15.123180415364281"><ele>165.0</ele><time>2026-03-22T08:25:52Z</time></trkpt><trkpt lat="36.92892261450925" lon="15.123142691345754"><ele>165.0</ele><time>2026-03-22T08:26:06Z</time></trkpt><trkpt lat="36.92899543861618" lon="15.123135580426917"><ele>165.0</ele><time>2026-03-22T08:29:08Z</time></trkpt><trkpt lat="36.92904054859479" lon="15.123039281236405"><ele>165.0</ele><time>2026-03-22T08:29:15Z</time></trkpt><trkpt lat="36.92910741725137" lon="15.122990300455154"><ele>165.0</ele><time>2026-03-22T08:29:50Z</time></trkpt><trkpt lat="36.92915608691837" lon="15.123045592135556"><ele>165.0</ele><time>2026-03-22T08:30:02Z</time></trkpt><trkpt lat="36.92922677005994" lon="15.122976796895456"><ele>165.0</ele><time>2026-03-22T08:30:17Z</time></trkpt><trkpt lat="36.92928478744543" lon="15.122920154129213"><ele>168.85714285714286</ele><time>2026-03-22T08:37:39Z</time></trkpt><trkpt lat="36.929341091801945" lon="15.122866334734683"><ele>172.71428571428572</ele><time>2026-03-22T08:37:42Z</time></trkpt><trkpt lat="36.929411848571604" lon="15.122840744540587"><ele>176.57142857142856</ele><time>2026-03-22T08:37:53Z</time></trkpt><trkpt lat="36.929471659471204" lon="15.122802253717152"><ele>180.42857142857144</ele><time>2026-03-22T08:38:31Z</time></trkpt><trkpt lat="36.929533304785565" lon="15.122757192521583"><ele>184.28571428571428</ele><time>2026-03-22T08:38:41Z</time></trkpt><trkpt lat="36.929592325399234" lon="15.122705921206947"><ele>188.14285714285714</ele><time>2026-03-22T08:39:14Z</time></trkpt><trkpt lat="36.92966011516338" lon="15.122687650547581"><ele>192.0</ele><time>2026-03-22T08:40:04Z</time></trkpt><trkpt lat="36.92972765488141" lon="15.122694870332989"><ele>191.99999999999997</ele><time>2026-03-22T08:40:31Z</time></trkpt><trkpt lat="36.9297222513524" lon="15.122616376150754"><ele>192.0</ele><time>2026-03-22T08:41:24Z</time></trkpt><trkpt lat="36.92978141885408" lon="15.122566411140044"><ele>192.0</ele><time>2026-03-22T08:41:50Z</time></trkpt><trkpt lat="36.92984241430954" lon="15.122587202551584"><ele>192.0</ele><time>2026-03-22T08:42:03Z</time></trkpt><trkpt lat="36.92990224074952" lon="15.122553192934976"><ele>192.0</ele><time>2026-03-22T08:42:43Z</time></trkpt><trkpt lat="36.92996866277976" lon="15.12253041310876"><ele>191.99999999999997</ele><time>2026-03-22T08:43:22Z</time></trkpt><trkpt lat="36.92999155643853" lon="15.122439749642748"><ele>192.0</ele><time>2026-03-22T08:44:33Z</time></trkpt><trkpt lat="36.93005561485962" lon="15.122439943105364"><ele>192.33333333333334</ele><time>2026-03-22T08:44:43Z</time></trkpt><trkpt lat="36.93009461116684" lon="15.122377050914343"><ele>192.66666666666669</ele><time>2026-03-22T08:44:48Z</time></trkpt><trkpt lat="36.930068040386324" lon="15.122286443474557"><ele>193.0</ele><time>2026-03-22T08:44:58Z</time></trkpt><trkpt lat="36.93005665813724" lon="15.122200497602858"><ele>193.33333333333334</ele><time>2026-03-22T08:45:12Z</time></trkpt><trkpt lat="36.930087629326216" lon="15.122124277543286"><ele>193.66666666666669</ele><time>2026-03-22T08:45:29Z</time></trkpt><trkpt lat="36.93013995347218" lon="15.122064999181422"><ele>194.0</ele><time>2026-03-22T08:45:32Z</time></trkpt><trkpt lat="36.93023875982929" lon="15.122034699512577"><ele>197.39999999999998</ele><time>2026-03-22T08:45:36Z</time></trkpt><trkpt lat="36.930311702224" lon="15.122029268270104"><ele>200.8</ele><time>2026-03-22T09:04:34Z</time></trkpt><trkpt lat="36.93041182918377" lon="15.122036119407216"><ele>204.2</ele><time>2026-03-22T09:04:37Z</time></trkpt><trkpt lat="36.93050938631435" lon="15.122004447051818"><ele>207.60000000000002</ele><time>2026-03-22T09:04:39Z</time></trkpt><trkpt lat="36.930600908729495" lon="15.121978097136523"><ele>211.0</ele><time>2026-03-22T09:04:41Z</time></trkpt><trkpt lat="36.93071477211445" lon="15.121942204628507"><ele>210.99999999999997</ele><time>2026-03-22T09:04:43Z</time></trkpt><trkpt lat="36.93081608039854" lon="15.121946063981964"><ele>211.0</ele><time>2026-03-22T09:04:45Z</time></trkpt><trkpt lat="36.93089352913442" lon="15.121922617511618"><ele>211.0</ele><time>2026-03-22T09:04:47Z</time></trkpt><trkpt lat="36.93099591760443" lon="15.121943551486572"><ele>211.0</ele><time>2026-03-22T09:04:49Z</time></trkpt><trkpt lat="36.931072264998065" lon="15.121953611536687"><ele>210.99999999999997</ele><time>2026-03-22T09:04:51Z</time></trkpt><trkpt lat="36.93115648829219" lon="15.121974552232723"><ele>211.0</ele><time>2026-03-22T09:04:53Z</time></trkpt><trkpt lat="36.931199635066726" lon="15.121901279154631"><ele>214.66666666666666</ele><time>2026-03-22T09:04:59Z</time></trkpt><trkpt lat="36.93126001806507" lon="15.121858179409639"><ele>218.33333333333331</ele><time>2026-03-22T09:05:01Z</time></trkpt><trkpt lat="36.931330335664214" lon="15.121865501522434"><ele>222.0</ele><time>2026-03-22T09:05:03Z</time></trkpt><trkpt lat="36.931419626166395" lon="15.121869245532675"><ele>225.66666666666669</ele><time>2026-03-22T09:05:05Z</time></trkpt><trkpt lat="36.93150588980684" lon="15.121877330135746"><ele>229.33333333333334</ele><time>2026-03-22T09:05:08Z</time></trkpt><trkpt lat="36.93159941457058" lon="15.121848019101163"><ele>233.0</ele><time>2026-03-22T09:05:11Z</time></trkpt><trkpt lat="36.93165177049762" lon="15.121801710911967"><ele>234.83333333333334</ele><time>2026-03-22T09:05:13Z</time></trkpt><trkpt lat="36.931724772347565" lon="15.121718823583484"><ele>236.66666666666669</ele><time>2026-03-22T09:05:16Z</time></trkpt><trkpt lat="36.931791400970276" lon="15.121657058201047"><ele>238.5</ele><time>2026-03-22T09:05:18Z</time></trkpt><trkpt lat="36.93185586539293" lon="15.121664950823314"><ele>240.33333333333331</ele><time>2026-03-22T09:05:20Z</time></trkpt><trkpt lat="36.93191350540282" lon="15.121620568903037"><ele>242.16666666666666</ele><time>2026-03-22T09:05:28Z</time></trkpt><trkpt lat="36.9319820701286" lon="15.121535452347649"><ele>244.0</ele><time>2026-03-22T09:05:36Z</time></trkpt><trkpt lat="36.93206204845761" lon="15.121488568332031"><ele>243.99999999999997</ele><time>2026-03-22T09:05:39Z</time></trkpt><trkpt lat="36.93213257177953" lon="15.121450368738705"><ele>244.0</ele><time>2026-03-22T09:05:41Z</time></trkpt><trkpt lat="36.93220454379181" lon="15.121428012704776"><ele>243.99999999999997</ele><time>2026-03-22T09:05:44Z</time></trkpt><trkpt lat="36.93228157784751" lon="15.121443029714333"><ele>243.99999999999997</ele><time>2026-03-22T09:05:46Z</time></trkpt><trkpt lat="36.93235962999692" lon="15.12143224664961"><ele>244.0</ele><time>2026-03-22T09:05:48Z</time></trkpt><trkpt lat="36.932421441795974" lon="15.121451722755493"><ele>243.99999999999997</ele><time>2026-03-22T09:05:51Z</time></trkpt><trkpt lat="36.93247450234633" lon="15.121400982690966"><ele>243.99999999999997</ele><time>2026-03-22T09:06:04Z</time></trkpt><trkpt lat="36.932543062383644" lon="15.121387172181228"><ele>249.71428571428567</ele><time>2026-03-22T09:06:11Z</time></trkpt><trkpt lat="36.93261463041779" lon="15.121380170198313"><ele>255.42857142857142</ele><time>2026-03-22T09:06:16Z</time></trkpt><trkpt lat="36.932701197372204" lon="15.12137732558502"><ele>261.1428571428571</ele><time>2026-03-22T09:06:19Z</time></trkpt><trkpt lat="36.93277392261693" lon="15.121387997166867"><ele>266.85714285714283</ele><time>2026-03-22T09:06:21Z</time></trkpt><trkpt lat="36.93285412823853" lon="15.121410605191794"><ele>272.57142857142856</ele><time>2026-03-22T09:06:23Z</time></trkpt><trkpt lat="36.932916365058674" lon="15.12143284198657"><ele>278.2857142857143</ele><time>2026-03-22T09:06:25Z</time></trkpt><trkpt lat="36.93297497994781" lon="15.121471405749947"><ele>284.0</ele><time>2026-03-22T09:06:27Z</time></trkpt><trkpt lat="36.93303849421262" lon="15.121465231637764"><ele>284.0</ele><time>2026-03-22T09:06:40Z</time></trkpt><trkpt lat="36.933111662540405" lon="15.12145754770557"><ele>284.0</ele><time>2026-03-22T09:06:43Z</time></trkpt><trkpt lat="36.93318580654512" lon="15.12141588829333"><ele>284.0</ele><time>2026-03-22T09:06:46Z</time></trkpt><trkpt lat="36.93326076779708" lon="15.121406106718643"><ele>284.0</ele><time>2026-03-22T09:06:55Z</time></trkpt><trkpt lat="36.933304032250554" lon="15.121331307488656"><ele>284.0</ele><time>2026-03-22T09:06:59Z</time></trkpt><trkpt lat="36.933359294152524" lon="15.12126409088731"><ele>284.0</ele><time>2026-03-22T09:07:04Z</time></trkpt><trkpt lat="36.93341703804007" lon="15.121219102121634"><ele>284.0</ele><time>2026-03-22T09:07:06Z</time></trkpt><trkpt lat="36.93350886916417" lon="15.121179170280186"><ele>286.5</ele><time>2026-03-22T09:07:10Z</time></trkpt><trkpt lat="36.93356867012544" lon="15.121148759725369"><ele>289.0</ele><time>2026-03-22T09:07:12Z</time></trkpt><trkpt lat="36.93363655761311" lon="15.121155633967815"><ele>291.5</ele><time>2026-03-22T09:07:15Z</time></trkpt><trkpt lat="36.933700734498444" lon="15.121108080505381"><ele>294.0</ele><time>2026-03-22T09:07:18Z</time></trkpt><trkpt lat="36.93376549538086" lon="15.121072353063061"><ele>296.5</ele><time>2026-03-22T09:07:21Z</time></trkpt><trkpt lat="36.93383413775754" lon="15.121014400043304"><ele>299.0</ele><time>2026-03-22T09:07:25Z</time></trkpt><trkpt lat="36.93389753227904" lon="15.120936005984577"><ele>299.0</ele><time>2026-03-22T09:07:27Z</time></trkpt><trkpt lat="36.933961255179334" lon="15.120889332545556"><ele>299.0</ele><time>2026-03-22T09:07:30Z</time></trkpt><trkpt lat="36.93400880908617" lon="15.120825962738355"><ele>299.0</ele><time>2026-03-22T09:07:32Z</time></trkpt><trkpt lat="36.93405541145152" lon="15.120729188635107"><ele>299.0</ele><time>2026-03-22T09:07:35Z</time></trkpt><trkpt lat="36.93414910891665" lon="15.120607265566962"><ele>299.0</ele><time>2026-03-22T09:07:37Z</time></trkpt><trkpt lat="36.93420269949467" lon="15.120515721088884"><ele>302.33333333333337</ele><time>2026-03-22T09:07:39Z</time></trkpt><trkpt lat="36.9342489776668" lon="15.120457321403942"><ele>305.6666666666667</ele><time>2026-03-22T09:07:41Z</time></trkpt><trkpt lat="36.93430988261245" lon="15.12037978014338"><ele>309.0</ele><time>2026-03-22T09:07:44Z</time></trkpt><trkpt lat="36.934364290585066" lon="15.12031396375071"><ele>312.3333333333333</ele><time>2026-03-22T09:07:46Z</time></trkpt><trkpt lat="36.93441187129989" lon="15.120225668542776"><ele>315.66666666666663</ele><time>2026-03-22T09:07:48Z</time></trkpt><trkpt lat="36.93448282208712" lon="15.120115675424717"><ele>319.0</ele><time>2026-03-22T09:07:50Z</time></trkpt><trkpt lat="36.934528607507545" lon="15.120061144311766"><ele>319.0</ele><time>2026-03-22T09:07:52Z</time></trkpt><trkpt lat="36.9345864033625" lon="15.119982309270476"><ele>319.0</ele><time>2026-03-22T09:07:54Z</time></trkpt><trkpt lat="36.93463805242932" lon="15.119930181079935"><ele>319.0</ele><time>2026-03-22T09:07:56Z</time></trkpt><trkpt lat="36.93469481130708" lon="15.119853096128068"><ele>319.0</ele><time>2026-03-22T09:07:58Z</time></trkpt><trkpt lat="36.934748836765564" lon="15.11978749707898"><ele>319.0</ele><time>2026-03-22T09:08:00Z</time></trkpt><trkpt lat="36.93482431458447" lon="15.119701433914683"><ele>319.0</ele><time>2026-03-22T09:08:02Z</time></trkpt><trkpt lat="36.93486043630988" lon="15.119608857163811"><ele>320.3333333333333</ele><time>2026-03-22T09:08:04Z</time></trkpt><trkpt lat="36.93490112789831" lon="15.119539859107043"><ele>321.66666666666663</ele><time>2026-03-22T09:08:06Z</time></trkpt><trkpt lat="36.93497550627129" lon="15.119473193844653"><ele>323.0</ele><time>2026-03-22T09:08:08Z</time></trkpt><trkpt lat="36.935021814002155" lon="15.119398001016199"><ele>324.3333333333333</ele><time>2026-03-22T09:08:11Z</time></trkpt><trkpt lat="36.93507156652204" lon="15.11933476009574"><ele>325.6666666666667</ele><time>2026-03-22T09:08:13Z</time></trkpt><trkpt lat="36.935118492577125" lon="15.119248957585597"><ele>327.0</ele><time>2026-03-22T09:08:15Z</time></trkpt><trkpt lat="36.93514552733036" lon="15.11915032952197"><ele>329.8333333333333</ele><time>2026-03-22T09:08:45Z</time></trkpt><trkpt lat="36.93521530394173" lon="15.119089728976405"><ele>332.6666666666667</ele><time>2026-03-22T09:08:51Z</time></trkpt><trkpt lat="36.9352356367559" lon="15.118959500062967"><ele>335.5</ele><time>2026-03-22T09:08:54Z</time></trkpt><trkpt lat="36.93530291654949" lon="15.118940402137376"><ele>338.33333333333337</ele><time>2026-03-22T09:08:56Z</time></trkpt><trkpt lat="36.93535603169737" lon="15.11885759325832"><ele>341.1666666666667</ele><time>2026-03-22T09:08:58Z</time></trkpt><trkpt lat="36.93539052492106" lon="15.118764071627728"><ele>344.0</ele><time>2026-03-22T09:09:00Z</time></trkpt><trkpt lat="36.935430710189394" lon="15.118676172836569"><ele>346.4</ele><time>2026-03-22T09:09:02Z</time></trkpt><trkpt lat="36.93546708676645" lon="15.118585168826339"><ele>348.79999999999995</ele><time>2026-03-22T09:09:04Z</time></trkpt><trkpt lat="36.93553240434944" lon="15.118518001489406"><ele>351.20000000000005</ele><time>2026-03-22T09:09:07Z</time></trkpt><trkpt lat="36.93560888314361" lon="15.118470943701688"><ele>353.6</ele><time>2026-03-22T09:09:09Z</time></trkpt><trkpt lat="36.935690670950066" lon="15.118367059220349"><ele>356.0</ele><time>2026-03-22T09:09:11Z</time></trkpt><trkpt lat="36.93573121664184" lon="15.118249289969894"><ele>355.83333333333337</ele><time>2026-03-22T09:09:13Z</time></trkpt><trkpt lat="36.935780188124895" lon="15.118177544291182"><ele>355.6666666666667</ele><time>2026-03-22T09:09:15Z</time></trkpt><trkpt lat="36.93582465547926" lon="15.11811172754266"><ele>355.5</ele><time>2026-03-22T09:09:22Z</time></trkpt><trkpt lat="36.935889205466026" lon="15.118055979768178"><ele>355.3333333333333</ele><time>2026-03-22T09:09:24Z</time></trkpt><trkpt lat="36.935943969398956" lon="15.117997730749599"><ele>355.16666666666663</ele><time>2026-03-22T09:09:26Z</time></trkpt><trkpt lat="36.935978774169385" lon="15.11791890426478"><ele>355.0</ele><time>2026-03-22T09:09:28Z</time></trkpt><trkpt lat="36.936050735956066" lon="15.117831586002728"><ele>359.66666666666663</ele><time>2026-03-22T09:09:30Z</time></trkpt><trkpt lat="36.93608162943896" lon="15.11773123820808"><ele>364.3333333333333</ele><time>2026-03-22T09:09:32Z</time></trkpt><trkpt lat="36.936156166908155" lon="15.117633685546382"><ele>369.0</ele><time>2026-03-22T09:09:34Z</time></trkpt><trkpt lat="36.93622643770642" lon="15.117627126878704"><ele>373.6666666666667</ele><time>2026-03-22T09:09:37Z</time></trkpt><trkpt lat="36.9362575950819" lon="15.117721339778056"><ele>378.33333333333337</ele><time>2026-03-22T09:09:39Z</time></trkpt><trkpt lat="36.93623149588621" lon="15.117795376973396"><ele>383.0</ele><time>2026-03-22T09:09:42Z</time></trkpt><trkpt lat="36.93626668748503" lon="15.117722889826506"><ele>383.0</ele><time>2026-03-22T09:09:47Z</time></trkpt><trkpt lat="36.936281760528196" lon="15.117625302055467"><ele>383.0</ele><time>2026-03-22T09:09:53Z</time></trkpt><trkpt lat="36.9363314286226" lon="15.117560322950764"><ele>383.0</ele><time>2026-03-22T09:09:56Z</time></trkpt><trkpt lat="36.936321256238465" lon="15.117481890390293"><ele>383.0</ele><time>2026-03-22T09:10:00Z</time></trkpt><trkpt lat="36.936390893641736" lon="15.117452426001527"><ele>383.0</ele><time>2026-03-22T09:10:07Z</time></trkpt><trkpt lat="36.93645624257391" lon="15.11744380990046"><ele>383.0</ele><time>2026-03-22T09:10:15Z</time></trkpt><trkpt lat="36.93652112429504" lon="15.11742832118701"><ele>383.0</ele><time>2026-03-22T09:10:18Z</time></trkpt><trkpt lat="36.93656966888769" lon="15.117346828646374"><ele>384.33333333333337</ele><time>2026-03-22T09:23:00Z</time></trkpt><trkpt lat="36.93663921163604" lon="15.11724891547795"><ele>385.6666666666667</ele><time>2026-03-22T09:23:02Z</time></trkpt><trkpt lat="36.93670010552776" lon="15.117209817200647"><ele>387.0</ele><time>2026-03-22T09:23:04Z</time></trkpt><trkpt lat="36.93675085504236" lon="15.117159590792378"><ele>388.33333333333337</ele><time>2026-03-22T09:23:06Z</time></trkpt><trkpt lat="36.9368034474363" lon="15.117104115706452"><ele>389.6666666666667</ele><time>2026-03-22T09:23:08Z</time></trkpt><trkpt lat="36.93686807631505" lon="15.117106851865135"><ele>391.0</ele><time>2026-03-22T09:23:09Z</time></trkpt><trkpt lat="36.936957813065824" lon="15.117079243527744"><ele>391.00000000000006</ele><time>2026-03-22T09:23:11Z</time></trkpt><trkpt lat="36.937031607888066" lon="15.1170395518459"><ele>391.0</ele><time>2026-03-22T09:23:13Z</time></trkpt><trkpt lat="36.9371036819941" lon="15.11704349367421"><ele>391.0</ele><time>2026-03-22T09:23:15Z</time></trkpt><trkpt lat="36.93720261090615" lon="15.117045328461344"><ele>391.0</ele><time>2026-03-22T09:23:17Z</time></trkpt><trkpt lat="36.93728309503479" lon="15.117026054175971"><ele>391.00000000000006</ele><time>2026-03-22T09:23:19Z</time></trkpt><trkpt lat="36.93735184170365" lon="15.116969230583459"><ele>391.0</ele><time>2026-03-22T09:23:21Z</time></trkpt><trkpt lat="36.93744146556383" lon="15.116892414869518"><ele>391.00000000000006</ele><time>2026-03-22T09:23:23Z</time></trkpt><trkpt lat="36.937517472551484" lon="15.11682472672838"><ele>391.0</ele><time>2026-03-22T09:23:25Z</time></trkpt><trkpt lat="36.93758235658418" lon="15.116765369650912"><ele>391.0</ele><time>2026-03-22T09:23:27Z</time></trkpt><trkpt lat="36.937649398843156" lon="15.116660785806951"><ele>391.0</ele><time>2026-03-22T09:23:30Z</time></trkpt><trkpt lat="36.93770519116481" lon="15.11657179311547"><ele>391.00000000000006</ele><time>2026-03-22T09:23:32Z</time></trkpt><trkpt lat="36.93775798098342" lon="15.1164994679967"><ele>391.0</ele><time>2026-03-22T09:23:34Z</time></trkpt><trkpt lat="36.93781128180232" lon="15.116401569615363"><ele>394.20000000000005</ele><time>2026-03-22T09:23:36Z</time></trkpt><trkpt lat="36.93786254142418" lon="15.116296158640283"><ele>397.40000000000003</ele><time>2026-03-22T09:23:38Z</time></trkpt><trkpt lat="36.937946161032684" lon="15.116215217780676"><ele>400.6</ele><time>2026-03-22T09:23:40Z</time></trkpt><trkpt lat="36.9379972004786" lon="15.116154635407375"><ele>403.8</ele><time>2026-03-22T09:23:42Z</time></trkpt><trkpt lat="36.93805242130906" lon="15.116056645204482"><ele>407.0</ele><time>2026-03-22T09:23:44Z</time></trkpt><trkpt lat="36.93815211079296" lon="15.115980119592825"><ele>406.99999999999994</ele><time>2026-03-22T09:23:46Z</time></trkpt><trkpt lat="36.93821595804209" lon="15.115914053119505"><ele>407.0</ele><time>2026-03-22T09:23:48Z</time></trkpt><trkpt lat="36.93828833726629" lon="15.115869001065027"><ele>407.0</ele><time>2026-03-22T09:23:50Z</time></trkpt><trkpt lat="36.938353329173054" lon="15.115808589742551"><ele>407.0</ele><time>2026-03-22T09:23:52Z</time></trkpt><trkpt lat="36.93844081100592" lon="15.115752332652466"><ele>406.99999999999994</ele><time>2026-03-22T09:23:54Z</time></trkpt><trkpt lat="36.93852770806103" lon="15.115719116342506"><ele>407.0</ele><time>2026-03-22T09:23:56Z</time></trkpt><trkpt lat="36.93861289589207" lon="15.115695873341268"><ele>408.6</ele><time>2026-03-22T09:23:58Z</time></trkpt><trkpt lat="36.93869081202698" lon="15.11564667792627"><ele>410.20000000000005</ele><time>2026-03-22T09:24:01Z</time></trkpt><trkpt lat="36.938813267535814" lon="15.115598559305651"><ele>411.8</ele><time>2026-03-22T09:24:03Z</time></trkpt><trkpt lat="36.93888128304087" lon="15.11556086062441"><ele>413.4</ele><time>2026-03-22T09:24:04Z</time></trkpt><trkpt lat="36.938941521247024" lon="15.11548743504792"><ele>415.0</ele><time>2026-03-22T09:24:05Z</time></trkpt><trkpt lat="36.93901930382025" lon="15.11544024306446"><ele>415.0</ele><time>2026-03-22T09:24:06Z</time></trkpt><trkpt lat="36.93911138731527" lon="15.11540544627488"><ele>415.0</ele><time>2026-03-22T09:24:07Z</time></trkpt><trkpt lat="36.93919626434487" lon="15.115346388198121"><ele>415.0</ele><time>2026-03-22T09:24:08Z</time></trkpt><trkpt lat="36.9392847805841" lon="15.115289982279638"><ele>415.0</ele><time>2026-03-22T09:24:09Z</time></trkpt><trkpt lat="36.939374034663025" lon="15.115231075584688"><ele>415.0</ele><time>2026-03-22T09:24:10Z</time></trkpt><trkpt lat="36.93945914613763" lon="15.115173409541294"><ele>416.1666666666667</ele><time>2026-03-22T09:24:11Z</time></trkpt><trkpt lat="36.939551896273336" lon="15.115120587162577"><ele>417.33333333333337</ele><time>2026-03-22T09:24:12Z</time></trkpt><trkpt lat="36.9396095252331" lon="15.115075699104976"><ele>418.5</ele><time>2026-03-22T09:24:13Z</time></trkpt><trkpt lat="36.93969623077586" lon="15.115020003064192"><ele>419.66666666666663</ele><time>2026-03-22T09:24:14Z</time></trkpt><trkpt lat="36.939765553703474" lon="15.114977173957486"><ele>420.8333333333333</ele><time>2026-03-22T09:24:15Z</time></trkpt><trkpt lat="36.939835015853866" lon="15.114932614923442"><ele>422.0</ele><time>2026-03-22T09:24:16Z</time></trkpt><trkpt lat="36.93990348729316" lon="15.114882126036772"><ele>422.66666666666663</ele><time>2026-03-22T09:24:17Z</time></trkpt><trkpt lat="36.93996357398562" lon="15.114842689990597"><ele>423.3333333333333</ele><time>2026-03-22T09:24:18Z</time></trkpt><trkpt lat="36.94003759320782" lon="15.114799689690368"><ele>424.0</ele><time>2026-03-22T09:24:19Z</time></trkpt><trkpt lat="36.94011212129765" lon="15.114757589448002"><ele>424.66666666666663</ele><time>2026-03-22T09:24:20Z</time></trkpt><trkpt lat="36.940192573364605" lon="15.11470671781548"><ele>425.3333333333333</ele><time>2026-03-22T09:24:21Z</time></trkpt><trkpt lat="36.94027991762331" lon="15.114651365224743"><ele>426.0</ele><time>2026-03-22T09:24:22Z</time></trkpt><trkpt lat="36.940368238890706" lon="15.114596058430864"><ele>428.0</ele><time>2026-03-22T09:24:23Z</time></trkpt><trkpt lat="36.94046031046696" lon="15.114537302983855"><ele>430.0</ele><time>2026-03-22T09:24:24Z</time></trkpt><trkpt lat="36.94057396452189" lon="15.11447310609143"><ele>432.0</ele><time>2026-03-22T09:24:25Z</time></trkpt><trkpt lat="36.94069074247675" lon="15.114403881956544"><ele>434.0</ele><time>2026-03-22T09:24:26Z</time></trkpt><trkpt lat="36.94080993847484" lon="15.114328899978247"><ele>436.0</ele><time>2026-03-22T09:24:27Z</time></trkpt><trkpt lat="36.94092962675122" lon="15.114245054983556"><ele>438.0</ele><time>2026-03-22T09:24:28Z</time></trkpt><trkpt lat="36.94105512427518" lon="15.114161712471077"><ele>440.0</ele><time>2026-03-22T09:24:29Z</time></trkpt><trkpt lat="36.94118368240541" lon="15.114088750955409"><ele>442.0</ele><time>2026-03-22T09:24:30Z</time></trkpt><trkpt lat="36.941307009954734" lon="15.114005633708377"><ele>442.0</ele><time>2026-03-22T09:24:31Z</time></trkpt><trkpt lat="36.94143306416861" lon="15.113919238244273"><ele>442.0</ele><time>2026-03-22T09:24:32Z</time></trkpt><trkpt lat="36.94156594284366" lon="15.113846848206569"><ele>442.0</ele><time>2026-03-22T09:24:33Z</time></trkpt><trkpt lat="36.941689778458084" lon="15.113742654896598"><ele>442.0</ele><time>2026-03-22T09:24:34Z</time></trkpt><trkpt lat="36.94181902486053" lon="15.113634281319445"><ele>442.0</ele><time>2026-03-22T09:24:35Z</time></trkpt><trkpt lat="36.94196113803687" lon="15.113524927465312"><ele>442.0</ele><time>2026-03-22T09:24:36Z</time></trkpt><trkpt lat="36.94211682726632" lon="15.113419350395446"><ele>442.0</ele><time>2026-03-22T09:24:37Z</time></trkpt><trkpt lat="36.942280376936885" lon="15.113314062020601"><ele>443.33333333333337</ele><time>2026-03-22T09:24:38Z</time></trkpt><trkpt lat="36.942454727728645" lon="15.1132121147815"><ele>444.66666666666663</ele><time>2026-03-22T09:24:39Z</time></trkpt><trkpt lat="36.942638199734056" lon="15.113111310302966"><ele>446.0</ele><time>2026-03-22T09:24:40Z</time></trkpt><trkpt lat="36.94281737726121" lon="15.11300873254161"><ele>447.0</ele><time>2026-03-22T09:24:41Z</time></trkpt><trkpt lat="36.94299079687223" lon="15.112914985663826"><ele>448.0</ele><time>2026-03-22T09:24:42Z</time></trkpt><trkpt lat="36.94314182598452" lon="15.112834365143586"><ele>449.0</ele><time>2026-03-22T09:24:43Z</time></trkpt><trkpt lat="36.9433204322583" lon="15.1127425405118"><ele>452.3333333333333</ele><time>2026-03-22T09:24:44Z</time></trkpt><trkpt lat="36.943508641881344" lon="15.112647268654035"><ele>455.66666666666663</ele><time>2026-03-22T09:24:45Z</time></trkpt><trkpt lat="36.94369064520754" lon="15.11255321395919"><ele>459.0</ele><time>2026-03-22T09:24:46Z</time></trkpt><trkpt lat="36.94385182272758" lon="15.11245773653737"><ele>460.0</ele><time>2026-03-22T09:24:47Z</time></trkpt><trkpt lat="36.9440306717184" lon="15.112365860635244"><ele>461.0</ele><time>2026-03-22T09:24:48Z</time></trkpt><trkpt lat="36.944206747993505" lon="15.112284083022365"><ele>462.0</ele><time>2026-03-22T09:24:49Z</time></trkpt><trkpt lat="36.944380777654956" lon="15.112204911357365"><ele>463.66666666666663</ele><time>2026-03-22T09:24:50Z</time></trkpt><trkpt lat="36.944547779828326" lon="15.11212895344569"><ele>465.3333333333333</ele><time>2026-03-22T09:24:51Z</time></trkpt><trkpt lat="36.944701772068534" lon="15.112037726782905"><ele>467.0</ele><time>2026-03-22T09:24:52Z</time></trkpt><trkpt lat="36.944854527549175" lon="15.111963193459559"><ele>467.0</ele><time>2026-03-22T09:24:53Z</time></trkpt><trkpt lat="36.945027430774374" lon="15.111897047740714"><ele>467.0</ele><time>2026-03-22T09:24:54Z</time></trkpt><trkpt lat="36.94517033996947" lon="15.111811925189029"><ele>467.0</ele><time>2026-03-22T09:24:55Z</time></trkpt><trkpt lat="36.94530232896194" lon="15.111729818439704"><ele>468.66666666666663</ele><time>2026-03-22T09:24:56Z</time></trkpt><trkpt lat="36.94543276729866" lon="15.11164230415034"><ele>470.33333333333337</ele><time>2026-03-22T09:24:57Z</time></trkpt><trkpt lat="36.94556277659504" lon="15.111535613586957"><ele>472.0</ele><time>2026-03-22T09:24:58Z</time></trkpt><trkpt lat="36.945691182039916" lon="15.111421723830723"><ele>472.6666666666667</ele><time>2026-03-22T09:24:59Z</time></trkpt><trkpt lat="36.94582040928106" lon="15.111294830359656"><ele>473.33333333333337</ele><time>2026-03-22T09:25:00Z</time></trkpt><trkpt lat="36.9459465075264" lon="15.11114759950605"><ele>474.0</ele><time>2026-03-22T09:25:01Z</time></trkpt><trkpt lat="36.94605008475637" lon="15.110974491256385"><ele>474.0</ele><time>2026-03-22T09:25:02Z</time></trkpt><trkpt lat="36.94615321163256" lon="15.110798503562798"><ele>474.0</ele><time>2026-03-22T09:25:03Z</time></trkpt><trkpt lat="36.94625080099473" lon="15.110621301560704"><ele>474.0</ele><time>2026-03-22T09:25:04Z</time></trkpt><trkpt lat="36.9463311678055" lon="15.110441725725256"><ele>475.0</ele><time>2026-03-22T09:25:05Z</time></trkpt><trkpt lat="36.94640784639758" lon="15.110250800325053"><ele>476.0</ele><time>2026-03-22T09:25:06Z</time></trkpt><trkpt lat="36.946484406178925" lon="15.110058738054077"><ele>477.0</ele><time>2026-03-22T09:25:07Z</time></trkpt><trkpt lat="36.94656408886152" lon="15.109861175407312"><ele>477.0</ele><time>2026-03-22T09:25:08Z</time></trkpt><trkpt lat="36.94665215843949" lon="15.109648366587273"><ele>477.0</ele><time>2026-03-22T09:25:09Z</time></trkpt><trkpt lat="36.94674113277917" lon="15.109434032902609"><ele>477.0</ele><time>2026-03-22T09:25:10Z</time></trkpt><trkpt lat="36.946844566227405" lon="15.109209675652124"><ele>478.66666666666663</ele><time>2026-03-22T09:25:11Z</time></trkpt><trkpt lat="36.946951238957546" lon="15.10902781294632"><ele>480.3333333333333</ele><time>2026-03-22T09:25:12Z</time></trkpt><trkpt lat="36.94706583297847" lon="15.108884891360592"><ele>482.0</ele><time>2026-03-22T09:25:13Z</time></trkpt><trkpt lat="36.9471930184445" lon="15.108787704102463"><ele>482.0</ele><time>2026-03-22T09:25:14Z</time></trkpt><trkpt lat="36.94730836559193" lon="15.108696192519488"><ele>482.0</ele><time>2026-03-22T09:25:15Z</time></trkpt><trkpt lat="36.94742546779455" lon="15.108600177052589"><ele>482.0</ele><time>2026-03-22T09:25:16Z</time></trkpt><trkpt lat="36.94755188803878" lon="15.108496521461413"><ele>482.0</ele><time>2026-03-22T09:25:17Z</time></trkpt><trkpt lat="36.94778925357986" lon="15.108603261135944"><ele>482.3333333333333</ele><time>2026-03-22T09:25:18Z</time></trkpt><trkpt lat="36.9479552946166" lon="15.10854498521747"><ele>482.66666666666663</ele><time>2026-03-22T09:25:19Z</time></trkpt><trkpt lat="36.94811732419867" lon="15.108470618776106"><ele>483.0</ele><time>2026-03-22T09:25:20Z</time></trkpt><trkpt lat="36.948283822078004" lon="15.108390573576314"><ele>482.33333333333337</ele><time>2026-03-22T09:25:21Z</time></trkpt><trkpt lat="36.948432712128636" lon="15.1082755022028"><ele>481.6666666666667</ele><time>2026-03-22T09:25:22Z</time></trkpt><trkpt lat="36.94858958447692" lon="15.108148163518683"><ele>481.0</ele><time>2026-03-22T09:25:23Z</time></trkpt><trkpt lat="36.94875325833602" lon="15.108049048860076"><ele>481.0</ele><time>2026-03-22T09:25:24Z</time></trkpt><trkpt lat="36.94889923248827" lon="15.107936795965982"><ele>481.0</ele><time>2026-03-22T09:25:25Z</time></trkpt><trkpt lat="36.949051809354295" lon="15.1078013119893"><ele>481.0</ele><time>2026-03-22T09:25:26Z</time></trkpt><trkpt lat="36.94919545711037" lon="15.107649848839165"><ele>478.6666666666667</ele><time>2026-03-22T09:25:27Z</time></trkpt><trkpt lat="36.94932427408511" lon="15.107507626365997"><ele>476.33333333333337</ele><time>2026-03-22T09:25:28Z</time></trkpt><trkpt lat="36.94943579697186" lon="15.10735006278809"><ele>474.0</ele><time>2026-03-22T09:25:29Z</time></trkpt><trkpt lat="36.9495401887889" lon="15.107176260491622"><ele>473.33333333333337</ele><time>2026-03-22T09:25:30Z</time></trkpt><trkpt lat="36.94965185596154" lon="15.106967643691286"><ele>472.6666666666667</ele><time>2026-03-22T09:25:31Z</time></trkpt><trkpt lat="36.949748120016345" lon="15.106772491155462"><ele>472.0</ele><time>2026-03-22T09:25:32Z</time></trkpt><trkpt lat="36.949883468811635" lon="15.106594183345766"><ele>471.5</ele><time>2026-03-22T09:25:33Z</time></trkpt><trkpt lat="36.949990764707465" lon="15.10645552464116"><ele>471.0</ele><time>2026-03-22T09:25:34Z</time></trkpt><trkpt lat="36.95010105731958" lon="15.106321534886726"><ele>470.5</ele><time>2026-03-22T09:25:35Z</time></trkpt><trkpt lat="36.95019252396245" lon="15.106212083923175"><ele>470.0</ele><time>2026-03-22T09:25:36Z</time></trkpt><trkpt lat="36.95025919544426" lon="15.106134432845149"><ele>471.3333333333333</ele><time>2026-03-22T09:25:37Z</time></trkpt><trkpt lat="36.950309578030655" lon="15.10604338592537"><ele>472.66666666666663</ele><time>2026-03-22T09:25:39Z</time></trkpt><trkpt lat="36.95037480301472" lon="15.105957629367456"><ele>474.0</ele><time>2026-03-22T09:25:41Z</time></trkpt><trkpt lat="36.95039321847336" lon="15.105867063185578"><ele>475.33333333333337</ele><time>2026-03-22T09:25:42Z</time></trkpt><trkpt lat="36.95044515870704" lon="15.105783172442608"><ele>476.6666666666667</ele><time>2026-03-22T09:25:43Z</time></trkpt><trkpt lat="36.950481406671344" lon="15.105677053224746"><ele>478.0</ele><time>2026-03-22T09:25:44Z</time></trkpt><trkpt lat="36.95054482889664" lon="15.105564934331362"><ele>479.0</ele><time>2026-03-22T09:25:45Z</time></trkpt><trkpt lat="36.950624086201756" lon="15.1054473816243"><ele>480.0</ele><time>2026-03-22T09:25:46Z</time></trkpt><trkpt lat="36.95069927250308" lon="15.105326122841543"><ele>481.0</ele><time>2026-03-22T09:25:47Z</time></trkpt><trkpt lat="36.95077684947499" lon="15.105195182110254"><ele>482.0</ele><time>2026-03-22T09:25:48Z</time></trkpt><trkpt lat="36.95085304308531" lon="15.105056833844259"><ele>484.0</ele><time>2026-03-22T09:25:49Z</time></trkpt><trkpt lat="36.950923640259845" lon="15.104910527105766"><ele>486.0</ele><time>2026-03-22T09:25:50Z</time></trkpt><trkpt lat="36.95097759683794" lon="15.104743576141365"><ele>488.0</ele><time>2026-03-22T09:25:51Z</time></trkpt><trkpt lat="36.9510335843111" lon="15.104588545429202"><ele>490.0</ele><time>2026-03-22T09:25:52Z</time></trkpt><trkpt lat="36.95109906723284" lon="15.104438173947738"><ele>490.0</ele><time>2026-03-22T09:25:53Z</time></trkpt><trkpt lat="36.951146222268456" lon="15.10427069830847"><ele>490.0</ele><time>2026-03-22T09:25:54Z</time></trkpt><trkpt lat="36.951208770137974" lon="15.10412458427308"><ele>490.0</ele><time>2026-03-22T09:25:55Z</time></trkpt><trkpt lat="36.9512617709265" lon="15.103950306785583"><ele>490.0</ele><time>2026-03-22T09:25:56Z</time></trkpt><trkpt lat="36.951301826418764" lon="15.103813325429202"><ele>490.5</ele><time>2026-03-22T09:25:57Z</time></trkpt><trkpt lat="36.951365376439625" lon="15.103669502855075"><ele>491.0</ele><time>2026-03-22T09:25:58Z</time></trkpt><trkpt lat="36.95143324396163" lon="15.103509653038843"><ele>491.5</ele><time>2026-03-22T09:25:59Z</time></trkpt><trkpt lat="36.951507546143134" lon="15.103389781375105"><ele>492.0</ele><time>2026-03-22T09:26:00Z</time></trkpt><trkpt lat="36.95161656178536" lon="15.103247958084276"><ele>492.75</ele><time>2026-03-22T09:26:01Z</time></trkpt><trkpt lat="36.951726198517356" lon="15.103131330932644"><ele>493.5</ele><time>2026-03-22T09:26:02Z</time></trkpt><trkpt lat="36.95182965335625" lon="15.103031207378173"><ele>494.25</ele><time>2026-03-22T09:26:03Z</time></trkpt><trkpt lat="36.951936904372864" lon="15.102949671094025"><ele>495.0</ele><time>2026-03-22T09:26:04Z</time></trkpt><trkpt lat="36.95201704681286" lon="15.102856565758149"><ele>495.0</ele><time>2026-03-22T09:26:05Z</time></trkpt><trkpt lat="36.95207112602177" lon="15.10271317485949"><ele>495.0</ele><time>2026-03-22T09:26:06Z</time></trkpt><trkpt lat="36.952091763613744" lon="15.102562929944213"><ele>495.0</ele><time>2026-03-22T09:26:07Z</time></trkpt><trkpt lat="36.95209471261688" lon="15.102450627201288"><ele>495.0</ele><time>2026-03-22T09:26:08Z</time></trkpt><trkpt lat="36.95212329084332" lon="15.102316135061487"><ele>494.25</ele><time>2026-03-22T09:26:09Z</time></trkpt><trkpt lat="36.95216553168619" lon="15.102208071492516"><ele>493.5</ele><time>2026-03-22T09:26:10Z</time></trkpt><trkpt lat="36.95223630889005" lon="15.102075351596849"><ele>492.75</ele><time>2026-03-22T09:26:11Z</time></trkpt><trkpt lat="36.95229819775275" lon="15.10193308264422"><ele>492.0</ele><time>2026-03-22T09:26:12Z</time></trkpt><trkpt lat="36.95236708063295" lon="15.101799663587524"><ele>492.0</ele><time>2026-03-22T09:26:13Z</time></trkpt><trkpt lat="36.952439626948795" lon="15.101702578187538"><ele>492.0</ele><time>2026-03-22T09:26:14Z</time></trkpt><trkpt lat="36.952520410033394" lon="15.101641314725411"><ele>492.0</ele><time>2026-03-22T09:26:15Z</time></trkpt><trkpt lat="36.9526113772663" lon="15.10156463504944"><ele>492.0</ele><time>2026-03-22T09:26:16Z</time></trkpt><trkpt lat="36.95272678154396" lon="15.101452806642211"><ele>491.66666666666663</ele><time>2026-03-22T09:26:17Z</time></trkpt><trkpt lat="36.95285936467398" lon="15.101377315664406"><ele>491.3333333333333</ele><time>2026-03-22T09:26:18Z</time></trkpt><trkpt lat="36.952999137509025" lon="15.101281212324766"><ele>491.0</ele><time>2026-03-22T09:26:19Z</time></trkpt><trkpt lat="36.95313894227325" lon="15.101195248399591"><ele>491.0</ele><time>2026-03-22T09:26:20Z</time></trkpt><trkpt lat="36.953268745036894" lon="15.101107847408555"><ele>491.0</ele><time>2026-03-22T09:26:21Z</time></trkpt><trkpt lat="36.953380252638055" lon="15.101031167337075"><ele>491.0</ele><time>2026-03-22T09:26:22Z</time></trkpt><trkpt lat="36.95347400468348" lon="15.100969702970682"><ele>491.0</ele><time>2026-03-22T09:26:23Z</time></trkpt><trkpt lat="36.95353651812985" lon="15.100910828082357"><ele>491.20000000000005</ele><time>2026-03-22T09:26:24Z</time></trkpt><trkpt lat="36.95358782963154" lon="15.100836910548596"><ele>491.40000000000003</ele><time>2026-03-22T09:26:25Z</time></trkpt><trkpt lat="36.95360872529009" lon="15.100747696095034"><ele>491.6</ele><time>2026-03-22T09:26:26Z</time></trkpt><trkpt lat="36.9535477163836" lon="15.100685499144765"><ele>491.8</ele><time>2026-03-22T09:26:27Z</time></trkpt><trkpt lat="36.95372061725644" lon="15.100673688291534"><ele>492.0</ele><time>2026-03-22T09:26:30Z</time></trkpt><trkpt lat="36.95381287184737" lon="15.100719011496848"><ele>492.0</ele><time>2026-03-22T09:26:32Z</time></trkpt><trkpt lat="36.95388996713489" lon="15.100761675842952"><ele>492.0</ele><time>2026-03-22T09:26:33Z</time></trkpt><trkpt lat="36.95396223924913" lon="15.100777835398048"><ele>492.0</ele><time>2026-03-22T09:26:34Z</time></trkpt><trkpt lat="36.954024763005854" lon="15.100712480500974"><ele>492.0</ele><time>2026-03-22T09:26:35Z</time></trkpt><trkpt lat="36.9541044499445" lon="15.10068008623612"><ele>492.0</ele><time>2026-03-22T09:26:36Z</time></trkpt><trkpt lat="36.95418792991468" lon="15.10065899353342"><ele>492.0</ele><time>2026-03-22T09:26:37Z</time></trkpt><trkpt lat="36.95426679787118" lon="15.100619400439557"><ele>492.8</ele><time>2026-03-22T09:26:38Z</time></trkpt><trkpt lat="36.95433607314074" lon="15.100605498197126"><ele>493.6</ele><time>2026-03-22T09:26:39Z</time></trkpt><trkpt lat="36.954453079176595" lon="15.100634792300193"><ele>494.40000000000003</ele><time>2026-03-22T09:26:41Z</time></trkpt><trkpt lat="36.95449157501592" lon="15.10074704594084"><ele>495.20000000000005</ele><time>2026-03-22T09:26:42Z</time></trkpt><trkpt lat="36.95455886830734" lon="15.100825545314999"><ele>496.0</ele><time>2026-03-22T09:26:43Z</time></trkpt><trkpt lat="36.95463706146862" lon="15.10091675959278"><ele>496.0</ele><time>2026-03-22T09:26:44Z</time></trkpt><trkpt lat="36.954724372198754" lon="15.101002086407767"><ele>496.0</ele><time>2026-03-22T09:26:45Z</time></trkpt><trkpt lat="36.954828760043235" lon="15.101121595923672"><ele>496.0</ele><time>2026-03-22T09:26:46Z</time></trkpt><trkpt lat="36.95492900784754" lon="15.10123497590683"><ele>496.0</ele><time>2026-03-22T09:26:47Z</time></trkpt><trkpt lat="36.95502893074688" lon="15.101353268011767"><ele>495.5</ele><time>2026-03-22T09:26:48Z</time></trkpt><trkpt lat="36.9551092377525" lon="15.101478721159591"><ele>495.0</ele><time>2026-03-22T09:26:49Z</time></trkpt><trkpt lat="36.955193557831855" lon="15.101580753049406"><ele>494.5</ele><time>2026-03-22T09:26:50Z</time></trkpt><trkpt lat="36.955293729066256" lon="15.10167510808637"><ele>494.0</ele><time>2026-03-22T09:26:51Z</time></trkpt><trkpt lat="36.95536948018788" lon="15.101792303988692"><ele>493.2</ele><time>2026-03-22T09:26:52Z</time></trkpt><trkpt lat="36.95546255913393" lon="15.101873642452642"><ele>492.4</ele><time>2026-03-22T09:26:53Z</time></trkpt><trkpt lat="36.955510254210076" lon="15.101953088271149"><ele>491.6</ele><time>2026-03-22T09:26:54Z</time></trkpt><trkpt lat="36.95556687165956" lon="15.102020806252355"><ele>490.8</ele><time>2026-03-22T09:26:55Z</time></trkpt><trkpt lat="36.95564117030341" lon="15.102091796307368"><ele>490.0</ele><time>2026-03-22T09:26:56Z</time></trkpt><trkpt lat="36.95570675980565" lon="15.102165813332789"><ele>490.00000000000006</ele><time>2026-03-22T09:26:57Z</time></trkpt><trkpt lat="36.95579697587629" lon="15.102216336845917"><ele>490.0</ele><time>2026-03-22T09:26:59Z</time></trkpt><trkpt lat="36.955859649784614" lon="15.102203173621083"><ele>490.0</ele><time>2026-03-22T09:27:00Z</time></trkpt><trkpt lat="36.95590593404384" lon="15.102136418445793"><ele>490.0</ele><time>2026-03-22T09:27:01Z</time></trkpt><trkpt lat="36.95593082991952" lon="15.102035121467438"><ele>490.00000000000006</ele><time>2026-03-22T09:27:02Z</time></trkpt><trkpt lat="36.95598566121584" lon="15.101963966618845"><ele>490.0</ele><time>2026-03-22T09:27:03Z</time></trkpt><trkpt lat="36.95608003692921" lon="15.101824898653122"><ele>489.75</ele><time>2026-03-22T09:27:04Z</time></trkpt><trkpt lat="36.95616130172293" lon="15.10170553294199"><ele>489.5</ele><time>2026-03-22T09:27:05Z</time></trkpt><trkpt lat="36.95623910223623" lon="15.101577072535639"><ele>489.25</ele><time>2026-03-22T09:27:06Z</time></trkpt><trkpt lat="36.95631418588426" lon="15.101445467694447"><ele>489.0</ele><time>2026-03-22T09:27:07Z</time></trkpt><trkpt lat="36.95639073041101" lon="15.10131207512005"><ele>488.75</ele><time>2026-03-22T09:27:08Z</time></trkpt><trkpt lat="36.95647790101817" lon="15.101192473257976"><ele>488.5</ele><time>2026-03-22T09:27:09Z</time></trkpt><trkpt lat="36.95659021680507" lon="15.101049597636612"><ele>488.25</ele><time>2026-03-22T09:27:10Z</time></trkpt><trkpt lat="36.956703948877525" lon="15.100912575697892"><ele>488.0</ele><time>2026-03-22T09:27:11Z</time></trkpt><trkpt lat="36.95680371958492" lon="15.100758130956802"><ele>488.25</ele><time>2026-03-22T09:27:12Z</time></trkpt><trkpt lat="36.95690771248839" lon="15.100614132310358"><ele>488.5</ele><time>2026-03-22T09:27:13Z</time></trkpt><trkpt lat="36.956985799239845" lon="15.100475115923878"><ele>488.75</ele><time>2026-03-22T09:27:14Z</time></trkpt><trkpt lat="36.95706104616895" lon="15.10036211709045"><ele>489.0</ele><time>2026-03-22T09:27:15Z</time></trkpt><trkpt lat="36.95710430140494" lon="15.100274874569093"><ele>489.0</ele><time>2026-03-22T09:27:16Z</time></trkpt><trkpt lat="36.95715827155746" lon="15.10022166320539"><ele>489.0</ele><time>2026-03-22T09:27:18Z</time></trkpt><trkpt lat="36.957223823772644" lon="15.10031451844506"><ele>489.0</ele><time>2026-03-22T09:27:20Z</time></trkpt><trkpt lat="36.9572753900342" lon="15.100379372528039"><ele>489.0</ele><time>2026-03-22T09:27:21Z</time></trkpt><trkpt lat="36.957336769846926" lon="15.10044972564953"><ele>489.0</ele><time>2026-03-22T09:27:22Z</time></trkpt><trkpt lat="36.957394629209844" lon="15.100533302311597"><ele>489.0</ele><time>2026-03-22T09:27:23Z</time></trkpt><trkpt lat="36.957460339850684" lon="15.100614360443128"><ele>489.0</ele><time>2026-03-22T09:27:24Z</time></trkpt><trkpt lat="36.95753112951835" lon="15.100688924854769"><ele>489.0</ele><time>2026-03-22T09:27:25Z</time></trkpt><trkpt lat="36.95760238405482" lon="15.100758650464426"><ele>489.0</ele><time>2026-03-22T09:27:26Z</time></trkpt><trkpt lat="36.957706234490345" lon="15.100855591971325"><ele>489.0</ele><time>2026-03-22T09:27:27Z</time></trkpt><trkpt lat="36.9578129618843" lon="15.100924698529457"><ele>489.0</ele><time>2026-03-22T09:27:28Z</time></trkpt><trkpt lat="36.95791946007076" lon="15.101004326632385"><ele>487.0</ele><time>2026-03-22T09:27:29Z</time></trkpt><trkpt lat="36.95803081123649" lon="15.101082625910543"><ele>485.0</ele><time>2026-03-22T09:27:30Z</time></trkpt><trkpt lat="36.95815004691939" lon="15.101160811995712"><ele>483.0</ele><time>2026-03-22T09:27:31Z</time></trkpt><trkpt lat="36.958277500357774" lon="15.101236657428602"><ele>481.0</ele><time>2026-03-22T09:27:32Z</time></trkpt><trkpt lat="36.95839123236061" lon="15.101324500691714"><ele>481.0</ele><time>2026-03-22T09:27:33Z</time></trkpt><trkpt lat="36.9584788201" lon="15.101437893442368"><ele>481.0</ele><time>2026-03-22T09:27:34Z</time></trkpt><trkpt lat="36.95855710201894" lon="15.101573641788162"><ele>481.0</ele><time>2026-03-22T09:27:35Z</time></trkpt><trkpt lat="36.95864597407554" lon="15.101718757403749"><ele>481.0</ele><time>2026-03-22T09:27:36Z</time></trkpt><trkpt lat="36.95875074786972" lon="15.10184503001482"><ele>481.5</ele><time>2026-03-22T09:27:37Z</time></trkpt><trkpt lat="36.9588550452598" lon="15.101980776713873"><ele>482.0</ele><time>2026-03-22T09:27:38Z</time></trkpt><trkpt lat="36.95895458179503" lon="15.10212698269464"><ele>482.5</ele><time>2026-03-22T09:27:39Z</time></trkpt><trkpt lat="36.95906618179163" lon="15.102242324575322"><ele>483.0</ele><time>2026-03-22T09:27:40Z</time></trkpt><trkpt lat="36.95915644055576" lon="15.102375008258367"><ele>483.25</ele><time>2026-03-22T09:27:41Z</time></trkpt><trkpt lat="36.959238977249996" lon="15.10251058576488"><ele>483.5</ele><time>2026-03-22T09:27:42Z</time></trkpt><trkpt lat="36.959316309999856" lon="15.10265238356111"><ele>483.75</ele><time>2026-03-22T09:27:43Z</time></trkpt><trkpt lat="36.95939640811827" lon="15.102792735469134"><ele>484.0</ele><time>2026-03-22T09:27:44Z</time></trkpt><trkpt lat="36.959475499689034" lon="15.10291457604267"><ele>484.0</ele><time>2026-03-22T09:27:45Z</time></trkpt><trkpt lat="36.9595482468058" lon="15.103009577698717"><ele>484.0</ele><time>2026-03-22T09:27:46Z</time></trkpt><trkpt lat="36.959615540321536" lon="15.103083561140487"><ele>484.0</ele><time>2026-03-22T09:27:47Z</time></trkpt><trkpt lat="36.95967026992017" lon="15.103180922971257"><ele>484.0</ele><time>2026-03-22T09:27:48Z</time></trkpt><trkpt lat="36.95973985725898" lon="15.10327511399626"><ele>484.0</ele><time>2026-03-22T09:27:49Z</time></trkpt><trkpt lat="36.95981791358014" lon="15.10337889979874"><ele>482.75</ele><time>2026-03-22T09:27:50Z</time></trkpt><trkpt lat="36.95990694382449" lon="15.103484508877257"><ele>481.5</ele><time>2026-03-22T09:27:51Z</time></trkpt><trkpt lat="36.959983410577394" lon="15.10359950441325"><ele>480.25</ele><time>2026-03-22T09:27:52Z</time></trkpt><trkpt lat="36.960084573558916" lon="15.103720376601832"><ele>479.0</ele><time>2026-03-22T09:27:53Z</time></trkpt><trkpt lat="36.960178926178614" lon="15.103810635134755"><ele>478.5</ele><time>2026-03-22T09:27:54Z</time></trkpt><trkpt lat="36.9602603568475" lon="15.103924422835986"><ele>478.0</ele><time>2026-03-22T09:27:55Z</time></trkpt><trkpt lat="36.960329806351915" lon="15.104031469792709"><ele>477.5</ele><time>2026-03-22T09:27:56Z</time></trkpt><trkpt lat="36.96038557106523" lon="15.104152422882176"><ele>477.0</ele><time>2026-03-22T09:27:57Z</time></trkpt><trkpt lat="36.96044475711427" lon="15.10428826679599"><ele>476.0</ele><time>2026-03-22T09:27:58Z</time></trkpt><trkpt lat="36.960525994390906" lon="15.104418632862254"><ele>475.0</ele><time>2026-03-22T09:27:59Z</time></trkpt><trkpt lat="36.96060695187334" lon="15.104571532842773"><ele>474.0</ele><time>2026-03-22T09:28:00Z</time></trkpt><trkpt lat="36.96071864160405" lon="15.104724977782746"><ele>473.0</ele><time>2026-03-22T09:28:01Z</time></trkpt><trkpt lat="36.96083594502984" lon="15.104865477777675"><ele>470.0</ele><time>2026-03-22T09:28:02Z</time></trkpt><trkpt lat="36.96094543018408" lon="15.104992831487444"><ele>467.0</ele><time>2026-03-22T09:28:03Z</time></trkpt><trkpt lat="36.96105620210269" lon="15.105123860775409"><ele>464.0</ele><time>2026-03-22T09:28:04Z</time></trkpt><trkpt lat="36.96116488924936" lon="15.10525799737715"><ele>464.0</ele><time>2026-03-22T09:28:05Z</time></trkpt><trkpt lat="36.96124499747181" lon="15.105380605008754"><ele>464.0</ele><time>2026-03-22T09:28:06Z</time></trkpt><trkpt lat="36.96128899804618" lon="15.105493601946995"><ele>464.0</ele><time>2026-03-22T09:28:07Z</time></trkpt><trkpt lat="36.96134079848589" lon="15.105621283521241"><ele>464.0</ele><time>2026-03-22T09:28:08Z</time></trkpt><trkpt lat="36.961404752080874" lon="15.105750702760032"><ele>464.0</ele><time>2026-03-22T09:28:09Z</time></trkpt><trkpt lat="36.961393188522386" lon="15.105879428088766"><ele>464.0</ele><time>2026-03-22T09:28:10Z</time></trkpt><trkpt lat="36.96137728225122" lon="15.106011050327142"><ele>464.0</ele><time>2026-03-22T09:28:11Z</time></trkpt><trkpt lat="36.96139426736087" lon="15.106156033285515"><ele>464.0</ele><time>2026-03-22T09:28:12Z</time></trkpt><trkpt lat="36.9614221052804" lon="15.10630585662005"><ele>464.0</ele><time>2026-03-22T09:28:13Z</time></trkpt><trkpt lat="36.96146807562727" lon="15.106436411386774"><ele>464.0</ele><time>2026-03-22T09:28:14Z</time></trkpt><trkpt lat="36.961502433392084" lon="15.106573357837233"><ele>464.0</ele><time>2026-03-22T09:28:15Z</time></trkpt><trkpt lat="36.96154158033422" lon="15.106735980027302"><ele>464.0</ele><time>2026-03-22T09:28:16Z</time></trkpt><trkpt lat="36.96158539193595" lon="15.106848236895937"><ele>465.0</ele><time>2026-03-22T09:28:17Z</time></trkpt><trkpt lat="36.96160446599044" lon="15.106993808951932"><ele>466.0</ele><time>2026-03-22T09:28:18Z</time></trkpt><trkpt lat="36.96165555363438" lon="15.107106176463022"><ele>467.0</ele><time>2026-03-22T09:28:19Z</time></trkpt><trkpt lat="36.961682861515406" lon="15.107248795767648"><ele>468.0</ele><time>2026-03-22T09:28:20Z</time></trkpt><trkpt lat="36.96170292018845" lon="15.107386466705682"><ele>470.0</ele><time>2026-03-22T09:28:21Z</time></trkpt><trkpt lat="36.96171452861687" lon="15.107523448247278"><ele>472.0</ele><time>2026-03-22T09:28:22Z</time></trkpt><trkpt lat="36.96172535092525" lon="15.10766387422333"><ele>474.0</ele><time>2026-03-22T09:28:23Z</time></trkpt><trkpt lat="36.96174000489249" lon="15.107833264153875"><ele>476.0</ele><time>2026-03-22T09:28:24Z</time></trkpt><trkpt lat="36.96175662169118" lon="15.108012886585069"><ele>476.0</ele><time>2026-03-22T09:28:25Z</time></trkpt><trkpt lat="36.96177232827" lon="15.108185966935594"><ele>476.0</ele><time>2026-03-22T09:28:26Z</time></trkpt><trkpt lat="36.96178713218859" lon="15.10834922754827"><ele>476.0</ele><time>2026-03-22T09:28:27Z</time></trkpt><trkpt lat="36.96180128165917" lon="15.108505271046102"><ele>476.0</ele><time>2026-03-22T09:28:28Z</time></trkpt><trkpt lat="36.961816651674404" lon="15.108648985548985"><ele>476.75</ele><time>2026-03-22T09:28:29Z</time></trkpt><trkpt lat="36.96183300044857" lon="15.108797565953202"><ele>477.5</ele><time>2026-03-22T09:28:30Z</time></trkpt><trkpt lat="36.961849564414116" lon="15.108957776207347"><ele>478.25</ele><time>2026-03-22T09:28:31Z</time></trkpt><trkpt lat="36.961854731103685" lon="15.109119139441853"><ele>479.0</ele><time>2026-03-22T09:28:32Z</time></trkpt><trkpt lat="36.96185287274193" lon="15.109269406377342"><ele>477.4</ele><time>2026-03-22T09:28:33Z</time></trkpt><trkpt lat="36.96184626811835" lon="15.10941414194289"><ele>475.79999999999995</ele><time>2026-03-22T09:28:34Z</time></trkpt><trkpt lat="36.96183732304462" lon="15.109537533548624"><ele>474.20000000000005</ele><time>2026-03-22T09:28:35Z</time></trkpt><trkpt lat="36.96182246311099" lon="15.109635708613236"><ele>472.6</ele><time>2026-03-22T09:28:36Z</time></trkpt><trkpt lat="36.96181196077448" lon="15.109722117581155"><ele>471.0</ele><time>2026-03-22T09:28:37Z</time></trkpt><trkpt lat="36.96180478050589" lon="15.109834685740497"><ele>471.0</ele><time>2026-03-22T09:28:39Z</time></trkpt><trkpt lat="36.96190754541728" lon="15.109861143775584"><ele>471.0</ele><time>2026-03-22T09:28:52Z</time></trkpt><trkpt lat="36.96197522313906" lon="15.109871117359742"><ele>471.0</ele><time>2026-03-22T09:28:53Z</time></trkpt><trkpt lat="36.96206776926706" lon="15.10987169494123"><ele>471.0</ele><time>2026-03-22T09:28:54Z</time></trkpt><trkpt lat="36.96216772742777" lon="15.109869712851241"><ele>471.0</ele><time>2026-03-22T09:28:55Z</time></trkpt><trkpt lat="36.96228990485535" lon="15.109891352207576"><ele>471.0</ele><time>2026-03-22T09:28:56Z</time></trkpt><trkpt lat="36.96240514660909" lon="15.109882108935635"><ele>471.0</ele><time>2026-03-22T09:28:57Z</time></trkpt><trkpt lat="36.96251102325021" lon="15.109914072140937"><ele>471.0</ele><time>2026-03-22T09:28:58Z</time></trkpt><trkpt lat="36.962647751724695" lon="15.109923319445688"><ele>471.0</ele><time>2026-03-22T09:28:59Z</time></trkpt><trkpt lat="36.962782461398206" lon="15.109924845432365"><ele>471.0</ele><time>2026-03-22T09:29:00Z</time></trkpt><trkpt lat="36.96289743240277" lon="15.109921945875653"><ele>471.0</ele><time>2026-03-22T09:29:01Z</time></trkpt><trkpt lat="36.963011457263924" lon="15.109937168662343"><ele>471.0</ele><time>2026-03-22T09:29:02Z</time></trkpt><trkpt lat="36.96310752245893" lon="15.109970341442684"><ele>471.0</ele><time>2026-03-22T09:29:03Z</time></trkpt><trkpt lat="36.9631974869065" lon="15.109965592757284"><ele>471.0</ele><time>2026-03-22T09:29:04Z</time></trkpt><trkpt lat="36.96327052538447" lon="15.110004138780884"><ele>471.0</ele><time>2026-03-22T09:29:05Z</time></trkpt><trkpt lat="36.96333934170865" lon="15.109967867414356"><ele>471.0</ele><time>2026-03-22T09:29:07Z</time></trkpt><trkpt lat="36.96334421415455" lon="15.109850575868787"><ele>471.0</ele><time>2026-03-22T09:29:09Z</time></trkpt><trkpt lat="36.96334306483808" lon="15.109766257009662"><ele>471.0</ele><time>2026-03-22T09:29:11Z</time></trkpt><trkpt lat="36.963311724264614" lon="15.109607527259028"><ele>471.0</ele><time>2026-03-22T09:29:13Z</time></trkpt><trkpt lat="36.96331110493072" lon="15.109483832245136"><ele>471.25</ele><time>2026-03-22T09:29:14Z</time></trkpt><trkpt lat="36.963324044405695" lon="15.109346166481897"><ele>471.5</ele><time>2026-03-22T09:29:15Z</time></trkpt><trkpt lat="36.963380440248216" lon="15.109205076108607"><ele>471.75</ele><time>2026-03-22T09:29:16Z</time></trkpt><trkpt lat="36.9634581568361" lon="15.109061573701219"><ele>472.0</ele><time>2026-03-22T09:29:17Z</time></trkpt><trkpt lat="36.963516085365065" lon="15.10889889696371"><ele>474.0</ele><time>2026-03-22T09:29:18Z</time></trkpt><trkpt lat="36.963565680706004" lon="15.108722508260609"><ele>476.0</ele><time>2026-03-22T09:29:19Z</time></trkpt><trkpt lat="36.963610625184096" lon="15.108530444953779"><ele>478.0</ele><time>2026-03-22T09:29:20Z</time></trkpt><trkpt lat="36.96364694782123" lon="15.108358618947126"><ele>477.33333333333337</ele><time>2026-03-22T09:29:21Z</time></trkpt><trkpt lat="36.96368411773587" lon="15.10816505015433"><ele>476.66666666666663</ele><time>2026-03-22T09:29:22Z</time></trkpt><trkpt lat="36.963736794295706" lon="15.107960457175606"><ele>476.0</ele><time>2026-03-22T09:29:23Z</time></trkpt><trkpt lat="36.96378209135367" lon="15.107738578390078"><ele>476.0</ele><time>2026-03-22T09:29:24Z</time></trkpt><trkpt lat="36.96383649681085" lon="15.107509311589178"><ele>476.0</ele><time>2026-03-22T09:29:25Z</time></trkpt><trkpt lat="36.96388354281961" lon="15.10729057664719"><ele>476.0</ele><time>2026-03-22T09:29:26Z</time></trkpt><trkpt lat="36.963971846433246" lon="15.107051919039822"><ele>476.3333333333333</ele><time>2026-03-22T09:29:27Z</time></trkpt><trkpt lat="36.964065404252494" lon="15.106822103957652"><ele>476.66666666666663</ele><time>2026-03-22T09:29:28Z</time></trkpt><trkpt lat="36.96414567857574" lon="15.106577126114317"><ele>477.0</ele><time>2026-03-22T09:29:29Z</time></trkpt><trkpt lat="36.96420058550137" lon="15.106331350772553"><ele>480.33333333333337</ele><time>2026-03-22T09:29:30Z</time></trkpt><trkpt lat="36.96425321436371" lon="15.106089404502637"><ele>483.6666666666667</ele><time>2026-03-22T09:29:31Z</time></trkpt><trkpt lat="36.96430327492355" lon="15.105850982479655"><ele>487.0</ele><time>2026-03-22T09:29:32Z</time></trkpt><trkpt lat="36.96436617276419" lon="15.10562469842263"><ele>488.0</ele><time>2026-03-22T09:29:33Z</time></trkpt><trkpt lat="36.96441433989164" lon="15.105410123082203"><ele>489.0</ele><time>2026-03-22T09:29:34Z</time></trkpt><trkpt lat="36.964448099834584" lon="15.105204874901753"><ele>490.0</ele><time>2026-03-22T09:29:35Z</time></trkpt><trkpt lat="36.964428302045796" lon="15.105000015431326"><ele>490.33333333333337</ele><time>2026-03-22T09:29:36Z</time></trkpt><trkpt lat="36.96442651630969" lon="15.10478398055588"><ele>490.66666666666663</ele><time>2026-03-22T09:29:37Z</time></trkpt><trkpt lat="36.964396730049174" lon="15.104581954549209"><ele>491.0</ele><time>2026-03-22T09:29:38Z</time></trkpt><trkpt lat="36.96438798466043" lon="15.104428652432345"><ele>491.0</ele><time>2026-03-22T09:29:39Z</time></trkpt><trkpt lat="36.96440193163444" lon="15.104301563519023"><ele>491.0</ele><time>2026-03-22T09:29:40Z</time></trkpt><trkpt lat="36.96443971496103" lon="15.10414755159328"><ele>491.0</ele><time>2026-03-22T09:29:41Z</time></trkpt><trkpt lat="36.96449063682973" lon="15.10396814391248"><ele>491.0</ele><time>2026-03-22T09:29:42Z</time></trkpt><trkpt lat="36.96453146721257" lon="15.10377520119566"><ele>491.66666666666663</ele><time>2026-03-22T09:29:43Z</time></trkpt><trkpt lat="36.96453320525994" lon="15.103559920472515"><ele>492.33333333333337</ele><time>2026-03-22T09:29:44Z</time></trkpt><trkpt lat="36.9645587777379" lon="15.103320158624113"><ele>493.0</ele><time>2026-03-22T09:29:45Z</time></trkpt><trkpt lat="36.96456439485481" lon="15.103144042288488"><ele>493.4</ele><time>2026-03-22T09:29:46Z</time></trkpt><trkpt lat="36.96458158876044" lon="15.10298864424161"><ele>493.79999999999995</ele><time>2026-03-22T09:29:47Z</time></trkpt><trkpt lat="36.964608809661435" lon="15.102885723357543"><ele>494.2</ele><time>2026-03-22T09:29:48Z</time></trkpt><trkpt lat="36.9646637871195" lon="15.102778089662051"><ele>494.6</ele><time>2026-03-22T09:29:49Z</time></trkpt><trkpt lat="36.96473867931814" lon="15.102640402433755"><ele>495.0</ele><time>2026-03-22T09:29:50Z</time></trkpt><trkpt lat="36.964823104254904" lon="15.102500956147546"><ele>495.25</ele><time>2026-03-22T09:29:51Z</time></trkpt><trkpt lat="36.964907708132266" lon="15.102359898622245"><ele>495.5</ele><time>2026-03-22T09:29:52Z</time></trkpt><trkpt lat="36.96501660467104" lon="15.1022179844776"><ele>495.75</ele><time>2026-03-22T09:29:53Z</time></trkpt><trkpt lat="36.965114878834086" lon="15.102104577218967"><ele>496.0</ele><time>2026-03-22T09:29:54Z</time></trkpt><trkpt lat="36.96522180229845" lon="15.101967267994493"><ele>498.33333333333337</ele><time>2026-03-22T09:29:55Z</time></trkpt><trkpt lat="36.96531311396296" lon="15.10181548776047"><ele>500.66666666666663</ele><time>2026-03-22T09:29:56Z</time></trkpt><trkpt lat="36.965409755359886" lon="15.101673406546197"><ele>503.0</ele><time>2026-03-22T09:29:57.001Z</time></trkpt><trkpt lat="36.96552303946056" lon="15.101542431279215"><ele>503.0</ele><time>2026-03-22T09:29:58.001Z</time></trkpt><trkpt lat="36.965652340168994" lon="15.10141334302451"><ele>503.0</ele><time>2026-03-22T09:29:59.001Z</time></trkpt><trkpt lat="36.96577760817455" lon="15.101287014354742"><ele>503.0</ele><time>2026-03-22T09:30:00.001Z</time></trkpt><trkpt lat="36.965915972166755" lon="15.10115693806908"><ele>503.3333333333333</ele><time>2026-03-22T09:30:01.001Z</time></trkpt><trkpt lat="36.966007850396124" lon="15.101034971362154"><ele>503.66666666666663</ele><time>2026-03-22T09:30:02.001Z</time></trkpt><trkpt lat="36.96612625364005" lon="15.100909536487086"><ele>504.0</ele><time>2026-03-22T09:30:03.001Z</time></trkpt><trkpt lat="36.96620054833181" lon="15.100728704498907"><ele>503.0</ele><time>2026-03-22T09:30:04.001Z</time></trkpt><trkpt lat="36.966299943533215" lon="15.100537578928737"><ele>502.0</ele><time>2026-03-22T09:30:05.001Z</time></trkpt><trkpt lat="36.96636115358883" lon="15.100317840165589"><ele>501.0</ele><time>2026-03-22T09:30:06.001Z</time></trkpt><trkpt lat="36.96643112672296" lon="15.100110224602577"><ele>501.0</ele><time>2026-03-22T09:30:07Z</time></trkpt><trkpt lat="36.966470297653366" lon="15.099924660823826"><ele>501.0</ele><time>2026-03-22T09:30:08Z</time></trkpt><trkpt lat="36.96650519508406" lon="15.099698021918673"><ele>501.0</ele><time>2026-03-22T09:30:09Z</time></trkpt><trkpt lat="36.96655338573092" lon="15.09946373581382"><ele>499.0</ele><time>2026-03-22T09:30:10Z</time></trkpt><trkpt lat="36.96659247658389" lon="15.099221918713214"><ele>497.0</ele><time>2026-03-22T09:30:11Z</time></trkpt><trkpt lat="36.966630747055284" lon="15.098976314451715"><ele>495.0</ele><time>2026-03-22T09:30:12Z</time></trkpt><trkpt lat="36.966658983513845" lon="15.098737046962265"><ele>486.66666666666663</ele><time>2026-03-22T09:30:13Z</time></trkpt><trkpt lat="36.96669887127717" lon="15.098498423192984"><ele>478.3333333333333</ele><time>2026-03-22T09:30:14Z</time></trkpt><trkpt lat="36.9667378738518" lon="15.098252162831603"><ele>470.0</ele><time>2026-03-22T09:30:15Z</time></trkpt><trkpt lat="36.96676757601774" lon="15.09803323103903"><ele>468.75</ele><time>2026-03-22T09:30:16Z</time></trkpt><trkpt lat="36.9667904548875" lon="15.097818131669248"><ele>467.5</ele><time>2026-03-22T09:30:17Z</time></trkpt><trkpt lat="36.966801708303485" lon="15.097621584935158"><ele>466.25</ele><time>2026-03-22T09:30:18Z</time></trkpt><trkpt lat="36.96680649859745" lon="15.097488262721944"><ele>465.0</ele><time>2026-03-22T09:30:19Z</time></trkpt><trkpt lat="36.96681144035837" lon="15.097347151770878"><ele>462.25</ele><time>2026-03-22T09:30:20Z</time></trkpt><trkpt lat="36.96681482988185" lon="15.097220512944169"><ele>459.5</ele><time>2026-03-22T09:30:21Z</time></trkpt><trkpt lat="36.96681605886504" lon="15.097052696486559"><ele>456.75</ele><time>2026-03-22T09:30:22Z</time></trkpt><trkpt lat="36.96682633075041" lon="15.096867522705415"><ele>454.0</ele><time>2026-03-22T09:30:23Z</time></trkpt><trkpt lat="36.96682606184097" lon="15.096691726523161"><ele>454.6666666666667</ele><time>2026-03-22T09:30:24Z</time></trkpt><trkpt lat="36.96683635946235" lon="15.096484672545843"><ele>455.33333333333337</ele><time>2026-03-22T09:30:25Z</time></trkpt><trkpt lat="36.9668476351044" lon="15.096280372294526"><ele>456.0</ele><time>2026-03-22T09:30:26Z</time></trkpt><trkpt lat="36.96685067951185" lon="15.096100129051697"><ele>456.0</ele><time>2026-03-22T09:30:27Z</time></trkpt><trkpt lat="36.966874549679076" lon="15.095945624463477"><ele>456.0</ele><time>2026-03-22T09:30:28Z</time></trkpt><trkpt lat="36.96692602891995" lon="15.0957951799851"><ele>456.0</ele><time>2026-03-22T09:30:29Z</time></trkpt><trkpt lat="36.96700073432616" lon="15.095644649012211"><ele>456.0</ele><time>2026-03-22T09:30:30Z</time></trkpt><trkpt lat="36.967092726891806" lon="15.095494505243751"><ele>461.4</ele><time>2026-03-22T09:30:31Z</time></trkpt><trkpt lat="36.967193530367894" lon="15.095347279581485"><ele>466.8</ele><time>2026-03-22T09:30:32Z</time></trkpt><trkpt lat="36.96723341274084" lon="15.095200810762705"><ele>472.19999999999993</ele><time>2026-03-22T09:30:33Z</time></trkpt><trkpt lat="36.96727713426297" lon="15.095088021053845"><ele>477.59999999999997</ele><time>2026-03-22T09:30:34Z</time></trkpt><trkpt lat="36.967313367968906" lon="15.09501917596494"><ele>483.0</ele><time>2026-03-22T09:30:35Z</time></trkpt><trkpt lat="36.967333616202225" lon="15.094884204468723"><ele>486.0</ele><time>2026-03-22T09:30:37Z</time></trkpt><trkpt lat="36.967303352703205" lon="15.094759208005987"><ele>489.0</ele><time>2026-03-22T09:30:39Z</time></trkpt><trkpt lat="36.967228647655375" lon="15.09470393269392"><ele>492.0</ele><time>2026-03-22T09:30:42Z</time></trkpt><trkpt lat="36.967158910356595" lon="15.094707589932735"><ele>495.0</ele><time>2026-03-22T09:30:45Z</time></trkpt><trkpt lat="36.96708031426636" lon="15.09473256429944"><ele>498.0</ele><time>2026-03-22T09:31:06Z</time></trkpt><trkpt lat="36.96699144614912" lon="15.094732708252117"><ele>501.0</ele><time>2026-03-22T09:31:07Z</time></trkpt><trkpt lat="36.96689757194862" lon="15.094704794963123"><ele>501.0</ele><time>2026-03-22T09:31:08Z</time></trkpt><trkpt lat="36.96678840014301" lon="15.094631908160464"><ele>501.0</ele><time>2026-03-22T09:31:09Z</time></trkpt><trkpt lat="36.96664173897321" lon="15.094607085766791"><ele>501.0</ele><time>2026-03-22T09:31:10Z</time></trkpt><trkpt lat="36.96649575377511" lon="15.0945649981327"><ele>501.0</ele><time>2026-03-22T09:31:11Z</time></trkpt><trkpt lat="36.9663506725684" lon="15.09452588495346"><ele>501.66666666666663</ele><time>2026-03-22T09:31:12Z</time></trkpt><trkpt lat="36.966203362068384" lon="15.094457761254903"><ele>502.3333333333333</ele><time>2026-03-22T09:31:13Z</time></trkpt><trkpt lat="36.966039220567374" lon="15.094391328491147"><ele>503.0</ele><time>2026-03-22T09:31:14Z</time></trkpt><trkpt lat="36.965876956580104" lon="15.094347845578971"><ele>500.66666666666663</ele><time>2026-03-22T09:31:15Z</time></trkpt><trkpt lat="36.965720393092724" lon="15.094308580578549"><ele>498.33333333333337</ele><time>2026-03-22T09:31:16Z</time></trkpt><trkpt lat="36.9655452764344" lon="15.094262013158232"><ele>496.0</ele><time>2026-03-22T09:31:17Z</time></trkpt><trkpt lat="36.965340876866506" lon="15.094217696550052"><ele>496.0</ele><time>2026-03-22T09:31:18Z</time></trkpt><trkpt lat="36.96512486040724" lon="15.094139004310607"><ele>496.0</ele><time>2026-03-22T09:31:19Z</time></trkpt><trkpt lat="36.964923155914406" lon="15.094047238904436"><ele>496.0</ele><time>2026-03-22T09:31:20Z</time></trkpt><trkpt lat="36.96473689362528" lon="15.093984881816485"><ele>495.5</ele><time>2026-03-22T09:31:21Z</time></trkpt><trkpt lat="36.96457159985761" lon="15.093958848918477"><ele>495.0</ele><time>2026-03-22T09:31:22Z</time></trkpt><trkpt lat="36.96442756079267" lon="15.093993322997642"><ele>494.5</ele><time>2026-03-22T09:31:23Z</time></trkpt><trkpt lat="36.96430592193205" lon="15.094051807983226"><ele>494.0</ele><time>2026-03-22T09:31:24Z</time></trkpt><trkpt lat="36.964193242453256" lon="15.094070238321976"><ele>494.0</ele><time>2026-03-22T09:31:25Z</time></trkpt><trkpt lat="36.96408371069251" lon="15.094064191309178"><ele>494.0</ele><time>2026-03-22T09:31:26Z</time></trkpt><trkpt lat="36.964020656948634" lon="15.093926822529486"><ele>494.0</ele><time>2026-03-22T09:31:27Z</time></trkpt><trkpt lat="36.96395494627727" lon="15.093815855517034"><ele>494.0</ele><time>2026-03-22T09:31:28Z</time></trkpt><trkpt lat="36.963900911613685" lon="15.09369677877158"><ele>494.0</ele><time>2026-03-22T09:31:29Z</time></trkpt><trkpt lat="36.96380950519252" lon="15.093546330994599"><ele>494.0</ele><time>2026-03-22T09:31:30Z</time></trkpt><trkpt lat="36.96379829245399" lon="15.093429343858386"><ele>494.0</ele><time>2026-03-22T09:31:31Z</time></trkpt><trkpt lat="36.96375155580386" lon="15.093372155234327"><ele>494.0</ele><time>2026-03-22T09:31:33Z</time></trkpt><trkpt lat="36.96386666039708" lon="15.093223002270612"><ele>494.5</ele><time>2026-03-22T09:31:34Z</time></trkpt><trkpt lat="36.963934946148974" lon="15.093120196287117"><ele>495.0</ele><time>2026-03-22T09:31:35Z</time></trkpt><trkpt lat="36.96399871743113" lon="15.092994183036145"><ele>495.5</ele><time>2026-03-22T09:31:36Z</time></trkpt><trkpt lat="36.96406408684492" lon="15.092841915285614"><ele>496.0</ele><time>2026-03-22T09:31:37Z</time></trkpt><trkpt lat="36.96413050239172" lon="15.09267629054358"><ele>496.33333333333337</ele><time>2026-03-22T09:31:38Z</time></trkpt><trkpt lat="36.96421210488645" lon="15.092502983688034"><ele>496.66666666666663</ele><time>2026-03-22T09:31:39Z</time></trkpt><trkpt lat="36.964290395245435" lon="15.092317761745914"><ele>497.0</ele><time>2026-03-22T09:31:40Z</time></trkpt><trkpt lat="36.96433647813393" lon="15.092106626649525"><ele>497.0</ele><time>2026-03-22T09:31:41Z</time></trkpt><trkpt lat="36.96436448281806" lon="15.091910914287308"><ele>497.0</ele><time>2026-03-22T09:31:42Z</time></trkpt><trkpt lat="36.964375164149516" lon="15.091710032873586"><ele>497.0</ele><time>2026-03-22T09:31:43Z</time></trkpt><trkpt lat="36.964411132006745" lon="15.0915250537071"><ele>498.3333333333333</ele><time>2026-03-22T09:31:44Z</time></trkpt><trkpt lat="36.964472766790344" lon="15.091352120596373"><ele>499.66666666666663</ele><time>2026-03-22T09:31:45Z</time></trkpt><trkpt lat="36.96455718453194" lon="15.091195996636667"><ele>501.0</ele><time>2026-03-22T09:31:46Z</time></trkpt><trkpt lat="36.96463512741345" lon="15.091036287140954"><ele>501.0</ele><time>2026-03-22T09:31:47Z</time></trkpt><trkpt lat="36.96472594398377" lon="15.090869030070854"><ele>501.0</ele><time>2026-03-22T09:31:48Z</time></trkpt><trkpt lat="36.96482691510943" lon="15.090689994647374"><ele>501.0</ele><time>2026-03-22T09:31:49Z</time></trkpt><trkpt lat="36.96492169968185" lon="15.090495327467876"><ele>500.66666666666663</ele><time>2026-03-22T09:31:50Z</time></trkpt><trkpt lat="36.96501440219442" lon="15.090306569512336"><ele>500.3333333333333</ele><time>2026-03-22T09:31:51Z</time></trkpt><trkpt lat="36.96507795434062" lon="15.09011947115214"><ele>500.0</ele><time>2026-03-22T09:31:52Z</time></trkpt><trkpt lat="36.96511158319665" lon="15.089892870390294"><ele>500.0</ele><time>2026-03-22T09:31:53.001Z</time></trkpt><trkpt lat="36.965108455436635" lon="15.089660598901936"><ele>500.0</ele><time>2026-03-22T09:31:54.001Z</time></trkpt><trkpt lat="36.96508672693971" lon="15.089393268161821"><ele>500.0</ele><time>2026-03-22T09:31:55.001Z</time></trkpt><trkpt lat="36.965074016995025" lon="15.089133777779448"><ele>500.0</ele><time>2026-03-22T09:31:56.001Z</time></trkpt><trkpt lat="36.965084234453705" lon="15.088867310375216"><ele>500.0</ele><time>2026-03-22T09:31:57.001Z</time></trkpt><trkpt lat="36.965098728981054" lon="15.08860972487266"><ele>500.0</ele><time>2026-03-22T09:31:58.001Z</time></trkpt><trkpt lat="36.965103765284454" lon="15.088364143815657"><ele>501.3333333333333</ele><time>2026-03-22T09:31:59.001Z</time></trkpt><trkpt lat="36.96509337876739" lon="15.08812011282392"><ele>502.66666666666663</ele><time>2026-03-22T09:32:00.001Z</time></trkpt><trkpt lat="36.965096778293336" lon="15.087912727901449"><ele>504.0</ele><time>2026-03-22T09:32:01.001Z</time></trkpt><trkpt lat="36.96513271813227" lon="15.0877479179396"><ele>504.0</ele><time>2026-03-22T09:32:02.001Z</time></trkpt><trkpt lat="36.96519763892225" lon="15.087629289735082"><ele>504.0</ele><time>2026-03-22T09:32:03.001Z</time></trkpt><trkpt lat="36.96529068866043" lon="15.087552605642264"><ele>504.0</ele><time>2026-03-22T09:32:04.001Z</time></trkpt><trkpt lat="36.9654139007665" lon="15.087461053405185"><ele>504.0</ele><time>2026-03-22T09:32:05.001Z</time></trkpt><trkpt lat="36.965535391365044" lon="15.087364166634122"><ele>503.25</ele><time>2026-03-22T09:32:06.001Z</time></trkpt><trkpt lat="36.96562354557211" lon="15.087249494715564"><ele>502.5</ele><time>2026-03-22T09:32:07.001Z</time></trkpt><trkpt lat="36.965651879125076" lon="15.087098765261487"><ele>501.75</ele><time>2026-03-22T09:32:08.001Z</time></trkpt><trkpt lat="36.9656426991472" lon="15.086931860617744"><ele>501.0</ele><time>2026-03-22T09:32:09.001Z</time></trkpt><trkpt lat="36.965630413421735" lon="15.08676231715424"><ele>499.0</ele><time>2026-03-22T09:32:10.001Z</time></trkpt><trkpt lat="36.96563843071426" lon="15.086577546750958"><ele>497.0</ele><time>2026-03-22T09:32:11.001Z</time></trkpt><trkpt lat="36.9656508625228" lon="15.086381121201647"><ele>495.0</ele><time>2026-03-22T09:32:12.001Z</time></trkpt><trkpt lat="36.965656929728105" lon="15.086170611024192"><ele>495.0</ele><time>2026-03-22T09:32:13Z</time></trkpt><trkpt lat="36.9656649673381" lon="15.085969641981203"><ele>495.0</ele><time>2026-03-22T09:32:14Z</time></trkpt><trkpt lat="36.96567151062488" lon="15.085770355140186"><ele>495.0</ele><time>2026-03-22T09:32:15Z</time></trkpt><trkpt lat="36.965688767715214" lon="15.085593818259062"><ele>495.5</ele><time>2026-03-22T09:32:16Z</time></trkpt><trkpt lat="36.96570924515324" lon="15.08544233806259"><ele>496.0</ele><time>2026-03-22T09:32:17Z</time></trkpt><trkpt lat="36.96573646842607" lon="15.085320574121377"><ele>496.5</ele><time>2026-03-22T09:32:18Z</time></trkpt><trkpt lat="36.96579056972447" lon="15.08524448679819"><ele>497.0</ele><time>2026-03-22T09:32:19Z</time></trkpt><trkpt lat="36.96565202800704" lon="15.085150394434061"><ele>497.0</ele><time>2026-03-22T09:32:20Z</time></trkpt><trkpt lat="36.96564582607206" lon="15.084993694512196"><ele>497.0</ele><time>2026-03-22T09:32:24Z</time></trkpt><trkpt lat="36.9656327175929" lon="15.084877993414592"><ele>497.0</ele><time>2026-03-22T09:32:25Z</time></trkpt><trkpt lat="36.965619647327074" lon="15.084747070914705"><ele>497.0</ele><time>2026-03-22T09:32:26Z</time></trkpt><trkpt lat="36.96560378645017" lon="15.084560073882475"><ele>497.0</ele><time>2026-03-22T09:32:27Z</time></trkpt><trkpt lat="36.9656121187762" lon="15.084383742266693"><ele>497.0</ele><time>2026-03-22T09:32:28Z</time></trkpt><trkpt lat="36.965655399115455" lon="15.084199025606656"><ele>497.0</ele><time>2026-03-22T09:32:29Z</time></trkpt><trkpt lat="36.96570480359211" lon="15.0839972579356"><ele>497.0</ele><time>2026-03-22T09:32:30Z</time></trkpt><trkpt lat="36.96573169977255" lon="15.083778735736132"><ele>497.0</ele><time>2026-03-22T09:32:31Z</time></trkpt><trkpt lat="36.96574453764639" lon="15.08357633468445"><ele>497.0</ele><time>2026-03-22T09:32:32Z</time></trkpt><trkpt lat="36.96573709111675" lon="15.083357089362334"><ele>494.0</ele><time>2026-03-22T09:32:33Z</time></trkpt><trkpt lat="36.96571912686648" lon="15.083145718587966"><ele>491.0</ele><time>2026-03-22T09:32:34Z</time></trkpt><trkpt lat="36.96566409674427" lon="15.082931785893873"><ele>488.0</ele><time>2026-03-22T09:32:35Z</time></trkpt><trkpt lat="36.96558858071721" lon="15.082699216577973"><ele>488.0</ele><time>2026-03-22T09:32:36Z</time></trkpt><trkpt lat="36.96548326473237" lon="15.082452205255281"><ele>488.0</ele><time>2026-03-22T09:32:37Z</time></trkpt><trkpt lat="36.9653869967726" lon="15.082178155340037"><ele>483.0</ele><time>2026-03-22T09:32:38Z</time></trkpt><trkpt lat="36.96531809210756" lon="15.081891905186488"><ele>478.0</ele><time>2026-03-22T09:32:39Z</time></trkpt><trkpt lat="36.96528347805672" lon="15.081610145090492"><ele>474.0</ele><time>2026-03-22T09:32:40Z</time></trkpt><trkpt lat="36.96524751868048" lon="15.081321114349603"><ele>470.0</ele><time>2026-03-22T09:32:41Z</time></trkpt><trkpt lat="36.965233195021376" lon="15.081044167008407"><ele>470.0</ele><time>2026-03-22T09:32:42Z</time></trkpt><trkpt lat="36.96522165974516" lon="15.080787161777268"><ele>470.0</ele><time>2026-03-22T09:32:43Z</time></trkpt><trkpt lat="36.965220696788904" lon="15.080541805715622"><ele>470.0</ele><time>2026-03-22T09:32:44Z</time></trkpt><trkpt lat="36.96519874077179" lon="15.080299492779357"><ele>470.0</ele><time>2026-03-22T09:32:45Z</time></trkpt><trkpt lat="36.96514791512668" lon="15.08008416687177"><ele>470.0</ele><time>2026-03-22T09:32:46Z</time></trkpt><trkpt lat="36.96510029167494" lon="15.079862186350047"><ele>470.0</ele><time>2026-03-22T09:32:47Z</time></trkpt><trkpt lat="36.965056351478424" lon="15.079638742893136"><ele>468.3333333333333</ele><time>2026-03-22T09:32:48Z</time></trkpt><trkpt lat="36.96500327922793" lon="15.079425520641701"><ele>466.66666666666663</ele><time>2026-03-22T09:32:49Z</time></trkpt><trkpt lat="36.964934157852625" lon="15.079218733406229"><ele>465.0</ele><time>2026-03-22T09:32:50Z</time></trkpt><trkpt lat="36.96487437749223" lon="15.079013591936718"><ele>465.0</ele><time>2026-03-22T09:32:51Z</time></trkpt><trkpt lat="36.96481245512668" lon="15.078810847687949"><ele>465.0</ele><time>2026-03-22T09:32:52Z</time></trkpt><trkpt lat="36.96476195422659" lon="15.078621045768385"><ele>465.0</ele><time>2026-03-22T09:32:53Z</time></trkpt><trkpt lat="36.964715292652485" lon="15.07844304346354"><ele>464.5</ele><time>2026-03-22T09:32:54Z</time></trkpt><trkpt lat="36.964657423539315" lon="15.078264903995208"><ele>464.0</ele><time>2026-03-22T09:32:55Z</time></trkpt><trkpt lat="36.96457520840263" lon="15.078101574093965"><ele>463.5</ele><time>2026-03-22T09:32:56Z</time></trkpt><trkpt lat="36.964485868871996" lon="15.077971637932334"><ele>463.0</ele><time>2026-03-22T09:32:57Z</time></trkpt><trkpt lat="36.96439707545824" lon="15.077854752018203"><ele>463.0</ele><time>2026-03-22T09:32:58Z</time></trkpt><trkpt lat="36.96432518465674" lon="15.077731580473813"><ele>462.99999999999994</ele><time>2026-03-22T09:32:59Z</time></trkpt><trkpt lat="36.964243201766664" lon="15.077635149774295"><ele>462.99999999999994</ele><time>2026-03-22T09:33:00Z</time></trkpt><trkpt lat="36.96418357832657" lon="15.077534976117922"><ele>463.0</ele><time>2026-03-22T09:33:01Z</time></trkpt><trkpt lat="36.964146273024134" lon="15.077454746598574"><ele>463.0</ele><time>2026-03-22T09:33:02Z</time></trkpt><trkpt lat="36.964048015558454" lon="15.077350659374078"><ele>461.0</ele><time>2026-03-22T09:33:04Z</time></trkpt><trkpt lat="36.963941547885085" lon="15.077219545764638"><ele>459.0</ele><time>2026-03-22T09:33:06Z</time></trkpt><trkpt lat="36.963888833101095" lon="15.07716032845251"><ele>457.0</ele><time>2026-03-22T09:33:07Z</time></trkpt><trkpt lat="36.96409395457082" lon="15.076668692622205"><ele>456.0</ele><time>2026-03-22T09:33:08Z</time></trkpt><trkpt lat="36.964092750581585" lon="15.076556120214253"><ele>455.00000000000006</ele><time>2026-03-22T09:33:09Z</time></trkpt><trkpt lat="36.96408990407804" lon="15.07647245541222"><ele>454.00000000000006</ele><time>2026-03-22T09:33:10Z</time></trkpt><trkpt lat="36.964064976181064" lon="15.076387893455733"><ele>453.0</ele><time>2026-03-22T09:33:11Z</time></trkpt><trkpt lat="36.9640210847497" lon="15.076268176442767"><ele>452.0</ele><time>2026-03-22T09:33:12Z</time></trkpt><trkpt lat="36.963984436141" lon="15.076113684696104"><ele>452.0</ele><time>2026-03-22T09:33:13Z</time></trkpt><trkpt lat="36.96391260650576" lon="15.075934794554902"><ele>452.0</ele><time>2026-03-22T09:33:14Z</time></trkpt><trkpt lat="36.96384637788231" lon="15.075726084515699"><ele>452.0</ele><time>2026-03-22T09:33:15Z</time></trkpt><trkpt lat="36.96379823153132" lon="15.075542244771277"><ele>452.40000000000003</ele><time>2026-03-22T09:33:16Z</time></trkpt><trkpt lat="36.96374876060143" lon="15.075373005724124"><ele>452.80000000000007</ele><time>2026-03-22T09:33:17Z</time></trkpt><trkpt lat="36.96370496318433" lon="15.07530893617755"><ele>453.2</ele><time>2026-03-22T09:33:18Z</time></trkpt><trkpt lat="36.963662285183496" lon="15.075232638903751"><ele>453.6</ele><time>2026-03-22T09:33:19Z</time></trkpt><trkpt lat="36.96363125727175" lon="15.075146028051451"><ele>454.0</ele><time>2026-03-22T09:33:20Z</time></trkpt><trkpt lat="36.96360578471879" lon="15.075036432654993"><ele>454.79999999999995</ele><time>2026-03-22T09:33:21Z</time></trkpt><trkpt lat="36.96359459891312" lon="15.074930469675525"><ele>455.59999999999997</ele><time>2026-03-22T09:33:22Z</time></trkpt><trkpt lat="36.96359671661998" lon="15.074817041667135"><ele>456.4</ele><time>2026-03-22T09:33:23Z</time></trkpt><trkpt lat="36.96362527094333" lon="15.07466328485478"><ele>457.2</ele><time>2026-03-22T09:33:24Z</time></trkpt><trkpt lat="36.96365674091224" lon="15.074514446762727"><ele>458.0</ele><time>2026-03-22T09:33:25Z</time></trkpt><trkpt lat="36.963688222106235" lon="15.07438572981726"><ele>458.0</ele><time>2026-03-22T09:33:26Z</time></trkpt><trkpt lat="36.963735722828574" lon="15.07427409352973"><ele>457.99999999999994</ele><time>2026-03-22T09:33:27Z</time></trkpt><trkpt lat="36.96377521454561" lon="15.074180486209272"><ele>457.99999999999994</ele><time>2026-03-22T09:33:28Z</time></trkpt><trkpt lat="36.963821118168816" lon="15.074083630845443"><ele>458.0</ele><time>2026-03-22T09:33:29Z</time></trkpt><trkpt lat="36.963883253396425" lon="15.073981596866064"><ele>458.0</ele><time>2026-03-22T09:33:30Z</time></trkpt><trkpt lat="36.963915794631795" lon="15.073894716756147"><ele>458.0</ele><time>2026-03-22T09:33:31Z</time></trkpt><trkpt lat="36.96396906483738" lon="15.073772024640471"><ele>457.99999999999994</ele><time>2026-03-22T09:33:32Z</time></trkpt><trkpt lat="36.963983695051645" lon="15.073659042980337"><ele>457.99999999999994</ele><time>2026-03-22T09:33:33Z</time></trkpt><trkpt lat="36.96401617736809" lon="15.073526128646463"><ele>458.0</ele><time>2026-03-22T09:33:34Z</time></trkpt><trkpt lat="36.96406149340753" lon="15.073382479117447"><ele>458.0</ele><time>2026-03-22T09:33:35Z</time></trkpt><trkpt lat="36.964076231499256" lon="15.073236739333609"><ele>458.0</ele><time>2026-03-22T09:33:36Z</time></trkpt><trkpt lat="36.96411364644269" lon="15.073097529673765"><ele>457.99999999999994</ele><time>2026-03-22T09:33:37Z</time></trkpt><trkpt lat="36.96411556461308" lon="15.072991050146799"><ele>457.99999999999994</ele><time>2026-03-22T09:33:38Z</time></trkpt><trkpt lat="36.96413153417449" lon="15.072873407328247"><ele>458.0</ele><time>2026-03-22T09:33:39Z</time></trkpt><trkpt lat="36.964136171564725" lon="15.072713041691529"><ele>458.0</ele><time>2026-03-22T09:33:40Z</time></trkpt><trkpt lat="36.964150034398564" lon="15.072554192661007"><ele>458.0</ele><time>2026-03-22T09:33:41Z</time></trkpt><trkpt lat="36.96415491843967" lon="15.07240073365962"><ele>457.99999999999994</ele><time>2026-03-22T09:33:42Z</time></trkpt><trkpt lat="36.96415076417784" lon="15.072269224496193"><ele>457.99999999999994</ele><time>2026-03-22T09:33:43Z</time></trkpt><trkpt lat="36.9641533095847" lon="15.072178160720027"><ele>458.0</ele><time>2026-03-22T09:33:44Z</time></trkpt><trkpt lat="36.96414575619169" lon="15.072079822883524"><ele>458.0</ele><time>2026-03-22T09:33:45Z</time></trkpt><trkpt lat="36.96408807756254" lon="15.071979637888155"><ele>458.0</ele><time>2026-03-22T09:33:46Z</time></trkpt><trkpt lat="36.96404758947775" lon="15.07185829906271"><ele>457.99999999999994</ele><time>2026-03-22T09:33:47Z</time></trkpt><trkpt lat="36.96404531498298" lon="15.071754665235888"><ele>457.99999999999994</ele><time>2026-03-22T09:33:48Z</time></trkpt><trkpt lat="36.96403734504637" lon="15.071653750673654"><ele>458.0</ele><time>2026-03-22T09:33:49Z</time></trkpt><trkpt lat="36.96404316970948" lon="15.071535768035757"><ele>458.0</ele><time>2026-03-22T09:33:50Z</time></trkpt><trkpt lat="36.964055065944656" lon="15.071402982590238"><ele>458.25</ele><time>2026-03-22T09:33:51Z</time></trkpt><trkpt lat="36.964070833927494" lon="15.071240777640801"><ele>458.5</ele><time>2026-03-22T09:33:52Z</time></trkpt><trkpt lat="36.96407307650512" lon="15.07106332301332"><ele>458.75</ele><time>2026-03-22T09:33:53Z</time></trkpt><trkpt lat="36.96408284409774" lon="15.070903170205803"><ele>459.0</ele><time>2026-03-22T09:33:54Z</time></trkpt><trkpt lat="36.964081610512736" lon="15.070785383496082"><ele>458.5</ele><time>2026-03-22T09:33:55Z</time></trkpt><trkpt lat="36.96407848837638" lon="15.070680787265317"><ele>458.0</ele><time>2026-03-22T09:33:56Z</time></trkpt><trkpt lat="36.96407806678701" lon="15.070567934078317"><ele>457.5</ele><time>2026-03-22T09:33:57Z</time></trkpt><trkpt lat="36.96407039312576" lon="15.070474365124966"><ele>457.0</ele><time>2026-03-22T09:33:58Z</time></trkpt><trkpt lat="36.96408274609862" lon="15.070396788866043"><ele>456.5</ele><time>2026-03-22T09:33:59Z</time></trkpt><trkpt lat="36.964049499765686" lon="15.070262303089056"><ele>456.0</ele><time>2026-03-22T09:34:01Z</time></trkpt><trkpt lat="36.96401156799426" lon="15.070153520577124"><ele>456.0</ele><time>2026-03-22T09:34:02Z</time></trkpt><trkpt lat="36.96398692932899" lon="15.070067712768012"><ele>456.0</ele><time>2026-03-22T09:34:03Z</time></trkpt><trkpt lat="36.96396366620018" lon="15.069977001474411"><ele>456.0</ele><time>2026-03-22T09:34:04Z</time></trkpt><trkpt lat="36.963919100667084" lon="15.069871477053546"><ele>456.0</ele><time>2026-03-22T09:34:06Z</time></trkpt><trkpt lat="36.96390169374637" lon="15.06979540002586"><ele>456.0</ele><time>2026-03-22T09:34:07Z</time></trkpt><trkpt lat="36.963897427578104" lon="15.069705000949595"><ele>456.0</ele><time>2026-03-22T09:34:08Z</time></trkpt><trkpt lat="36.963901870390686" lon="15.069594549269915"><ele>456.4</ele><time>2026-03-22T09:34:09Z</time></trkpt><trkpt lat="36.963875762113084" lon="15.069498440041633"><ele>456.8</ele><time>2026-03-22T09:34:10Z</time></trkpt><trkpt lat="36.963829161652676" lon="15.069372265467946"><ele>457.19999999999993</ele><time>2026-03-22T09:34:11Z</time></trkpt><trkpt lat="36.963764121209316" lon="15.069228747831872"><ele>457.59999999999997</ele><time>2026-03-22T09:34:12Z</time></trkpt><trkpt lat="36.96370902923648" lon="15.069110402345046"><ele>458.0</ele><time>2026-03-22T09:34:13Z</time></trkpt><trkpt lat="36.9636484012761" lon="15.069024531863526"><ele>458.4</ele><time>2026-03-22T09:34:14Z</time></trkpt><trkpt lat="36.96358942283101" lon="15.068958389390163"><ele>458.79999999999995</ele><time>2026-03-22T09:34:15Z</time></trkpt><trkpt lat="36.96352035115611" lon="15.06889402289029"><ele>459.2</ele><time>2026-03-22T09:34:16.001Z</time></trkpt><trkpt lat="36.96345110455811" lon="15.068815174597821"><ele>459.6</ele><time>2026-03-22T09:34:17.001Z</time></trkpt><trkpt lat="36.963315872077565" lon="15.068709906908051"><ele>460.0</ele><time>2026-03-22T09:34:18.001Z</time></trkpt><trkpt lat="36.963248420872695" lon="15.068636838538838"><ele>460.00000000000006</ele><time>2026-03-22T09:34:19Z</time></trkpt><trkpt lat="36.96321075340558" lon="15.06856594665238"><ele>460.0</ele><time>2026-03-22T09:34:20Z</time></trkpt><trkpt lat="36.96315638218978" lon="15.06847904968737"><ele>460.0</ele><time>2026-03-22T09:34:22Z</time></trkpt><trkpt lat="36.96306322637064" lon="15.068427237613708"><ele>460.0</ele><time>2026-03-22T09:34:24Z</time></trkpt><trkpt lat="36.96300791715227" lon="15.06833063542652"><ele>460.00000000000006</ele><time>2026-03-22T09:34:25Z</time></trkpt><trkpt lat="36.96295092226275" lon="15.068287437015185"><ele>460.0</ele><time>2026-03-22T09:34:26Z</time></trkpt><trkpt lat="36.96289296560015" lon="15.06815192502814"><ele>460.50000000000006</ele><time>2026-03-22T09:34:27Z</time></trkpt><trkpt lat="36.9628419622502" lon="15.068066850221681"><ele>461.0</ele><time>2026-03-22T09:34:28Z</time></trkpt><trkpt lat="36.96280150533352" lon="15.067992645382889"><ele>461.5</ele><time>2026-03-22T09:34:29Z</time></trkpt><trkpt lat="36.9627738045871" lon="15.067918357626342"><ele>462.0</ele><time>2026-03-22T09:34:30Z</time></trkpt><trkpt lat="36.96273903446313" lon="15.067834078384571"><ele>462.50000000000006</ele><time>2026-03-22T09:34:31Z</time></trkpt><trkpt lat="36.962688073425575" lon="15.067727586842432"><ele>463.0</ele><time>2026-03-22T09:34:33Z</time></trkpt><trkpt lat="36.96270632121238" lon="15.067640415209953"><ele>463.0</ele><time>2026-03-22T09:35:23Z</time></trkpt><trkpt lat="36.962749581570506" lon="15.067568880620238"><ele>462.99999999999994</ele><time>2026-03-22T09:35:24Z</time></trkpt><trkpt lat="36.96281238880423" lon="15.067430536067821"><ele>462.99999999999994</ele><time>2026-03-22T09:35:26Z</time></trkpt><trkpt lat="36.96284236219319" lon="15.067342068501883"><ele>463.0</ele><time>2026-03-22T09:35:27Z</time></trkpt><trkpt lat="36.96287125560266" lon="15.067243507423763"><ele>463.0</ele><time>2026-03-22T09:35:28Z</time></trkpt><trkpt lat="36.96291274578809" lon="15.067131898502826"><ele>462.6666666666667</ele><time>2026-03-22T09:35:29Z</time></trkpt><trkpt lat="36.96294874556514" lon="15.067029791771725"><ele>462.33333333333337</ele><time>2026-03-22T09:35:30Z</time></trkpt><trkpt lat="36.962974562948006" lon="15.066936665049516"><ele>462.0</ele><time>2026-03-22T09:35:31Z</time></trkpt><trkpt lat="36.9629954317537" lon="15.066840109358912"><ele>461.66666666666663</ele><time>2026-03-22T09:35:32Z</time></trkpt><trkpt lat="36.96300314603436" lon="15.066751884184187"><ele>461.3333333333333</ele><time>2026-03-22T09:35:33Z</time></trkpt><trkpt lat="36.96301544814573" lon="15.066651604882335"><ele>461.0</ele><time>2026-03-22T09:35:34Z</time></trkpt><trkpt lat="36.96304229166107" lon="15.066564888905136"><ele>460.3333333333333</ele><time>2026-03-22T09:35:35Z</time></trkpt><trkpt lat="36.96306093299455" lon="15.066460904670187"><ele>459.66666666666663</ele><time>2026-03-22T09:35:36Z</time></trkpt><trkpt lat="36.96307851554251" lon="15.066367308426587"><ele>459.0</ele><time>2026-03-22T09:35:37Z</time></trkpt><trkpt lat="36.96310336833388" lon="15.066259354610285"><ele>458.33333333333337</ele><time>2026-03-22T09:35:38Z</time></trkpt><trkpt lat="36.9631203384314" lon="15.066155541156775"><ele>457.6666666666667</ele><time>2026-03-22T09:35:39Z</time></trkpt><trkpt lat="36.96313840582838" lon="15.066041868671194"><ele>457.0</ele><time>2026-03-22T09:35:40Z</time></trkpt><trkpt lat="36.963159480864164" lon="15.065910618274346"><ele>457.00000000000006</ele><time>2026-03-22T09:35:41Z</time></trkpt><trkpt lat="36.96318618629965" lon="15.065806441920213"><ele>457.0</ele><time>2026-03-22T09:35:42Z</time></trkpt><trkpt lat="36.96321595594485" lon="15.0657020286143"><ele>457.0</ele><time>2026-03-22T09:35:43Z</time></trkpt><trkpt lat="36.96325090817689" lon="15.065602383365562"><ele>457.0</ele><time>2026-03-22T09:35:44Z</time></trkpt><trkpt lat="36.96327929592077" lon="15.06549825128939"><ele>457.00000000000006</ele><time>2026-03-22T09:35:45Z</time></trkpt><trkpt lat="36.963301916391316" lon="15.065388197662122"><ele>457.0</ele><time>2026-03-22T09:35:46Z</time></trkpt><trkpt lat="36.96331240873513" lon="15.06527519791493"><ele>456.1666666666667</ele><time>2026-03-22T09:35:47Z</time></trkpt><trkpt lat="36.96331166433675" lon="15.065158804590716"><ele>455.33333333333337</ele><time>2026-03-22T09:35:48Z</time></trkpt><trkpt lat="36.96331162733206" lon="15.065045313844813"><ele>454.5</ele><time>2026-03-22T09:35:49Z</time></trkpt><trkpt lat="36.96330460681521" lon="15.064938982930585"><ele>453.66666666666663</ele><time>2026-03-22T09:35:50Z</time></trkpt><trkpt lat="36.963323555111835" lon="15.064855396062065"><ele>452.8333333333333</ele><time>2026-03-22T09:35:51Z</time></trkpt><trkpt lat="36.963327868900976" lon="15.064753380571288"><ele>452.0</ele><time>2026-03-22T09:35:53Z</time></trkpt><trkpt lat="36.96334959467731" lon="15.064651247515986"><ele>452.75</ele><time>2026-03-22T09:35:55Z</time></trkpt><trkpt lat="36.96339602981891" lon="15.064496590362467"><ele>453.5</ele><time>2026-03-22T09:35:57.001Z</time></trkpt><trkpt lat="36.96343121924639" lon="15.064382688008115"><ele>454.25</ele><time>2026-03-22T09:35:58.001Z</time></trkpt><trkpt lat="36.963470436300966" lon="15.064237602131632"><ele>455.0</ele><time>2026-03-22T09:35:59.001Z</time></trkpt><trkpt lat="36.96349651462235" lon="15.064086595356098"><ele>455.0</ele><time>2026-03-22T09:36:00.001Z</time></trkpt><trkpt lat="36.96354733124483" lon="15.063966654075104"><ele>455.0</ele><time>2026-03-22T09:36:01.001Z</time></trkpt><trkpt lat="36.96361205866596" lon="15.06383233076229"><ele>455.0</ele><time>2026-03-22T09:36:02.001Z</time></trkpt><trkpt lat="36.96370363448294" lon="15.06369788144264"><ele>455.0</ele><time>2026-03-22T09:36:03.001Z</time></trkpt><trkpt lat="36.963787260484715" lon="15.063566030659098"><ele>455.0</ele><time>2026-03-22T09:36:04.001Z</time></trkpt><trkpt lat="36.963874652338035" lon="15.063436478465901"><ele>455.0</ele><time>2026-03-22T09:36:05.001Z</time></trkpt><trkpt lat="36.96394798781821" lon="15.063278000148914"><ele>455.0</ele><time>2026-03-22T09:36:06.001Z</time></trkpt><trkpt lat="36.9640277554038" lon="15.06314418251114"><ele>455.0</ele><time>2026-03-22T09:36:07.001Z</time></trkpt><trkpt lat="36.964086368125116" lon="15.063015827115542"><ele>456.2</ele><time>2026-03-22T09:36:08.001Z</time></trkpt><trkpt lat="36.96415309984836" lon="15.06289733861631"><ele>457.4</ele><time>2026-03-22T09:36:09.001Z</time></trkpt><trkpt lat="36.964224812592484" lon="15.062825011256955"><ele>458.6</ele><time>2026-03-22T09:36:10.001Z</time></trkpt><trkpt lat="36.964313025063554" lon="15.06277368617306"><ele>459.8</ele><time>2026-03-22T09:36:11.001Z</time></trkpt><trkpt lat="36.964378397634" lon="15.062715522051619"><ele>461.0</ele><time>2026-03-22T09:36:12.001Z</time></trkpt><trkpt lat="36.96442577898352" lon="15.062576762819882"><ele>461.4</ele><time>2026-03-22T09:36:14.001Z</time></trkpt><trkpt lat="36.96446657967395" lon="15.062485531008962"><ele>461.8</ele><time>2026-03-22T09:36:15.001Z</time></trkpt><trkpt lat="36.96448196536764" lon="15.062375733985812"><ele>462.19999999999993</ele><time>2026-03-22T09:36:16.001Z</time></trkpt><trkpt lat="36.964508430551994" lon="15.062262036287182"><ele>462.59999999999997</ele><time>2026-03-22T09:36:17.001Z</time></trkpt><trkpt lat="36.964553294061524" lon="15.062131580086788"><ele>463.0</ele><time>2026-03-22T09:36:18.001Z</time></trkpt><trkpt lat="36.96459987793179" lon="15.062003778092409"><ele>464.0</ele><time>2026-03-22T09:36:19.001Z</time></trkpt><trkpt lat="36.964680114877126" lon="15.061875915342446"><ele>465.0</ele><time>2026-03-22T09:36:20.001Z</time></trkpt><trkpt lat="36.964752333710614" lon="15.061712541349728"><ele>466.0</ele><time>2026-03-22T09:36:21.001Z</time></trkpt><trkpt lat="36.9648298729891" lon="15.061559685327518"><ele>467.0</ele><time>2026-03-22T09:36:22.001Z</time></trkpt><trkpt lat="36.96491673077117" lon="15.06141074913864"><ele>467.3333333333333</ele><time>2026-03-22T09:36:23.001Z</time></trkpt><trkpt lat="36.964984241577824" lon="15.061257094445402"><ele>467.66666666666663</ele><time>2026-03-22T09:36:24.001Z</time></trkpt><trkpt lat="36.96506507042765" lon="15.06108232293751"><ele>468.0</ele><time>2026-03-22T09:36:25Z</time></trkpt><trkpt lat="36.96514232142883" lon="15.06092382824889"><ele>468.5</ele><time>2026-03-22T09:36:26Z</time></trkpt><trkpt lat="36.96521543939638" lon="15.060760413223317"><ele>469.0</ele><time>2026-03-22T09:36:27Z</time></trkpt><trkpt lat="36.965280843193355" lon="15.060591420507754"><ele>469.5</ele><time>2026-03-22T09:36:28Z</time></trkpt><trkpt lat="36.965340754293194" lon="15.06044389171892"><ele>470.0</ele><time>2026-03-22T09:36:29Z</time></trkpt><trkpt lat="36.96540384383328" lon="15.060317033385248"><ele>470.0</ele><time>2026-03-22T09:36:30Z</time></trkpt><trkpt lat="36.965482714728246" lon="15.060193432894065"><ele>470.0</ele><time>2026-03-22T09:36:31Z</time></trkpt><trkpt lat="36.9655743802344" lon="15.060071650443097"><ele>470.0</ele><time>2026-03-22T09:36:32Z</time></trkpt><trkpt lat="36.96566295563376" lon="15.059964365602719"><ele>470.0</ele><time>2026-03-22T09:36:33Z</time></trkpt><trkpt lat="36.96572696535317" lon="15.059836687730748"><ele>470.25</ele><time>2026-03-22T09:36:34Z</time></trkpt><trkpt lat="36.96579313132318" lon="15.059711624116336"><ele>470.5</ele><time>2026-03-22T09:36:35Z</time></trkpt><trkpt lat="36.96585412008057" lon="15.059567825298759"><ele>470.75</ele><time>2026-03-22T09:36:36Z</time></trkpt><trkpt lat="36.96591767823888" lon="15.059427516529095"><ele>471.0</ele><time>2026-03-22T09:36:37Z</time></trkpt><trkpt lat="36.965976840558" lon="15.059279230000696"><ele>471.0</ele><time>2026-03-22T09:36:38Z</time></trkpt><trkpt lat="36.96602378659564" lon="15.059129921786683"><ele>471.0</ele><time>2026-03-22T09:36:39Z</time></trkpt><trkpt lat="36.96606251435788" lon="15.058971229592368"><ele>471.0</ele><time>2026-03-22T09:36:40Z</time></trkpt><trkpt lat="36.96609732492816" lon="15.058805377163457"><ele>471.0</ele><time>2026-03-22T09:36:41Z</time></trkpt><trkpt lat="36.966117612035845" lon="15.05864459659809"><ele>470.5</ele><time>2026-03-22T09:36:42Z</time></trkpt><trkpt lat="36.9661235813938" lon="15.058477370536377"><ele>470.0</ele><time>2026-03-22T09:36:43Z</time></trkpt><trkpt lat="36.96613072585989" lon="15.058282260497695"><ele>469.5</ele><time>2026-03-22T09:36:44Z</time></trkpt><trkpt lat="36.96612684550796" lon="15.058095758428353"><ele>469.0</ele><time>2026-03-22T09:36:45Z</time></trkpt><trkpt lat="36.96613338224374" lon="15.057931581835138"><ele>468.4</ele><time>2026-03-22T09:36:46Z</time></trkpt><trkpt lat="36.96613563533597" lon="15.057800020435572"><ele>467.79999999999995</ele><time>2026-03-22T09:36:47Z</time></trkpt><trkpt lat="36.96614973101107" lon="15.057684502227094"><ele>467.20000000000005</ele><time>2026-03-22T09:36:48Z</time></trkpt><trkpt lat="36.966180122490854" lon="15.05755008900188"><ele>466.6</ele><time>2026-03-22T09:36:49Z</time></trkpt><trkpt lat="36.96623277465917" lon="15.057391584521303"><ele>466.0</ele><time>2026-03-22T09:36:50Z</time></trkpt><trkpt lat="36.96628101152234" lon="15.057212031974041"><ele>464.33333333333337</ele><time>2026-03-22T09:36:51Z</time></trkpt><trkpt lat="36.96630623513335" lon="15.0570204185972"><ele>462.66666666666663</ele><time>2026-03-22T09:36:52Z</time></trkpt><trkpt lat="36.96634689237797" lon="15.056819387614642"><ele>461.0</ele><time>2026-03-22T09:36:53Z</time></trkpt><trkpt lat="36.96637236108487" lon="15.05662028177065"><ele>459.66666666666663</ele><time>2026-03-22T09:36:54Z</time></trkpt><trkpt lat="36.96639351829429" lon="15.056423740684727"><ele>458.33333333333337</ele><time>2026-03-22T09:36:55Z</time></trkpt><trkpt lat="36.966422798942745" lon="15.056229508970096"><ele>457.0</ele><time>2026-03-22T09:36:56Z</time></trkpt><trkpt lat="36.966420194722616" lon="15.05604472661884"><ele>457.0</ele><time>2026-03-22T09:36:57Z</time></trkpt><trkpt lat="36.96641938167278" lon="15.055859395315776"><ele>457.0</ele><time>2026-03-22T09:36:58Z</time></trkpt><trkpt lat="36.966410230618514" lon="15.055684545386514"><ele>457.0</ele><time>2026-03-22T09:36:59Z</time></trkpt><trkpt lat="36.96640835853852" lon="15.055518847174284"><ele>457.0</ele><time>2026-03-22T09:37:00Z</time></trkpt><trkpt lat="36.96642846244104" lon="15.05534727813356"><ele>455.75</ele><time>2026-03-22T09:37:01Z</time></trkpt><trkpt lat="36.96645506646796" lon="15.055178144648293"><ele>454.5</ele><time>2026-03-22T09:37:02Z</time></trkpt><trkpt lat="36.96649575814763" lon="15.055031412176685"><ele>453.25</ele><time>2026-03-22T09:37:03Z</time></trkpt><trkpt lat="36.96652633038525" lon="15.054899448159022"><ele>452.0</ele><time>2026-03-22T09:37:04Z</time></trkpt><trkpt lat="36.96655454160245" lon="15.054722818176478"><ele>450.0</ele><time>2026-03-22T09:37:05Z</time></trkpt><trkpt lat="36.96658969399095" lon="15.054551843589916"><ele>448.0</ele><time>2026-03-22T09:37:06Z</time></trkpt><trkpt lat="36.966622548700244" lon="15.054369293529659"><ele>446.0</ele><time>2026-03-22T09:37:07Z</time></trkpt><trkpt lat="36.96665612405786" lon="15.054170593901103"><ele>447.3333333333333</ele><time>2026-03-22T09:37:08Z</time></trkpt><trkpt lat="36.96667514180154" lon="15.053958662968231"><ele>448.66666666666663</ele><time>2026-03-22T09:37:09Z</time></trkpt><trkpt lat="36.96671238208873" lon="15.053747470965847"><ele>450.0</ele><time>2026-03-22T09:37:10Z</time></trkpt><trkpt lat="36.966760144610696" lon="15.053529868289786"><ele>450.0</ele><time>2026-03-22T09:37:11Z</time></trkpt><trkpt lat="36.9667952336508" lon="15.053368178645785"><ele>450.0</ele><time>2026-03-22T09:37:12Z</time></trkpt><trkpt lat="36.966816621843996" lon="15.053209260810329"><ele>450.0</ele><time>2026-03-22T09:37:13Z</time></trkpt><trkpt lat="36.966816050764855" lon="15.053066139970264"><ele>450.0</ele><time>2026-03-22T09:37:14Z</time></trkpt><trkpt lat="36.96680191548245" lon="15.052911529313905"><ele>450.0</ele><time>2026-03-22T09:37:15Z</time></trkpt><trkpt lat="36.966784031827494" lon="15.052718238423033"><ele>450.0</ele><time>2026-03-22T09:37:16Z</time></trkpt><trkpt lat="36.96676373229378" lon="15.052522412823018"><ele>450.0</ele><time>2026-03-22T09:37:17Z</time></trkpt><trkpt lat="36.966726529860296" lon="15.052348132399034"><ele>446.75</ele><time>2026-03-22T09:37:18Z</time></trkpt><trkpt lat="36.96666287128865" lon="15.052191214144356"><ele>443.5</ele><time>2026-03-22T09:37:19Z</time></trkpt><trkpt lat="36.96657631352835" lon="15.052033129617845"><ele>440.25</ele><time>2026-03-22T09:37:20Z</time></trkpt><trkpt lat="36.96650824789724" lon="15.051900214701224"><ele>437.0</ele><time>2026-03-22T09:37:21Z</time></trkpt><trkpt lat="36.966467551539296" lon="15.051784517596921"><ele>437.0</ele><time>2026-03-22T09:37:22Z</time></trkpt><trkpt lat="36.96643662210215" lon="15.051640589819325"><ele>437.0</ele><time>2026-03-22T09:37:23Z</time></trkpt><trkpt lat="36.96640129966661" lon="15.051456928254034"><ele>437.0</ele><time>2026-03-22T09:37:24Z</time></trkpt><trkpt lat="36.96636729473462" lon="15.05126534070138"><ele>437.0</ele><time>2026-03-22T09:37:25Z</time></trkpt><trkpt lat="36.96632038921765" lon="15.051083879429326"><ele>436.25</ele><time>2026-03-22T09:37:26Z</time></trkpt><trkpt lat="36.96628960958988" lon="15.0509464995888"><ele>435.5</ele><time>2026-03-22T09:37:27Z</time></trkpt><trkpt lat="36.966255202611315" lon="15.050815021531912"><ele>434.75</ele><time>2026-03-22T09:37:28Z</time></trkpt><trkpt lat="36.966209151225705" lon="15.050666292031183"><ele>434.0</ele><time>2026-03-22T09:37:29Z</time></trkpt><trkpt lat="36.96617464027428" lon="15.050545323639145"><ele>431.99999999999994</ele><time>2026-03-22T09:37:30Z</time></trkpt><trkpt lat="36.96614946160354" lon="15.0504606400754"><ele>430.0</ele><time>2026-03-22T09:37:31Z</time></trkpt><trkpt lat="36.96612511671766" lon="15.050344172045609"><ele>428.0</ele><time>2026-03-22T09:37:33Z</time></trkpt><trkpt lat="36.96616593145979" lon="15.05027374278453"><ele>426.0</ele><time>2026-03-22T09:38:23Z</time></trkpt><trkpt lat="36.96623056324707" lon="15.05039359027374"><ele>423.99999999999994</ele><time>2026-03-22T09:38:26Z</time></trkpt><trkpt lat="36.96629753555933" lon="15.050447555561211"><ele>422.0</ele><time>2026-03-22T09:38:27Z</time></trkpt><trkpt lat="36.966374542507445" lon="15.050508659474405"><ele>422.0</ele><time>2026-03-22T09:38:28Z</time></trkpt><trkpt lat="36.96646606553361" lon="15.050587766498568"><ele>422.0</ele><time>2026-03-22T09:38:29Z</time></trkpt><trkpt lat="36.96657735292152" lon="15.050665387296142"><ele>422.0</ele><time>2026-03-22T09:38:30Z</time></trkpt><trkpt lat="36.96668136835277" lon="15.050721776297324"><ele>422.0</ele><time>2026-03-22T09:38:31Z</time></trkpt><trkpt lat="36.966774759172274" lon="15.05077517698313"><ele>425.20000000000005</ele><time>2026-03-22T09:38:32Z</time></trkpt><trkpt lat="36.9668396594294" lon="15.050835948316031"><ele>428.4</ele><time>2026-03-22T09:38:33Z</time></trkpt><trkpt lat="36.966912147999984" lon="15.050908648396387"><ele>431.59999999999997</ele><time>2026-03-22T09:38:34Z</time></trkpt><trkpt lat="36.96699929416076" lon="15.05098868908119"><ele>434.79999999999995</ele><time>2026-03-22T09:38:35Z</time></trkpt><trkpt lat="36.96709288819091" lon="15.051087885823666"><ele>438.0</ele><time>2026-03-22T09:38:36Z</time></trkpt><trkpt lat="36.96719259640204" lon="15.051197190800902"><ele>438.0</ele><time>2026-03-22T09:38:37Z</time></trkpt><trkpt lat="36.9672920318856" lon="15.051300032124585"><ele>438.0</ele><time>2026-03-22T09:38:38Z</time></trkpt><trkpt lat="36.967380066180965" lon="15.051384417172402"><ele>438.0</ele><time>2026-03-22T09:38:39Z</time></trkpt><trkpt lat="36.96747555921926" lon="15.051461799354234"><ele>438.0</ele><time>2026-03-22T09:38:40Z</time></trkpt><trkpt lat="36.967609933847356" lon="15.051535462590053"><ele>437.4</ele><time>2026-03-22T09:38:41Z</time></trkpt><trkpt lat="36.96771249221168" lon="15.051608013968785"><ele>436.79999999999995</ele><time>2026-03-22T09:38:42Z</time></trkpt><trkpt lat="36.96779994411442" lon="15.051665744543712"><ele>436.2</ele><time>2026-03-22T09:38:43Z</time></trkpt><trkpt lat="36.967872827898724" lon="15.051732100875617"><ele>435.6</ele><time>2026-03-22T09:38:44Z</time></trkpt><trkpt lat="36.96794970090138" lon="15.051811276833632"><ele>435.0</ele><time>2026-03-22T09:38:45Z</time></trkpt><trkpt lat="36.968015511778525" lon="15.05188663128734"><ele>436.0</ele><time>2026-03-22T09:38:46Z</time></trkpt><trkpt lat="36.968093346779675" lon="15.051982464463714"><ele>437.0</ele><time>2026-03-22T09:38:47Z</time></trkpt><trkpt lat="36.96815801033326" lon="15.052077618940313"><ele>438.0</ele><time>2026-03-22T09:38:48Z</time></trkpt><trkpt lat="36.968220691633285" lon="15.052138946648563"><ele>439.0</ele><time>2026-03-22T09:38:49Z</time></trkpt><trkpt lat="36.96829757414516" lon="15.052191186928589"><ele>440.0</ele><time>2026-03-22T09:38:50Z</time></trkpt><trkpt lat="36.96837866683322" lon="15.052239103041543"><ele>439.99999999999994</ele><time>2026-03-22T09:38:51Z</time></trkpt><trkpt lat="36.968455812079995" lon="15.052277664242034"><ele>440.0</ele><time>2026-03-22T09:38:52Z</time></trkpt><trkpt lat="36.96852810337785" lon="15.05233366753745"><ele>440.0</ele><time>2026-03-22T09:38:53Z</time></trkpt><trkpt lat="36.96859832296683" lon="15.052399878142738"><ele>440.0</ele><time>2026-03-22T09:38:54Z</time></trkpt><trkpt lat="36.96866602503042" lon="15.052453117418974"><ele>439.99999999999994</ele><time>2026-03-22T09:38:55Z</time></trkpt><trkpt lat="36.968730125648854" lon="15.052520207191291"><ele>440.0</ele><time>2026-03-22T09:38:56Z</time></trkpt><trkpt lat="36.968801862796866" lon="15.052591089372138"><ele>441.6</ele><time>2026-03-22T09:38:57Z</time></trkpt><trkpt lat="36.96889227299676" lon="15.052665317144903"><ele>443.2</ele><time>2026-03-22T09:38:58Z</time></trkpt><trkpt lat="36.96895871878933" lon="15.0527240912241"><ele>444.79999999999995</ele><time>2026-03-22T09:38:59Z</time></trkpt><trkpt lat="36.96901331681689" lon="15.052784532292545"><ele>446.4</ele><time>2026-03-22T09:39:00Z</time></trkpt><trkpt lat="36.969100971376406" lon="15.052844847156967"><ele>448.0</ele><time>2026-03-22T09:39:01Z</time></trkpt><trkpt lat="36.96920446964101" lon="15.052927529156886"><ele>448.79999999999995</ele><time>2026-03-22T09:39:02Z</time></trkpt><trkpt lat="36.96928770008036" lon="15.052998078500517"><ele>449.59999999999997</ele><time>2026-03-22T09:39:03Z</time></trkpt><trkpt lat="36.9693696397139" lon="15.053058218634987"><ele>450.40000000000003</ele><time>2026-03-22T09:39:04Z</time></trkpt><trkpt lat="36.969455268755716" lon="15.053126844958395"><ele>451.20000000000005</ele><time>2026-03-22T09:39:05Z</time></trkpt><trkpt lat="36.96955259941512" lon="15.053197027218387"><ele>452.0</ele><time>2026-03-22T09:39:06Z</time></trkpt><trkpt lat="36.96965228872628" lon="15.053274953062452"><ele>454.0</ele><time>2026-03-22T09:39:07Z</time></trkpt><trkpt lat="36.96976501583727" lon="15.053355493836289"><ele>456.0</ele><time>2026-03-22T09:39:08Z</time></trkpt><trkpt lat="36.96986830218039" lon="15.053437170922043"><ele>458.0</ele><time>2026-03-22T09:39:09Z</time></trkpt><trkpt lat="36.96996391653554" lon="15.05350275402853"><ele>460.0</ele><time>2026-03-22T09:39:10Z</time></trkpt><trkpt lat="36.970063823983395" lon="15.053506907369178"><ele>460.5</ele><time>2026-03-22T09:39:12Z</time></trkpt><trkpt lat="36.97018106958828" lon="15.05338176347703"><ele>461.0</ele><time>2026-03-22T09:39:14Z</time></trkpt><trkpt lat="36.97028729679298" lon="15.053289648004823"><ele>461.5</ele><time>2026-03-22T09:39:15Z</time></trkpt><trkpt lat="36.97039400292776" lon="15.053223597231092"><ele>462.0</ele><time>2026-03-22T09:39:16Z</time></trkpt><trkpt lat="36.97046301414422" lon="15.053147127909169"><ele>462.0</ele><time>2026-03-22T09:39:17Z</time></trkpt><trkpt lat="36.97050782862777" lon="15.053061083559998"><ele>462.00000000000006</ele><time>2026-03-22T09:39:18Z</time></trkpt><trkpt lat="36.970563985528045" lon="15.052984434200495"><ele>462.00000000000006</ele><time>2026-03-22T09:39:19Z</time></trkpt><trkpt lat="36.97066427655988" lon="15.052973243818455"><ele>462.0</ele><time>2026-03-22T09:39:21Z</time></trkpt><trkpt lat="36.97080172570915" lon="15.053005129540207"><ele>462.0</ele><time>2026-03-22T09:39:23Z</time></trkpt><trkpt lat="36.970891872980374" lon="15.053060172860302"><ele>463.6666666666667</ele><time>2026-03-22T09:39:25Z</time></trkpt><trkpt lat="36.97096182517132" lon="15.053085069845412"><ele>465.33333333333337</ele><time>2026-03-22T09:39:26Z</time></trkpt><trkpt lat="36.971036684128215" lon="15.05312042517732"><ele>467.0</ele><time>2026-03-22T09:39:27Z</time></trkpt><trkpt lat="36.97110716242436" lon="15.053145642559251"><ele>468.6666666666667</ele><time>2026-03-22T09:39:28Z</time></trkpt><trkpt lat="36.9711814493694" lon="15.053177813485116"><ele>470.33333333333337</ele><time>2026-03-22T09:39:29Z</time></trkpt><trkpt lat="36.97125304177346" lon="15.053221305842609"><ele>472.0</ele><time>2026-03-22T09:39:30Z</time></trkpt><trkpt lat="36.971334900559505" lon="15.053267675972908"><ele>473.00000000000006</ele><time>2026-03-22T09:39:31Z</time></trkpt><trkpt lat="36.971408640676785" lon="15.053323534722175"><ele>474.0</ele><time>2026-03-22T09:39:32Z</time></trkpt><trkpt lat="36.971510538138105" lon="15.053347960401197"><ele>475.0</ele><time>2026-03-22T09:39:33Z</time></trkpt><trkpt lat="36.97157789077609" lon="15.053377259326442"><ele>476.0</ele><time>2026-03-22T09:39:34Z</time></trkpt><trkpt lat="36.97165228108408" lon="15.053416027906836"><ele>477.00000000000006</ele><time>2026-03-22T09:39:35Z</time></trkpt><trkpt lat="36.9717340781248" lon="15.053458279977399"><ele>478.0</ele><time>2026-03-22T09:39:37Z</time></trkpt><trkpt lat="36.971810735160574" lon="15.053492099332061"><ele>479.2</ele><time>2026-03-22T09:39:41Z</time></trkpt><trkpt lat="36.97186377058857" lon="15.05338578699535"><ele>480.4</ele><time>2026-03-22T09:39:42Z</time></trkpt><trkpt lat="36.97191534296382" lon="15.053248891292556"><ele>481.59999999999997</ele><time>2026-03-22T09:39:44Z</time></trkpt><trkpt lat="36.97196165817694" lon="15.053170642276637"><ele>482.79999999999995</ele><time>2026-03-22T09:39:45Z</time></trkpt><trkpt lat="36.97201840753005" lon="15.05308413698637"><ele>484.0</ele><time>2026-03-22T09:39:46Z</time></trkpt><trkpt lat="36.97207926327022" lon="15.052991912852058"><ele>484.0</ele><time>2026-03-22T09:39:47Z</time></trkpt><trkpt lat="36.972126895702175" lon="15.052889286469142"><ele>484.0</ele><time>2026-03-22T09:39:48Z</time></trkpt><trkpt lat="36.972171655617586" lon="15.052783346820673"><ele>484.0</ele><time>2026-03-22T09:39:49Z</time></trkpt><trkpt lat="36.972218782395416" lon="15.052698454087858"><ele>484.0</ele><time>2026-03-22T09:39:50Z</time></trkpt><trkpt lat="36.97226703820597" lon="15.052581694037379"><ele>484.0</ele><time>2026-03-22T09:39:51Z</time></trkpt><trkpt lat="36.97230647131337" lon="15.052475219668407"><ele>483.0</ele><time>2026-03-22T09:39:52Z</time></trkpt><trkpt lat="36.97230137087518" lon="15.052341743564835"><ele>482.0</ele><time>2026-03-22T09:39:53Z</time></trkpt><trkpt lat="36.9723230347698" lon="15.05219308231002"><ele>481.0</ele><time>2026-03-22T09:39:54Z</time></trkpt><trkpt lat="36.972352616059034" lon="15.052039694419303"><ele>480.0</ele><time>2026-03-22T09:39:55Z</time></trkpt><trkpt lat="36.972380150495596" lon="15.051868231782807"><ele>480.0</ele><time>2026-03-22T09:39:56Z</time></trkpt><trkpt lat="36.97240474564588" lon="15.05170893623737"><ele>480.0</ele><time>2026-03-22T09:39:57Z</time></trkpt><trkpt lat="36.97242836912915" lon="15.05156083756699"><ele>480.0</ele><time>2026-03-22T09:39:58Z</time></trkpt><trkpt lat="36.97245251640163" lon="15.051422972176379"><ele>480.0</ele><time>2026-03-22T09:39:59Z</time></trkpt><trkpt lat="36.972475624026266" lon="15.051281151270931"><ele>479.25</ele><time>2026-03-22T09:40:00Z</time></trkpt><trkpt lat="36.972499607472734" lon="15.051134471027767"><ele>478.5</ele><time>2026-03-22T09:40:01Z</time></trkpt><trkpt lat="36.97251915068961" lon="15.050977037276926"><ele>477.75</ele><time>2026-03-22T09:40:02Z</time></trkpt><trkpt lat="36.97254200608777" lon="15.050807693137372"><ele>477.0</ele><time>2026-03-22T09:40:03Z</time></trkpt><trkpt lat="36.97257219070522" lon="15.050639819228248"><ele>478.75</ele><time>2026-03-22T09:40:04Z</time></trkpt><trkpt lat="36.97261632181074" lon="15.050482922876963"><ele>480.5</ele><time>2026-03-22T09:40:05Z</time></trkpt><trkpt lat="36.972634634599174" lon="15.050299680870447"><ele>482.25</ele><time>2026-03-22T09:40:06Z</time></trkpt><trkpt lat="36.972663089824295" lon="15.050129178434782"><ele>484.0</ele><time>2026-03-22T09:40:07Z</time></trkpt><trkpt lat="36.97269679957943" lon="15.04993716026003"><ele>484.0</ele><time>2026-03-22T09:40:08Z</time></trkpt><trkpt lat="36.97272843251647" lon="15.04974750171363"><ele>484.0</ele><time>2026-03-22T09:40:09Z</time></trkpt><trkpt lat="36.97275909019508" lon="15.04957026742226"><ele>484.0</ele><time>2026-03-22T09:40:10Z</time></trkpt><trkpt lat="36.972785216077845" lon="15.049407896247281"><ele>484.0</ele><time>2026-03-22T09:40:11Z</time></trkpt><trkpt lat="36.97279769332446" lon="15.049252374964343"><ele>482.25</ele><time>2026-03-22T09:40:12Z</time></trkpt><trkpt lat="36.9727871753973" lon="15.049094129569307"><ele>480.5</ele><time>2026-03-22T09:40:13Z</time></trkpt><trkpt lat="36.97275291834005" lon="15.048938528351439"><ele>478.75</ele><time>2026-03-22T09:40:14Z</time></trkpt><trkpt lat="36.97269822211688" lon="15.048783270589814"><ele>477.0</ele><time>2026-03-22T09:40:15Z</time></trkpt><trkpt lat="36.972624256988524" lon="15.048621590212553"><ele>477.0</ele><time>2026-03-22T09:40:16Z</time></trkpt><trkpt lat="36.97254965702701" lon="15.048462883476267"><ele>477.0</ele><time>2026-03-22T09:40:17Z</time></trkpt><trkpt lat="36.97249609327812" lon="15.048305871707205"><ele>477.0</ele><time>2026-03-22T09:40:18Z</time></trkpt><trkpt lat="36.97247118651684" lon="15.048167442685605"><ele>477.0</ele><time>2026-03-22T09:40:19Z</time></trkpt><trkpt lat="36.97248443084047" lon="15.048036293829979"><ele>473.75</ele><time>2026-03-22T09:40:20Z</time></trkpt><trkpt lat="36.972540561861834" lon="15.047931778908747"><ele>470.5</ele><time>2026-03-22T09:40:21Z</time></trkpt><trkpt lat="36.972640845707346" lon="15.047851936890016"><ele>467.25</ele><time>2026-03-22T09:40:22Z</time></trkpt><trkpt lat="36.97275491768212" lon="15.047753806963591"><ele>464.0</ele><time>2026-03-22T09:40:23Z</time></trkpt><trkpt lat="36.97287769588932" lon="15.047638836950991"><ele>464.0</ele><time>2026-03-22T09:40:24Z</time></trkpt><trkpt lat="36.973012499569805" lon="15.047486419095051"><ele>464.0</ele><time>2026-03-22T09:40:25Z</time></trkpt><trkpt lat="36.973135644831885" lon="15.047320159279787"><ele>464.0</ele><time>2026-03-22T09:40:26Z</time></trkpt><trkpt lat="36.97324548746485" lon="15.047128320383642"><ele>464.0</ele><time>2026-03-22T09:40:27Z</time></trkpt><trkpt lat="36.97334717725182" lon="15.046923670345567"><ele>464.0</ele><time>2026-03-22T09:40:28Z</time></trkpt><trkpt lat="36.97343070074089" lon="15.046746155715505"><ele>464.0</ele><time>2026-03-22T09:40:29Z</time></trkpt><trkpt lat="36.9734751897853" lon="15.046540237495899"><ele>460.3333333333333</ele><time>2026-03-22T09:40:30Z</time></trkpt><trkpt lat="36.97352167379327" lon="15.046340974417392"><ele>456.66666666666663</ele><time>2026-03-22T09:40:31Z</time></trkpt><trkpt lat="36.97355418595031" lon="15.04613684313742"><ele>453.0</ele><time>2026-03-22T09:40:32Z</time></trkpt><trkpt lat="36.97359077655576" lon="15.045942567081681"><ele>450.66666666666663</ele><time>2026-03-22T09:40:33Z</time></trkpt><trkpt lat="36.97362842465743" lon="15.0457550328454"><ele>448.3333333333333</ele><time>2026-03-22T09:40:34Z</time></trkpt><trkpt lat="36.97366771426627" lon="15.045578595738663"><ele>446.0</ele><time>2026-03-22T09:40:35Z</time></trkpt><trkpt lat="36.97371707786315" lon="15.04540182232594"><ele>446.0</ele><time>2026-03-22T09:40:36Z</time></trkpt><trkpt lat="36.97377863675604" lon="15.045232457246957"><ele>446.0</ele><time>2026-03-22T09:40:37Z</time></trkpt><trkpt lat="36.97384233262264" lon="15.045061633893736"><ele>446.0</ele><time>2026-03-22T09:40:38Z</time></trkpt><trkpt lat="36.97391081269148" lon="15.044880741243041"><ele>444.66666666666663</ele><time>2026-03-22T09:40:39Z</time></trkpt><trkpt lat="36.97396785631945" lon="15.044688563621419"><ele>443.33333333333337</ele><time>2026-03-22T09:40:40Z</time></trkpt><trkpt lat="36.97403559089716" lon="15.044504032717892"><ele>442.0</ele><time>2026-03-22T09:40:41Z</time></trkpt><trkpt lat="36.97410654259236" lon="15.044308429368503"><ele>441.0</ele><time>2026-03-22T09:40:42Z</time></trkpt><trkpt lat="36.97418277471636" lon="15.044110884767056"><ele>440.0</ele><time>2026-03-22T09:40:43Z</time></trkpt><trkpt lat="36.97425980397623" lon="15.04391729833257"><ele>439.0</ele><time>2026-03-22T09:40:44Z</time></trkpt><trkpt lat="36.97432474067362" lon="15.043713647778839"><ele>438.0</ele><time>2026-03-22T09:40:45Z</time></trkpt><trkpt lat="36.97439480629335" lon="15.043507998003257"><ele>437.0</ele><time>2026-03-22T09:40:46Z</time></trkpt><trkpt lat="36.974451918621725" lon="15.04328611381503"><ele>436.0</ele><time>2026-03-22T09:40:47Z</time></trkpt><trkpt lat="36.974506663175106" lon="15.043064650340217"><ele>434.6666666666667</ele><time>2026-03-22T09:40:48Z</time></trkpt><trkpt lat="36.97456292615188" lon="15.042846715134711"><ele>433.33333333333337</ele><time>2026-03-22T09:40:49Z</time></trkpt><trkpt lat="36.97462030693056" lon="15.042616697791335"><ele>432.0</ele><time>2026-03-22T09:40:50Z</time></trkpt><trkpt lat="36.974681923720475" lon="15.04238894537012"><ele>431.0</ele><time>2026-03-22T09:40:51Z</time></trkpt><trkpt lat="36.974747479558786" lon="15.04216918304521"><ele>430.0</ele><time>2026-03-22T09:40:52Z</time></trkpt><trkpt lat="36.97480972041458" lon="15.04194896571382"><ele>429.0</ele><time>2026-03-22T09:40:53Z</time></trkpt><trkpt lat="36.97486676387415" lon="15.04172781559698"><ele>429.33333333333337</ele><time>2026-03-22T09:40:54Z</time></trkpt><trkpt lat="36.97492520268112" lon="15.041509380885811"><ele>429.6666666666667</ele><time>2026-03-22T09:40:55Z</time></trkpt><trkpt lat="36.97498724854174" lon="15.041291475763943"><ele>430.0</ele><time>2026-03-22T09:40:56Z</time></trkpt><trkpt lat="36.97504459444362" lon="15.041080944599672"><ele>429.0</ele><time>2026-03-22T09:40:57Z</time></trkpt><trkpt lat="36.97510540178559" lon="15.04086940565221"><ele>428.0</ele><time>2026-03-22T09:40:58Z</time></trkpt><trkpt lat="36.975167640498654" lon="15.040655705688465"><ele>427.0</ele><time>2026-03-22T09:40:59Z</time></trkpt><trkpt lat="36.97523549341559" lon="15.040452575231859"><ele>427.6666666666667</ele><time>2026-03-22T09:41:00Z</time></trkpt><trkpt lat="36.97531823925564" lon="15.040268864591027"><ele>428.33333333333337</ele><time>2026-03-22T09:41:01Z</time></trkpt><trkpt lat="36.97540219008012" lon="15.040072867426659"><ele>429.0</ele><time>2026-03-22T09:41:02Z</time></trkpt><trkpt lat="36.975494164651025" lon="15.039869703654158"><ele>429.0</ele><time>2026-03-22T09:41:03Z</time></trkpt><trkpt lat="36.97557755778678" lon="15.039674322854017"><ele>429.0</ele><time>2026-03-22T09:41:04Z</time></trkpt><trkpt lat="36.97567199462048" lon="15.039474540924257"><ele>429.0</ele><time>2026-03-22T09:41:05Z</time></trkpt><trkpt lat="36.97576361409342" lon="15.039277438372563"><ele>426.0</ele><time>2026-03-22T09:41:06Z</time></trkpt><trkpt lat="36.975853690109055" lon="15.039072989571302"><ele>423.0</ele><time>2026-03-22T09:41:07Z</time></trkpt><trkpt lat="36.97593995889207" lon="15.038870689592574"><ele>420.0</ele><time>2026-03-22T09:41:08Z</time></trkpt><trkpt lat="36.97603047518307" lon="15.038670018013883"><ele>420.0</ele><time>2026-03-22T09:41:09Z</time></trkpt><trkpt lat="36.976128763080396" lon="15.038463253537707"><ele>420.0</ele><time>2026-03-22T09:41:10Z</time></trkpt><trkpt lat="36.97622597912658" lon="15.038278241093497"><ele>420.0</ele><time>2026-03-22T09:41:11Z</time></trkpt><trkpt lat="36.97633515560157" lon="15.0381202995501"><ele>420.0</ele><time>2026-03-22T09:41:12Z</time></trkpt><trkpt lat="36.97646085694587" lon="15.03796793431444"><ele>420.0</ele><time>2026-03-22T09:41:13Z</time></trkpt><trkpt lat="36.97659249498125" lon="15.037810341533634"><ele>420.0</ele><time>2026-03-22T09:41:14Z</time></trkpt><trkpt lat="36.97673346330178" lon="15.037662074150932"><ele>420.0</ele><time>2026-03-22T09:41:15Z</time></trkpt><trkpt lat="36.976843971150615" lon="15.03751813283843"><ele>420.0</ele><time>2026-03-22T09:41:16Z</time></trkpt><trkpt lat="36.977000874787706" lon="15.037401243217566"><ele>420.0</ele><time>2026-03-22T09:41:17Z</time></trkpt><trkpt lat="36.97715295417808" lon="15.03726472820656"><ele>421.0</ele><time>2026-03-22T09:41:18Z</time></trkpt><trkpt lat="36.977295138517334" lon="15.03712448900245"><ele>422.0</ele><time>2026-03-22T09:41:19Z</time></trkpt><trkpt lat="36.97743893471343" lon="15.03696887581355"><ele>423.0</ele><time>2026-03-22T09:41:20Z</time></trkpt><trkpt lat="36.97758284284345" lon="15.03681055993649"><ele>423.66666666666663</ele><time>2026-03-22T09:41:21Z</time></trkpt><trkpt lat="36.97772691899462" lon="15.03663289131871"><ele>424.3333333333333</ele><time>2026-03-22T09:41:22Z</time></trkpt><trkpt lat="36.977871481302415" lon="15.03647951176082"><ele>425.0</ele><time>2026-03-22T09:41:23Z</time></trkpt><trkpt lat="36.97800494666035" lon="15.03631857758295"><ele>425.0</ele><time>2026-03-22T09:41:24Z</time></trkpt><trkpt lat="36.97812628599725" lon="15.036159131381172"><ele>425.0</ele><time>2026-03-22T09:41:25Z</time></trkpt><trkpt lat="36.978226208979784" lon="15.035950064625132"><ele>425.0</ele><time>2026-03-22T09:41:26Z</time></trkpt><trkpt lat="36.97830480634268" lon="15.035739079510243"><ele>424.66666666666663</ele><time>2026-03-22T09:41:27Z</time></trkpt><trkpt lat="36.97838953794123" lon="15.035552519170373"><ele>424.33333333333337</ele><time>2026-03-22T09:41:28Z</time></trkpt><trkpt lat="36.97848818123833" lon="15.035358931796123"><ele>424.0</ele><time>2026-03-22T09:41:29Z</time></trkpt><trkpt lat="36.97858376418648" lon="15.035165054649843"><ele>425.6666666666667</ele><time>2026-03-22T09:41:30Z</time></trkpt><trkpt lat="36.978684638818336" lon="15.034970863741039"><ele>427.33333333333337</ele><time>2026-03-22T09:41:31Z</time></trkpt><trkpt lat="36.978786507299496" lon="15.034784994515482"><ele>429.0</ele><time>2026-03-22T09:41:32Z</time></trkpt><trkpt lat="36.97889077384504" lon="15.034606857161558"><ele>429.0</ele><time>2026-03-22T09:41:33Z</time></trkpt><trkpt lat="36.978998325660264" lon="15.034435849810594"><ele>429.0</ele><time>2026-03-22T09:41:34Z</time></trkpt><trkpt lat="36.97910444709507" lon="15.03427010200525"><ele>429.0</ele><time>2026-03-22T09:41:35Z</time></trkpt><trkpt lat="36.97919501920287" lon="15.034109122148681"><ele>428.5</ele><time>2026-03-22T09:41:36Z</time></trkpt><trkpt lat="36.97927808407106" lon="15.033956551824803"><ele>428.0</ele><time>2026-03-22T09:41:37Z</time></trkpt><trkpt lat="36.97935117332472" lon="15.033816861281178"><ele>427.5</ele><time>2026-03-22T09:41:38Z</time></trkpt><trkpt lat="36.979429681010906" lon="15.033681992825716"><ele>427.0</ele><time>2026-03-22T09:41:39Z</time></trkpt><trkpt lat="36.97949183397129" lon="15.033550539169463"><ele>427.0</ele><time>2026-03-22T09:41:40Z</time></trkpt><trkpt lat="36.979538834740545" lon="15.033401670983693"><ele>427.0</ele><time>2026-03-22T09:41:41Z</time></trkpt><trkpt lat="36.979570081691264" lon="15.033246278655264"><ele>427.0</ele><time>2026-03-22T09:41:42Z</time></trkpt><trkpt lat="36.9796038249215" lon="15.033080818868754"><ele>427.0</ele><time>2026-03-22T09:41:43Z</time></trkpt><trkpt lat="36.979632542706774" lon="15.032911311604963"><ele>427.5</ele><time>2026-03-22T09:41:44Z</time></trkpt><trkpt lat="36.97964592106361" lon="15.032730528025937"><ele>428.0</ele><time>2026-03-22T09:41:45Z</time></trkpt><trkpt lat="36.97964898995541" lon="15.032553878424652"><ele>428.5</ele><time>2026-03-22T09:41:46Z</time></trkpt><trkpt lat="36.979668291196546" lon="15.032363378931805"><ele>429.0</ele><time>2026-03-22T09:41:47Z</time></trkpt><trkpt lat="36.97968640651558" lon="15.03215392292254"><ele>430.0</ele><time>2026-03-22T09:41:48Z</time></trkpt><trkpt lat="36.97970684953556" lon="15.031972203700548"><ele>431.0</ele><time>2026-03-22T09:41:49Z</time></trkpt><trkpt lat="36.97972328028458" lon="15.031791341544158"><ele>432.0</ele><time>2026-03-22T09:41:50Z</time></trkpt><trkpt lat="36.979735984713955" lon="15.031624951696545"><ele>433.0</ele><time>2026-03-22T09:41:51Z</time></trkpt><trkpt lat="36.97974739259088" lon="15.031475229419254"><ele>433.79999999999995</ele><time>2026-03-22T09:41:52Z</time></trkpt><trkpt lat="36.97976938448221" lon="15.031336971214957"><ele>434.59999999999997</ele><time>2026-03-22T09:41:53Z</time></trkpt><trkpt lat="36.97981465148349" lon="15.0311979258282"><ele>435.40000000000003</ele><time>2026-03-22T09:41:54Z</time></trkpt><trkpt lat="36.979836427570085" lon="15.031112399122268"><ele>436.20000000000005</ele><time>2026-03-22T09:41:55Z</time></trkpt><trkpt lat="36.97984435565242" lon="15.031015832960803"><ele>437.0</ele><time>2026-03-22T09:41:56Z</time></trkpt><trkpt lat="36.979845182278154" lon="15.030927515503008"><ele>437.0</ele><time>2026-03-22T09:41:57Z</time></trkpt><trkpt lat="36.97989134976865" lon="15.030854237230267"><ele>437.00000000000006</ele><time>2026-03-22T09:42:00Z</time></trkpt><trkpt lat="36.97997485345825" lon="15.03076161750284"><ele>437.00000000000006</ele><time>2026-03-22T09:42:12Z</time></trkpt><trkpt lat="36.98004559034653" lon="15.030719930491061"><ele>437.0</ele><time>2026-03-22T09:42:13Z</time></trkpt><trkpt lat="36.98013144732962" lon="15.030664209708574"><ele>437.0</ele><time>2026-03-22T09:42:14Z</time></trkpt><trkpt lat="36.98023376029308" lon="15.03059704617974"><ele>437.0</ele><time>2026-03-22T09:42:15Z</time></trkpt><trkpt lat="36.98034481154979" lon="15.030524361750041"><ele>437.0</ele><time>2026-03-22T09:42:16Z</time></trkpt><trkpt lat="36.98046618959967" lon="15.030449630722613"><ele>437.0</ele><time>2026-03-22T09:42:17Z</time></trkpt><trkpt lat="36.98058866509686" lon="15.030374154531788"><ele>437.0</ele><time>2026-03-22T09:42:18Z</time></trkpt><trkpt lat="36.98071642513717" lon="15.030300347393792"><ele>437.0</ele><time>2026-03-22T09:42:19Z</time></trkpt><trkpt lat="36.98080491984155" lon="15.030206705781938"><ele>437.0</ele><time>2026-03-22T09:42:20Z</time></trkpt><trkpt lat="36.98095374980525" lon="15.03012276737883"><ele>437.0</ele><time>2026-03-22T09:42:21Z</time></trkpt><trkpt lat="36.98106914027644" lon="15.030045072377847"><ele>437.0</ele><time>2026-03-22T09:42:22Z</time></trkpt><trkpt lat="36.981176388389564" lon="15.029975849986673"><ele>436.5</ele><time>2026-03-22T09:42:23Z</time></trkpt><trkpt lat="36.981281923063364" lon="15.029906007758795"><ele>436.0</ele><time>2026-03-22T09:42:24Z</time></trkpt><trkpt lat="36.98138599447756" lon="15.029845084115335"><ele>435.5</ele><time>2026-03-22T09:42:25Z</time></trkpt><trkpt lat="36.9814862353328" lon="15.02977694493679"><ele>435.0</ele><time>2026-03-22T09:42:26Z</time></trkpt><trkpt lat="36.98159688382715" lon="15.029691257901167"><ele>434.33333333333337</ele><time>2026-03-22T09:42:27Z</time></trkpt><trkpt lat="36.981718470372485" lon="15.029595303299367"><ele>433.6666666666667</ele><time>2026-03-22T09:42:28Z</time></trkpt><trkpt lat="36.98184995943519" lon="15.029494552389412"><ele>433.0</ele><time>2026-03-22T09:42:29Z</time></trkpt><trkpt lat="36.982017889822444" lon="15.029383562173575"><ele>433.0</ele><time>2026-03-22T09:42:30Z</time></trkpt><trkpt lat="36.98219146638107" lon="15.029281155059442"><ele>433.0</ele><time>2026-03-22T09:42:31Z</time></trkpt><trkpt lat="36.98238770148992" lon="15.02916657399353"><ele>433.0</ele><time>2026-03-22T09:42:32Z</time></trkpt><trkpt lat="36.98258005220647" lon="15.029055279848626"><ele>433.33333333333337</ele><time>2026-03-22T09:42:33Z</time></trkpt><trkpt lat="36.98276298470224" lon="15.02893288083721"><ele>433.66666666666663</ele><time>2026-03-22T09:42:34Z</time></trkpt><trkpt lat="36.98294250725978" lon="15.028847976809777"><ele>434.0</ele><time>2026-03-22T09:42:35Z</time></trkpt><trkpt lat="36.983152926887065" lon="15.028766621715256"><ele>433.66666666666663</ele><time>2026-03-22T09:42:36Z</time></trkpt><trkpt lat="36.98336072982175" lon="15.028699419085427"><ele>433.33333333333337</ele><time>2026-03-22T09:42:37Z</time></trkpt><trkpt lat="36.983578961115825" lon="15.02862393217188"><ele>433.0</ele><time>2026-03-22T09:42:38Z</time></trkpt><trkpt lat="36.98379286498179" lon="15.028550374240753"><ele>433.0</ele><time>2026-03-22T09:42:39Z</time></trkpt><trkpt lat="36.98400259490865" lon="15.02847802608279"><ele>433.0</ele><time>2026-03-22T09:42:40Z</time></trkpt><trkpt lat="36.98421979914627" lon="15.02841668002702"><ele>433.0</ele><time>2026-03-22T09:42:41Z</time></trkpt><trkpt lat="36.98443748288983" lon="15.028332888259477"><ele>433.5</ele><time>2026-03-22T09:42:42Z</time></trkpt><trkpt lat="36.9846631623938" lon="15.028254640734783"><ele>434.0</ele><time>2026-03-22T09:42:43Z</time></trkpt><trkpt lat="36.984887734014336" lon="15.028179935310328"><ele>431.66666666666663</ele><time>2026-03-22T09:42:44Z</time></trkpt><trkpt lat="36.98508723039362" lon="15.028108188866149"><ele>429.33333333333337</ele><time>2026-03-22T09:42:45Z</time></trkpt><trkpt lat="36.98527490957641" lon="15.02804339025171"><ele>427.0</ele><time>2026-03-22T09:42:46Z</time></trkpt><trkpt lat="36.98545095649234" lon="15.02797769262976"><ele>427.0</ele><time>2026-03-22T09:42:47Z</time></trkpt><trkpt lat="36.98560923720636" lon="15.027882310561681"><ele>427.0</ele><time>2026-03-22T09:42:48Z</time></trkpt><trkpt lat="36.98574332247783" lon="15.02773513450036"><ele>427.0</ele><time>2026-03-22T09:42:49Z</time></trkpt><trkpt lat="36.9858576592271" lon="15.027555099780447"><ele>424.6666666666667</ele><time>2026-03-22T09:42:50Z</time></trkpt><trkpt lat="36.985955939699934" lon="15.02735672930933"><ele>422.33333333333337</ele><time>2026-03-22T09:42:51Z</time></trkpt><trkpt lat="36.986047401942066" lon="15.027114582580834"><ele>420.0</ele><time>2026-03-22T09:42:52Z</time></trkpt><trkpt lat="36.98612402809295" lon="15.026926323585121"><ele>420.0</ele><time>2026-03-22T09:42:53Z</time></trkpt><trkpt lat="36.98620021073884" lon="15.026753608521242"><ele>420.0</ele><time>2026-03-22T09:42:54Z</time></trkpt><trkpt lat="36.98622392594696" lon="15.026574048106802"><ele>420.0</ele><time>2026-03-22T09:42:55Z</time></trkpt><trkpt lat="36.986287418180424" lon="15.026483010273955"><ele>420.0</ele><time>2026-03-22T09:42:56Z</time></trkpt><trkpt lat="36.98637553263409" lon="15.026440309581211"><ele>419.6666666666667</ele><time>2026-03-22T09:42:57Z</time></trkpt><trkpt lat="36.98646750290401" lon="15.026457729785292"><ele>419.33333333333337</ele><time>2026-03-22T09:42:58Z</time></trkpt><trkpt lat="36.98652998565453" lon="15.026494076423658"><ele>419.0</ele><time>2026-03-22T09:42:59Z</time></trkpt><trkpt lat="36.98658769172395" lon="15.026526519375237"><ele>418.6666666666667</ele><time>2026-03-22T09:43:01Z</time></trkpt><trkpt lat="36.986589889165984" lon="15.026443100138371"><ele>418.33333333333337</ele><time>2026-03-22T09:43:03Z</time></trkpt><trkpt lat="36.98661919869489" lon="15.026347421619114"><ele>418.0</ele><time>2026-03-22T09:43:05Z</time></trkpt><trkpt lat="36.98665522974608" lon="15.026260208701226"><ele>417.79999999999995</ele><time>2026-03-22T09:43:06Z</time></trkpt><trkpt lat="36.986684732786834" lon="15.026147794000634"><ele>417.6</ele><time>2026-03-22T09:43:07Z</time></trkpt><trkpt lat="36.98669691250599" lon="15.026032153369261"><ele>417.4</ele><time>2026-03-22T09:43:08Z</time></trkpt><trkpt lat="36.986719995768844" lon="15.02593801083587"><ele>417.20000000000005</ele><time>2026-03-22T09:43:09Z</time></trkpt><trkpt lat="36.98667109135631" lon="15.025800342940716"><ele>417.0</ele><time>2026-03-22T09:43:11Z</time></trkpt><trkpt lat="36.98662055166458" lon="15.025737163117185"><ele>417.0</ele><time>2026-03-22T09:43:12Z</time></trkpt><trkpt lat="36.98658975500811" lon="15.025591018633254"><ele>417.0</ele><time>2026-03-22T09:43:14Z</time></trkpt><trkpt lat="36.986592073212464" lon="15.025507346994129"><ele>417.0</ele><time>2026-03-22T09:43:15Z</time></trkpt><trkpt lat="36.986627506295626" lon="15.025282137779929"><ele>417.0</ele><time>2026-03-22T09:43:17Z</time></trkpt><trkpt lat="36.98665197138804" lon="15.025172303067556"><ele>415.8333333333333</ele><time>2026-03-22T09:43:18Z</time></trkpt><trkpt lat="36.986681295920896" lon="15.025060449169828"><ele>414.66666666666663</ele><time>2026-03-22T09:43:19Z</time></trkpt><trkpt lat="36.9867145414871" lon="15.024949823036712"><ele>413.5</ele><time>2026-03-22T09:43:20Z</time></trkpt><trkpt lat="36.986754699989184" lon="15.024855485787334"><ele>412.3333333333333</ele><time>2026-03-22T09:43:21Z</time></trkpt><trkpt lat="36.98680306491507" lon="15.024751507179301"><ele>411.16666666666663</ele><time>2026-03-22T09:43:22Z</time></trkpt><trkpt lat="36.98684818778933" lon="15.02468222819373"><ele>410.0</ele><time>2026-03-22T09:43:23Z</time></trkpt><trkpt lat="36.986883316675865" lon="15.02456836723297"><ele>410.0</ele><time>2026-03-22T09:43:25Z</time></trkpt><trkpt lat="36.98701054996873" lon="15.024674994807068"><ele>410.0</ele><time>2026-03-22T09:43:30Z</time></trkpt><trkpt lat="36.9869699798368" lon="15.024745121659178"><ele>410.0</ele><time>2026-03-22T09:43:34Z</time></trkpt><trkpt lat="36.98692375631206" lon="15.024858232157898"><ele>410.0</ele><time>2026-03-22T09:43:36Z</time></trkpt><trkpt lat="36.986881653098884" lon="15.024931502043144"><ele>410.0</ele><time>2026-03-22T09:43:37Z</time></trkpt><trkpt lat="36.986838325524346" lon="15.024989358989679"><ele>409.4</ele><time>2026-03-22T09:43:38Z</time></trkpt><trkpt lat="36.9867551017808" lon="15.025019987562418"><ele>408.8</ele><time>2026-03-22T09:43:39Z</time></trkpt><trkpt lat="36.98671319988307" lon="15.025141058075034"><ele>408.20000000000005</ele><time>2026-03-22T09:43:41Z</time></trkpt><trkpt lat="36.9866635710348" lon="15.025303795509043"><ele>407.6</ele><time>2026-03-22T09:43:43Z</time></trkpt><trkpt lat="36.98668556697238" lon="15.025395656665818"><ele>407.0</ele><time>2026-03-22T09:43:44Z</time></trkpt><trkpt lat="36.98675972463451" lon="15.025361030747426"><ele>406.99999999999994</ele><time>2026-03-22T09:43:46Z</time></trkpt><trkpt lat="36.986826982615995" lon="15.02539009664049"><ele>407.0</ele><time>2026-03-22T09:43:47Z</time></trkpt><trkpt lat="36.986886919303856" lon="15.025465889989583"><ele>407.0</ele><time>2026-03-22T09:43:49Z</time></trkpt><trkpt lat="36.98695734713788" lon="15.025523317041188"><ele>407.0</ele><time>2026-03-22T09:43:53Z</time></trkpt><trkpt lat="36.98703355441567" lon="15.025564617474926"><ele>406.99999999999994</ele><time>2026-03-22T09:43:57Z</time></trkpt><trkpt lat="36.987072827206745" lon="15.025489911107032"><ele>407.0</ele><time>2026-03-22T09:44:03Z</time></trkpt><trkpt lat="36.987105045777646" lon="15.025408852849534"><ele>406.99999999999994</ele><time>2026-03-22T09:44:07Z</time></trkpt><trkpt lat="36.987157479637084" lon="15.02535914369134"><ele>407.0</ele><time>2026-03-22T09:44:09Z</time></trkpt><trkpt lat="36.98725149130078" lon="15.025374977361945"><ele>407.0</ele><time>2026-03-22T09:44:11Z</time></trkpt><trkpt lat="36.98734063823892" lon="15.025320807374264"><ele>407.0</ele><time>2026-03-22T09:44:14Z</time></trkpt><trkpt lat="36.98733212959517" lon="15.025187029546128"><ele>406.99999999999994</ele><time>2026-03-22T09:44:17Z</time></trkpt><trkpt lat="36.98733072505531" lon="15.025102554753563"><ele>407.0</ele><time>2026-03-22T09:44:20Z</time></trkpt><trkpt lat="36.98733482590251" lon="15.024993747316005"><ele>407.49999999999994</ele><time>2026-03-22T09:44:23Z</time></trkpt><trkpt lat="36.987359866606745" lon="15.024894280764347"><ele>408.0</ele><time>2026-03-22T09:44:27Z</time></trkpt><trkpt lat="36.98739117773432" lon="15.024804780283016"><ele>408.5</ele><time>2026-03-22T09:44:31Z</time></trkpt><trkpt lat="36.987464458348775" lon="15.024756494053134"><ele>409.0</ele><time>2026-03-22T09:44:34Z</time></trkpt><trkpt lat="36.98748032782572" lon="15.024678942042069"><ele>409.49999999999994</ele><time>2026-03-22T09:44:37Z</time></trkpt><trkpt lat="36.98741864949669" lon="15.024658497396473"><ele>410.0</ele><time>2026-03-22T09:44:40Z</time></trkpt><trkpt lat="36.98734091238704" lon="15.024675761654809"><ele>410.0</ele><time>2026-03-22T09:44:42Z</time></trkpt><trkpt lat="36.987320919093555" lon="15.024759334011625"><ele>410.0</ele><time>2026-03-22T09:44:45Z</time></trkpt><trkpt lat="36.98736758302456" lon="15.024820096629899"><ele>410.0</ele><time>2026-03-22T09:44:49Z</time></trkpt><trkpt lat="36.98742151670356" lon="15.024758520824001"><ele>410.0</ele><time>2026-03-22T09:44:58Z</time></trkpt><trkpt lat="36.98747450340455" lon="15.024710673282062"><ele>410.0</ele><time>2026-03-22T09:44:59Z</time></trkpt><trkpt lat="36.987523520259266" lon="15.02463725061246"><ele>410.0</ele><time>2026-03-22T09:45:00Z</time></trkpt><trkpt lat="36.98759417589271" lon="15.02456262158557"><ele>410.0</ele><time>2026-03-22T09:45:01Z</time></trkpt><trkpt lat="36.9876871122664" lon="15.024504652557596"><ele>409.3333333333333</ele><time>2026-03-22T09:45:02Z</time></trkpt><trkpt lat="36.987840118868455" lon="15.024432590730626"><ele>408.66666666666663</ele><time>2026-03-22T09:45:03Z</time></trkpt><trkpt lat="36.98799310269141" lon="15.024355877986176"><ele>408.0</ele><time>2026-03-22T09:45:04Z</time></trkpt><trkpt lat="36.98812860369532" lon="15.02424246047833"><ele>408.0</ele><time>2026-03-22T09:45:05Z</time></trkpt><trkpt lat="36.98821949169111" lon="15.024154245754044"><ele>408.0</ele><time>2026-03-22T09:45:06Z</time></trkpt><trkpt lat="36.9883137037224" lon="15.024088862015477"><ele>408.0</ele><time>2026-03-22T09:45:07Z</time></trkpt><trkpt lat="36.98839620519918" lon="15.02401984481508"><ele>408.0</ele><time>2026-03-22T09:45:08Z</time></trkpt><trkpt lat="36.98846135901653" lon="15.023963573182192"><ele>408.0</ele><time>2026-03-22T09:45:09Z</time></trkpt><trkpt lat="36.98855603192521" lon="15.023929388802559"><ele>409.79999999999995</ele><time>2026-03-22T09:45:10Z</time></trkpt><trkpt lat="36.988661155439324" lon="15.023876107269167"><ele>411.6</ele><time>2026-03-22T09:45:11Z</time></trkpt><trkpt lat="36.98871523526299" lon="15.023826816941254"><ele>413.4</ele><time>2026-03-22T09:45:12Z</time></trkpt><trkpt lat="36.98883381229716" lon="15.023759696607456"><ele>415.20000000000005</ele><time>2026-03-22T09:45:14Z</time></trkpt><trkpt lat="36.98892755764116" lon="15.023753759033436"><ele>417.0</ele><time>2026-03-22T09:45:15Z</time></trkpt><trkpt lat="36.98899063461737" lon="15.023725093950032"><ele>417.0</ele><time>2026-03-22T09:45:16Z</time></trkpt><trkpt lat="36.989073989495246" lon="15.023677969475592"><ele>417.0</ele><time>2026-03-22T09:45:17Z</time></trkpt><trkpt lat="36.9891664653434" lon="15.023662402572077"><ele>417.0</ele><time>2026-03-22T09:45:18Z</time></trkpt><trkpt lat="36.98924292345669" lon="15.023663348066295"><ele>417.0</ele><time>2026-03-22T09:45:19Z</time></trkpt><trkpt lat="36.989311412425984" lon="15.023666130111845"><ele>417.0</ele><time>2026-03-22T09:45:20Z</time></trkpt><trkpt lat="36.98938286237554" lon="15.023667617530686"><ele>417.0</ele><time>2026-03-22T09:45:22Z</time></trkpt><trkpt lat="36.98945325372314" lon="15.023693460621537"><ele>417.20000000000005</ele><time>2026-03-22T09:45:23Z</time></trkpt><trkpt lat="36.9895579370855" lon="15.023685578094714"><ele>417.4</ele><time>2026-03-22T09:45:26Z</time></trkpt><trkpt lat="36.98963964066985" lon="15.023698534637536"><ele>417.6</ele><time>2026-03-22T09:45:28Z</time></trkpt><trkpt lat="36.98971763813817" lon="15.023731353982694"><ele>417.79999999999995</ele><time>2026-03-22T09:45:31Z</time></trkpt><trkpt lat="36.98979241209313" lon="15.023765577530046"><ele>418.0</ele><time>2026-03-22T09:45:33Z</time></trkpt><trkpt lat="36.989901069318464" lon="15.023795872543044"><ele>418.0</ele><time>2026-03-22T09:46:16Z</time></trkpt><trkpt lat="36.98996261881553" lon="15.02383682384892"><ele>418.0</ele><time>2026-03-22T09:46:17Z</time></trkpt><trkpt lat="36.990005117602806" lon="15.023964115403835"><ele>418.0</ele><time>2026-03-22T09:46:19Z</time></trkpt><trkpt lat="36.99007422990716" lon="15.024062600777217"><ele>418.0</ele><time>2026-03-22T09:46:21Z</time></trkpt><trkpt lat="36.99014034696874" lon="15.024111462091124"><ele>418.0</ele><time>2026-03-22T09:46:22Z</time></trkpt><trkpt lat="36.990213645950845" lon="15.02418426992331"><ele>416.79999999999995</ele><time>2026-03-22T09:46:23Z</time></trkpt><trkpt lat="36.99027493678863" lon="15.024237362867584"><ele>415.6</ele><time>2026-03-22T09:46:24Z</time></trkpt><trkpt lat="36.99033428737072" lon="15.024278359850795"><ele>414.4</ele><time>2026-03-22T09:46:25Z</time></trkpt><trkpt lat="36.99044583896034" lon="15.024247231329408"><ele>413.20000000000005</ele><time>2026-03-22T09:46:26Z</time></trkpt><trkpt lat="36.99058150713274" lon="15.024248578543801"><ele>412.0</ele><time>2026-03-22T09:46:27Z</time></trkpt><trkpt lat="36.99065736686461" lon="15.024255034079042"><ele>412.0</ele><time>2026-03-22T09:46:28Z</time></trkpt><trkpt lat="36.99073391893756" lon="15.024198730220121"><ele>412.0</ele><time>2026-03-22T09:46:30Z</time></trkpt><trkpt lat="36.99080093704314" lon="15.024145196464854"><ele>412.0</ele><time>2026-03-22T09:46:33Z</time></trkpt><trkpt lat="36.99088400115458" lon="15.024128661930371"><ele>412.0</ele><time>2026-03-22T09:46:37Z</time></trkpt><trkpt lat="36.99095567172893" lon="15.02407756039439"><ele>412.0</ele><time>2026-03-22T09:46:38Z</time></trkpt><trkpt lat="36.991122212005465" lon="15.024013772142084"><ele>412.6666666666667</ele><time>2026-03-22T09:46:42Z</time></trkpt><trkpt lat="36.99118793141607" lon="15.024049807782603"><ele>413.33333333333337</ele><time>2026-03-22T09:46:46Z</time></trkpt><trkpt lat="36.99127642022832" lon="15.024076224923835"><ele>414.0</ele><time>2026-03-22T09:46:51Z</time></trkpt><trkpt lat="36.99138096937463" lon="15.024065594246029"><ele>414.66666666666663</ele><time>2026-03-22T09:46:54Z</time></trkpt><trkpt lat="36.99144976240813" lon="15.024023964976564"><ele>415.3333333333333</ele><time>2026-03-22T09:46:56Z</time></trkpt><trkpt lat="36.99152448285625" lon="15.024043774157285"><ele>416.0</ele><time>2026-03-22T09:46:58Z</time></trkpt><trkpt lat="36.99158149127792" lon="15.02400100234323"><ele>415.99999999999994</ele><time>2026-03-22T09:47:01Z</time></trkpt><trkpt lat="36.99165155859881" lon="15.023927468799092"><ele>416.0</ele><time>2026-03-22T09:47:03Z</time></trkpt><trkpt lat="36.991689071006654" lon="15.023811438673333"><ele>416.0</ele><time>2026-03-22T09:47:05Z</time></trkpt><trkpt lat="36.99169850565454" lon="15.02371612955158"><ele>416.0</ele><time>2026-03-22T09:47:07Z</time></trkpt><trkpt lat="36.99176521921782" lon="15.023629803228662"><ele>415.99999999999994</ele><time>2026-03-22T09:47:09Z</time></trkpt><trkpt lat="36.99184058047152" lon="15.023605090249168"><ele>416.0</ele><time>2026-03-22T09:47:11Z</time></trkpt><trkpt lat="36.99182792866446" lon="15.023516659737545"><ele>415.20000000000005</ele><time>2026-03-22T09:47:15Z</time></trkpt><trkpt lat="36.99178137928354" lon="15.02344225388154"><ele>414.40000000000003</ele><time>2026-03-22T09:47:20Z</time></trkpt><trkpt lat="36.991752994263926" lon="15.02333307607434"><ele>413.6</ele><time>2026-03-22T09:47:23Z</time></trkpt><trkpt lat="36.991724272573116" lon="15.023226947693008"><ele>412.8</ele><time>2026-03-22T09:47:26Z</time></trkpt><trkpt lat="36.991772771202356" lon="15.023128280281986"><ele>412.0</ele><time>2026-03-22T09:48:13Z</time></trkpt><trkpt lat="36.991743053604836" lon="15.023006434014187"><ele>412.00000000000006</ele><time>2026-03-22T09:48:21Z</time></trkpt><trkpt lat="36.99167524708704" lon="15.022907639839323"><ele>412.0</ele><time>2026-03-22T09:48:23Z</time></trkpt><trkpt lat="36.991726234680996" lon="15.022857123933166"><ele>412.0</ele><time>2026-03-22T09:48:32Z</time></trkpt><trkpt lat="36.991758108754674" lon="15.022787829295662"><ele>412.0</ele><time>2026-03-22T09:48:36Z</time></trkpt><trkpt lat="36.99171918871073" lon="15.022679443256532"><ele>412.00000000000006</ele><time>2026-03-22T09:49:06Z</time></trkpt><trkpt lat="36.99167976573071" lon="15.022615777227873"><ele>412.0</ele><time>2026-03-22T09:50:17Z</time></trkpt><trkpt lat="36.99174126681482" lon="15.022591464355406"><ele>412.0</ele><time>2026-03-22T09:52:57Z</time></trkpt><trkpt lat="36.99175834645309" lon="15.022508881825551"><ele>412.0</ele><time>2026-03-22T09:53:02Z</time></trkpt><trkpt lat="36.99173762133573" lon="15.022432327746735"><ele>412.0</ele><time>2026-03-22T09:53:21Z</time></trkpt><trkpt lat="36.99171683506757" lon="15.022188767496544"><ele>412.0</ele><time>2026-03-22T09:53:52Z</time></trkpt><trkpt lat="36.9916968677067" lon="15.022109199010442"><ele>412.0</ele><time>2026-03-22T09:53:57Z</time></trkpt><trkpt lat="36.99172937780977" lon="15.021994825376188"><ele>413.1428571428571</ele><time>2026-03-22T09:54:13Z</time></trkpt><trkpt lat="36.99173892486244" lon="15.021891195621473"><ele>414.2857142857143</ele><time>2026-03-22T09:54:16Z</time></trkpt><trkpt lat="36.991723983995755" lon="15.021785691073747"><ele>415.42857142857144</ele><time>2026-03-22T09:54:19Z</time></trkpt><trkpt lat="36.99173034672818" lon="15.021698473862383"><ele>416.57142857142856</ele><time>2026-03-22T09:54:21Z</time></trkpt><trkpt lat="36.991718707696855" lon="15.02161046072339"><ele>417.7142857142857</ele><time>2026-03-22T09:54:23Z</time></trkpt><trkpt lat="36.99171175390009" lon="15.021529171867913"><ele>418.85714285714283</ele><time>2026-03-22T09:54:25Z</time></trkpt><trkpt lat="36.99167909926216" lon="15.021454531682238"><ele>420.0</ele><time>2026-03-22T09:54:28Z</time></trkpt><trkpt lat="36.991539966896184" lon="15.021377511449739"><ele>421.0</ele><time>2026-03-22T09:55:24Z</time></trkpt><trkpt lat="36.99160839198401" lon="15.021344830188925"><ele>422.0</ele><time>2026-03-22T09:55:47Z</time></trkpt><trkpt lat="36.99166603303754" lon="15.021387988081813"><ele>423.0</ele><time>2026-03-22T09:55:55Z</time></trkpt><trkpt lat="36.99156618819753" lon="15.021385445887159"><ele>424.0</ele><time>2026-03-22T09:56:21Z</time></trkpt><trkpt lat="36.99149651081521" lon="15.021367930681548"><ele>425.0</ele><time>2026-03-22T09:56:23Z</time></trkpt><trkpt lat="36.99156491048359" lon="15.021336780404344"><ele>426.0</ele><time>2026-03-22T09:56:55Z</time></trkpt><trkpt lat="36.99155952483848" lon="15.021256197742265"><ele>427.0</ele><time>2026-03-22T09:57:03Z</time></trkpt><trkpt lat="36.99153935635673" lon="15.021166820793285"><ele>427.00000000000006</ele><time>2026-03-22T09:57:08Z</time></trkpt><trkpt lat="36.99160897734896" lon="15.021144836722087"><ele>427.0</ele><time>2026-03-22T09:57:12Z</time></trkpt><trkpt lat="36.99164263279198" lon="15.021218331541025"><ele>427.0</ele><time>2026-03-22T09:57:17Z</time></trkpt><trkpt lat="36.99165203101863" lon="15.021309275149822"><ele>427.0</ele><time>2026-03-22T09:57:20Z</time></trkpt><trkpt lat="36.991590794620826" lon="15.021372924417015"><ele>427.00000000000006</ele><time>2026-03-22T09:58:11Z</time></trkpt><trkpt lat="36.99153555403081" lon="15.021286850116189"><ele>427.0</ele><time>2026-03-22T09:58:22Z</time></trkpt><trkpt lat="36.99153077648871" lon="15.021199661304507"><ele>427.0</ele><time>2026-03-22T09:58:28Z</time></trkpt><trkpt lat="36.99159749681432" lon="15.02121192851923"><ele>427.0</ele><time>2026-03-22T09:58:30Z</time></trkpt><trkpt lat="36.99161789321815" lon="15.021289683969126"><ele>427.0</ele><time>2026-03-22T09:58:33Z</time></trkpt><trkpt lat="36.991656392577035" lon="15.021352896858108"><ele>427.0</ele><time>2026-03-22T09:58:36Z</time></trkpt><trkpt lat="36.991597429284326" lon="15.02139217789049"><ele>427.0</ele><time>2026-03-22T09:59:25Z</time></trkpt><trkpt lat="36.99153328396783" lon="15.021378750435403"><ele>427.0</ele><time>2026-03-22T09:59:26Z</time></trkpt><trkpt lat="36.99163412640235" lon="15.021356143269157"><ele>427.0</ele><time>2026-03-22T10:00:57Z</time></trkpt><trkpt lat="36.99163234567205" lon="15.021276728317655"><ele>427.0</ele><time>2026-03-22T10:01:37Z</time></trkpt><trkpt lat="36.99163983457492" lon="15.021191948353886"><ele>427.0</ele><time>2026-03-22T10:01:48Z</time></trkpt><trkpt lat="36.99166623404159" lon="15.021099071756582"><ele>427.0</ele><time>2026-03-22T10:01:59Z</time></trkpt><trkpt lat="36.991628089344594" lon="15.02103248983645"><ele>427.0</ele><time>2026-03-22T10:02:03Z</time></trkpt><trkpt lat="36.99163032879177" lon="15.020946979351994"><ele>427.0</ele><time>2026-03-22T10:02:05Z</time></trkpt><trkpt lat="36.99164433024376" lon="15.020837635603703"><ele>427.0</ele><time>2026-03-22T10:02:08Z</time></trkpt><trkpt lat="36.9916284077112" lon="15.020748292690874"><ele>427.0</ele><time>2026-03-22T10:02:13Z</time></trkpt><trkpt lat="36.991588157420466" lon="15.020680491969335"><ele>427.0</ele><time>2026-03-22T10:02:15Z</time></trkpt><trkpt lat="36.99160718096204" lon="15.020588807980317"><ele>427.0</ele><time>2026-03-22T10:02:18Z</time></trkpt><trkpt lat="36.99165399562201" lon="15.020530107025687"><ele>427.0</ele><time>2026-03-22T10:02:21Z</time></trkpt><trkpt lat="36.99167246215955" lon="15.020448031612482"><ele>427.0</ele><time>2026-03-22T10:02:24Z</time></trkpt><trkpt lat="36.99165012731481" lon="15.02035846454589"><ele>427.0</ele><time>2026-03-22T10:02:26Z</time></trkpt><trkpt lat="36.991658447556944" lon="15.020272063033284"><ele>427.0</ele><time>2026-03-22T10:02:34Z</time></trkpt><trkpt lat="36.99163056262473" lon="15.020171265328592"><ele>427.0</ele><time>2026-03-22T10:02:38Z</time></trkpt><trkpt lat="36.99160181737563" lon="15.02009410351062"><ele>427.0</ele><time>2026-03-22T10:02:41Z</time></trkpt><trkpt lat="36.99160801995364" lon="15.019991468498096"><ele>427.00000000000006</ele><time>2026-03-22T10:02:44Z</time></trkpt><trkpt lat="36.99158226699891" lon="15.019897017252207"><ele>427.00000000000006</ele><time>2026-03-22T10:02:46Z</time></trkpt><trkpt lat="36.991567195065194" lon="15.019803880467641"><ele>427.0</ele><time>2026-03-22T10:02:48Z</time></trkpt><trkpt lat="36.991553170851105" lon="15.019714530206558"><ele>427.0</ele><time>2026-03-22T10:02:51Z</time></trkpt><trkpt lat="36.99150334858394" lon="15.019529552206077"><ele>427.0</ele><time>2026-03-22T10:03:40Z</time></trkpt><trkpt lat="36.99148507538176" lon="15.019451646975641"><ele>427.0</ele><time>2026-03-22T10:04:25Z</time></trkpt><trkpt lat="36.991458910440215" lon="15.019370562531154"><ele>427.0</ele><time>2026-03-22T10:04:32Z</time></trkpt><trkpt lat="36.991429085651475" lon="15.019292513309322"><ele>427.0</ele><time>2026-03-22T10:04:40Z</time></trkpt><trkpt lat="36.9914208037831" lon="15.01921425745152"><ele>427.0</ele><time>2026-03-22T10:06:10Z</time></trkpt><trkpt lat="36.991413309663216" lon="15.019127562440238"><ele>427.0</ele><time>2026-03-22T10:07:10Z</time></trkpt><trkpt lat="36.991388112847666" lon="15.019050197394773"><ele>427.0</ele><time>2026-03-22T10:07:17Z</time></trkpt><trkpt lat="36.99135822399939" lon="15.018971248893482"><ele>427.6666666666667</ele><time>2026-03-22T10:07:21Z</time></trkpt><trkpt lat="36.99134611839016" lon="15.018863001697317"><ele>428.33333333333337</ele><time>2026-03-22T10:07:24Z</time></trkpt><trkpt lat="36.991344559618895" lon="15.018777285061303"><ele>429.0</ele><time>2026-03-22T10:07:26Z</time></trkpt><trkpt lat="36.99128892633445" lon="15.018720672896723"><ele>429.66666666666663</ele><time>2026-03-22T10:07:30Z</time></trkpt><trkpt lat="36.99124502091774" lon="15.01862152895798"><ele>430.3333333333333</ele><time>2026-03-22T10:07:34Z</time></trkpt><trkpt lat="36.99124816581175" lon="15.018529849250918"><ele>431.0</ele><time>2026-03-22T10:07:45Z</time></trkpt><trkpt lat="36.99124537305268" lon="15.018424713257673"><ele>431.0</ele><time>2026-03-22T10:10:05Z</time></trkpt><trkpt lat="36.99121658977434" lon="15.01834703342885"><ele>431.0</ele><time>2026-03-22T10:10:07Z</time></trkpt><trkpt lat="36.99124305356193" lon="15.018272324042663"><ele>431.0</ele><time>2026-03-22T10:10:11Z</time></trkpt><trkpt lat="36.99123326189096" lon="15.018187287885736"><ele>431.0</ele><time>2026-03-22T10:10:27Z</time></trkpt><trkpt lat="36.99128244075276" lon="15.018124165297696"><ele>431.0</ele><time>2026-03-22T10:10:33Z</time></trkpt><trkpt lat="36.99122911572239" lon="15.018043133974633"><ele>431.0</ele><time>2026-03-22T10:17:29Z</time></trkpt><trkpt lat="36.99131161453805" lon="15.01804194659073"><ele>431.0</ele><time>2026-03-22T10:25:32Z</time></trkpt><trkpt lat="36.991264305913624" lon="15.017984407375565"><ele>431.14285714285717</ele><time>2026-03-22T10:25:42Z</time></trkpt><trkpt lat="36.99123232763973" lon="15.017911836581382"><ele>431.2857142857143</ele><time>2026-03-22T10:26:13Z</time></trkpt><trkpt lat="36.991173315659616" lon="15.01786902795904"><ele>431.42857142857144</ele><time>2026-03-22T10:26:27Z</time></trkpt><trkpt lat="36.991121298870056" lon="15.017946446536438"><ele>431.57142857142856</ele><time>2026-03-22T10:32:01Z</time></trkpt><trkpt lat="36.99118482183543" lon="15.017921144067902"><ele>431.71428571428567</ele><time>2026-03-22T10:32:45Z</time></trkpt><trkpt lat="36.99120921752883" lon="15.017838666002914"><ele>431.85714285714283</ele><time>2026-03-22T10:32:57Z</time></trkpt><trkpt lat="36.991243213110984" lon="15.017770660817058"><ele>432.0</ele><time>2026-03-22T10:33:13Z</time></trkpt><trkpt lat="36.99128108731568" lon="15.017705125918466"><ele>432.0</ele><time>2026-03-22T10:33:28Z</time></trkpt><trkpt lat="36.9913900238906" lon="15.017680822789558"><ele>432.0</ele><time>2026-03-22T10:34:59Z</time></trkpt><trkpt lat="36.99145992233125" lon="15.017729395530152"><ele>432.0</ele><time>2026-03-22T10:35:39Z</time></trkpt><trkpt lat="36.991504923984834" lon="15.017662986208615"><ele>432.0</ele><time>2026-03-22T10:35:49Z</time></trkpt><trkpt lat="36.99151476916074" lon="15.017583958662177"><ele>432.0</ele><time>2026-03-22T10:37:14Z</time></trkpt><trkpt lat="36.991528179096385" lon="15.017499044528316"><ele>432.0</ele><time>2026-03-22T10:37:23Z</time></trkpt><trkpt lat="36.991548845130204" lon="15.017423741147342"><ele>432.1428571428571</ele><time>2026-03-22T10:37:28Z</time></trkpt><trkpt lat="36.991555771350946" lon="15.017331843866366"><ele>432.2857142857143</ele><time>2026-03-22T10:37:32Z</time></trkpt><trkpt lat="36.991567877681895" lon="15.017249936232755"><ele>432.42857142857144</ele><time>2026-03-22T10:37:39Z</time></trkpt><trkpt lat="36.99160992403093" lon="15.01715080383962"><ele>432.57142857142856</ele><time>2026-03-22T10:40:06Z</time></trkpt><trkpt lat="36.99162198806707" lon="15.017060980132639"><ele>432.7142857142857</ele><time>2026-03-22T10:40:08Z</time></trkpt><trkpt lat="36.9916244090527" lon="15.01697365249468"><ele>432.85714285714283</ele><time>2026-03-22T10:40:10Z</time></trkpt><trkpt lat="36.99166322069258" lon="15.016909580699753"><ele>433.0</ele><time>2026-03-22T10:44:56Z</time></trkpt><trkpt lat="36.991632998991925" lon="15.016831002865695"><ele>433.00000000000006</ele><time>2026-03-22T10:45:47Z</time></trkpt><trkpt lat="36.99163700325859" lon="15.01674596799674"><ele>433.0</ele><time>2026-03-22T10:46:06Z</time></trkpt><trkpt lat="36.99172798359461" lon="15.016725338140498"><ele>433.0</ele><time>2026-03-22T10:47:53Z</time></trkpt><trkpt lat="36.991806433176805" lon="15.016675518738735"><ele>433.0</ele><time>2026-03-22T10:48:20Z</time></trkpt><trkpt lat="36.991865282001775" lon="15.016646277371539"><ele>433.00000000000006</ele><time>2026-03-22T10:48:29Z</time></trkpt><trkpt lat="36.99192567634701" lon="15.016678818478008"><ele>433.0</ele><time>2026-03-22T10:48:35Z</time></trkpt><trkpt lat="36.99198624539407" lon="15.016728759774216"><ele>434.4</ele><time>2026-03-22T10:48:41Z</time></trkpt><trkpt lat="36.992093719869764" lon="15.016783039413541"><ele>435.79999999999995</ele><time>2026-03-22T10:48:47Z</time></trkpt><trkpt lat="36.992151028533165" lon="15.016855411426791"><ele>437.2</ele><time>2026-03-22T10:48:49Z</time></trkpt><trkpt lat="36.99225112189013" lon="15.016921946779147"><ele>438.6</ele><time>2026-03-22T10:48:53Z</time></trkpt><trkpt lat="36.99231145018892" lon="15.01701523343622"><ele>440.0</ele><time>2026-03-22T10:48:55Z</time></trkpt><trkpt lat="36.99245319734119" lon="15.017094092501626"><ele>440.0</ele><time>2026-03-22T10:49:53Z</time></trkpt><trkpt lat="36.992580008034366" lon="15.017117882401692"><ele>440.0</ele><time>2026-03-22T10:49:55Z</time></trkpt><trkpt lat="36.99269023666673" lon="15.017135482255409"><ele>440.0</ele><time>2026-03-22T10:49:57Z</time></trkpt><trkpt lat="36.99278056415172" lon="15.017161405578486"><ele>440.0</ele><time>2026-03-22T10:49:59Z</time></trkpt><trkpt lat="36.99286359236642" lon="15.017170043068196"><ele>440.0</ele><time>2026-03-22T10:50:01Z</time></trkpt><trkpt lat="36.99292480360963" lon="15.017144176548967"><ele>439.99999999999994</ele><time>2026-03-22T10:50:03Z</time></trkpt><trkpt lat="36.99299442420909" lon="15.017075944977597"><ele>440.0</ele><time>2026-03-22T10:50:05Z</time></trkpt><trkpt lat="36.9930658515735" lon="15.017004603392543"><ele>440.0</ele><time>2026-03-22T10:50:07Z</time></trkpt><trkpt lat="36.99315803382419" lon="15.017031622948975"><ele>440.0</ele><time>2026-03-22T10:50:09Z</time></trkpt><trkpt lat="36.993208382353075" lon="15.017082101772894"><ele>439.99999999999994</ele><time>2026-03-22T10:50:10Z</time></trkpt><trkpt lat="36.99325907953444" lon="15.017154466569112"><ele>440.0</ele><time>2026-03-22T10:50:11Z</time></trkpt><trkpt lat="36.993315772064356" lon="15.017230383199369"><ele>439.99999999999994</ele><time>2026-03-22T10:50:12Z</time></trkpt><trkpt lat="36.99337883824869" lon="15.017296214482812"><ele>440.0</ele><time>2026-03-22T10:50:13Z</time></trkpt><trkpt lat="36.99345027829806" lon="15.017356786050627"><ele>440.0</ele><time>2026-03-22T10:50:14Z</time></trkpt><trkpt lat="36.99352229441637" lon="15.017410636789162"><ele>440.0</ele><time>2026-03-22T10:50:15Z</time></trkpt><trkpt lat="36.99359214477642" lon="15.017470623211482"><ele>439.99999999999994</ele><time>2026-03-22T10:50:16Z</time></trkpt><trkpt lat="36.99365121050926" lon="15.017544259558154"><ele>440.0</ele><time>2026-03-22T10:50:17Z</time></trkpt><trkpt lat="36.99371528473873" lon="15.01759940984998"><ele>439.8333333333333</ele><time>2026-03-22T10:50:18Z</time></trkpt><trkpt lat="36.9937899553323" lon="15.0176279992717"><ele>439.66666666666663</ele><time>2026-03-22T10:50:19Z</time></trkpt><trkpt lat="36.993869777740215" lon="15.017651964961702"><ele>439.5</ele><time>2026-03-22T10:50:20Z</time></trkpt><trkpt lat="36.99395490236359" lon="15.017688669055863"><ele>439.33333333333337</ele><time>2026-03-22T10:50:21Z</time></trkpt><trkpt lat="36.994035348544735" lon="15.017731310649207"><ele>439.1666666666667</ele><time>2026-03-22T10:50:22Z</time></trkpt><trkpt lat="36.99409291222819" lon="15.01777008039501"><ele>439.0</ele><time>2026-03-22T10:50:23Z</time></trkpt><trkpt lat="36.99410007879175" lon="15.017876941149261"><ele>439.00000000000006</ele><time>2026-03-22T10:50:25Z</time></trkpt><trkpt lat="36.99410139790887" lon="15.01797231167553"><ele>439.0</ele><time>2026-03-22T10:50:26Z</time></trkpt><trkpt lat="36.99411617089222" lon="15.018063763308806"><ele>439.0</ele><time>2026-03-22T10:50:27Z</time></trkpt><trkpt lat="36.9941427174674" lon="15.018147068246229"><ele>439.0</ele><time>2026-03-22T10:50:28Z</time></trkpt><trkpt lat="36.99417022507368" lon="15.018228870044165"><ele>439.00000000000006</ele><time>2026-03-22T10:50:29Z</time></trkpt><trkpt lat="36.99419685339209" lon="15.01832152792338"><ele>439.0</ele><time>2026-03-22T10:50:30Z</time></trkpt><trkpt lat="36.99422697316117" lon="15.018422543947874"><ele>438.00000000000006</ele><time>2026-03-22T10:50:31Z</time></trkpt><trkpt lat="36.99427121173407" lon="15.018535004698451"><ele>437.0</ele><time>2026-03-22T10:50:32Z</time></trkpt><trkpt lat="36.99432037573611" lon="15.018630641790116"><ele>436.0</ele><time>2026-03-22T10:50:33Z</time></trkpt><trkpt lat="36.994370236087555" lon="15.018701649937336"><ele>435.0</ele><time>2026-03-22T10:50:34Z</time></trkpt><trkpt lat="36.9944282280598" lon="15.018769741677623"><ele>434.00000000000006</ele><time>2026-03-22T10:50:35Z</time></trkpt><trkpt lat="36.994478247968786" lon="15.01882622848415"><ele>433.0</ele><time>2026-03-22T10:50:36Z</time></trkpt><trkpt lat="36.9945836581057" lon="15.018863398071435"><ele>433.00000000000006</ele><time>2026-03-22T10:50:38Z</time></trkpt><trkpt lat="36.994678096443316" lon="15.018825259961325"><ele>433.0</ele><time>2026-03-22T10:50:40Z</time></trkpt><trkpt lat="36.994733023228356" lon="15.018775384737872"><ele>433.0</ele><time>2026-03-22T10:50:41Z</time></trkpt><trkpt lat="36.99480318293587" lon="15.018717090862173"><ele>433.0</ele><time>2026-03-22T10:50:42Z</time></trkpt><trkpt lat="36.99487338360527" lon="15.018649128038476"><ele>433.00000000000006</ele><time>2026-03-22T10:50:43Z</time></trkpt><trkpt lat="36.994944915889604" lon="15.01859662380286"><ele>433.0</ele><time>2026-03-22T10:50:44Z</time></trkpt><trkpt lat="36.995016712612916" lon="15.018542506160339"><ele>431.83333333333337</ele><time>2026-03-22T10:50:45Z</time></trkpt><trkpt lat="36.995067478028346" lon="15.018493293132513"><ele>430.6666666666667</ele><time>2026-03-22T10:50:46Z</time></trkpt><trkpt lat="36.995132749411404" lon="15.018509151994474"><ele>429.5</ele><time>2026-03-22T10:50:50Z</time></trkpt><trkpt lat="36.99512440920456" lon="15.0185935302446"><ele>428.33333333333337</ele><time>2026-03-22T10:50:52Z</time></trkpt><trkpt lat="36.995124867731924" lon="15.018725394221315"><ele>427.1666666666667</ele><time>2026-03-22T10:50:54Z</time></trkpt><trkpt lat="36.99513677088691" lon="15.018872142956143"><ele>426.0</ele><time>2026-03-22T10:50:56Z</time></trkpt><trkpt lat="36.99517692227873" lon="15.01900181758135"><ele>426.0</ele><time>2026-03-22T10:50:58Z</time></trkpt><trkpt lat="36.99521156364626" lon="15.019136592077974"><ele>426.0</ele><time>2026-03-22T10:51:00Z</time></trkpt><trkpt lat="36.99519874423274" lon="15.019230984097758"><ele>426.0</ele><time>2026-03-22T10:51:02Z</time></trkpt><trkpt lat="36.995184262188964" lon="15.019318286994777"><ele>426.0</ele><time>2026-03-22T10:51:05Z</time></trkpt><trkpt lat="36.995203930582846" lon="15.01941190474179"><ele>426.0</ele><time>2026-03-22T10:51:08Z</time></trkpt><trkpt lat="36.99521895819935" lon="15.019520325141526"><ele>426.0</ele><time>2026-03-22T10:51:11Z</time></trkpt><trkpt lat="36.99527326792033" lon="15.019604488363491"><ele>425.20000000000005</ele><time>2026-03-22T10:51:14Z</time></trkpt><trkpt lat="36.99532905727274" lon="15.019717520631065"><ele>424.40000000000003</ele><time>2026-03-22T10:51:16Z</time></trkpt><trkpt lat="36.99538935200462" lon="15.01985073767202"><ele>423.6</ele><time>2026-03-22T10:51:18Z</time></trkpt><trkpt lat="36.99544274399657" lon="15.01996493660673"><ele>422.8</ele><time>2026-03-22T10:51:20Z</time></trkpt><trkpt lat="36.995494142644276" lon="15.020021082412867"><ele>422.0</ele><time>2026-03-22T10:51:21Z</time></trkpt><trkpt lat="36.99555895187185" lon="15.020097593534313"><ele>422.3333333333333</ele><time>2026-03-22T10:51:23Z</time></trkpt><trkpt lat="36.9955994977083" lon="15.020160270772974"><ele>422.66666666666663</ele><time>2026-03-22T10:51:26Z</time></trkpt><trkpt lat="36.99565492144728" lon="15.020118275470416"><ele>423.0</ele><time>2026-03-22T10:51:28Z</time></trkpt><trkpt lat="36.995708742421485" lon="15.02007107114854"><ele>423.33333333333337</ele><time>2026-03-22T10:51:30Z</time></trkpt><trkpt lat="36.995796177683445" lon="15.019995026958009"><ele>423.6666666666667</ele><time>2026-03-22T10:51:32Z</time></trkpt><trkpt lat="36.9958718941582" lon="15.019934869956748"><ele>424.0</ele><time>2026-03-22T10:51:34Z</time></trkpt><trkpt lat="36.995978732257115" lon="15.019893006247605"><ele>424.00000000000006</ele><time>2026-03-22T10:51:36Z</time></trkpt><trkpt lat="36.99607212341091" lon="15.01988663249931"><ele>424.0</ele><time>2026-03-22T10:51:38Z</time></trkpt><trkpt lat="36.99614317193482" lon="15.01987008831158"><ele>424.0</ele><time>2026-03-22T10:51:39Z</time></trkpt><trkpt lat="36.99620956850232" lon="15.019861584816196"><ele>424.0</ele><time>2026-03-22T10:51:40Z</time></trkpt><trkpt lat="36.9962821772293" lon="15.019845643588237"><ele>424.00000000000006</ele><time>2026-03-22T10:51:41Z</time></trkpt><trkpt lat="36.99638581741002" lon="15.019747162422771"><ele>424.0</ele><time>2026-03-22T10:51:43Z</time></trkpt><trkpt lat="36.996446195516626" lon="15.019653359692157"><ele>424.0</ele><time>2026-03-22T10:51:45Z</time></trkpt><trkpt lat="36.99651036544941" lon="15.019667580849575"><ele>424.0</ele><time>2026-03-22T10:51:47Z</time></trkpt><trkpt lat="36.99659561880738" lon="15.019656528491668"><ele>424.0</ele><time>2026-03-22T10:51:50Z</time></trkpt><trkpt lat="36.99670218072572" lon="15.019572316213415"><ele>424.0</ele><time>2026-03-22T10:51:52Z</time></trkpt><trkpt lat="36.99679275436389" lon="15.019543542430581"><ele>424.0</ele><time>2026-03-22T10:51:54Z</time></trkpt><trkpt lat="36.996894183881764" lon="15.01950869421813"><ele>423.79999999999995</ele><time>2026-03-22T10:51:57Z</time></trkpt><trkpt lat="36.996982517758674" lon="15.019446270250212"><ele>423.59999999999997</ele><time>2026-03-22T10:51:59Z</time></trkpt><trkpt lat="36.99707995720627" lon="15.01933860325207"><ele>423.4</ele><time>2026-03-22T10:52:01Z</time></trkpt><trkpt lat="36.997143527001406" lon="15.019274517771604"><ele>423.2</ele><time>2026-03-22T10:52:03Z</time></trkpt><trkpt lat="36.99721525444535" lon="15.019255297248495"><ele>423.0</ele><time>2026-03-22T10:52:05Z</time></trkpt><trkpt lat="36.997278725683465" lon="15.019236991897829"><ele>423.0</ele><time>2026-03-22T10:52:07Z</time></trkpt><trkpt lat="36.997357606051395" lon="15.019260978457593"><ele>423.0</ele><time>2026-03-22T10:52:10Z</time></trkpt><trkpt lat="36.99742082881045" lon="15.019264742941965"><ele>423.0</ele><time>2026-03-22T10:52:14Z</time></trkpt><trkpt lat="36.99747357333166" lon="15.019311049982553"><ele>423.0</ele><time>2026-03-22T10:52:16Z</time></trkpt><trkpt lat="36.997533428833464" lon="15.019275848904043"><ele>423.0</ele><time>2026-03-22T10:52:20Z</time></trkpt><trkpt lat="36.997626845872674" lon="15.019235089367951"><ele>423.0</ele><time>2026-03-22T10:52:22Z</time></trkpt><trkpt lat="36.99770593775331" lon="15.019187789950632"><ele>422.79999999999995</ele><time>2026-03-22T10:52:24Z</time></trkpt><trkpt lat="36.99781805212959" lon="15.019148256849707"><ele>422.6</ele><time>2026-03-22T10:52:27Z</time></trkpt><trkpt lat="36.997891711661055" lon="15.019046343285934"><ele>422.4</ele><time>2026-03-22T10:52:29Z</time></trkpt><trkpt lat="36.99795015933473" lon="15.018927084786366"><ele>422.20000000000005</ele><time>2026-03-22T10:52:31Z</time></trkpt><trkpt lat="36.998027692656834" lon="15.01883241474602"><ele>422.0</ele><time>2026-03-22T10:52:33Z</time></trkpt><trkpt lat="36.99812418769836" lon="15.01882629882575"><ele>421.99999999999994</ele><time>2026-03-22T10:52:35Z</time></trkpt><trkpt lat="36.9982093524573" lon="15.018789896403074"><ele>422.0</ele><time>2026-03-22T10:52:37Z</time></trkpt><trkpt lat="36.99829599484002" lon="15.018765535781178"><ele>422.0</ele><time>2026-03-22T10:52:45Z</time></trkpt><trkpt lat="36.998363174981186" lon="15.018746210348144"><ele>422.0</ele><time>2026-03-22T10:52:49Z</time></trkpt><trkpt lat="36.998433226793644" lon="15.018719856505822"><ele>421.99999999999994</ele><time>2026-03-22T10:52:52Z</time></trkpt><trkpt lat="36.99850333761285" lon="15.018700127176757"><ele>422.0</ele><time>2026-03-22T10:52:55Z</time></trkpt><trkpt lat="36.99858621919132" lon="15.018706590248883"><ele>424.42857142857144</ele><time>2026-03-22T10:53:00Z</time></trkpt><trkpt lat="36.99864956555215" lon="15.018718657679402"><ele>426.8571428571429</ele><time>2026-03-22T10:53:10Z</time></trkpt><trkpt lat="36.99869305451236" lon="15.018778999434657"><ele>429.2857142857143</ele><time>2026-03-22T10:58:05Z</time></trkpt><trkpt lat="36.998681789034585" lon="15.01888843596316"><ele>431.7142857142857</ele><time>2026-03-22T10:58:10Z</time></trkpt><trkpt lat="36.99864701967389" lon="15.018965993444587"><ele>434.1428571428571</ele><time>2026-03-22T10:58:13Z</time></trkpt><trkpt lat="36.998644397143316" lon="15.01904681470038"><ele>436.57142857142856</ele><time>2026-03-22T10:58:15Z</time></trkpt><trkpt lat="36.998652830096745" lon="15.01913354295475"><ele>439.0</ele><time>2026-03-22T10:58:17Z</time></trkpt><trkpt lat="36.998638452123316" lon="15.019253758746617"><ele>439.1666666666667</ele><time>2026-03-22T10:58:20Z</time></trkpt><trkpt lat="36.99869237231393" lon="15.019331348786038"><ele>439.33333333333337</ele><time>2026-03-22T10:58:22Z</time></trkpt><trkpt lat="36.99871551798641" lon="15.01941718602581"><ele>439.5</ele><time>2026-03-22T10:58:23Z</time></trkpt><trkpt lat="36.9987892923466" lon="15.01945021400085"><ele>439.66666666666663</ele><time>2026-03-22T10:58:25Z</time></trkpt><trkpt lat="36.99889383645089" lon="15.019487857998376"><ele>439.8333333333333</ele><time>2026-03-22T10:58:27Z</time></trkpt><trkpt lat="36.998984220340795" lon="15.019506702063726"><ele>440.0</ele><time>2026-03-22T10:58:29Z</time></trkpt><trkpt lat="36.99908653930984" lon="15.019466663659147"><ele>441.0</ele><time>2026-03-22T10:58:31Z</time></trkpt><trkpt lat="36.999196163603074" lon="15.019459748426089"><ele>442.0</ele><time>2026-03-22T10:58:33Z</time></trkpt><trkpt lat="36.99928757652147" lon="15.01944318504139"><ele>443.0</ele><time>2026-03-22T10:58:35Z</time></trkpt><trkpt lat="36.99941345994347" lon="15.019451018770097"><ele>444.0</ele><time>2026-03-22T10:58:37Z</time></trkpt><trkpt lat="36.99953455460524" lon="15.019501291049334"><ele>444.0</ele><time>2026-03-22T10:58:39Z</time></trkpt><trkpt lat="36.99960497436589" lon="15.019541670331293"><ele>444.0</ele><time>2026-03-22T10:58:40Z</time></trkpt><trkpt lat="36.99966642945765" lon="15.019579431983086"><ele>444.0</ele><time>2026-03-22T10:58:41Z</time></trkpt><trkpt lat="36.99972546788341" lon="15.019608338429805"><ele>444.0</ele><time>2026-03-22T10:58:42Z</time></trkpt><trkpt lat="36.99978368468085" lon="15.01964704431813"><ele>444.0</ele><time>2026-03-22T10:58:43Z</time></trkpt><trkpt lat="36.99988930381081" lon="15.01972197982389"><ele>444.0</ele><time>2026-03-22T10:58:45Z</time></trkpt><trkpt lat="36.999956492646234" lon="15.019757404037108"><ele>444.0</ele><time>2026-03-22T10:58:47Z</time></trkpt><trkpt lat="37.00003456124352" lon="15.01984344974827"><ele>444.0</ele><time>2026-03-22T10:58:49Z</time></trkpt><trkpt lat="37.00009087453459" lon="15.019886542952053"><ele>444.0</ele><time>2026-03-22T10:58:50Z</time></trkpt><trkpt lat="37.0001951480299" lon="15.019979424581186"><ele>444.0</ele><time>2026-03-22T10:58:51Z</time></trkpt><trkpt lat="37.00026492689886" lon="15.0200461333532"><ele>444.0</ele><time>2026-03-22T10:58:53Z</time></trkpt><trkpt lat="37.00031692737851" lon="15.020111408938172"><ele>444.0</ele><time>2026-03-22T10:58:55Z</time></trkpt><trkpt lat="37.000249163877385" lon="15.02014684119867"><ele>444.0</ele><time>2026-03-22T10:59:56Z</time></trkpt><trkpt lat="37.00013571943993" lon="15.020226749768051"><ele>444.0</ele><time>2026-03-22T10:59:58Z</time></trkpt><trkpt lat="37.000029366188734" lon="15.020280752487185"><ele>444.0</ele><time>2026-03-22T10:59:59Z</time></trkpt><trkpt lat="36.999870880140534" lon="15.020306755134142"><ele>444.0</ele><time>2026-03-22T11:00:00Z</time></trkpt><trkpt lat="36.99972866541192" lon="15.020397429035981"><ele>444.0</ele><time>2026-03-22T11:00:01Z</time></trkpt><trkpt lat="36.999570775988445" lon="15.020518220143886"><ele>444.0</ele><time>2026-03-22T11:00:02Z</time></trkpt><trkpt lat="36.999416224344664" lon="15.02065554636707"><ele>444.0</ele><time>2026-03-22T11:00:03Z</time></trkpt><trkpt lat="36.999269104555594" lon="15.020795922572807"><ele>444.0</ele><time>2026-03-22T11:00:04Z</time></trkpt><trkpt lat="36.999114120394914" lon="15.020948039068662"><ele>444.0</ele><time>2026-03-22T11:00:05Z</time></trkpt><trkpt lat="36.99895616290289" lon="15.021101344364283"><ele>444.0</ele><time>2026-03-22T11:00:06Z</time></trkpt><trkpt lat="36.99879522756905" lon="15.021256314974412"><ele>444.0</ele><time>2026-03-22T11:00:07Z</time></trkpt><trkpt lat="36.998632622047225" lon="15.021412893886618"><ele>444.0</ele><time>2026-03-22T11:00:08Z</time></trkpt><trkpt lat="36.99845366027336" lon="15.021586404782939"><ele>443.5</ele><time>2026-03-22T11:00:09Z</time></trkpt><trkpt lat="36.998255017512164" lon="15.021779116649904"><ele>443.0</ele><time>2026-03-22T11:00:10Z</time></trkpt><trkpt lat="36.99805555901209" lon="15.021972858288681"><ele>443.0</ele><time>2026-03-22T11:00:11Z</time></trkpt><trkpt lat="36.99786118612064" lon="15.022161963398936"><ele>443.0</ele><time>2026-03-22T11:00:12Z</time></trkpt><trkpt lat="36.997672386757216" lon="15.022345646044785"><ele>443.0</ele><time>2026-03-22T11:00:13Z</time></trkpt><trkpt lat="36.99748529227692" lon="15.022527670020962"><ele>443.0</ele><time>2026-03-22T11:00:14Z</time></trkpt><trkpt lat="36.99728661885332" lon="15.022720585149806"><ele>443.0</ele><time>2026-03-22T11:00:15Z</time></trkpt><trkpt lat="36.99710013714697" lon="15.022901251961049"><ele>443.0</ele><time>2026-03-22T11:00:16Z</time></trkpt><trkpt lat="36.996890867485725" lon="15.023103996139303"><ele>443.0</ele><time>2026-03-22T11:00:17Z</time></trkpt><trkpt lat="36.996690716788656" lon="15.023297905715358"><ele>443.0</ele><time>2026-03-22T11:00:18Z</time></trkpt><trkpt lat="36.996495084362515" lon="15.023487437898877"><ele>442.0</ele><time>2026-03-22T11:00:19Z</time></trkpt><trkpt lat="36.996303613814334" lon="15.023672554882037"><ele>441.0</ele><time>2026-03-22T11:00:20Z</time></trkpt><trkpt lat="36.99610524805881" lon="15.023863495018285"><ele>441.0</ele><time>2026-03-22T11:00:21Z</time></trkpt><trkpt lat="36.995913165889206" lon="15.024048386784155"><ele>441.0</ele><time>2026-03-22T11:00:22Z</time></trkpt><trkpt lat="36.995725273195305" lon="15.024229245897832"><ele>441.33333333333337</ele><time>2026-03-22T11:00:23Z</time></trkpt><trkpt lat="36.99554191650645" lon="15.024406151870263"><ele>441.6666666666667</ele><time>2026-03-22T11:00:24Z</time></trkpt><trkpt lat="36.995368501275834" lon="15.024571095056976"><ele>442.0</ele><time>2026-03-22T11:00:25Z</time></trkpt><trkpt lat="36.9951872479877" lon="15.024731652215275"><ele>442.0</ele><time>2026-03-22T11:00:26Z</time></trkpt><trkpt lat="36.9949923616052" lon="15.024872348075915"><ele>442.0</ele><time>2026-03-22T11:00:27Z</time></trkpt><trkpt lat="36.994793769041316" lon="15.024969693052403"><ele>442.0</ele><time>2026-03-22T11:00:28Z</time></trkpt><trkpt lat="36.994584524256254" lon="15.025033920810154"><ele>442.0</ele><time>2026-03-22T11:00:29Z</time></trkpt><trkpt lat="36.99436525426406" lon="15.025096362588856"><ele>442.0</ele><time>2026-03-22T11:00:30Z</time></trkpt><trkpt lat="36.994127401531784" lon="15.025164235228546"><ele>441.5</ele><time>2026-03-22T11:00:31Z</time></trkpt><trkpt lat="36.993894007585844" lon="15.025230806966041"><ele>441.0</ele><time>2026-03-22T11:00:32Z</time></trkpt><trkpt lat="36.993651122833825" lon="15.025303081742555"><ele>441.0</ele><time>2026-03-22T11:00:33Z</time></trkpt><trkpt lat="36.99339886673438" lon="15.025377823821536"><ele>441.0</ele><time>2026-03-22T11:00:34Z</time></trkpt><trkpt lat="36.99317974451709" lon="15.025461359616392"><ele>439.5</ele><time>2026-03-22T11:00:35Z</time></trkpt><trkpt lat="36.9929214151178" lon="15.025514755689997"><ele>438.0</ele><time>2026-03-22T11:00:36Z</time></trkpt><trkpt lat="36.99268223049416" lon="15.025582603037812"><ele>438.5</ele><time>2026-03-22T11:00:37Z</time></trkpt><trkpt lat="36.99244852073063" lon="15.025651841623034"><ele>439.0</ele><time>2026-03-22T11:00:38Z</time></trkpt><trkpt lat="36.9922322696765" lon="15.025715271263612"><ele>439.0</ele><time>2026-03-22T11:00:39Z</time></trkpt><trkpt lat="36.992017247331624" lon="15.025777173368983"><ele>439.0</ele><time>2026-03-22T11:00:40Z</time></trkpt><trkpt lat="36.99180424691983" lon="15.025837801960275"><ele>439.0</ele><time>2026-03-22T11:00:41Z</time></trkpt><trkpt lat="36.99157613681297" lon="15.025902731386733"><ele>438.0</ele><time>2026-03-22T11:00:42Z</time></trkpt><trkpt lat="36.99135374347374" lon="15.025966302141649"><ele>437.0</ele><time>2026-03-22T11:00:43Z</time></trkpt><trkpt lat="36.991149491600886" lon="15.02602616038634"><ele>436.0</ele><time>2026-03-22T11:00:44Z</time></trkpt><trkpt lat="36.990959488509716" lon="15.02608184286949"><ele>433.6666666666667</ele><time>2026-03-22T11:00:45Z</time></trkpt><trkpt lat="36.99079271934839" lon="15.026130591953672"><ele>431.33333333333337</ele><time>2026-03-22T11:00:46Z</time></trkpt><trkpt lat="36.990645174091775" lon="15.026173100104838"><ele>429.0</ele><time>2026-03-22T11:00:47Z</time></trkpt><trkpt lat="36.990516887501535" lon="15.026210059838851"><ele>429.0</ele><time>2026-03-22T11:00:48Z</time></trkpt><trkpt lat="36.990392650305196" lon="15.026245852851991"><ele>429.0</ele><time>2026-03-22T11:00:49Z</time></trkpt><trkpt lat="36.99027628160933" lon="15.026273760943202"><ele>429.0</ele><time>2026-03-22T11:00:50Z</time></trkpt><trkpt lat="36.99016598520953" lon="15.026259184140379"><ele>429.0</ele><time>2026-03-22T11:00:51Z</time></trkpt><trkpt lat="36.99004409240631" lon="15.026225170775785"><ele>427.66666666666663</ele><time>2026-03-22T11:00:52Z</time></trkpt><trkpt lat="36.98993200585359" lon="15.02612072219626"><ele>426.3333333333333</ele><time>2026-03-22T11:00:53Z</time></trkpt><trkpt lat="36.98980245884777" lon="15.025981867955535"><ele>425.0</ele><time>2026-03-22T11:00:54Z</time></trkpt><trkpt lat="36.989692810748174" lon="15.025809274827122"><ele>422.0</ele><time>2026-03-22T11:00:55Z</time></trkpt><trkpt lat="36.9895759202483" lon="15.02563487741762"><ele>419.0</ele><time>2026-03-22T11:00:56Z</time></trkpt><trkpt lat="36.98950032351255" lon="15.02545381106021"><ele>416.0</ele><time>2026-03-22T11:00:57Z</time></trkpt><trkpt lat="36.98944209098061" lon="15.025288307516176"><ele>416.0</ele><time>2026-03-22T11:00:58Z</time></trkpt><trkpt lat="36.98942080161222" lon="15.025127319964419"><ele>416.0</ele><time>2026-03-22T11:00:59Z</time></trkpt><trkpt lat="36.989442697262064" lon="15.02496125466838"><ele>416.0</ele><time>2026-03-22T11:01:00Z</time></trkpt><trkpt lat="36.98948443403101" lon="15.024789161973809"><ele>416.0</ele><time>2026-03-22T11:01:01Z</time></trkpt><trkpt lat="36.9895031836002" lon="15.024616664317517"><ele>415.8</ele><time>2026-03-22T11:01:02Z</time></trkpt><trkpt lat="36.9894782798599" lon="15.024479021668153"><ele>415.6</ele><time>2026-03-22T11:01:03Z</time></trkpt><trkpt lat="36.98940790725602" lon="15.024353260469782"><ele>415.4</ele><time>2026-03-22T11:01:04Z</time></trkpt><trkpt lat="36.98934831682782" lon="15.02428418038009"><ele>415.2</ele><time>2026-03-22T11:01:05Z</time></trkpt><trkpt lat="36.98925034834098" lon="15.024280953164556"><ele>415.0</ele><time>2026-03-22T11:01:06Z</time></trkpt><trkpt lat="36.98913244485755" lon="15.02431794911395"><ele>415.0</ele><time>2026-03-22T11:01:07Z</time></trkpt><trkpt lat="36.98899121626898" lon="15.024369193913707"><ele>415.0</ele><time>2026-03-22T11:01:08Z</time></trkpt><trkpt lat="36.98883685321498" lon="15.024436181654114"><ele>415.0</ele><time>2026-03-22T11:01:09Z</time></trkpt><trkpt lat="36.988676577607535" lon="15.024516716305754"><ele>415.0</ele><time>2026-03-22T11:01:10Z</time></trkpt><trkpt lat="36.988567564264514" lon="15.024656559781931"><ele>415.0</ele><time>2026-03-22T11:01:11Z</time></trkpt><trkpt lat="36.98851086138917" lon="15.024815239397991"><ele>415.0</ele><time>2026-03-22T11:01:12Z</time></trkpt><trkpt lat="36.98849354986475" lon="15.024998425714266"><ele>415.0</ele><time>2026-03-22T11:01:13Z</time></trkpt><trkpt lat="36.9884561703173" lon="15.025190646576982"><ele>416.33333333333337</ele><time>2026-03-22T11:01:14Z</time></trkpt><trkpt lat="36.98843137640925" lon="15.025385875933098"><ele>417.66666666666663</ele><time>2026-03-22T11:01:15Z</time></trkpt><trkpt lat="36.98840720961512" lon="15.025596073910485"><ele>419.0</ele><time>2026-03-22T11:01:16Z</time></trkpt><trkpt lat="36.9883746478158" lon="15.0258000650701"><ele>415.66666666666663</ele><time>2026-03-22T11:01:17Z</time></trkpt><trkpt lat="36.98830934786642" lon="15.026003997924152"><ele>412.33333333333337</ele><time>2026-03-22T11:01:18Z</time></trkpt><trkpt lat="36.98822872754129" lon="15.026218472836897"><ele>409.0</ele><time>2026-03-22T11:01:19Z</time></trkpt><trkpt lat="36.98814177489026" lon="15.026441529445139"><ele>409.0</ele><time>2026-03-22T11:01:20Z</time></trkpt><trkpt lat="36.988068328928854" lon="15.026632167408701"><ele>409.0</ele><time>2026-03-22T11:01:21Z</time></trkpt><trkpt lat="36.98799391655131" lon="15.026821884690461"><ele>409.0</ele><time>2026-03-22T11:01:22Z</time></trkpt><trkpt lat="36.987923004920184" lon="15.026998651268633"><ele>407.6666666666667</ele><time>2026-03-22T11:01:23Z</time></trkpt><trkpt lat="36.9878401177827" lon="15.02719920208117"><ele>406.33333333333337</ele><time>2026-03-22T11:01:24Z</time></trkpt><trkpt lat="36.98775213260436" lon="15.027394005801685"><ele>405.0</ele><time>2026-03-22T11:01:25Z</time></trkpt><trkpt lat="36.987647356296534" lon="15.02751148204054"><ele>404.66666666666663</ele><time>2026-03-22T11:01:26Z</time></trkpt><trkpt lat="36.98751231807094" lon="15.027608207055621"><ele>404.3333333333333</ele><time>2026-03-22T11:01:27Z</time></trkpt><trkpt lat="36.9873695150547" lon="15.027740580932942"><ele>404.0</ele><time>2026-03-22T11:01:28Z</time></trkpt><trkpt lat="36.987203618520255" lon="15.027803162825421"><ele>407.3333333333333</ele><time>2026-03-22T11:01:29Z</time></trkpt><trkpt lat="36.987041092749614" lon="15.027876404192654"><ele>410.66666666666663</ele><time>2026-03-22T11:01:30Z</time></trkpt><trkpt lat="36.986885151770224" lon="15.027932470206494"><ele>414.0</ele><time>2026-03-22T11:01:31Z</time></trkpt><trkpt lat="36.986762875415884" lon="15.02792182993936"><ele>414.0</ele><time>2026-03-22T11:01:32Z</time></trkpt><trkpt lat="36.98668452939758" lon="15.027925062912818"><ele>414.0</ele><time>2026-03-22T11:01:33Z</time></trkpt><trkpt lat="36.98667557548761" lon="15.027845687239575"><ele>414.0</ele><time>2026-03-22T11:01:34Z</time></trkpt><trkpt lat="36.986678279704215" lon="15.027711004664578"><ele>414.0</ele><time>2026-03-22T11:01:35Z</time></trkpt><trkpt lat="36.98671219945654" lon="15.027542058137353"><ele>414.0</ele><time>2026-03-22T11:01:36Z</time></trkpt><trkpt lat="36.986749240423066" lon="15.027363028146139"><ele>412.33333333333337</ele><time>2026-03-22T11:01:37Z</time></trkpt><trkpt lat="36.986770194644535" lon="15.027150204241034"><ele>410.6666666666667</ele><time>2026-03-22T11:01:38Z</time></trkpt><trkpt lat="36.98675597610319" lon="15.026932526333777"><ele>409.0</ele><time>2026-03-22T11:01:39Z</time></trkpt><trkpt lat="36.98670545087768" lon="15.026727530493732"><ele>411.25</ele><time>2026-03-22T11:01:40Z</time></trkpt><trkpt lat="36.98662923907528" lon="15.026560982461994"><ele>413.5</ele><time>2026-03-22T11:01:41Z</time></trkpt><trkpt lat="36.98654092254864" lon="15.026443604628184"><ele>415.75</ele><time>2026-03-22T11:01:42Z</time></trkpt><trkpt lat="36.98645158359976" lon="15.026377177403205"><ele>418.0</ele><time>2026-03-22T11:01:43Z</time></trkpt><trkpt lat="36.986319888291106" lon="15.026414578971197"><ele>418.0</ele><time>2026-03-22T11:01:44Z</time></trkpt><trkpt lat="36.98620656241994" lon="15.026462334601089"><ele>418.0</ele><time>2026-03-22T11:01:45Z</time></trkpt><trkpt lat="36.986132434679796" lon="15.026640916255195"><ele>418.0</ele><time>2026-03-22T11:01:46Z</time></trkpt><trkpt lat="36.98605904459688" lon="15.026810131900692"><ele>418.0</ele><time>2026-03-22T11:01:47Z</time></trkpt><trkpt lat="36.98598996985363" lon="15.027014724953089"><ele>418.6666666666667</ele><time>2026-03-22T11:01:48Z</time></trkpt><trkpt lat="36.985921999830396" lon="15.02720399722737"><ele>419.33333333333337</ele><time>2026-03-22T11:01:49Z</time></trkpt><trkpt lat="36.985834394147965" lon="15.02739675414679"><ele>420.0</ele><time>2026-03-22T11:01:50Z</time></trkpt><trkpt lat="36.9857365168422" lon="15.027577852035927"><ele>421.75</ele><time>2026-03-22T11:01:51Z</time></trkpt><trkpt lat="36.98563274094568" lon="15.02771895690918"><ele>423.5</ele><time>2026-03-22T11:01:52Z</time></trkpt><trkpt lat="36.985514809444396" lon="15.027830603455556"><ele>425.25</ele><time>2026-03-22T11:01:53Z</time></trkpt><trkpt lat="36.98539164216217" lon="15.027906585301075"><ele>427.0</ele><time>2026-03-22T11:01:54Z</time></trkpt><trkpt lat="36.985249103520836" lon="15.027964696478852"><ele>427.0</ele><time>2026-03-22T11:01:55Z</time></trkpt><trkpt lat="36.98508835388948" lon="15.028022030017329"><ele>427.0</ele><time>2026-03-22T11:01:56Z</time></trkpt><trkpt lat="36.984922145158926" lon="15.02807982737383"><ele>427.0</ele><time>2026-03-22T11:01:57Z</time></trkpt><trkpt lat="36.98474173946105" lon="15.028142110247495"><ele>429.0</ele><time>2026-03-22T11:01:58Z</time></trkpt><trkpt lat="36.984544821033474" lon="15.028213036366845"><ele>431.0</ele><time>2026-03-22T11:01:59Z</time></trkpt><trkpt lat="36.984347918624785" lon="15.028283956727915"><ele>433.0</ele><time>2026-03-22T11:02:00Z</time></trkpt><trkpt lat="36.984142364814225" lon="15.028357366578819"><ele>433.0</ele><time>2026-03-22T11:02:01Z</time></trkpt><trkpt lat="36.98393354778795" lon="15.028430612861646"><ele>433.0</ele><time>2026-03-22T11:02:02Z</time></trkpt><trkpt lat="36.98372646349799" lon="15.028503606097532"><ele>433.0</ele><time>2026-03-22T11:02:03Z</time></trkpt><trkpt lat="36.98350343112524" lon="15.028583043025582"><ele>433.5</ele><time>2026-03-22T11:02:04Z</time></trkpt><trkpt lat="36.9832851472181" lon="15.02866156301665"><ele>434.0</ele><time>2026-03-22T11:02:05Z</time></trkpt><trkpt lat="36.98306089981706" lon="15.028743101840996"><ele>434.0</ele><time>2026-03-22T11:02:06Z</time></trkpt><trkpt lat="36.98283670768134" lon="15.028833786903991"><ele>434.0</ele><time>2026-03-22T11:02:07Z</time></trkpt><trkpt lat="36.98261967086204" lon="15.02897348565745"><ele>433.5</ele><time>2026-03-22T11:02:08Z</time></trkpt><trkpt lat="36.98239623275367" lon="15.029094772054794"><ele>433.0</ele><time>2026-03-22T11:02:09Z</time></trkpt><trkpt lat="36.98218161685453" lon="15.029237908598304"><ele>433.0</ele><time>2026-03-22T11:02:10Z</time></trkpt><trkpt lat="36.98198096697706" lon="15.029371211372169"><ele>433.0</ele><time>2026-03-22T11:02:11Z</time></trkpt><trkpt lat="36.98175795548507" lon="15.029517767677135"><ele>434.0</ele><time>2026-03-22T11:02:12Z</time></trkpt><trkpt lat="36.981540047865195" lon="15.029660030146237"><ele>435.0</ele><time>2026-03-22T11:02:13Z</time></trkpt><trkpt lat="36.981333254824115" lon="15.029795036437942"><ele>435.0</ele><time>2026-03-22T11:02:14Z</time></trkpt><trkpt lat="36.98112823402174" lon="15.029929912779918"><ele>435.0</ele><time>2026-03-22T11:02:15Z</time></trkpt><trkpt lat="36.98092260664274" lon="15.030065269769992"><ele>436.0</ele><time>2026-03-22T11:02:16Z</time></trkpt><trkpt lat="36.98070246730816" lon="15.0302120904662"><ele>437.0</ele><time>2026-03-22T11:02:17Z</time></trkpt><trkpt lat="36.98046852159237" lon="15.03036561855482"><ele>437.0</ele><time>2026-03-22T11:02:18Z</time></trkpt><trkpt lat="36.98023924560802" lon="15.030513285731"><ele>437.0</ele><time>2026-03-22T11:02:19Z</time></trkpt><trkpt lat="36.98003852781228" lon="15.030649432282582"><ele>437.0</ele><time>2026-03-22T11:02:20Z</time></trkpt><trkpt lat="36.97985534546105" lon="15.030773541429502"><ele>437.0</ele><time>2026-03-22T11:02:21Z</time></trkpt><trkpt lat="36.97967524318545" lon="15.030889320577643"><ele>437.0</ele><time>2026-03-22T11:02:22Z</time></trkpt><trkpt lat="36.979507524114915" lon="15.030982823828024"><ele>437.0</ele><time>2026-03-22T11:02:23Z</time></trkpt><trkpt lat="36.97935762503635" lon="15.031030249947754"><ele>437.0</ele><time>2026-03-22T11:02:24Z</time></trkpt><trkpt lat="36.97921594210435" lon="15.031022644718384"><ele>437.0</ele><time>2026-03-22T11:02:25Z</time></trkpt><trkpt lat="36.97908246913683" lon="15.030969762653442"><ele>437.0</ele><time>2026-03-22T11:02:26Z</time></trkpt><trkpt lat="36.97894600376885" lon="15.030885667990207"><ele>437.75</ele><time>2026-03-22T11:02:27Z</time></trkpt><trkpt lat="36.97879542799495" lon="15.030806598540702"><ele>438.5</ele><time>2026-03-22T11:02:28Z</time></trkpt><trkpt lat="36.97867672885942" lon="15.03074173746896"><ele>439.25</ele><time>2026-03-22T11:02:29Z</time></trkpt><trkpt lat="36.978557632378546" lon="15.030759063317293"><ele>440.0</ele><time>2026-03-22T11:02:30Z</time></trkpt><trkpt lat="36.97845942855839" lon="15.030885224933268"><ele>440.0</ele><time>2026-03-22T11:02:31Z</time></trkpt><trkpt lat="36.978375714761135" lon="15.031041711074913"><ele>440.0</ele><time>2026-03-22T11:02:32Z</time></trkpt><trkpt lat="36.97829092218444" lon="15.031226238937236"><ele>440.0</ele><time>2026-03-22T11:02:33Z</time></trkpt><trkpt lat="36.97819799872626" lon="15.031434517704264"><ele>440.3333333333333</ele><time>2026-03-22T11:02:34Z</time></trkpt><trkpt lat="36.9781018915853" lon="15.031650753834027"><ele>440.66666666666663</ele><time>2026-03-22T11:02:35Z</time></trkpt><trkpt lat="36.97799712606616" lon="15.031876003118944"><ele>441.0</ele><time>2026-03-22T11:02:36Z</time></trkpt><trkpt lat="36.97788792352715" lon="15.032065606663998"><ele>441.0</ele><time>2026-03-22T11:02:37Z</time></trkpt><trkpt lat="36.977764487226956" lon="15.032206495596373"><ele>441.0</ele><time>2026-03-22T11:02:38Z</time></trkpt><trkpt lat="36.977617813393" lon="15.032333949226297"><ele>441.0</ele><time>2026-03-22T11:02:39Z</time></trkpt><trkpt lat="36.97744972840505" lon="15.03244199461607"><ele>443.33333333333337</ele><time>2026-03-22T11:02:40Z</time></trkpt><trkpt lat="36.97727064194791" lon="15.032523289627074"><ele>445.6666666666667</ele><time>2026-03-22T11:02:41Z</time></trkpt><trkpt lat="36.97709800604144" lon="15.03256842784917"><ele>448.0</ele><time>2026-03-22T11:02:42Z</time></trkpt><trkpt lat="36.97690329631063" lon="15.0325887728436"><ele>448.0</ele><time>2026-03-22T11:02:43Z</time></trkpt><trkpt lat="36.97674734506415" lon="15.03258698520875"><ele>448.0</ele><time>2026-03-22T11:02:44Z</time></trkpt><trkpt lat="36.976615005160184" lon="15.032559471635627"><ele>448.0</ele><time>2026-03-22T11:02:45Z</time></trkpt><trkpt lat="36.97648928097328" lon="15.032494789467549"><ele>448.0</ele><time>2026-03-22T11:02:46Z</time></trkpt><trkpt lat="36.976386072930424" lon="15.032375986673934"><ele>450.6666666666667</ele><time>2026-03-22T11:02:47Z</time></trkpt><trkpt lat="36.97632684545277" lon="15.032220785764297"><ele>453.33333333333337</ele><time>2026-03-22T11:02:48Z</time></trkpt><trkpt lat="36.97622171421811" lon="15.03204624696404"><ele>456.0</ele><time>2026-03-22T11:02:49Z</time></trkpt><trkpt lat="36.97610843006607" lon="15.03187261046284"><ele>456.0</ele><time>2026-03-22T11:02:50Z</time></trkpt><trkpt lat="36.975979751521216" lon="15.03171862532334"><ele>456.0</ele><time>2026-03-22T11:02:51Z</time></trkpt><trkpt lat="36.97582730205586" lon="15.031651082077657"><ele>456.0</ele><time>2026-03-22T11:02:52Z</time></trkpt><trkpt lat="36.975647183866265" lon="15.03160201568125"><ele>454.33333333333337</ele><time>2026-03-22T11:02:53Z</time></trkpt><trkpt lat="36.97546044611945" lon="15.031615381713292"><ele>452.6666666666667</ele><time>2026-03-22T11:02:54Z</time></trkpt><trkpt lat="36.97528036997113" lon="15.031657319747223"><ele>451.0</ele><time>2026-03-22T11:02:55Z</time></trkpt><trkpt lat="36.975054351922616" lon="15.031746209135529"><ele>448.5</ele><time>2026-03-22T11:02:56Z</time></trkpt><trkpt lat="36.974823127204566" lon="15.031840046426238"><ele>446.0</ele><time>2026-03-22T11:02:57Z</time></trkpt><trkpt lat="36.97460119941765" lon="15.031933734853144"><ele>446.0</ele><time>2026-03-22T11:02:58Z</time></trkpt><trkpt lat="36.97438501049041" lon="15.032025232980468"><ele>446.0</ele><time>2026-03-22T11:02:59Z</time></trkpt><trkpt lat="36.97417171292703" lon="15.032116051299836"><ele>446.0</ele><time>2026-03-22T11:03:00Z</time></trkpt><trkpt lat="36.97396177985439" lon="15.03220460229732"><ele>446.0</ele><time>2026-03-22T11:03:01Z</time></trkpt><trkpt lat="36.97374827901556" lon="15.032293683043262"><ele>446.0</ele><time>2026-03-22T11:03:02Z</time></trkpt><trkpt lat="36.97353789520389" lon="15.032381463222103"><ele>446.5</ele><time>2026-03-22T11:03:03Z</time></trkpt><trkpt lat="36.97331218565566" lon="15.032475637936264"><ele>447.0</ele><time>2026-03-22T11:03:04Z</time></trkpt><trkpt lat="36.97307981616164" lon="15.032572591384616"><ele>447.0</ele><time>2026-03-22T11:03:05Z</time></trkpt><trkpt lat="36.97282899231104" lon="15.032677244685559"><ele>447.0</ele><time>2026-03-22T11:03:06Z</time></trkpt><trkpt lat="36.972588626521436" lon="15.032777511216745"><ele>446.5</ele><time>2026-03-22T11:03:07Z</time></trkpt><trkpt lat="36.97236218945715" lon="15.032869906603484"><ele>446.0</ele><time>2026-03-22T11:03:08Z</time></trkpt><trkpt lat="36.97214921128486" lon="15.032956810278968"><ele>446.0</ele><time>2026-03-22T11:03:09Z</time></trkpt><trkpt lat="36.97195346603591" lon="15.033031407039863"><ele>446.0</ele><time>2026-03-22T11:03:10Z</time></trkpt><trkpt lat="36.971776229338715" lon="15.033077689956512"><ele>446.0</ele><time>2026-03-22T11:03:11Z</time></trkpt><trkpt lat="36.971578852228475" lon="15.033089277929356"><ele>447.3333333333333</ele><time>2026-03-22T11:03:12Z</time></trkpt><trkpt lat="36.97136196484382" lon="15.033091781648057"><ele>448.66666666666663</ele><time>2026-03-22T11:03:13Z</time></trkpt><trkpt lat="36.971160349998" lon="15.03309408318157"><ele>450.0</ele><time>2026-03-22T11:03:14Z</time></trkpt><trkpt lat="36.970951606530704" lon="15.033096466093948"><ele>448.0</ele><time>2026-03-22T11:03:15Z</time></trkpt><trkpt lat="36.97073699393438" lon="15.03309681752766"><ele>446.0</ele><time>2026-03-22T11:03:16Z</time></trkpt><trkpt lat="36.97052639880797" lon="15.033096053942602"><ele>444.0</ele><time>2026-03-22T11:03:17Z</time></trkpt><trkpt lat="36.970311702844825" lon="15.033098218891915"><ele>444.0</ele><time>2026-03-22T11:03:18Z</time></trkpt><trkpt lat="36.97009057573924" lon="15.033114092027963"><ele>444.0</ele><time>2026-03-22T11:03:19Z</time></trkpt><trkpt lat="36.96986520566874" lon="15.033170128635053"><ele>444.0</ele><time>2026-03-22T11:03:20Z</time></trkpt><trkpt lat="36.96964287411898" lon="15.033253196578839"><ele>444.0</ele><time>2026-03-22T11:03:21Z</time></trkpt><trkpt lat="36.96943544190133" lon="15.033335835206472"><ele>444.0</ele><time>2026-03-22T11:03:22Z</time></trkpt><trkpt lat="36.96922901623919" lon="15.033416260766423"><ele>444.0</ele><time>2026-03-22T11:03:23Z</time></trkpt><trkpt lat="36.96902469290809" lon="15.033494265958831"><ele>444.0</ele><time>2026-03-22T11:03:24Z</time></trkpt><trkpt lat="36.96881914544496" lon="15.033571129967827"><ele>443.33333333333337</ele><time>2026-03-22T11:03:25Z</time></trkpt><trkpt lat="36.968608826004676" lon="15.033645131419078"><ele>442.6666666666667</ele><time>2026-03-22T11:03:26Z</time></trkpt><trkpt lat="36.96839536245748" lon="15.033711005352442"><ele>442.0</ele><time>2026-03-22T11:03:27Z</time></trkpt><trkpt lat="36.968170259039965" lon="15.033772678685692"><ele>441.5</ele><time>2026-03-22T11:03:28Z</time></trkpt><trkpt lat="36.96793252054385" lon="15.03383147758466"><ele>441.0</ele><time>2026-03-22T11:03:29Z</time></trkpt><trkpt lat="36.967699296647396" lon="15.033889159816919"><ele>439.5</ele><time>2026-03-22T11:03:30Z</time></trkpt><trkpt lat="36.96746894426674" lon="15.033946473407832"><ele>438.0</ele><time>2026-03-22T11:03:31Z</time></trkpt><trkpt lat="36.96725703668988" lon="15.033999241198245"><ele>438.0</ele><time>2026-03-22T11:03:32Z</time></trkpt><trkpt lat="36.967019048029336" lon="15.034058503785888"><ele>438.0</ele><time>2026-03-22T11:03:33Z</time></trkpt><trkpt lat="36.966796984836805" lon="15.034177030440278"><ele>438.0</ele><time>2026-03-22T11:03:34Z</time></trkpt><trkpt lat="36.96656714693983" lon="15.034228126029735"><ele>438.0</ele><time>2026-03-22T11:03:35Z</time></trkpt><trkpt lat="36.966363964247684" lon="15.034290281842768"><ele>438.0</ele><time>2026-03-22T11:03:36Z</time></trkpt><trkpt lat="36.9661926396626" lon="15.034358030709884"><ele>438.0</ele><time>2026-03-22T11:03:37Z</time></trkpt><trkpt lat="36.966045249657505" lon="15.034354519057857"><ele>438.0</ele><time>2026-03-22T11:03:38Z</time></trkpt><trkpt lat="36.96590358674277" lon="15.03437177406909"><ele>438.0</ele><time>2026-03-22T11:03:39Z</time></trkpt><trkpt lat="36.96577067946256" lon="15.034413861920362"><ele>438.0</ele><time>2026-03-22T11:03:40Z</time></trkpt><trkpt lat="36.965644002576525" lon="15.03436657184363"><ele>438.0</ele><time>2026-03-22T11:03:41Z</time></trkpt><trkpt lat="36.965484965767935" lon="15.034262237506564"><ele>438.0</ele><time>2026-03-22T11:03:42Z</time></trkpt><trkpt lat="36.96532968026163" lon="15.03417971223342"><ele>438.0</ele><time>2026-03-22T11:03:43Z</time></trkpt><trkpt lat="36.96517803349763" lon="15.0341066598844"><ele>437.0</ele><time>2026-03-22T11:03:44Z</time></trkpt><trkpt lat="36.96502289130283" lon="15.034038786690617"><ele>436.0</ele><time>2026-03-22T11:03:45Z</time></trkpt><trkpt lat="36.964876420202515" lon="15.033970958549395"><ele>435.0</ele><time>2026-03-22T11:03:46Z</time></trkpt><trkpt lat="36.964735225555266" lon="15.033922450368374"><ele>435.0</ele><time>2026-03-22T11:03:47Z</time></trkpt><trkpt lat="36.96459794585771" lon="15.033908314114719"><ele>435.0</ele><time>2026-03-22T11:03:48Z</time></trkpt><trkpt lat="36.964463268301365" lon="15.033950913758785"><ele>435.0</ele><time>2026-03-22T11:03:49Z</time></trkpt><trkpt lat="36.964336239149" lon="15.03404075629549"><ele>435.0</ele><time>2026-03-22T11:03:50Z</time></trkpt><trkpt lat="36.96422055353001" lon="15.03417169859828"><ele>433.66666666666663</ele><time>2026-03-22T11:03:51Z</time></trkpt><trkpt lat="36.96410139884304" lon="15.034329245232978"><ele>432.3333333333333</ele><time>2026-03-22T11:03:52Z</time></trkpt><trkpt lat="36.96397868497442" lon="15.034492943591673"><ele>431.0</ele><time>2026-03-22T11:03:53Z</time></trkpt><trkpt lat="36.9638481013093" lon="15.034665830051411"><ele>431.0</ele><time>2026-03-22T11:03:54Z</time></trkpt><trkpt lat="36.96372621003849" lon="15.034863765735285"><ele>431.0</ele><time>2026-03-22T11:03:55Z</time></trkpt><trkpt lat="36.9636069544511" lon="15.035078293620996"><ele>431.0</ele><time>2026-03-22T11:03:56Z</time></trkpt><trkpt lat="36.963491356736796" lon="15.03531017196122"><ele>431.0</ele><time>2026-03-22T11:03:57Z</time></trkpt><trkpt lat="36.96338083963993" lon="15.035561671251175"><ele>431.0</ele><time>2026-03-22T11:03:58Z</time></trkpt><trkpt lat="36.96326153150769" lon="15.035826712080631"><ele>428.0</ele><time>2026-03-22T11:03:59Z</time></trkpt><trkpt lat="36.96314891158572" lon="15.036063938927033"><ele>425.0</ele><time>2026-03-22T11:04:00Z</time></trkpt><trkpt lat="36.96303647739667" lon="15.036296093503232"><ele>422.0</ele><time>2026-03-22T11:04:01Z</time></trkpt><trkpt lat="36.962923085617845" lon="15.03652314718565"><ele>421.66666666666663</ele><time>2026-03-22T11:04:02Z</time></trkpt><trkpt lat="36.96282189277904" lon="15.036734974416152"><ele>421.33333333333337</ele><time>2026-03-22T11:04:03Z</time></trkpt><trkpt lat="36.96272711714669" lon="15.036928052513705"><ele>421.0</ele><time>2026-03-22T11:04:04Z</time></trkpt><trkpt lat="36.96262714305353" lon="15.03709758281343"><ele>418.33333333333337</ele><time>2026-03-22T11:04:05Z</time></trkpt><trkpt lat="36.96249875796842" lon="15.0372330234076"><ele>415.66666666666663</ele><time>2026-03-22T11:04:06Z</time></trkpt><trkpt lat="36.9623410898808" lon="15.037328684489003"><ele>413.0</ele><time>2026-03-22T11:04:07Z</time></trkpt><trkpt lat="36.96216952381104" lon="15.037403508678825"><ele>413.66666666666663</ele><time>2026-03-22T11:04:08Z</time></trkpt><trkpt lat="36.96197627885709" lon="15.037469132634214"><ele>414.33333333333337</ele><time>2026-03-22T11:04:09Z</time></trkpt><trkpt lat="36.961767867180136" lon="15.037540434231872"><ele>415.0</ele><time>2026-03-22T11:04:10Z</time></trkpt><trkpt lat="36.96157741723372" lon="15.037619888449125"><ele>413.33333333333337</ele><time>2026-03-22T11:04:11Z</time></trkpt><trkpt lat="36.961371270302415" lon="15.037703525571391"><ele>411.66666666666663</ele><time>2026-03-22T11:04:12Z</time></trkpt><trkpt lat="36.961160522441105" lon="15.037794201916835"><ele>410.0</ele><time>2026-03-22T11:04:13Z</time></trkpt><trkpt lat="36.96094338968195" lon="15.037885366922845"><ele>408.0</ele><time>2026-03-22T11:04:14Z</time></trkpt><trkpt lat="36.96073013729481" lon="15.037977032785955"><ele>406.0</ele><time>2026-03-22T11:04:15Z</time></trkpt><trkpt lat="36.96051733505822" lon="15.038059024161319"><ele>404.0</ele><time>2026-03-22T11:04:16Z</time></trkpt><trkpt lat="36.9603210442504" lon="15.038114971571055"><ele>404.0</ele><time>2026-03-22T11:04:17Z</time></trkpt><trkpt lat="36.96012078453187" lon="15.038114195208697"><ele>404.0</ele><time>2026-03-22T11:04:18Z</time></trkpt><trkpt lat="36.95991328385402" lon="15.03808154408139"><ele>404.0</ele><time>2026-03-22T11:04:19Z</time></trkpt><trkpt lat="36.95969177570654" lon="15.038031522354878"><ele>401.66666666666663</ele><time>2026-03-22T11:04:20Z</time></trkpt><trkpt lat="36.95949166297244" lon="15.037974319644732"><ele>399.33333333333337</ele><time>2026-03-22T11:04:21Z</time></trkpt><trkpt lat="36.95927932323318" lon="15.037930474729654"><ele>397.0</ele><time>2026-03-22T11:04:22Z</time></trkpt><trkpt lat="36.95907550188019" lon="15.037923819262833"><ele>395.6666666666667</ele><time>2026-03-22T11:04:23Z</time></trkpt><trkpt lat="36.95888049390934" lon="15.03795676862512"><ele>394.33333333333337</ele><time>2026-03-22T11:04:24Z</time></trkpt><trkpt lat="36.958687312985056" lon="15.038016756136416"><ele>393.0</ele><time>2026-03-22T11:04:25Z</time></trkpt><trkpt lat="36.95849622561167" lon="15.038110700605115"><ele>393.0</ele><time>2026-03-22T11:04:26Z</time></trkpt><trkpt lat="36.95830760309146" lon="15.038228875723087"><ele>393.0</ele><time>2026-03-22T11:04:27Z</time></trkpt><trkpt lat="36.9581315894941" lon="15.038376811804033"><ele>393.0</ele><time>2026-03-22T11:04:28Z</time></trkpt><trkpt lat="36.957943031419205" lon="15.038502329481254"><ele>393.0</ele><time>2026-03-22T11:04:29Z</time></trkpt><trkpt lat="36.957759287295865" lon="15.038646254896737"><ele>393.0</ele><time>2026-03-22T11:04:30Z</time></trkpt><trkpt lat="36.95757584190093" lon="15.038787140722842"><ele>393.0</ele><time>2026-03-22T11:04:31Z</time></trkpt><trkpt lat="36.95739611232453" lon="15.038932562847162"><ele>391.33333333333337</ele><time>2026-03-22T11:04:32Z</time></trkpt><trkpt lat="36.95721697355356" lon="15.039069705746902"><ele>389.6666666666667</ele><time>2026-03-22T11:04:33Z</time></trkpt><trkpt lat="36.95703542463039" lon="15.039234464984066"><ele>388.0</ele><time>2026-03-22T11:04:34Z</time></trkpt><trkpt lat="36.95685407981874" lon="15.039385502703812"><ele>384.33333333333337</ele><time>2026-03-22T11:04:35Z</time></trkpt><trkpt lat="36.95667386539903" lon="15.039534201937432"><ele>380.6666666666667</ele><time>2026-03-22T11:04:36Z</time></trkpt><trkpt lat="36.9565079924229" lon="15.039675212248506"><ele>377.0</ele><time>2026-03-22T11:04:37Z</time></trkpt><trkpt lat="36.956288718776946" lon="15.039772292375108"><ele>377.0</ele><time>2026-03-22T11:04:38Z</time></trkpt><trkpt lat="36.956150694905624" lon="15.039887242299201"><ele>377.0</ele><time>2026-03-22T11:04:39Z</time></trkpt><trkpt lat="36.95594740260927" lon="15.040054288378473"><ele>377.0</ele><time>2026-03-22T11:04:40Z</time></trkpt><trkpt lat="36.95576850621297" lon="15.040201288217885"><ele>375.33333333333337</ele><time>2026-03-22T11:04:41Z</time></trkpt><trkpt lat="36.95561131197816" lon="15.040329888800791"><ele>373.6666666666667</ele><time>2026-03-22T11:04:42Z</time></trkpt><trkpt lat="36.95544728370808" lon="15.04046833602654"><ele>372.0</ele><time>2026-03-22T11:04:43Z</time></trkpt><trkpt lat="36.95531792572975" lon="15.04062068220283"><ele>374.6666666666667</ele><time>2026-03-22T11:04:44Z</time></trkpt><trkpt lat="36.95522501648988" lon="15.040814781767828"><ele>377.33333333333337</ele><time>2026-03-22T11:04:45Z</time></trkpt><trkpt lat="36.955157026678215" lon="15.041022577538158"><ele>380.0</ele><time>2026-03-22T11:04:46Z</time></trkpt><trkpt lat="36.95509140181068" lon="15.04123281723317"><ele>375.0</ele><time>2026-03-22T11:04:47Z</time></trkpt><trkpt lat="36.955017531596745" lon="15.04145401138417"><ele>370.0</ele><time>2026-03-22T11:04:48Z</time></trkpt><trkpt lat="36.954915578369686" lon="15.041583348141934"><ele>365.0</ele><time>2026-03-22T11:04:49Z</time></trkpt><trkpt lat="36.95476548987792" lon="15.041705990871675"><ele>364.6666666666667</ele><time>2026-03-22T11:04:50Z</time></trkpt><trkpt lat="36.95459675488549" lon="15.041851908493424"><ele>364.3333333333333</ele><time>2026-03-22T11:04:51Z</time></trkpt><trkpt lat="36.95441372642106" lon="15.042009398090265"><ele>364.0</ele><time>2026-03-22T11:04:52Z</time></trkpt><trkpt lat="36.954219093802166" lon="15.042177607393809"><ele>362.5</ele><time>2026-03-22T11:04:53Z</time></trkpt><trkpt lat="36.954032850111645" lon="15.042340646239392"><ele>361.0</ele><time>2026-03-22T11:04:54Z</time></trkpt><trkpt lat="36.95385426734897" lon="15.042550072950954"><ele>361.0</ele><time>2026-03-22T11:04:55Z</time></trkpt><trkpt lat="36.95369969440891" lon="15.042802786267865"><ele>361.0</ele><time>2026-03-22T11:04:56Z</time></trkpt><trkpt lat="36.95355871571295" lon="15.043031313118961"><ele>361.0</ele><time>2026-03-22T11:04:57Z</time></trkpt><trkpt lat="36.95341434317729" lon="15.04326627351576"><ele>361.0</ele><time>2026-03-22T11:04:58Z</time></trkpt><trkpt lat="36.9532810972197" lon="15.043484220735602"><ele>361.3333333333333</ele><time>2026-03-22T11:04:59Z</time></trkpt><trkpt lat="36.953148365890435" lon="15.043701359386608"><ele>361.6666666666667</ele><time>2026-03-22T11:05:00Z</time></trkpt><trkpt lat="36.95301330298794" lon="15.043922647109264"><ele>362.0</ele><time>2026-03-22T11:05:01Z</time></trkpt><trkpt lat="36.952858633080254" lon="15.044176059048286"><ele>361.0</ele><time>2026-03-22T11:05:02Z</time></trkpt><trkpt lat="36.952711269958" lon="15.04441749955041"><ele>360.0</ele><time>2026-03-22T11:05:03Z</time></trkpt><trkpt lat="36.95257353211133" lon="15.044644083501204"><ele>362.0</ele><time>2026-03-22T11:05:04Z</time></trkpt><trkpt lat="36.95243526099831" lon="15.04487196048782"><ele>364.0</ele><time>2026-03-22T11:05:05Z</time></trkpt><trkpt lat="36.95229609167331" lon="15.045098730459245"><ele>364.0</ele><time>2026-03-22T11:05:06Z</time></trkpt><trkpt lat="36.95215919396256" lon="15.045321833903172"><ele>364.0</ele><time>2026-03-22T11:05:07Z</time></trkpt><trkpt lat="36.952022011966164" lon="15.045547328999843"><ele>364.0</ele><time>2026-03-22T11:05:08Z</time></trkpt><trkpt lat="36.95188371832112" lon="15.045774652116965"><ele>364.0</ele><time>2026-03-22T11:05:09Z</time></trkpt><trkpt lat="36.9517458764975" lon="15.046001231848015"><ele>364.66666666666663</ele><time>2026-03-22T11:05:10Z</time></trkpt><trkpt lat="36.951612874784104" lon="15.046216203195872"><ele>365.3333333333333</ele><time>2026-03-22T11:05:11Z</time></trkpt><trkpt lat="36.95148590901134" lon="15.046399311297469"><ele>366.0</ele><time>2026-03-22T11:05:12Z</time></trkpt><trkpt lat="36.9513475342012" lon="15.046516574691882"><ele>366.0</ele><time>2026-03-22T11:05:13Z</time></trkpt><trkpt lat="36.95118335279797" lon="15.04662279485562"><ele>366.0</ele><time>2026-03-22T11:05:14Z</time></trkpt><trkpt lat="36.95100283971137" lon="15.04673764579087"><ele>366.0</ele><time>2026-03-22T11:05:15Z</time></trkpt><trkpt lat="36.95081264615451" lon="15.04685838452496"><ele>365.3333333333333</ele><time>2026-03-22T11:05:16Z</time></trkpt><trkpt lat="36.95062167713491" lon="15.046979355979644"><ele>364.66666666666663</ele><time>2026-03-22T11:05:17Z</time></trkpt><trkpt lat="36.950435092388076" lon="15.04709755009734"><ele>364.0</ele><time>2026-03-22T11:05:18Z</time></trkpt><trkpt lat="36.950253097377264" lon="15.047212836871646"><ele>364.0</ele><time>2026-03-22T11:05:19Z</time></trkpt><trkpt lat="36.95007196238504" lon="15.04732730212489"><ele>364.0</ele><time>2026-03-22T11:05:20Z</time></trkpt><trkpt lat="36.949888944456234" lon="15.047442917465162"><ele>364.0</ele><time>2026-03-22T11:05:21Z</time></trkpt><trkpt lat="36.94971553555341" lon="15.047553323358827"><ele>362.66666666666663</ele><time>2026-03-22T11:05:22Z</time></trkpt><trkpt lat="36.94955196657813" lon="15.047656823312842"><ele>361.3333333333333</ele><time>2026-03-22T11:05:23Z</time></trkpt><trkpt lat="36.949384619871246" lon="15.047762187828024"><ele>360.0</ele><time>2026-03-22T11:05:24Z</time></trkpt><trkpt lat="36.94921430014302" lon="15.047869781888808"><ele>358.3333333333333</ele><time>2026-03-22T11:05:25Z</time></trkpt><trkpt lat="36.94904083384979" lon="15.047979561088814"><ele>356.66666666666663</ele><time>2026-03-22T11:05:26Z</time></trkpt><trkpt lat="36.94886615044664" lon="15.048090110532344"><ele>355.0</ele><time>2026-03-22T11:05:27Z</time></trkpt><trkpt lat="36.94869154318854" lon="15.048200611785882"><ele>356.0</ele><time>2026-03-22T11:05:28Z</time></trkpt><trkpt lat="36.94851975888105" lon="15.048309957293887"><ele>357.0</ele><time>2026-03-22T11:05:29Z</time></trkpt><trkpt lat="36.94833645620944" lon="15.048426778753575"><ele>358.0</ele><time>2026-03-22T11:05:30Z</time></trkpt><trkpt lat="36.948157038053424" lon="15.048541124618813"><ele>355.66666666666663</ele><time>2026-03-22T11:05:31Z</time></trkpt><trkpt lat="36.94797746261783" lon="15.04865557068285"><ele>353.3333333333333</ele><time>2026-03-22T11:05:32Z</time></trkpt><trkpt lat="36.94779778095934" lon="15.048768587669556"><ele>351.0</ele><time>2026-03-22T11:05:33Z</time></trkpt><trkpt lat="36.94761067591479" lon="15.048886234605895"><ele>348.3333333333333</ele><time>2026-03-22T11:05:34Z</time></trkpt><trkpt lat="36.94743133297769" lon="15.04900073953192"><ele>345.66666666666663</ele><time>2026-03-22T11:05:35Z</time></trkpt><trkpt lat="36.94725659555898" lon="15.049112871625825"><ele>343.0</ele><time>2026-03-22T11:05:36Z</time></trkpt><trkpt lat="36.947081032202355" lon="15.04922525015353"><ele>343.0</ele><time>2026-03-22T11:05:37Z</time></trkpt><trkpt lat="36.94690626427072" lon="15.049337067071987"><ele>343.0</ele><time>2026-03-22T11:05:38Z</time></trkpt><trkpt lat="36.94673676950419" lon="15.049444760348136"><ele>343.0</ele><time>2026-03-22T11:05:39Z</time></trkpt><trkpt lat="36.946570599460834" lon="15.04954920971955"><ele>341.0</ele><time>2026-03-22T11:05:40Z</time></trkpt><trkpt lat="36.946410468865736" lon="15.049649858446319"><ele>339.0</ele><time>2026-03-22T11:05:41Z</time></trkpt><trkpt lat="36.94625293168132" lon="15.049748877160297"><ele>337.0</ele><time>2026-03-22T11:05:42Z</time></trkpt><trkpt lat="36.94612147365323" lon="15.049893360526717"><ele>337.66666666666663</ele><time>2026-03-22T11:05:43Z</time></trkpt><trkpt lat="36.94596607086176" lon="15.049996183021475"><ele>338.3333333333333</ele><time>2026-03-22T11:05:44Z</time></trkpt><trkpt lat="36.945804734035256" lon="15.05008397238953"><ele>339.0</ele><time>2026-03-22T11:05:45Z</time></trkpt><trkpt lat="36.94567315509189" lon="15.050182949886848"><ele>339.0</ele><time>2026-03-22T11:05:46Z</time></trkpt><trkpt lat="36.94555492942682" lon="15.050299026737521"><ele>339.0</ele><time>2026-03-22T11:05:47Z</time></trkpt><trkpt lat="36.94544444583207" lon="15.050433040486528"><ele>339.0</ele><time>2026-03-22T11:05:48Z</time></trkpt><trkpt lat="36.94533878594805" lon="15.050582072406531"><ele>339.0</ele><time>2026-03-22T11:05:49Z</time></trkpt><trkpt lat="36.945232362181216" lon="15.050721379085951"><ele>339.0</ele><time>2026-03-22T11:05:50Z</time></trkpt><trkpt lat="36.94511518554461" lon="15.050820459715984"><ele>339.0</ele><time>2026-03-22T11:05:51Z</time></trkpt><trkpt lat="36.94500029518669" lon="15.050921456479946"><ele>339.0</ele><time>2026-03-22T11:05:52Z</time></trkpt><trkpt lat="36.944886138426945" lon="15.050996790635548"><ele>336.25</ele><time>2026-03-22T11:05:53Z</time></trkpt><trkpt lat="36.944772178144746" lon="15.051069942814394"><ele>333.5</ele><time>2026-03-22T11:05:54Z</time></trkpt><trkpt lat="36.944643883125316" lon="15.051110686181113"><ele>330.75</ele><time>2026-03-22T11:05:55Z</time></trkpt><trkpt lat="36.94450915726652" lon="15.051090812669006"><ele>328.0</ele><time>2026-03-22T11:05:56Z</time></trkpt><trkpt lat="36.94437828105922" lon="15.051086470853202"><ele>327.66666666666663</ele><time>2026-03-22T11:05:57Z</time></trkpt><trkpt lat="36.94421026916608" lon="15.051084016288446"><ele>327.3333333333333</ele><time>2026-03-22T11:05:58Z</time></trkpt><trkpt lat="36.944051423037365" lon="15.051096141853893"><ele>327.0</ele><time>2026-03-22T11:05:59Z</time></trkpt><trkpt lat="36.94388111161701" lon="15.051110673277234"><ele>327.0</ele><time>2026-03-22T11:06:00Z</time></trkpt><trkpt lat="36.943727390846" lon="15.051103972971866"><ele>327.0</ele><time>2026-03-22T11:06:01Z</time></trkpt><trkpt lat="36.94362037995027" lon="15.051082678290285"><ele>327.0</ele><time>2026-03-22T11:06:02Z</time></trkpt><trkpt lat="36.943547899485985" lon="15.051066604117537"><ele>327.0</ele><time>2026-03-22T11:06:03Z</time></trkpt><trkpt lat="36.9434409358193" lon="15.051017190515143"><ele>327.0</ele><time>2026-03-22T11:06:05Z</time></trkpt><trkpt lat="36.943392644249556" lon="15.050952865966261"><ele>327.0</ele><time>2026-03-22T11:06:06Z</time></trkpt><trkpt lat="36.94337451409594" lon="15.050861786037663"><ele>327.0</ele><time>2026-03-22T11:06:07Z</time></trkpt><trkpt lat="36.94339022167063" lon="15.050758961901202"><ele>327.0</ele><time>2026-03-22T11:06:08Z</time></trkpt><trkpt lat="36.943425577695365" lon="15.050650767631073"><ele>327.0</ele><time>2026-03-22T11:06:09Z</time></trkpt><trkpt lat="36.94347786670198" lon="15.05050926293817"><ele>327.0</ele><time>2026-03-22T11:06:10Z</time></trkpt><trkpt lat="36.94351740658642" lon="15.050391854405994"><ele>327.20000000000005</ele><time>2026-03-22T11:06:11Z</time></trkpt><trkpt lat="36.9435734710937" lon="15.050291641522277"><ele>327.4</ele><time>2026-03-22T11:06:12Z</time></trkpt><trkpt lat="36.94360247660902" lon="15.050221094171512"><ele>327.6</ele><time>2026-03-22T11:06:13Z</time></trkpt><trkpt lat="36.94364585995826" lon="15.05007615957571"><ele>327.79999999999995</ele><time>2026-03-22T11:06:15Z</time></trkpt><trkpt lat="36.94362855926219" lon="15.049943636743787"><ele>328.0</ele><time>2026-03-22T11:06:17Z</time></trkpt><trkpt lat="36.94356258093831" lon="15.049850423011197"><ele>328.0</ele><time>2026-03-22T11:06:19Z</time></trkpt><trkpt lat="36.943468642958244" lon="15.049821966964826"><ele>328.0</ele><time>2026-03-22T11:06:21Z</time></trkpt><trkpt lat="36.943385266578005" lon="15.049940564238781"><ele>328.0</ele><time>2026-03-22T11:06:23Z</time></trkpt><trkpt lat="36.943353237680206" lon="15.050087689695236"><ele>328.0</ele><time>2026-03-22T11:06:24Z</time></trkpt><trkpt lat="36.94330667276908" lon="15.050287584253084"><ele>323.3333333333333</ele><time>2026-03-22T11:06:25Z</time></trkpt><trkpt lat="36.943248328933656" lon="15.050511449695827"><ele>318.6666666666667</ele><time>2026-03-22T11:06:26Z</time></trkpt><trkpt lat="36.94317619236693" lon="15.050771018325378"><ele>314.0</ele><time>2026-03-22T11:06:27Z</time></trkpt><trkpt lat="36.94308988210468" lon="15.050951699767019"><ele>314.0</ele><time>2026-03-22T11:06:28Z</time></trkpt><trkpt lat="36.94297486648667" lon="15.051060060264124"><ele>314.0</ele><time>2026-03-22T11:06:29Z</time></trkpt><trkpt lat="36.942833790287125" lon="15.051124316894107"><ele>314.0</ele><time>2026-03-22T11:06:30Z</time></trkpt><trkpt lat="36.94265095774451" lon="15.051172630658291"><ele>308.33333333333337</ele><time>2026-03-22T11:06:31Z</time></trkpt><trkpt lat="36.94245512835107" lon="15.0512553577841"><ele>302.6666666666667</ele><time>2026-03-22T11:06:32Z</time></trkpt><trkpt lat="36.942289195810716" lon="15.051363015368384"><ele>297.0</ele><time>2026-03-22T11:06:33Z</time></trkpt><trkpt lat="36.942164929360544" lon="15.051438444473053"><ele>297.0</ele><time>2026-03-22T11:06:34Z</time></trkpt><trkpt lat="36.94206595294828" lon="15.051470910548698"><ele>297.0</ele><time>2026-03-22T11:06:35Z</time></trkpt><trkpt lat="36.941986266318835" lon="15.051468391269157"><ele>297.0</ele><time>2026-03-22T11:06:36Z</time></trkpt><trkpt lat="36.94191583338816" lon="15.051420238719391"><ele>297.0</ele><time>2026-03-22T11:06:37Z</time></trkpt><trkpt lat="36.94187170669936" lon="15.051329927353237"><ele>297.0</ele><time>2026-03-22T11:06:38Z</time></trkpt><trkpt lat="36.94187222354898" lon="15.0512219114702"><ele>297.0</ele><time>2026-03-22T11:06:39Z</time></trkpt><trkpt lat="36.941906810062385" lon="15.051104769553215"><ele>297.0</ele><time>2026-03-22T11:06:40Z</time></trkpt><trkpt lat="36.94194799761002" lon="15.050968881703824"><ele>297.0</ele><time>2026-03-22T11:06:41Z</time></trkpt><trkpt lat="36.94200138259542" lon="15.05081137551584"><ele>297.0</ele><time>2026-03-22T11:06:42Z</time></trkpt><trkpt lat="36.94203767656788" lon="15.050663323277684"><ele>297.0</ele><time>2026-03-22T11:06:43Z</time></trkpt><trkpt lat="36.942025065809176" lon="15.050529876926966"><ele>296.0</ele><time>2026-03-22T11:06:44Z</time></trkpt><trkpt lat="36.94197126728485" lon="15.050443071952328"><ele>295.0</ele><time>2026-03-22T11:06:45Z</time></trkpt><trkpt lat="36.94187677327312" lon="15.050407680920415"><ele>294.0</ele><time>2026-03-22T11:06:46Z</time></trkpt><trkpt lat="36.94175165391051" lon="15.050400594903302"><ele>293.0</ele><time>2026-03-22T11:06:47Z</time></trkpt><trkpt lat="36.94160282444012" lon="15.050360315040026"><ele>297.33333333333337</ele><time>2026-03-22T11:06:48Z</time></trkpt><trkpt lat="36.94142008845873" lon="15.050336518472205"><ele>301.6666666666667</ele><time>2026-03-22T11:06:49Z</time></trkpt><trkpt lat="36.941218011134886" lon="15.050310203190927"><ele>306.0</ele><time>2026-03-22T11:06:50Z</time></trkpt><trkpt lat="36.94101008250658" lon="15.050282737295591"><ele>309.6666666666667</ele><time>2026-03-22T11:06:51Z</time></trkpt><trkpt lat="36.940807454127764" lon="15.05025665555548"><ele>313.33333333333337</ele><time>2026-03-22T11:06:52Z</time></trkpt><trkpt lat="36.94062939729047" lon="15.050240711124395"><ele>317.0</ele><time>2026-03-22T11:06:53Z</time></trkpt><trkpt lat="36.940483546811755" lon="15.050256749315745"><ele>317.0</ele><time>2026-03-22T11:06:54Z</time></trkpt><trkpt lat="36.94036191591871" lon="15.05033290276408"><ele>317.0</ele><time>2026-03-22T11:06:55Z</time></trkpt><trkpt lat="36.94026496995194" lon="15.050433009807692"><ele>317.0</ele><time>2026-03-22T11:06:56Z</time></trkpt><trkpt lat="36.940262495580846" lon="15.050626164767055"><ele>317.0</ele><time>2026-03-22T11:06:57Z</time></trkpt><trkpt lat="36.94026546948614" lon="15.050779235430936"><ele>320.33333333333337</ele><time>2026-03-22T11:06:58Z</time></trkpt><trkpt lat="36.94024797428442" lon="15.050978644053284"><ele>323.6666666666667</ele><time>2026-03-22T11:06:59Z</time></trkpt><trkpt lat="36.940244630670584" lon="15.05118718690646"><ele>327.0</ele><time>2026-03-22T11:07:00Z</time></trkpt><trkpt lat="36.94028009800051" lon="15.051392838577742"><ele>327.0</ele><time>2026-03-22T11:07:01Z</time></trkpt><trkpt lat="36.94033277638552" lon="15.051599672212454"><ele>327.0</ele><time>2026-03-22T11:07:02Z</time></trkpt><trkpt lat="36.94041649764877" lon="15.05177211019821"><ele>327.0</ele><time>2026-03-22T11:07:03Z</time></trkpt><trkpt lat="36.94050897877765" lon="15.051900399749817"><ele>327.8333333333333</ele><time>2026-03-22T11:07:04Z</time></trkpt><trkpt lat="36.940533238053504" lon="15.052022471564024"><ele>328.6666666666667</ele><time>2026-03-22T11:07:05Z</time></trkpt><trkpt lat="36.940529739713526" lon="15.052102615199354"><ele>329.5</ele><time>2026-03-22T11:07:06Z</time></trkpt><trkpt lat="36.9404920905976" lon="15.052167338028324"><ele>330.33333333333337</ele><time>2026-03-22T11:07:07Z</time></trkpt><trkpt lat="36.94042721563558" lon="15.052187699264556"><ele>331.1666666666667</ele><time>2026-03-22T11:07:08Z</time></trkpt><trkpt lat="36.94034545193185" lon="15.05226049479051"><ele>332.0</ele><time>2026-03-22T11:07:09Z</time></trkpt><trkpt lat="36.9402316219199" lon="15.052364822984307"><ele>330.33333333333337</ele><time>2026-03-22T11:07:10Z</time></trkpt><trkpt lat="36.940106109889925" lon="15.052496761298434"><ele>328.6666666666667</ele><time>2026-03-22T11:07:11Z</time></trkpt><trkpt lat="36.939974758624274" lon="15.052650873394501"><ele>327.0</ele><time>2026-03-22T11:07:12Z</time></trkpt><trkpt lat="36.93983854033662" lon="15.052826544299428"><ele>327.0</ele><time>2026-03-22T11:07:13Z</time></trkpt><trkpt lat="36.93969133866331" lon="15.053016598437468"><ele>327.0</ele><time>2026-03-22T11:07:14Z</time></trkpt><trkpt lat="36.93954227901413" lon="15.053224467364696"><ele>327.0</ele><time>2026-03-22T11:07:15Z</time></trkpt><trkpt lat="36.9393965878498" lon="15.05343817070504"><ele>326.3333333333333</ele><time>2026-03-22T11:07:16Z</time></trkpt><trkpt lat="36.93925435420325" lon="15.053651643336108"><ele>325.66666666666663</ele><time>2026-03-22T11:07:17Z</time></trkpt><trkpt lat="36.93911495705413" lon="15.053860858746042"><ele>325.0</ele><time>2026-03-22T11:07:18Z</time></trkpt><trkpt lat="36.93897484166291" lon="15.054062929256878"><ele>328.66666666666663</ele><time>2026-03-22T11:07:19Z</time></trkpt><trkpt lat="36.93882956767779" lon="15.054251929125883"><ele>332.3333333333333</ele><time>2026-03-22T11:07:20Z</time></trkpt><trkpt lat="36.938670449071736" lon="15.054408433942784"><ele>336.0</ele><time>2026-03-22T11:07:21Z</time></trkpt><trkpt lat="36.9384987192906" lon="15.05455493037596"><ele>335.6666666666667</ele><time>2026-03-22T11:07:22Z</time></trkpt><trkpt lat="36.93832787405364" lon="15.054700223485867"><ele>335.33333333333337</ele><time>2026-03-22T11:07:23Z</time></trkpt><trkpt lat="36.93813079660783" lon="15.054868856591767"><ele>335.0</ele><time>2026-03-22T11:07:24Z</time></trkpt><trkpt lat="36.93797494566312" lon="15.055007405995969"><ele>335.0</ele><time>2026-03-22T11:07:25Z</time></trkpt><trkpt lat="36.93781022638298" lon="15.055172940612255"><ele>335.0</ele><time>2026-03-22T11:07:26Z</time></trkpt><trkpt lat="36.9376603340893" lon="15.055389969051541"><ele>335.0</ele><time>2026-03-22T11:07:27Z</time></trkpt><trkpt lat="36.93751617414097" lon="15.05563578849858"><ele>333.0</ele><time>2026-03-22T11:07:28Z</time></trkpt><trkpt lat="36.93738334297445" lon="15.055860242682106"><ele>331.0</ele><time>2026-03-22T11:07:29Z</time></trkpt><trkpt lat="36.93723339416075" lon="15.056113622342982"><ele>331.0</ele><time>2026-03-22T11:07:30Z</time></trkpt><trkpt lat="36.93709465931179" lon="15.056350431153747"><ele>331.0</ele><time>2026-03-22T11:07:31Z</time></trkpt><trkpt lat="36.93696887021231" lon="15.05656631183618"><ele>331.0</ele><time>2026-03-22T11:07:32Z</time></trkpt><trkpt lat="36.93684811917585" lon="15.056772430919786"><ele>332.0</ele><time>2026-03-22T11:07:33Z</time></trkpt><trkpt lat="36.93673017158578" lon="15.056974010987766"><ele>333.0</ele><time>2026-03-22T11:07:34Z</time></trkpt><trkpt lat="36.936611785828894" lon="15.057176464029894"><ele>334.0</ele><time>2026-03-22T11:07:35Z</time></trkpt><trkpt lat="36.93649301490732" lon="15.057379575747289"><ele>331.66666666666663</ele><time>2026-03-22T11:07:36Z</time></trkpt><trkpt lat="36.93637978067478" lon="15.057573035905428"><ele>329.3333333333333</ele><time>2026-03-22T11:07:37Z</time></trkpt><trkpt lat="36.93626418643384" lon="15.057770295832183"><ele>327.0</ele><time>2026-03-22T11:07:38Z</time></trkpt><trkpt lat="36.93615606323794" lon="15.057954890267517"><ele>327.0</ele><time>2026-03-22T11:07:39Z</time></trkpt><trkpt lat="36.93603057725624" lon="15.058155178486185"><ele>327.0</ele><time>2026-03-22T11:07:40Z</time></trkpt><trkpt lat="36.935901510320996" lon="15.058343189607312"><ele>327.0</ele><time>2026-03-22T11:07:41Z</time></trkpt><trkpt lat="36.93576662940199" lon="15.0585276373772"><ele>325.6666666666667</ele><time>2026-03-22T11:07:42Z</time></trkpt><trkpt lat="36.93562896669413" lon="15.0587147340778"><ele>324.33333333333337</ele><time>2026-03-22T11:07:43Z</time></trkpt><trkpt lat="36.93549092606862" lon="15.05890230821784"><ele>323.0</ele><time>2026-03-22T11:07:44Z</time></trkpt><trkpt lat="36.93535321055826" lon="15.059089440593397"><ele>324.0</ele><time>2026-03-22T11:07:45Z</time></trkpt><trkpt lat="36.93521641695838" lon="15.059277756325653"><ele>325.0</ele><time>2026-03-22T11:07:46Z</time></trkpt><trkpt lat="36.935081731477545" lon="15.059463024727435"><ele>326.0</ele><time>2026-03-22T11:07:47Z</time></trkpt><trkpt lat="36.934953577517334" lon="15.059638984907004"><ele>324.33333333333337</ele><time>2026-03-22T11:07:48Z</time></trkpt><trkpt lat="36.9348262327149" lon="15.05981300189704"><ele>322.6666666666667</ele><time>2026-03-22T11:07:49Z</time></trkpt><trkpt lat="36.93469728395838" lon="15.0599885273989"><ele>321.0</ele><time>2026-03-22T11:07:50Z</time></trkpt><trkpt lat="36.93456872549154" lon="15.060162152486384"><ele>321.0</ele><time>2026-03-22T11:07:51Z</time></trkpt><trkpt lat="36.93444796855639" lon="15.06033290082842"><ele>321.0</ele><time>2026-03-22T11:07:52Z</time></trkpt><trkpt lat="36.93433921352422" lon="15.060501906653181"><ele>321.0</ele><time>2026-03-22T11:07:53Z</time></trkpt><trkpt lat="36.93426104450226" lon="15.060671300354063"><ele>322.0</ele><time>2026-03-22T11:07:54Z</time></trkpt><trkpt lat="36.93422822641115" lon="15.0608756895397"><ele>323.0</ele><time>2026-03-22T11:07:55Z</time></trkpt><trkpt lat="36.93421473171009" lon="15.061072922979733"><ele>324.0</ele><time>2026-03-22T11:07:56Z</time></trkpt><trkpt lat="36.93420474704667" lon="15.061275721329778"><ele>319.0</ele><time>2026-03-22T11:07:57Z</time></trkpt><trkpt lat="36.934194251534905" lon="15.061481869870562"><ele>314.0</ele><time>2026-03-22T11:07:58Z</time></trkpt><trkpt lat="36.93416764278279" lon="15.061697513411056"><ele>309.0</ele><time>2026-03-22T11:07:59Z</time></trkpt><trkpt lat="36.934111279898566" lon="15.061897642773536"><ele>309.0</ele><time>2026-03-22T11:08:00Z</time></trkpt><trkpt lat="36.93404292701651" lon="15.062151282613161"><ele>309.0</ele><time>2026-03-22T11:08:01Z</time></trkpt><trkpt lat="36.93401597832041" lon="15.062296623617367"><ele>309.0</ele><time>2026-03-22T11:08:02Z</time></trkpt><trkpt lat="36.933988406207945" lon="15.062455503500818"><ele>310.0</ele><time>2026-03-22T11:08:03Z</time></trkpt><trkpt lat="36.933961665516435" lon="15.062604879926992"><ele>311.0</ele><time>2026-03-22T11:08:04Z</time></trkpt><trkpt lat="36.93392935055234" lon="15.062740070147587"><ele>312.0</ele><time>2026-03-22T11:08:05Z</time></trkpt><trkpt lat="36.93388531459213" lon="15.062859271452322"><ele>313.0</ele><time>2026-03-22T11:08:06Z</time></trkpt><trkpt lat="36.9338360529975" lon="15.062974268942492"><ele>314.0</ele><time>2026-03-22T11:08:07Z</time></trkpt><trkpt lat="36.93378762760734" lon="15.063062733854025"><ele>314.0</ele><time>2026-03-22T11:08:08Z</time></trkpt><trkpt lat="36.933730153887346" lon="15.063115510250448"><ele>314.0</ele><time>2026-03-22T11:08:09Z</time></trkpt><trkpt lat="36.93362939416205" lon="15.06316883898102"><ele>314.0</ele><time>2026-03-22T11:08:11Z</time></trkpt><trkpt lat="36.93352425128652" lon="15.063130849937066"><ele>314.0</ele><time>2026-03-22T11:08:13Z</time></trkpt><trkpt lat="36.93347696272972" lon="15.063030027528185"><ele>314.0</ele><time>2026-03-22T11:08:14Z</time></trkpt><trkpt lat="36.93346338701408" lon="15.06291944382101"><ele>314.0</ele><time>2026-03-22T11:08:15Z</time></trkpt><trkpt lat="36.933471820140156" lon="15.062795721760441"><ele>314.0</ele><time>2026-03-22T11:08:16Z</time></trkpt><trkpt lat="36.93349488530619" lon="15.062668155831513"><ele>314.0</ele><time>2026-03-22T11:08:17Z</time></trkpt><trkpt lat="36.933517203093814" lon="15.062532553298167"><ele>314.0</ele><time>2026-03-22T11:08:18Z</time></trkpt><trkpt lat="36.93350375357146" lon="15.062381086935476"><ele>314.0</ele><time>2026-03-22T11:08:19Z</time></trkpt><trkpt lat="36.93351405724313" lon="15.062171488909271"><ele>312.75</ele><time>2026-03-22T11:08:20Z</time></trkpt><trkpt lat="36.9334970680298" lon="15.06197640921215"><ele>311.5</ele><time>2026-03-22T11:08:21Z</time></trkpt><trkpt lat="36.93347029318256" lon="15.061801701188484"><ele>310.25</ele><time>2026-03-22T11:08:22Z</time></trkpt><trkpt lat="36.933418916726716" lon="15.061656677887967"><ele>309.0</ele><time>2026-03-22T11:08:23Z</time></trkpt><trkpt lat="36.93334828105816" lon="15.061539023797689"><ele>306.25</ele><time>2026-03-22T11:08:24Z</time></trkpt><trkpt lat="36.933234872760536" lon="15.061439231253521"><ele>303.5</ele><time>2026-03-22T11:08:25Z</time></trkpt><trkpt lat="36.93312301940979" lon="15.061385103897454"><ele>300.75</ele><time>2026-03-22T11:08:26Z</time></trkpt><trkpt lat="36.93302830260132" lon="15.061356829896003"><ele>298.0</ele><time>2026-03-22T11:08:27Z</time></trkpt><trkpt lat="36.93291588093413" lon="15.061392296622069"><ele>298.0</ele><time>2026-03-22T11:08:28Z</time></trkpt><trkpt lat="36.932804453330235" lon="15.061470898645615"><ele>298.0</ele><time>2026-03-22T11:08:29Z</time></trkpt><trkpt lat="36.93267913239323" lon="15.061551318532723"><ele>298.0</ele><time>2026-03-22T11:08:30Z</time></trkpt><trkpt lat="36.93253979564898" lon="15.061599229415162"><ele>298.0</ele><time>2026-03-22T11:08:31Z</time></trkpt><trkpt lat="36.93236933780033" lon="15.061640457321083"><ele>303.3333333333333</ele><time>2026-03-22T11:08:32Z</time></trkpt><trkpt lat="36.93218432617219" lon="15.061690956698733"><ele>308.6666666666667</ele><time>2026-03-22T11:08:33Z</time></trkpt><trkpt lat="36.93198694096895" lon="15.0617635113268"><ele>314.0</ele><time>2026-03-22T11:08:34Z</time></trkpt><trkpt lat="36.931783285175975" lon="15.061851649774814"><ele>312.33333333333337</ele><time>2026-03-22T11:08:35Z</time></trkpt><trkpt lat="36.93159096192816" lon="15.061952925451596"><ele>310.6666666666667</ele><time>2026-03-22T11:08:36Z</time></trkpt><trkpt lat="36.93140991050988" lon="15.06208387664715"><ele>309.0</ele><time>2026-03-22T11:08:37Z</time></trkpt><trkpt lat="36.93123622169936" lon="15.062213601093994"><ele>309.0</ele><time>2026-03-22T11:08:38Z</time></trkpt><trkpt lat="36.93106709451827" lon="15.062374874092198"><ele>309.0</ele><time>2026-03-22T11:08:39Z</time></trkpt><trkpt lat="36.93091299522494" lon="15.062546667083003"><ele>309.0</ele><time>2026-03-22T11:08:40Z</time></trkpt><trkpt lat="36.93075892801808" lon="15.06271926882364"><ele>313.3333333333333</ele><time>2026-03-22T11:08:41Z</time></trkpt><trkpt lat="36.93060460864502" lon="15.062892152937444"><ele>317.66666666666663</ele><time>2026-03-22T11:08:42Z</time></trkpt><trkpt lat="36.930450816529344" lon="15.063064447220121"><ele>322.0</ele><time>2026-03-22T11:08:43Z</time></trkpt><trkpt lat="36.930301345671936" lon="15.063231082834443"><ele>323.0</ele><time>2026-03-22T11:08:44Z</time></trkpt><trkpt lat="36.93015561239144" lon="15.063393724168982"><ele>324.0</ele><time>2026-03-22T11:08:45Z</time></trkpt><trkpt lat="36.93001164688146" lon="15.063553679586176"><ele>325.0</ele><time>2026-03-22T11:08:46Z</time></trkpt><trkpt lat="36.92986558408582" lon="15.063715573070374"><ele>325.0</ele><time>2026-03-22T11:08:47Z</time></trkpt><trkpt lat="36.929723468664044" lon="15.063873091302433"><ele>325.0</ele><time>2026-03-22T11:08:48Z</time></trkpt><trkpt lat="36.92959350802363" lon="15.064014114676057"><ele>325.0</ele><time>2026-03-22T11:08:49Z</time></trkpt><trkpt lat="36.92949402655338" lon="15.06411787668726"><ele>325.4</ele><time>2026-03-22T11:08:50Z</time></trkpt><trkpt lat="36.9294011831664" lon="15.064179343268878"><ele>325.8</ele><time>2026-03-22T11:08:51Z</time></trkpt><trkpt lat="36.92929432333621" lon="15.064228718466515"><ele>326.20000000000005</ele><time>2026-03-22T11:08:52Z</time></trkpt><trkpt lat="36.929171448786995" lon="15.06424293551882"><ele>326.6</ele><time>2026-03-22T11:08:53Z</time></trkpt><trkpt lat="36.929070925639834" lon="15.0642282814316"><ele>327.0</ele><time>2026-03-22T11:08:54Z</time></trkpt><trkpt lat="36.92895832365585" lon="15.064211096920168"><ele>327.20000000000005</ele><time>2026-03-22T11:08:55Z</time></trkpt><trkpt lat="36.92885323703324" lon="15.064198896438002"><ele>327.4</ele><time>2026-03-22T11:08:56Z</time></trkpt><trkpt lat="36.92877201984418" lon="15.064203531763658"><ele>327.6</ele><time>2026-03-22T11:08:57Z</time></trkpt><trkpt lat="36.92863912982073" lon="15.064265724145992"><ele>327.79999999999995</ele><time>2026-03-22T11:08:58Z</time></trkpt><trkpt lat="36.928542814969425" lon="15.064349006558247"><ele>328.0</ele><time>2026-03-22T11:08:59Z</time></trkpt><trkpt lat="36.92845333825697" lon="15.064441884329893"><ele>328.5</ele><time>2026-03-22T11:09:00Z</time></trkpt><trkpt lat="36.928359168538805" lon="15.064541137736763"><ele>329.0</ele><time>2026-03-22T11:09:01Z</time></trkpt><trkpt lat="36.92825670256436" lon="15.06464913627968"><ele>329.5</ele><time>2026-03-22T11:09:02Z</time></trkpt><trkpt lat="36.92814890693101" lon="15.06476004647779"><ele>330.0</ele><time>2026-03-22T11:09:03Z</time></trkpt><trkpt lat="36.92804820374038" lon="15.064862882057982"><ele>330.4</ele><time>2026-03-22T11:09:04Z</time></trkpt><trkpt lat="36.927954397344415" lon="15.064952262420643"><ele>330.8</ele><time>2026-03-22T11:09:05Z</time></trkpt><trkpt lat="36.92785764642328" lon="15.06503524329913"><ele>331.20000000000005</ele><time>2026-03-22T11:09:06Z</time></trkpt><trkpt lat="36.92779013089143" lon="15.0650859465651"><ele>331.6</ele><time>2026-03-22T11:09:07Z</time></trkpt><trkpt lat="36.927727756772455" lon="15.06512505885595"><ele>332.0</ele><time>2026-03-22T11:09:08Z</time></trkpt><trkpt lat="36.927640813474824" lon="15.065206444147702"><ele>332.0</ele><time>2026-03-22T11:09:10Z</time></trkpt><trkpt lat="36.9275766364127" lon="15.065110605164996"><ele>332.0</ele><time>2026-03-22T11:09:11Z</time></trkpt><trkpt lat="36.927504383282255" lon="15.065068372640244"><ele>332.0</ele><time>2026-03-22T11:09:12Z</time></trkpt><trkpt lat="36.92744241361838" lon="15.065002407331443"><ele>332.0</ele><time>2026-03-22T11:09:13Z</time></trkpt><trkpt lat="36.92737698513856" lon="15.064941931007944"><ele>332.0</ele><time>2026-03-22T11:09:14Z</time></trkpt><trkpt lat="36.927332411700114" lon="15.064874754156364"><ele>332.0</ele><time>2026-03-22T11:09:15Z</time></trkpt><trkpt lat="36.92728739687714" lon="15.064808144194231"><ele>330.5</ele><time>2026-03-22T11:09:16Z</time></trkpt><trkpt lat="36.927237402888004" lon="15.064740383395579"><ele>329.0</ele><time>2026-03-22T11:09:17Z</time></trkpt><trkpt lat="36.92717265775639" lon="15.064681007481923"><ele>327.5</ele><time>2026-03-22T11:09:18Z</time></trkpt><trkpt lat="36.927117564089905" lon="15.064629323292586"><ele>326.0</ele><time>2026-03-22T11:09:19Z</time></trkpt><trkpt lat="36.927046878693034" lon="15.064587491249691"><ele>324.5</ele><time>2026-03-22T11:09:20Z</time></trkpt><trkpt lat="36.9269659282045" lon="15.064560415096992"><ele>323.0</ele><time>2026-03-22T11:09:21Z</time></trkpt><trkpt lat="36.92688894089444" lon="15.06452412593559"><ele>323.0</ele><time>2026-03-22T11:09:22Z</time></trkpt><trkpt lat="36.926804671896434" lon="15.06451167983591"><ele>323.0</ele><time>2026-03-22T11:09:23Z</time></trkpt><trkpt lat="36.92671918832301" lon="15.06449641341447"><ele>323.0</ele><time>2026-03-22T11:09:24Z</time></trkpt><trkpt lat="36.92663524798978" lon="15.064481422587605"><ele>323.0</ele><time>2026-03-22T11:09:25Z</time></trkpt><trkpt lat="36.92654008925213" lon="15.06447252749775"><ele>323.0</ele><time>2026-03-22T11:09:26Z</time></trkpt><trkpt lat="36.92646448604996" lon="15.064476458931676"><ele>323.0</ele><time>2026-03-22T11:09:27Z</time></trkpt><trkpt lat="36.926385575375" lon="15.064499151388343"><ele>321.6666666666667</ele><time>2026-03-22T11:09:28Z</time></trkpt><trkpt lat="36.926309306277574" lon="15.06454052382583"><ele>320.33333333333337</ele><time>2026-03-22T11:09:29Z</time></trkpt><trkpt lat="36.926235284696155" lon="15.064579763836312"><ele>319.0</ele><time>2026-03-22T11:09:30Z</time></trkpt><trkpt lat="36.926155096171414" lon="15.064622273126465"><ele>317.6666666666667</ele><time>2026-03-22T11:09:31Z</time></trkpt><trkpt lat="36.926074743970126" lon="15.0646648691601"><ele>316.3333333333333</ele><time>2026-03-22T11:09:32Z</time></trkpt><trkpt lat="36.92600769573587" lon="15.064699143292424"><ele>315.0</ele><time>2026-03-22T11:09:33Z</time></trkpt><trkpt lat="36.925944546937956" lon="15.064730739508969"><ele>313.4</ele><time>2026-03-22T11:09:34Z</time></trkpt><trkpt lat="36.92582965045911" lon="15.064774634758363"><ele>311.8</ele><time>2026-03-22T11:09:36Z</time></trkpt><trkpt lat="36.92575732160711" lon="15.064771620362345"><ele>310.2</ele><time>2026-03-22T11:09:37Z</time></trkpt><trkpt lat="36.925659126945035" lon="15.064757102051853"><ele>308.6</ele><time>2026-03-22T11:09:38Z</time></trkpt><trkpt lat="36.92554156868017" lon="15.064739101395505"><ele>307.0</ele><time>2026-03-22T11:09:39Z</time></trkpt><trkpt lat="36.92540221854028" lon="15.064710524503697"><ele>307.0</ele><time>2026-03-22T11:09:40Z</time></trkpt><trkpt lat="36.92525267798938" lon="15.064669229962332"><ele>307.0</ele><time>2026-03-22T11:09:41Z</time></trkpt><trkpt lat="36.925101223432804" lon="15.064589382293697"><ele>307.0</ele><time>2026-03-22T11:09:42Z</time></trkpt><trkpt lat="36.92494269099336" lon="15.064498915989985"><ele>305.66666666666663</ele><time>2026-03-22T11:09:43Z</time></trkpt><trkpt lat="36.92476394151282" lon="15.064430502580906"><ele>304.3333333333333</ele><time>2026-03-22T11:09:44Z</time></trkpt><trkpt lat="36.92458636941907" lon="15.064346582231984"><ele>303.0</ele><time>2026-03-22T11:09:45Z</time></trkpt><trkpt lat="36.92439994497937" lon="15.06427554894934"><ele>302.6666666666667</ele><time>2026-03-22T11:09:46Z</time></trkpt><trkpt lat="36.92421327230458" lon="15.064195419250206"><ele>302.33333333333337</ele><time>2026-03-22T11:09:47Z</time></trkpt><trkpt lat="36.924028313757866" lon="15.064162160988635"><ele>302.0</ele><time>2026-03-22T11:09:48Z</time></trkpt><trkpt lat="36.92386039771822" lon="15.064150743042166"><ele>302.0</ele><time>2026-03-22T11:09:49Z</time></trkpt><trkpt lat="36.923710595027586" lon="15.064173172307312"><ele>302.0</ele><time>2026-03-22T11:09:50Z</time></trkpt><trkpt lat="36.92356591130811" lon="15.064231920175528"><ele>302.0</ele><time>2026-03-22T11:09:51Z</time></trkpt><trkpt lat="36.923416680357356" lon="15.064337302500713"><ele>297.6666666666667</ele><time>2026-03-22T11:09:52Z</time></trkpt><trkpt lat="36.92325720172014" lon="15.064452247728184"><ele>293.3333333333333</ele><time>2026-03-22T11:09:53Z</time></trkpt><trkpt lat="36.92308788376766" lon="15.064580722986989"><ele>289.0</ele><time>2026-03-22T11:09:54Z</time></trkpt><trkpt lat="36.92290637888219" lon="15.064715404326593"><ele>289.0</ele><time>2026-03-22T11:09:55Z</time></trkpt><trkpt lat="36.92271583072989" lon="15.064855802826763"><ele>289.0</ele><time>2026-03-22T11:09:56Z</time></trkpt><trkpt lat="36.92252838622807" lon="15.06499433167799"><ele>289.0</ele><time>2026-03-22T11:09:57Z</time></trkpt><trkpt lat="36.92233883425444" lon="15.06513663767217"><ele>289.3333333333333</ele><time>2026-03-22T11:09:58Z</time></trkpt><trkpt lat="36.92217234862617" lon="15.065266715112807"><ele>289.6666666666667</ele><time>2026-03-22T11:09:59Z</time></trkpt><trkpt lat="36.92203208249558" lon="15.065375023655768"><ele>290.0</ele><time>2026-03-22T11:10:00Z</time></trkpt><trkpt lat="36.921935876977905" lon="15.065450944698647"><ele>290.0</ele><time>2026-03-22T11:10:01Z</time></trkpt><trkpt lat="36.921872886298914" lon="15.06551376510514"><ele>290.0</ele><time>2026-03-22T11:10:02Z</time></trkpt><trkpt lat="36.921793614246496" lon="15.06565670042628"><ele>290.0</ele><time>2026-03-22T11:10:03Z</time></trkpt><trkpt lat="36.92175723347842" lon="15.06576781638609"><ele>290.0</ele><time>2026-03-22T11:10:04Z</time></trkpt><trkpt lat="36.92170882684954" lon="15.065842622593019"><ele>290.0</ele><time>2026-03-22T11:10:05Z</time></trkpt><trkpt lat="36.92160011518153" lon="15.065865394587528"><ele>289.8</ele><time>2026-03-22T11:10:07Z</time></trkpt><trkpt lat="36.921510385804254" lon="15.065826148042914"><ele>289.6</ele><time>2026-03-22T11:10:08Z</time></trkpt><trkpt lat="36.921393561044454" lon="15.065771700548357"><ele>289.4</ele><time>2026-03-22T11:10:09Z</time></trkpt><trkpt lat="36.92128666645078" lon="15.065754590855462"><ele>289.2</ele><time>2026-03-22T11:10:10Z</time></trkpt><trkpt lat="36.9211762496637" lon="15.065794889840474"><ele>289.0</ele><time>2026-03-22T11:10:11Z</time></trkpt><trkpt lat="36.921039387799446" lon="15.065861021480229"><ele>289.0</ele><time>2026-03-22T11:10:12Z</time></trkpt><trkpt lat="36.920907442911044" lon="15.0659066205571"><ele>289.0</ele><time>2026-03-22T11:10:13Z</time></trkpt><trkpt lat="36.92079186362171" lon="15.065912838031789"><ele>289.0</ele><time>2026-03-22T11:10:14Z</time></trkpt><trkpt lat="36.92068845544985" lon="15.065848215050522"><ele>289.0</ele><time>2026-03-22T11:10:15Z</time></trkpt><trkpt lat="36.92057425757317" lon="15.065781220224071"><ele>284.66666666666663</ele><time>2026-03-22T11:10:16Z</time></trkpt><trkpt lat="36.920443381033316" lon="15.065739740095431"><ele>280.3333333333333</ele><time>2026-03-22T11:10:17Z</time></trkpt><trkpt lat="36.92028666082392" lon="15.065783901366347"><ele>276.0</ele><time>2026-03-22T11:10:18Z</time></trkpt><trkpt lat="36.920119698542194" lon="15.065798001400221"><ele>274.3333333333333</ele><time>2026-03-22T11:10:19Z</time></trkpt><trkpt lat="36.91993043635732" lon="15.065827052726588"><ele>272.66666666666663</ele><time>2026-03-22T11:10:20Z</time></trkpt><trkpt lat="36.919728478130196" lon="15.065877654638225"><ele>271.0</ele><time>2026-03-22T11:10:21Z</time></trkpt><trkpt lat="36.91956758317224" lon="15.065910992216919"><ele>271.0</ele><time>2026-03-22T11:10:22Z</time></trkpt><trkpt lat="36.919424777364014" lon="15.065877562142543"><ele>271.0</ele><time>2026-03-22T11:10:23Z</time></trkpt><trkpt lat="36.91928734053557" lon="15.065794701185226"><ele>271.0</ele><time>2026-03-22T11:10:24Z</time></trkpt><trkpt lat="36.91911629141171" lon="15.065695279029688"><ele>264.3333333333333</ele><time>2026-03-22T11:10:25Z</time></trkpt><trkpt lat="36.91893671826042" lon="15.065592002926655"><ele>257.6666666666667</ele><time>2026-03-22T11:10:26Z</time></trkpt><trkpt lat="36.91875146187587" lon="15.065483105326889"><ele>251.0</ele><time>2026-03-22T11:10:27Z</time></trkpt><trkpt lat="36.9186116655243" lon="15.065411364972737"><ele>251.0</ele><time>2026-03-22T11:10:28Z</time></trkpt><trkpt lat="36.9184329462994" lon="15.065378826647239"><ele>251.0</ele><time>2026-03-22T11:10:29Z</time></trkpt><trkpt lat="36.91824471807563" lon="15.065368234769167"><ele>251.0</ele><time>2026-03-22T11:10:30Z</time></trkpt><trkpt lat="36.918057066995466" lon="15.065371762943736"><ele>252.0</ele><time>2026-03-22T11:10:31Z</time></trkpt><trkpt lat="36.91786824668479" lon="15.065391884184539"><ele>253.0</ele><time>2026-03-22T11:10:32Z</time></trkpt><trkpt lat="36.9176741517146" lon="15.065399126966813"><ele>254.0</ele><time>2026-03-22T11:10:33Z</time></trkpt><trkpt lat="36.917481625550494" lon="15.065405160552201"><ele>250.33333333333334</ele><time>2026-03-22T11:10:34Z</time></trkpt><trkpt lat="36.91729611783806" lon="15.065401358215675"><ele>246.66666666666669</ele><time>2026-03-22T11:10:35Z</time></trkpt><trkpt lat="36.917120540283115" lon="15.065367316629343"><ele>243.0</ele><time>2026-03-22T11:10:36Z</time></trkpt><trkpt lat="36.91695462693845" lon="15.06531138920261"><ele>243.0</ele><time>2026-03-22T11:10:37Z</time></trkpt><trkpt lat="36.91679664237023" lon="15.065240750440912"><ele>243.0</ele><time>2026-03-22T11:10:38Z</time></trkpt><trkpt lat="36.9166331736447" lon="15.065161383271008"><ele>243.0</ele><time>2026-03-22T11:10:39Z</time></trkpt><trkpt lat="36.916477234814124" lon="15.065096341888816"><ele>241.0</ele><time>2026-03-22T11:10:40Z</time></trkpt><trkpt lat="36.916314592802806" lon="15.065020827057776"><ele>239.0</ele><time>2026-03-22T11:10:41Z</time></trkpt><trkpt lat="36.91614354802998" lon="15.06495634554581"><ele>237.0</ele><time>2026-03-22T11:10:42Z</time></trkpt><trkpt lat="36.91596482645086" lon="15.064911811498161"><ele>232.66666666666669</ele><time>2026-03-22T11:10:43Z</time></trkpt><trkpt lat="36.915786833457325" lon="15.06485932203869"><ele>228.33333333333334</ele><time>2026-03-22T11:10:44Z</time></trkpt><trkpt lat="36.91560797794682" lon="15.06484501544496"><ele>224.0</ele><time>2026-03-22T11:10:45Z</time></trkpt><trkpt lat="36.9154342415788" lon="15.064844751152837"><ele>224.0</ele><time>2026-03-22T11:10:46Z</time></trkpt><trkpt lat="36.91526494270341" lon="15.064871410217826"><ele>224.0</ele><time>2026-03-22T11:10:47Z</time></trkpt><trkpt lat="36.91510443928515" lon="15.064929086777104"><ele>224.0</ele><time>2026-03-22T11:10:48Z</time></trkpt><trkpt lat="36.91495095257819" lon="15.064988817269727"><ele>229.66666666666669</ele><time>2026-03-22T11:10:49Z</time></trkpt><trkpt lat="36.914800829666426" lon="15.065038774618518"><ele>235.33333333333331</ele><time>2026-03-22T11:10:50Z</time></trkpt><trkpt lat="36.91465867928784" lon="15.065050937641281"><ele>241.0</ele><time>2026-03-22T11:10:51Z</time></trkpt><trkpt lat="36.91450438513821" lon="15.065056443520398"><ele>241.0</ele><time>2026-03-22T11:10:52Z</time></trkpt><trkpt lat="36.91435235093355" lon="15.065055849821693"><ele>241.0</ele><time>2026-03-22T11:10:53Z</time></trkpt><trkpt lat="36.91420848255614" lon="15.065049164856633"><ele>241.0</ele><time>2026-03-22T11:10:54Z</time></trkpt><trkpt lat="36.914085032735166" lon="15.065015012964382"><ele>241.0</ele><time>2026-03-22T11:10:55Z</time></trkpt><trkpt lat="36.91395977280521" lon="15.064973974776583"><ele>231.66666666666666</ele><time>2026-03-22T11:10:56Z</time></trkpt><trkpt lat="36.91384748844544" lon="15.064881458939087"><ele>222.33333333333331</ele><time>2026-03-22T11:10:57Z</time></trkpt><trkpt lat="36.913693057031296" lon="15.064812392526097"><ele>213.0</ele><time>2026-03-22T11:10:58Z</time></trkpt><trkpt lat="36.91353986597143" lon="15.06475695973874"><ele>213.66666666666669</ele><time>2026-03-22T11:10:59Z</time></trkpt><trkpt lat="36.913391584644515" lon="15.064736033995693"><ele>214.33333333333334</ele><time>2026-03-22T11:11:00Z</time></trkpt><trkpt lat="36.91322299456573" lon="15.064722771406874"><ele>215.0</ele><time>2026-03-22T11:11:01Z</time></trkpt><trkpt lat="36.91305559773658" lon="15.064766252925624"><ele>215.0</ele><time>2026-03-22T11:11:02Z</time></trkpt><trkpt lat="36.91289380140098" lon="15.064822770730546"><ele>215.0</ele><time>2026-03-22T11:11:03Z</time></trkpt><trkpt lat="36.912736116969185" lon="15.064882302474793"><ele>215.0</ele><time>2026-03-22T11:11:04Z</time></trkpt><trkpt lat="36.91259076846429" lon="15.064976512726941"><ele>217.33333333333334</ele><time>2026-03-22T11:11:05Z</time></trkpt><trkpt lat="36.91246228173771" lon="15.065097607231099"><ele>219.66666666666669</ele><time>2026-03-22T11:11:06Z</time></trkpt><trkpt lat="36.912347732161415" lon="15.065246166456856"><ele>222.0</ele><time>2026-03-22T11:11:07Z</time></trkpt><trkpt lat="36.91223379496601" lon="15.065401872866223"><ele>222.0</ele><time>2026-03-22T11:11:08Z</time></trkpt><trkpt lat="36.9121235155546" lon="15.065564687622683"><ele>222.0</ele><time>2026-03-22T11:11:09Z</time></trkpt><trkpt lat="36.912008251285364" lon="15.06572164530922"><ele>222.0</ele><time>2026-03-22T11:11:10Z</time></trkpt><trkpt lat="36.911890742890584" lon="15.065869515150101"><ele>219.33333333333331</ele><time>2026-03-22T11:11:11Z</time></trkpt><trkpt lat="36.911766552648004" lon="15.065989650116808"><ele>216.66666666666666</ele><time>2026-03-22T11:11:12Z</time></trkpt><trkpt lat="36.911635406467795" lon="15.066096447258232"><ele>214.0</ele><time>2026-03-22T11:11:13Z</time></trkpt><trkpt lat="36.91149670153257" lon="15.066196600432594"><ele>214.0</ele><time>2026-03-22T11:11:14Z</time></trkpt><trkpt lat="36.91137060600032" lon="15.066284354324477"><ele>214.0</ele><time>2026-03-22T11:11:15Z</time></trkpt><trkpt lat="36.91123713750489" lon="15.066376470649223"><ele>214.0</ele><time>2026-03-22T11:11:16Z</time></trkpt><trkpt lat="36.911102522705065" lon="15.066467293688168"><ele>214.0</ele><time>2026-03-22T11:11:17Z</time></trkpt><trkpt lat="36.9109665954428" lon="15.066561573643325"><ele>214.0</ele><time>2026-03-22T11:11:18Z</time></trkpt><trkpt lat="36.910842688779795" lon="15.06665309343221"><ele>214.0</ele><time>2026-03-22T11:11:19Z</time></trkpt><trkpt lat="36.91072368371061" lon="15.066747072239735"><ele>214.0</ele><time>2026-03-22T11:11:20Z</time></trkpt><trkpt lat="36.910610597491925" lon="15.06686630156058"><ele>213.75</ele><time>2026-03-22T11:11:21Z</time></trkpt><trkpt lat="36.91052222901185" lon="15.06700654406089"><ele>213.5</ele><time>2026-03-22T11:11:22Z</time></trkpt><trkpt lat="36.91043616132458" lon="15.06715011074014"><ele>213.25</ele><time>2026-03-22T11:11:23Z</time></trkpt><trkpt lat="36.91035429047245" lon="15.067291775400177"><ele>213.0</ele><time>2026-03-22T11:11:24Z</time></trkpt><trkpt lat="36.910277334744684" lon="15.067425020437968"><ele>214.0</ele><time>2026-03-22T11:11:25Z</time></trkpt><trkpt lat="36.910206493061345" lon="15.067547622403376"><ele>215.0</ele><time>2026-03-22T11:11:26Z</time></trkpt><trkpt lat="36.91013912795769" lon="15.067664207643348"><ele>216.0</ele><time>2026-03-22T11:11:27Z</time></trkpt><trkpt lat="36.91007221766181" lon="15.067773488616732"><ele>217.0</ele><time>2026-03-22T11:11:28Z</time></trkpt><trkpt lat="36.909997784162144" lon="15.067872243099602"><ele>214.5</ele><time>2026-03-22T11:11:29Z</time></trkpt><trkpt lat="36.9099102216746" lon="15.067930726599911"><ele>212.0</ele><time>2026-03-22T11:11:30Z</time></trkpt><trkpt lat="36.909803444575815" lon="15.06799747040126"><ele>209.5</ele><time>2026-03-22T11:11:31Z</time></trkpt><trkpt lat="36.90968990164947" lon="15.068062954754462"><ele>207.0</ele><time>2026-03-22T11:11:32Z</time></trkpt><trkpt lat="36.909562232639395" lon="15.068134387856869"><ele>207.0</ele><time>2026-03-22T11:11:33Z</time></trkpt><trkpt lat="36.909438442450394" lon="15.06820090120166"><ele>207.0</ele><time>2026-03-22T11:11:34Z</time></trkpt><trkpt lat="36.90931053751517" lon="15.068270507527878"><ele>207.0</ele><time>2026-03-22T11:11:35Z</time></trkpt><trkpt lat="36.90918630930427" lon="15.068339899300199"><ele>207.0</ele><time>2026-03-22T11:11:36Z</time></trkpt><trkpt lat="36.90905745036017" lon="15.068416009836405"><ele>206.5</ele><time>2026-03-22T11:11:37Z</time></trkpt><trkpt lat="36.90891899019922" lon="15.068498842433838"><ele>206.0</ele><time>2026-03-22T11:11:38Z</time></trkpt><trkpt lat="36.90879496794522" lon="15.068568403731"><ele>205.5</ele><time>2026-03-22T11:11:39Z</time></trkpt><trkpt lat="36.9086884920503" lon="15.068622033214101"><ele>205.0</ele><time>2026-03-22T11:11:40Z</time></trkpt><trkpt lat="36.908605852238836" lon="15.068660100648241"><ele>205.0</ele><time>2026-03-22T11:11:41Z</time></trkpt><trkpt lat="36.90846130583122" lon="15.06871687669543"><ele>205.0</ele><time>2026-03-22T11:11:42Z</time></trkpt><trkpt lat="36.90833017907769" lon="15.068757538465439"><ele>205.0</ele><time>2026-03-22T11:11:43Z</time></trkpt><trkpt lat="36.90819706310848" lon="15.068793923247796"><ele>205.0</ele><time>2026-03-22T11:11:44Z</time></trkpt><trkpt lat="36.90806257740746" lon="15.068824690986649"><ele>202.0</ele><time>2026-03-22T11:11:45Z</time></trkpt><trkpt lat="36.90789627477318" lon="15.068860209540544"><ele>199.0</ele><time>2026-03-22T11:11:46Z</time></trkpt><trkpt lat="36.907707582959944" lon="15.068898080293298"><ele>196.0</ele><time>2026-03-22T11:11:47Z</time></trkpt><trkpt lat="36.90749657006915" lon="15.068936666481678"><ele>192.66666666666666</ele><time>2026-03-22T11:11:48Z</time></trkpt><trkpt lat="36.907270355369704" lon="15.068970424254873"><ele>189.33333333333331</ele><time>2026-03-22T11:11:49Z</time></trkpt><trkpt lat="36.907051138240924" lon="15.068991295280526"><ele>186.0</ele><time>2026-03-22T11:11:50Z</time></trkpt><trkpt lat="36.90683642990549" lon="15.069004858787654"><ele>184.5</ele><time>2026-03-22T11:11:51Z</time></trkpt><trkpt lat="36.90661739931417" lon="15.069018341615042"><ele>183.0</ele><time>2026-03-22T11:11:52Z</time></trkpt><trkpt lat="36.90638314995225" lon="15.069032458977595"><ele>183.0</ele><time>2026-03-22T11:11:53Z</time></trkpt><trkpt lat="36.906149634776476" lon="15.069038711027641"><ele>183.0</ele><time>2026-03-22T11:11:54Z</time></trkpt><trkpt lat="36.905943034773806" lon="15.069029979748663"><ele>183.0</ele><time>2026-03-22T11:11:55Z</time></trkpt><trkpt lat="36.905730952700175" lon="15.069008436472167"><ele>183.33333333333334</ele><time>2026-03-22T11:11:56Z</time></trkpt><trkpt lat="36.90551330549156" lon="15.06899379499626"><ele>183.66666666666669</ele><time>2026-03-22T11:11:57Z</time></trkpt><trkpt lat="36.905311473140074" lon="15.068981108653514"><ele>184.0</ele><time>2026-03-22T11:11:58Z</time></trkpt><trkpt lat="36.905125290602385" lon="15.068969953200979"><ele>182.33333333333334</ele><time>2026-03-22T11:11:59Z</time></trkpt><trkpt lat="36.90492631811062" lon="15.068964710305702"><ele>180.66666666666666</ele><time>2026-03-22T11:12:00Z</time></trkpt><trkpt lat="36.90473733415706" lon="15.068959435526853"><ele>179.0</ele><time>2026-03-22T11:12:01Z</time></trkpt><trkpt lat="36.90455039004401" lon="15.068937603419167"><ele>179.0</ele><time>2026-03-22T11:12:02Z</time></trkpt><trkpt lat="36.90437571256619" lon="15.068877526897962"><ele>179.0</ele><time>2026-03-22T11:12:03Z</time></trkpt><trkpt lat="36.90419250008451" lon="15.06884124521772"><ele>179.0</ele><time>2026-03-22T11:12:04Z</time></trkpt><trkpt lat="36.90403016914331" lon="15.068751485681856"><ele>178.33333333333331</ele><time>2026-03-22T11:12:05Z</time></trkpt><trkpt lat="36.903874331177484" lon="15.06865739381341"><ele>177.66666666666666</ele><time>2026-03-22T11:12:06Z</time></trkpt><trkpt lat="36.90371985422523" lon="15.068570651931914"><ele>177.0</ele><time>2026-03-22T11:12:07Z</time></trkpt><trkpt lat="36.90357644805623" lon="15.068469543481253"><ele>177.0</ele><time>2026-03-22T11:12:08Z</time></trkpt><trkpt lat="36.903423158521" lon="15.068394519657607"><ele>177.0</ele><time>2026-03-22T11:12:09Z</time></trkpt><trkpt lat="36.903274209108744" lon="15.068321455054903"><ele>177.0</ele><time>2026-03-22T11:12:10Z</time></trkpt><trkpt lat="36.9031275411449" lon="15.068248845153265"><ele>177.33333333333334</ele><time>2026-03-22T11:12:11Z</time></trkpt><trkpt lat="36.90297177110441" lon="15.068171736386889"><ele>177.66666666666669</ele><time>2026-03-22T11:12:12Z</time></trkpt><trkpt lat="36.90280876087926" lon="15.068133581842396"><ele>178.0</ele><time>2026-03-22T11:12:13Z</time></trkpt><trkpt lat="36.90265654127202" lon="15.068056567937987"><ele>178.25</ele><time>2026-03-22T11:12:14Z</time></trkpt><trkpt lat="36.902516898641046" lon="15.067985960561133"><ele>178.5</ele><time>2026-03-22T11:12:15Z</time></trkpt><trkpt lat="36.90238352840686" lon="15.067930980464347"><ele>178.75</ele><time>2026-03-22T11:12:16Z</time></trkpt><trkpt lat="36.902256945016376" lon="15.067879300680643"><ele>179.0</ele><time>2026-03-22T11:12:17Z</time></trkpt><trkpt lat="36.90212183801194" lon="15.067888191778863"><ele>179.0</ele><time>2026-03-22T11:12:18Z</time></trkpt><trkpt lat="36.90198210600926" lon="15.067911915587091"><ele>179.0</ele><time>2026-03-22T11:12:19Z</time></trkpt><trkpt lat="36.90184525915233" lon="15.067943046578641"><ele>179.0</ele><time>2026-03-22T11:12:20Z</time></trkpt><trkpt lat="36.90170824702628" lon="15.067974642495813"><ele>179.0</ele><time>2026-03-22T11:12:21Z</time></trkpt><trkpt lat="36.90157073314943" lon="15.068009212719192"><ele>178.75</ele><time>2026-03-22T11:12:22Z</time></trkpt><trkpt lat="36.90145122621586" lon="15.068037614569533"><ele>178.5</ele><time>2026-03-22T11:12:23Z</time></trkpt><trkpt lat="36.901325390339615" lon="15.068069333478867"><ele>178.25</ele><time>2026-03-22T11:12:24Z</time></trkpt><trkpt lat="36.90121907596229" lon="15.06809685108245"><ele>178.0</ele><time>2026-03-22T11:12:25Z</time></trkpt><trkpt lat="36.901120748824205" lon="15.068124437199419"><ele>178.0</ele><time>2026-03-22T11:12:26Z</time></trkpt><trkpt lat="36.90103829610728" lon="15.068152200773852"><ele>178.0</ele><time>2026-03-22T11:12:27Z</time></trkpt><trkpt lat="36.900950490418225" lon="15.0682077367367"><ele>178.0</ele><time>2026-03-22T11:12:29Z</time></trkpt><trkpt lat="36.90087071772568" lon="15.068248724398757"><ele>178.0</ele><time>2026-03-22T11:12:31Z</time></trkpt><trkpt lat="36.90080215693512" lon="15.068292269858052"><ele>178.0</ele><time>2026-03-22T11:12:32Z</time></trkpt><trkpt lat="36.90075289665567" lon="15.068395534843102"><ele>178.0</ele><time>2026-03-22T11:12:33Z</time></trkpt><trkpt lat="36.900673489667234" lon="15.068459993613677"><ele>177.75</ele><time>2026-03-22T11:12:34Z</time></trkpt><trkpt lat="36.900580525605186" lon="15.068517882761904"><ele>177.5</ele><time>2026-03-22T11:12:35Z</time></trkpt><trkpt lat="36.90048599637418" lon="15.06859680615441"><ele>177.25</ele><time>2026-03-22T11:12:36Z</time></trkpt><trkpt lat="36.90035382893099" lon="15.068650146785124"><ele>177.0</ele><time>2026-03-22T11:12:37Z</time></trkpt><trkpt lat="36.900249830600345" lon="15.068774610812874"><ele>177.0</ele><time>2026-03-22T11:12:38Z</time></trkpt><trkpt lat="36.90014012282752" lon="15.068902826143757"><ele>177.0</ele><time>2026-03-22T11:12:39Z</time></trkpt><trkpt lat="36.90002471790002" lon="15.069036814577116"><ele>177.0</ele><time>2026-03-22T11:12:40Z</time></trkpt><trkpt lat="36.899905406045036" lon="15.069174115663458"><ele>177.5</ele><time>2026-03-22T11:12:41Z</time></trkpt><trkpt lat="36.8997886433004" lon="15.069310157922963"><ele>178.0</ele><time>2026-03-22T11:12:42Z</time></trkpt><trkpt lat="36.899690122066545" lon="15.069424946719057"><ele>178.5</ele><time>2026-03-22T11:12:43Z</time></trkpt><trkpt lat="36.899608306751134" lon="15.069520271049331"><ele>179.0</ele><time>2026-03-22T11:12:44Z</time></trkpt><trkpt lat="36.89953859551705" lon="15.069601492792428"><ele>179.0</ele><time>2026-03-22T11:12:45Z</time></trkpt><trkpt lat="36.899477380821125" lon="15.069672815065559"><ele>179.0</ele><time>2026-03-22T11:12:46Z</time></trkpt><trkpt lat="36.8994209690087" lon="15.06973701074161"><ele>179.0</ele><time>2026-03-22T11:12:47Z</time></trkpt><trkpt lat="36.899363124487856" lon="15.069802776245695"><ele>179.0</ele><time>2026-03-22T11:12:48Z</time></trkpt><trkpt lat="36.89931454637178" lon="15.06985800641277"><ele>179.0</ele><time>2026-03-22T11:12:49Z</time></trkpt><trkpt lat="36.89922491827661" lon="15.069959907769881"><ele>179.0</ele><time>2026-03-22T11:12:51Z</time></trkpt><trkpt lat="36.89914749164687" lon="15.070049192923364"><ele>178.79999999999998</ele><time>2026-03-22T11:12:53Z</time></trkpt><trkpt lat="36.89906993643169" lon="15.07013905907657"><ele>178.6</ele><time>2026-03-22T11:12:55Z</time></trkpt><trkpt lat="36.89902039271128" lon="15.070196467242958"><ele>178.4</ele><time>2026-03-22T11:12:56Z</time></trkpt><trkpt lat="36.89895355087849" lon="15.070273920045656"><ele>178.2</ele><time>2026-03-22T11:12:57Z</time></trkpt><trkpt lat="36.8988815383234" lon="15.070359882597753"><ele>178.0</ele><time>2026-03-22T11:12:58Z</time></trkpt><trkpt lat="36.89878245179968" lon="15.070475612814805"><ele>178.0</ele><time>2026-03-22T11:12:59Z</time></trkpt><trkpt lat="36.89867832637883" lon="15.07059379648925"><ele>178.0</ele><time>2026-03-22T11:13:00Z</time></trkpt><trkpt lat="36.898555655382154" lon="15.070733030340971"><ele>178.0</ele><time>2026-03-22T11:13:01Z</time></trkpt><trkpt lat="36.898434262355664" lon="15.070873715406186"><ele>177.66666666666669</ele><time>2026-03-22T11:13:02Z</time></trkpt><trkpt lat="36.89831224310106" lon="15.071014569875237"><ele>177.33333333333334</ele><time>2026-03-22T11:13:03Z</time></trkpt><trkpt lat="36.89820147863503" lon="15.071143594817169"><ele>177.0</ele><time>2026-03-22T11:13:04Z</time></trkpt><trkpt lat="36.89809323671689" lon="15.071270610203952"><ele>177.0</ele><time>2026-03-22T11:13:05Z</time></trkpt><trkpt lat="36.89798309366224" lon="15.071394487497692"><ele>177.0</ele><time>2026-03-22T11:13:06Z</time></trkpt><trkpt lat="36.897867443660964" lon="15.071525922610771"><ele>177.0</ele><time>2026-03-22T11:13:07Z</time></trkpt><trkpt lat="36.89774707973971" lon="15.071663328367269"><ele>177.0</ele><time>2026-03-22T11:13:08Z</time></trkpt><trkpt lat="36.897609426449684" lon="15.071821027822054"><ele>177.0</ele><time>2026-03-22T11:13:09Z</time></trkpt><trkpt lat="36.89747355721079" lon="15.071976683485627"><ele>177.0</ele><time>2026-03-22T11:13:10Z</time></trkpt><trkpt lat="36.89734505139437" lon="15.072122980669997"><ele>176.0</ele><time>2026-03-22T11:13:11Z</time></trkpt><trkpt lat="36.89722067434986" lon="15.072264269893754"><ele>175.0</ele><time>2026-03-22T11:13:12Z</time></trkpt><trkpt lat="36.89710646070586" lon="15.072396163294568"><ele>174.0</ele><time>2026-03-22T11:13:13Z</time></trkpt><trkpt lat="36.89700710438822" lon="15.072555404001942"><ele>173.0</ele><time>2026-03-22T11:13:14Z</time></trkpt><trkpt lat="36.896952722432324" lon="15.072755383320061"><ele>172.0</ele><time>2026-03-22T11:13:15Z</time></trkpt><trkpt lat="36.89688891266075" lon="15.072934626636432"><ele>171.0</ele><time>2026-03-22T11:13:16Z</time></trkpt><trkpt lat="36.89681831562941" lon="15.07313031144996"><ele>171.66666666666666</ele><time>2026-03-22T11:13:17Z</time></trkpt><trkpt lat="36.896748020304535" lon="15.07332240018152"><ele>172.33333333333331</ele><time>2026-03-22T11:13:18Z</time></trkpt><trkpt lat="36.89667572362462" lon="15.073523995404976"><ele>173.0</ele><time>2026-03-22T11:13:19Z</time></trkpt><trkpt lat="36.89659759008804" lon="15.073717392740393"><ele>173.0</ele><time>2026-03-22T11:13:20Z</time></trkpt><trkpt lat="36.89650776111682" lon="15.073911751632538"><ele>173.0</ele><time>2026-03-22T11:13:21Z</time></trkpt><trkpt lat="36.896397063428765" lon="15.074074591460304"><ele>173.0</ele><time>2026-03-22T11:13:22Z</time></trkpt><trkpt lat="36.89628439397862" lon="15.07425428567524"><ele>170.66666666666666</ele><time>2026-03-22T11:13:23Z</time></trkpt><trkpt lat="36.89617804077832" lon="15.074427313507458"><ele>168.33333333333334</ele><time>2026-03-22T11:13:24Z</time></trkpt><trkpt lat="36.89608540951652" lon="15.074596192924053"><ele>166.0</ele><time>2026-03-22T11:13:25Z</time></trkpt><trkpt lat="36.896020245777315" lon="15.074745822157821"><ele>166.0</ele><time>2026-03-22T11:13:26Z</time></trkpt><trkpt lat="36.895971210742694" lon="15.074869262507159"><ele>166.0</ele><time>2026-03-22T11:13:27Z</time></trkpt><trkpt lat="36.89593498946215" lon="15.07496863865021"><ele>166.0</ele><time>2026-03-22T11:13:28Z</time></trkpt><trkpt lat="36.895876983947204" lon="15.075063172033053"><ele>166.0</ele><time>2026-03-22T11:13:30Z</time></trkpt><trkpt lat="36.8958235489503" lon="15.07500403021064"><ele>166.0</ele><time>2026-03-22T11:13:31Z</time></trkpt><trkpt lat="36.89573982907921" lon="15.074979810718043"><ele>166.5</ele><time>2026-03-22T11:13:32Z</time></trkpt><trkpt lat="36.895659917437634" lon="15.074949869321275"><ele>167.0</ele><time>2026-03-22T11:13:33Z</time></trkpt><trkpt lat="36.89555445996139" lon="15.074920457444154"><ele>167.5</ele><time>2026-03-22T11:13:34Z</time></trkpt><trkpt lat="36.895486570780854" lon="15.074914679184184"><ele>168.0</ele><time>2026-03-22T11:13:35Z</time></trkpt><trkpt lat="36.89539768973568" lon="15.074874869705278"><ele>168.5</ele><time>2026-03-22T11:13:36Z</time></trkpt><trkpt lat="36.89530647148724" lon="15.074841601343179"><ele>169.0</ele><time>2026-03-22T11:13:37Z</time></trkpt><trkpt lat="36.895181326887304" lon="15.074815249379135"><ele>169.0</ele><time>2026-03-22T11:13:38Z</time></trkpt><trkpt lat="36.895076079439356" lon="15.074770257282687"><ele>169.0</ele><time>2026-03-22T11:13:39Z</time></trkpt><trkpt lat="36.894979449959436" lon="15.074728382100332"><ele>169.0</ele><time>2026-03-22T11:13:40Z</time></trkpt><trkpt lat="36.89486748318464" lon="15.074713078100656"><ele>169.0</ele><time>2026-03-22T11:13:41Z</time></trkpt><trkpt lat="36.89475226639431" lon="15.074704170726905"><ele>169.0</ele><time>2026-03-22T11:13:42Z</time></trkpt><trkpt lat="36.89463706385506" lon="15.074709747843865"><ele>169.0</ele><time>2026-03-22T11:13:43Z</time></trkpt><trkpt lat="36.894547011494545" lon="15.07468737567559"><ele>169.0</ele><time>2026-03-22T11:13:44Z</time></trkpt><trkpt lat="36.894463098833995" lon="15.074617560207445"><ele>169.0</ele><time>2026-03-22T11:13:45Z</time></trkpt><trkpt lat="36.894401287104785" lon="15.074752106747223"><ele>169.0</ele><time>2026-03-22T11:13:47Z</time></trkpt><trkpt lat="36.89443680932374" lon="15.074818263463325"><ele>169.0</ele><time>2026-03-22T11:13:49Z</time></trkpt><trkpt lat="36.89442837431136" lon="15.074916662737245"><ele>169.0</ele><time>2026-03-22T11:13:51Z</time></trkpt><trkpt lat="36.89434770437029" lon="15.074855114248455"><ele>169.0</ele><time>2026-03-22T11:13:53Z</time></trkpt><trkpt lat="36.89427792310869" lon="15.074826726875784"><ele>169.0</ele><time>2026-03-22T11:13:54Z</time></trkpt><trkpt lat="36.89417660011324" lon="15.074806218574453"><ele>169.0</ele><time>2026-03-22T11:13:55Z</time></trkpt><trkpt lat="36.894053332220345" lon="15.0747403651325"><ele>169.0</ele><time>2026-03-22T11:13:56Z</time></trkpt><trkpt lat="36.89389319607258" lon="15.074688650425912"><ele>167.33333333333334</ele><time>2026-03-22T11:13:57Z</time></trkpt><trkpt lat="36.89372754741708" lon="15.07463970655828"><ele>165.66666666666666</ele><time>2026-03-22T11:13:58Z</time></trkpt><trkpt lat="36.89357412597239" lon="15.074596970248711"><ele>164.0</ele><time>2026-03-22T11:13:59Z</time></trkpt><trkpt lat="36.8934410941362" lon="15.074564415853038"><ele>161.79999999999998</ele><time>2026-03-22T11:14:00Z</time></trkpt><trkpt lat="36.89333943855862" lon="15.074537090028196"><ele>159.6</ele><time>2026-03-22T11:14:01Z</time></trkpt><trkpt lat="36.89325250949786" lon="15.074546307048319"><ele>157.4</ele><time>2026-03-22T11:14:02Z</time></trkpt><trkpt lat="36.89319591866961" lon="15.074595124676481"><ele>155.2</ele><time>2026-03-22T11:14:03Z</time></trkpt><trkpt lat="36.89319530036915" lon="15.074727393977977"><ele>153.0</ele><time>2026-03-22T11:14:04Z</time></trkpt><trkpt lat="36.89326505946791" lon="15.074832147540755"><ele>153.0</ele><time>2026-03-22T11:14:05Z</time></trkpt><trkpt lat="36.893350535922146" lon="15.074913696744789"><ele>153.0</ele><time>2026-03-22T11:14:06Z</time></trkpt><trkpt lat="36.89345187719988" lon="15.074984915559574"><ele>153.0</ele><time>2026-03-22T11:14:07Z</time></trkpt><trkpt lat="36.893552104732876" lon="15.075073854181612"><ele>153.0</ele><time>2026-03-22T11:14:08Z</time></trkpt><trkpt lat="36.89369163668416" lon="15.07517932074228"><ele>152.66666666666666</ele><time>2026-03-22T11:14:09Z</time></trkpt><trkpt lat="36.89379037300535" lon="15.0752310842605"><ele>152.33333333333331</ele><time>2026-03-22T11:14:10Z</time></trkpt><trkpt lat="36.8939837462252" lon="15.075234432739123"><ele>152.0</ele><time>2026-03-22T11:14:11Z</time></trkpt><trkpt lat="36.89414410616213" lon="15.075214297971609"><ele>154.39999999999998</ele><time>2026-03-22T11:14:12Z</time></trkpt><trkpt lat="36.894275855015685" lon="15.075234451834682"><ele>156.79999999999998</ele><time>2026-03-22T11:14:13Z</time></trkpt><trkpt lat="36.894362878117" lon="15.075283178326599"><ele>159.2</ele><time>2026-03-22T11:14:14Z</time></trkpt><trkpt lat="36.89441257752465" lon="15.07536110270172"><ele>161.6</ele><time>2026-03-22T11:14:15Z</time></trkpt><trkpt lat="36.89441474047155" lon="15.07544897594828"><ele>164.0</ele><time>2026-03-22T11:14:16Z</time></trkpt><trkpt lat="36.89429956088374" lon="15.075520866205002"><ele>160.0</ele><time>2026-03-22T11:14:18Z</time></trkpt><trkpt lat="36.89413657286924" lon="15.075379954919603"><ele>156.0</ele><time>2026-03-22T11:14:20Z</time></trkpt><trkpt lat="36.89400264462563" lon="15.07536101476589"><ele>152.0</ele><time>2026-03-22T11:14:21Z</time></trkpt><trkpt lat="36.89386748069079" lon="15.075341944693024"><ele>152.0</ele><time>2026-03-22T11:14:22Z</time></trkpt><trkpt lat="36.893718905547665" lon="15.075336024043862"><ele>152.0</ele><time>2026-03-22T11:14:23Z</time></trkpt><trkpt lat="36.893577873186246" lon="15.075325945030242"><ele>152.0</ele><time>2026-03-22T11:14:24Z</time></trkpt><trkpt lat="36.89344168602838" lon="15.075315144683403"><ele>152.0</ele><time>2026-03-22T11:14:25Z</time></trkpt><trkpt lat="36.893296623547506" lon="15.075336156144209"><ele>149.33333333333331</ele><time>2026-03-22T11:14:26Z</time></trkpt><trkpt lat="36.89314464948937" lon="15.075378071927435"><ele>146.66666666666666</ele><time>2026-03-22T11:14:27Z</time></trkpt><trkpt lat="36.89299933172431" lon="15.075415229702653"><ele>144.0</ele><time>2026-03-22T11:14:28Z</time></trkpt><trkpt lat="36.892855379968644" lon="15.075452038153307"><ele>144.0</ele><time>2026-03-22T11:14:29Z</time></trkpt><trkpt lat="36.89272888342532" lon="15.075480943462969"><ele>144.0</ele><time>2026-03-22T11:14:30Z</time></trkpt><trkpt lat="36.89259766264985" lon="15.075496685749759"><ele>144.0</ele><time>2026-03-22T11:14:31Z</time></trkpt><trkpt lat="36.892478003010766" lon="15.075445948001514"><ele>144.0</ele><time>2026-03-22T11:14:32Z</time></trkpt><trkpt lat="36.89235688544134" lon="15.075355991297045"><ele>142.25</ele><time>2026-03-22T11:14:33Z</time></trkpt><trkpt lat="36.892233851975924" lon="15.075269070810405"><ele>140.5</ele><time>2026-03-22T11:14:34Z</time></trkpt><trkpt lat="36.89213458617577" lon="15.075148465142256"><ele>138.75</ele><time>2026-03-22T11:14:35Z</time></trkpt><trkpt lat="36.89204690095854" lon="15.075050428876446"><ele>137.0</ele><time>2026-03-22T11:14:36Z</time></trkpt><trkpt lat="36.89200154832541" lon="15.074937066911613"><ele>137.0</ele><time>2026-03-22T11:14:37Z</time></trkpt><trkpt lat="36.891987927015045" lon="15.074802136369742"><ele>137.0</ele><time>2026-03-22T11:14:38Z</time></trkpt><trkpt lat="36.89194231674078" lon="15.074682688613628"><ele>137.0</ele><time>2026-03-22T11:14:39Z</time></trkpt><trkpt lat="36.891897941411145" lon="15.074626473069527"><ele>137.0</ele><time>2026-03-22T11:14:40Z</time></trkpt><trkpt lat="36.891826337289366" lon="15.074606110020024"><ele>137.0</ele><time>2026-03-22T11:14:41Z</time></trkpt><trkpt lat="36.89171319896901" lon="15.074680488080947"><ele>135.5</ele><time>2026-03-22T11:14:43Z</time></trkpt><trkpt lat="36.89166127668333" lon="15.07475193283362"><ele>134.0</ele><time>2026-03-22T11:14:44Z</time></trkpt><trkpt lat="36.89160783483192" lon="15.074829751908394"><ele>132.5</ele><time>2026-03-22T11:14:45Z</time></trkpt><trkpt lat="36.89155772712668" lon="15.074913659695376"><ele>131.0</ele><time>2026-03-22T11:14:46Z</time></trkpt><trkpt lat="36.891505624800175" lon="15.075002276188258"><ele>129.5</ele><time>2026-03-22T11:14:47Z</time></trkpt><trkpt lat="36.89145189429337" lon="15.075101433864276"><ele>128.0</ele><time>2026-03-22T11:14:48Z</time></trkpt><trkpt lat="36.89139996231558" lon="15.075210691604351"><ele>127.60000000000001</ele><time>2026-03-22T11:14:49Z</time></trkpt><trkpt lat="36.89135343320045" lon="15.075333159014546"><ele>127.20000000000002</ele><time>2026-03-22T11:14:50Z</time></trkpt><trkpt lat="36.891312220067974" lon="15.0754463602177"><ele>126.8</ele><time>2026-03-22T11:14:51Z</time></trkpt><trkpt lat="36.89127615563586" lon="15.07555645369091"><ele>126.4</ele><time>2026-03-22T11:14:52Z</time></trkpt><trkpt lat="36.891237864396864" lon="15.075656911401627"><ele>126.0</ele><time>2026-03-22T11:14:53Z</time></trkpt><trkpt lat="36.89118817085253" lon="15.075758965997448"><ele>124.5</ele><time>2026-03-22T11:14:54Z</time></trkpt><trkpt lat="36.89113004847773" lon="15.075848672995672"><ele>123.0</ele><time>2026-03-22T11:14:55Z</time></trkpt><trkpt lat="36.891052511318684" lon="15.075886453021043"><ele>121.5</ele><time>2026-03-22T11:14:56Z</time></trkpt><trkpt lat="36.89097866469609" lon="15.075913303850276"><ele>120.0</ele><time>2026-03-22T11:14:57Z</time></trkpt><trkpt lat="36.8908954703002" lon="15.075941523078512"><ele>118.5</ele><time>2026-03-22T11:14:58Z</time></trkpt><trkpt lat="36.89081667099711" lon="15.07596167297909"><ele>117.0</ele><time>2026-03-22T11:14:59Z</time></trkpt><trkpt lat="36.89072925247568" lon="15.075985721320537"><ele>116.57142857142858</ele><time>2026-03-22T11:15:00Z</time></trkpt><trkpt lat="36.8906425456333" lon="15.07601090640674"><ele>116.14285714285715</ele><time>2026-03-22T11:15:01Z</time></trkpt><trkpt lat="36.89057232148469" lon="15.076029708512811"><ele>115.71428571428572</ele><time>2026-03-22T11:15:02Z</time></trkpt><trkpt lat="36.89049773288854" lon="15.076046001775737"><ele>115.28571428571428</ele><time>2026-03-22T11:15:03Z</time></trkpt><trkpt lat="36.890423583423136" lon="15.076062199133528"><ele>114.85714285714285</ele><time>2026-03-22T11:15:04Z</time></trkpt><trkpt lat="36.89035521903503" lon="15.07607817460127"><ele>114.42857142857142</ele><time>2026-03-22T11:15:05Z</time></trkpt><trkpt lat="36.89029069397484" lon="15.076093876217584"><ele>114.0</ele><time>2026-03-22T11:15:06Z</time></trkpt><trkpt lat="36.890220228589" lon="15.076111134190127"><ele>114.0</ele><time>2026-03-22T11:15:07Z</time></trkpt><trkpt lat="36.890149946193134" lon="15.07612891930025"><ele>113.99999999999999</ele><time>2026-03-22T11:15:08Z</time></trkpt><trkpt lat="36.8900805499254" lon="15.076146480170351"><ele>114.0</ele><time>2026-03-22T11:15:09Z</time></trkpt><trkpt lat="36.890000044652346" lon="15.076167972300869"><ele>114.0</ele><time>2026-03-22T11:15:10Z</time></trkpt><trkpt lat="36.88993557253925" lon="15.076185697666588"><ele>113.99999999999999</ele><time>2026-03-22T11:15:11Z</time></trkpt><trkpt lat="36.88985349969219" lon="15.076210686222451"><ele>114.0</ele><time>2026-03-22T11:15:12Z</time></trkpt><trkpt lat="36.889785730475985" lon="15.076231140694935"><ele>114.0</ele><time>2026-03-22T11:15:13Z</time></trkpt><trkpt lat="36.88971646072748" lon="15.076252048048499"><ele>113.33333333333333</ele><time>2026-03-22T11:15:14Z</time></trkpt><trkpt lat="36.88963996943146" lon="15.076329055401507"><ele>112.66666666666666</ele><time>2026-03-22T11:15:15Z</time></trkpt><trkpt lat="36.88956254235018" lon="15.076361396903117"><ele>112.0</ele><time>2026-03-22T11:15:16Z</time></trkpt><trkpt lat="36.88947340786369" lon="15.07639008956685"><ele>111.33333333333333</ele><time>2026-03-22T11:15:17Z</time></trkpt><trkpt lat="36.889386062979504" lon="15.076409755566578"><ele>110.66666666666666</ele><time>2026-03-22T11:15:18Z</time></trkpt><trkpt lat="36.88930097266569" lon="15.076411779691073"><ele>110.0</ele><time>2026-03-22T11:15:19Z</time></trkpt><trkpt lat="36.88922384115252" lon="15.076362108855177"><ele>109.33333333333333</ele><time>2026-03-22T11:15:20Z</time></trkpt><trkpt lat="36.88915165881036" lon="15.076359454896716"><ele>108.66666666666666</ele><time>2026-03-22T11:15:21Z</time></trkpt><trkpt lat="36.889086327748295" lon="15.076349576885107"><ele>108.0</ele><time>2026-03-22T11:15:22Z</time></trkpt><trkpt lat="36.889009787994155" lon="15.076352568864339"><ele>107.33333333333334</ele><time>2026-03-22T11:15:23Z</time></trkpt><trkpt lat="36.888934845656145" lon="15.076325568100565"><ele>106.66666666666667</ele><time>2026-03-22T11:15:24Z</time></trkpt><trkpt lat="36.888849121066535" lon="15.076278543106461"><ele>106.0</ele><time>2026-03-22T11:15:25Z</time></trkpt><trkpt lat="36.88878695499154" lon="15.076216412877692"><ele>106.0</ele><time>2026-03-22T11:15:26Z</time></trkpt><trkpt lat="36.8887452281226" lon="15.076142716574996"><ele>106.0</ele><time>2026-03-22T11:15:27Z</time></trkpt><trkpt lat="36.88874213003202" lon="15.076019806931493"><ele>106.0</ele><time>2026-03-22T11:15:28Z</time></trkpt><trkpt lat="36.888756000889295" lon="15.075902337475355"><ele>106.0</ele><time>2026-03-22T11:15:29Z</time></trkpt><trkpt lat="36.888790987081386" lon="15.075785206639477"><ele>106.0</ele><time>2026-03-22T11:15:30Z</time></trkpt><trkpt lat="36.88881718513729" lon="15.075644486825531"><ele>106.25</ele><time>2026-03-22T11:15:31Z</time></trkpt><trkpt lat="36.888859783748764" lon="15.075496908608056"><ele>106.5</ele><time>2026-03-22T11:15:32Z</time></trkpt><trkpt lat="36.88890078590379" lon="15.075354861204898"><ele>106.75</ele><time>2026-03-22T11:15:33Z</time></trkpt><trkpt lat="36.8889427729947" lon="15.075209401594174"><ele>107.0</ele><time>2026-03-22T11:15:34Z</time></trkpt><trkpt lat="36.88898423724495" lon="15.075064213182818"><ele>106.66666666666666</ele><time>2026-03-22T11:15:35Z</time></trkpt><trkpt lat="36.88901919447065" lon="15.074934371617664"><ele>106.33333333333333</ele><time>2026-03-22T11:15:36Z</time></trkpt><trkpt lat="36.889004435694254" lon="15.0748292224222"><ele>106.0</ele><time>2026-03-22T11:15:38Z</time></trkpt><trkpt lat="36.888937801716516" lon="15.074779663190077"><ele>105.66666666666666</ele><time>2026-03-22T11:15:40Z</time></trkpt><trkpt lat="36.888861668952345" lon="15.07474303527437"><ele>105.33333333333333</ele><time>2026-03-22T11:15:43Z</time></trkpt><trkpt lat="36.88878984295054" lon="15.074704316504507"><ele>105.0</ele><time>2026-03-22T11:15:44Z</time></trkpt><trkpt lat="36.888681659731176" lon="15.074658507251359"><ele>105.0</ele><time>2026-03-22T11:15:46Z</time></trkpt><trkpt lat="36.88858161782093" lon="15.074606841751647"><ele>105.0</ele><time>2026-03-22T11:15:48Z</time></trkpt><trkpt lat="36.88847672543657" lon="15.07455561780401"><ele>105.0</ele><time>2026-03-22T11:15:50Z</time></trkpt><trkpt lat="36.88837436408634" lon="15.074512203276939"><ele>105.0</ele><time>2026-03-22T11:15:52Z</time></trkpt><trkpt lat="36.88830010021205" lon="15.074490190047163"><ele>105.0</ele><time>2026-03-22T11:15:54Z</time></trkpt><trkpt lat="36.88823950240937" lon="15.074461709365803"><ele>105.0</ele><time>2026-03-22T11:15:56Z</time></trkpt><trkpt lat="36.88816176389461" lon="15.074412078442842"><ele>105.0</ele><time>2026-03-22T11:15:58Z</time></trkpt><trkpt lat="36.888055119479894" lon="15.074363709551577"><ele>105.0</ele><time>2026-03-22T11:16:00Z</time></trkpt><trkpt lat="36.88795183584225" lon="15.074312296280617"><ele>105.0</ele><time>2026-03-22T11:16:02Z</time></trkpt><trkpt lat="36.88783025564314" lon="15.074259977361"><ele>105.0</ele><time>2026-03-22T11:16:04Z</time></trkpt><trkpt lat="36.88776915853957" lon="15.074233345533141"><ele>105.0</ele><time>2026-03-22T11:16:05Z</time></trkpt><trkpt lat="36.88770857530116" lon="15.074209762335075"><ele>105.0</ele><time>2026-03-22T11:16:06Z</time></trkpt><trkpt lat="36.887596125375936" lon="15.074174432256799"><ele>105.0</ele><time>2026-03-22T11:16:08Z</time></trkpt><trkpt lat="36.88751937837509" lon="15.074141694184265"><ele>105.0</ele><time>2026-03-22T11:16:09Z</time></trkpt><trkpt lat="36.88745090304899" lon="15.074124869571287"><ele>105.0</ele><time>2026-03-22T11:16:10Z</time></trkpt><trkpt lat="36.88734971503384" lon="15.074133031634895"><ele>105.0</ele><time>2026-03-22T11:16:12Z</time></trkpt><trkpt lat="36.88722050323779" lon="15.074245139710394"><ele>104.14285714285714</ele><time>2026-03-22T11:16:14Z</time></trkpt><trkpt lat="36.887163066388446" lon="15.074305235975565"><ele>103.28571428571428</ele><time>2026-03-22T11:16:15Z</time></trkpt><trkpt lat="36.88711485176191" lon="15.074381771057148"><ele>102.42857142857143</ele><time>2026-03-22T11:16:16Z</time></trkpt><trkpt lat="36.887067831003186" lon="15.074434857922437"><ele>101.57142857142857</ele><time>2026-03-22T11:16:17Z</time></trkpt><trkpt lat="36.88700944751003" lon="15.074472177276995"><ele>100.71428571428571</ele><time>2026-03-22T11:16:18Z</time></trkpt><trkpt lat="36.88695996207192" lon="15.074524327493933"><ele>99.85714285714286</ele><time>2026-03-22T11:16:19Z</time></trkpt><trkpt lat="36.8868987356346" lon="15.074588355231363"><ele>99.0</ele><time>2026-03-22T11:16:21Z</time></trkpt><trkpt lat="36.88681915300946" lon="15.074670683958852"><ele>99.0</ele><time>2026-03-22T11:16:24Z</time></trkpt><trkpt lat="36.88676349545316" lon="15.074727839077568"><ele>99.0</ele><time>2026-03-22T11:16:26Z</time></trkpt><trkpt lat="36.88670821048226" lon="15.074784080662804"><ele>99.0</ele><time>2026-03-22T11:16:29Z</time></trkpt><trkpt lat="36.88661594352874" lon="15.074854272929253"><ele>99.0</ele><time>2026-03-22T11:16:31Z</time></trkpt><trkpt lat="36.886483896117" lon="15.074908910557765"><ele>99.0</ele><time>2026-03-22T11:16:33Z</time></trkpt><trkpt lat="36.88640937017593" lon="15.074929946103785"><ele>99.16666666666667</ele><time>2026-03-22T11:16:34Z</time></trkpt><trkpt lat="36.88634690311435" lon="15.074946662820125"><ele>99.33333333333334</ele><time>2026-03-22T11:16:35Z</time></trkpt><trkpt lat="36.886282210789695" lon="15.074963636161536"><ele>99.5</ele><time>2026-03-22T11:16:36Z</time></trkpt><trkpt lat="36.886202623466346" lon="15.074984517538171"><ele>99.66666666666667</ele><time>2026-03-22T11:16:38Z</time></trkpt><trkpt lat="36.88613098342205" lon="15.075003313783874"><ele>99.83333333333334</ele><time>2026-03-22T11:16:40Z</time></trkpt><trkpt lat="36.88603259331062" lon="15.075049242880104"><ele>100.0</ele><time>2026-03-22T11:16:42Z</time></trkpt><trkpt lat="36.8859000731156" lon="15.075080785412428"><ele>98.50000000000001</ele><time>2026-03-22T11:16:44Z</time></trkpt><trkpt lat="36.88583389439395" lon="15.075092572625483"><ele>97.0</ele><time>2026-03-22T11:16:45Z</time></trkpt><trkpt lat="36.88576956061747" lon="15.075119430884046"><ele>95.5</ele><time>2026-03-22T11:16:46Z</time></trkpt><trkpt lat="36.8856427358441" lon="15.075136220198189"><ele>94.0</ele><time>2026-03-22T11:16:48Z</time></trkpt><trkpt lat="36.88557183745666" lon="15.075155546290048"><ele>92.5</ele><time>2026-03-22T11:16:49Z</time></trkpt><trkpt lat="36.88549832158534" lon="15.075175585860025"><ele>91.0</ele><time>2026-03-22T11:16:50Z</time></trkpt><trkpt lat="36.88542247019648" lon="15.075196262079771"><ele>91.0</ele><time>2026-03-22T11:16:51Z</time></trkpt><trkpt lat="36.88533358664635" lon="15.07522049073981"><ele>91.0</ele><time>2026-03-22T11:16:52Z</time></trkpt><trkpt lat="36.88523816415137" lon="15.075246501808733"><ele>91.0</ele><time>2026-03-22T11:16:53Z</time></trkpt><trkpt lat="36.88516068071586" lon="15.075267622884748"><ele>91.0</ele><time>2026-03-22T11:16:54Z</time></trkpt><trkpt lat="36.88507272014175" lon="15.075291599927965"><ele>91.0</ele><time>2026-03-22T11:16:56Z</time></trkpt><trkpt lat="36.88502285012218" lon="15.075460379373085"><ele>90.66666666666666</ele><time>2026-03-22T11:16:58Z</time></trkpt><trkpt lat="36.884996504769354" lon="15.075546398450378"><ele>90.33333333333333</ele><time>2026-03-22T11:16:59Z</time></trkpt><trkpt lat="36.884965666771166" lon="15.075621504437366"><ele>90.0</ele><time>2026-03-22T11:17:00Z</time></trkpt><trkpt lat="36.884934515133" lon="15.075712830592355"><ele>89.66666666666667</ele><time>2026-03-22T11:17:01Z</time></trkpt><trkpt lat="36.884876885098606" lon="15.075817436846641"><ele>89.33333333333334</ele><time>2026-03-22T11:17:02Z</time></trkpt><trkpt lat="36.88484226025252" lon="15.075941024317792"><ele>89.0</ele><time>2026-03-22T11:17:03Z</time></trkpt><trkpt lat="36.88478305515674" lon="15.07607236500028"><ele>89.0</ele><time>2026-03-22T11:17:04Z</time></trkpt><trkpt lat="36.884733003095086" lon="15.07619838012174"><ele>89.0</ele><time>2026-03-22T11:17:05Z</time></trkpt><trkpt lat="36.884690533592185" lon="15.076312002110436"><ele>89.0</ele><time>2026-03-22T11:17:06Z</time></trkpt><trkpt lat="36.88465005563094" lon="15.076419623164814"><ele>89.0</ele><time>2026-03-22T11:17:07Z</time></trkpt><trkpt lat="36.88459746247772" lon="15.076535363726165"><ele>89.0</ele><time>2026-03-22T11:17:08Z</time></trkpt><trkpt lat="36.884557023114304" lon="15.076685691749846"><ele>90.0</ele><time>2026-03-22T11:17:09Z</time></trkpt><trkpt lat="36.88449244433841" lon="15.076840101627589"><ele>91.0</ele><time>2026-03-22T11:17:10Z</time></trkpt><trkpt lat="36.88443180467798" lon="15.076997113636176"><ele>92.0</ele><time>2026-03-22T11:17:11Z</time></trkpt><trkpt lat="36.88436194750912" lon="15.077124898460152"><ele>93.0</ele><time>2026-03-22T11:17:12Z</time></trkpt><trkpt lat="36.88431890108416" lon="15.077247584347296"><ele>93.0</ele><time>2026-03-22T11:17:13Z</time></trkpt><trkpt lat="36.88427235069101" lon="15.077334473548902"><ele>93.0</ele><time>2026-03-22T11:17:14Z</time></trkpt><trkpt lat="36.884256571756396" lon="15.077453051166511"><ele>93.0</ele><time>2026-03-22T11:17:16Z</time></trkpt><trkpt lat="36.88429325009829" lon="15.07754606365811"><ele>93.0</ele><time>2026-03-22T11:17:17Z</time></trkpt><trkpt lat="36.8842449998069" lon="15.077670688294816"><ele>93.0</ele><time>2026-03-22T11:17:18Z</time></trkpt><trkpt lat="36.884224555038905" lon="15.0777772570542"><ele>92.75</ele><time>2026-03-22T11:17:19Z</time></trkpt><trkpt lat="36.88419458128648" lon="15.077933495746906"><ele>92.5</ele><time>2026-03-22T11:17:20Z</time></trkpt><trkpt lat="36.88415690417673" lon="15.07811282875097"><ele>92.25</ele><time>2026-03-22T11:17:21Z</time></trkpt><trkpt lat="36.88413494929904" lon="15.078228415789116"><ele>92.0</ele><time>2026-03-22T11:17:22Z</time></trkpt><trkpt lat="36.884355955146845" lon="15.078418935340045"><ele>93.19999999999999</ele><time>2026-03-22T11:17:25Z</time></trkpt><trkpt lat="36.88444523418279" lon="15.078512441446783"><ele>94.4</ele><time>2026-03-22T11:17:26Z</time></trkpt><trkpt lat="36.88453005075484" lon="15.078596667695809"><ele>95.6</ele><time>2026-03-22T11:17:27Z</time></trkpt><trkpt lat="36.88459336597776" lon="15.078685823493242"><ele>96.80000000000001</ele><time>2026-03-22T11:17:28Z</time></trkpt><trkpt lat="36.88465485130757" lon="15.078752407302892"><ele>98.0</ele><time>2026-03-22T11:17:29Z</time></trkpt><trkpt lat="36.88471176022312" lon="15.078814211169218"><ele>98.0</ele><time>2026-03-22T11:17:30Z</time></trkpt><trkpt lat="36.884795189841384" lon="15.078904813823305"><ele>98.0</ele><time>2026-03-22T11:17:32Z</time></trkpt><trkpt lat="36.88487807534657" lon="15.07895670796397"><ele>98.0</ele><time>2026-03-22T11:17:34Z</time></trkpt><trkpt lat="36.88499762215228" lon="15.07894722565117"><ele>98.0</ele><time>2026-03-22T11:19:09.021Z</time></trkpt><trkpt lat="36.8850628527974" lon="15.078987664006677"><ele>98.0</ele><time>2026-03-22T11:28:45Z</time></trkpt><trkpt lat="36.8850628527974" lon="15.078987664006677"><ele>98.0</ele><time>2026-03-22T11:28:45Z</time></trkpt><trkpt lat="36.8850628527974" lon="15.078987664006677"><ele>98.0</ele><time>2026-03-22T11:28:45Z</time></trkpt><trkpt lat="36.8850628527974" lon="15.078987664006677"><ele>98.0</ele><time>2026-03-22T11:28:45Z</time></trkpt><trkpt lat="36.8850628527974" lon="15.078987664006677"><ele>98.0</ele><time>2026-03-22T11:28:45Z</time></trkpt><trkpt lat="36.8850628527974" lon="15.078987664006677"><ele>98.0</ele><time>2026-03-22T11:28:45Z</time></trkpt><trkpt lat="36.8850628527974" lon="15.078987664006677"><ele>98.0</ele><time>2026-03-22T11:28:45Z</time></trkpt></trkseg></trk></gpx>